<?xml version="1.0" encoding="UTF-8" standalone="no" ?>
<gpx xmlns="http://www.topografix.com/GPX/1/1" xmlns:xsi="http://www.w3.org/2001/XMLSchema-instance" xsi:schemaLocation="http://www.topografix.com/GPX/1/1 http://www.topografix.com/GPX/1/1/gpx.xsd" version="1.1" creator="VisuGPX - https://www.visugpx.com">
  <metadata>
    <name>Fumel Sauveterre 62-1250</name>
    <desc><![CDATA[De très belles forêts au-dessus du Château de Bonaguil, une très belle journée physique !]]></desc>
  </metadata>
  <trk>
    <name><![CDATA[Fumel Sauveterre 62-1250]]></name>
    <trkseg>
      <trkpt lat="44.49779" lon="0.97068">
        <ele>109.65</ele>
        <time>2020-03-07T10:31:12Z</time>
      </trkpt>
      <trkpt lat="44.49782" lon="0.97069">
        <ele>109.67</ele>
        <time>2020-03-07T10:32:28Z</time>
      </trkpt>
      <trkpt lat="44.49784" lon="0.97069">
        <ele>109.63</ele>
        <time>2020-03-07T10:33:26Z</time>
      </trkpt>
      <trkpt lat="44.49783" lon="0.97071">
        <ele>109.57</ele>
        <time>2020-03-07T10:34:25Z</time>
      </trkpt>
      <trkpt lat="44.49781" lon="0.97068">
        <ele>109.5</ele>
        <time>2020-03-07T10:35:39Z</time>
      </trkpt>
      <trkpt lat="44.49782" lon="0.97068">
        <ele>109.6</ele>
        <time>2020-03-07T10:36:59Z</time>
      </trkpt>
      <trkpt lat="44.49783" lon="0.97072">
        <ele>109.74</ele>
        <time>2020-03-07T10:38:06Z</time>
      </trkpt>
      <trkpt lat="44.49782" lon="0.97071">
        <ele>109.83</ele>
        <time>2020-03-07T10:39:06Z</time>
      </trkpt>
      <trkpt lat="44.49779" lon="0.9707">
        <ele>107.61</ele>
        <time>2020-03-07T10:39:54Z</time>
      </trkpt>
      <trkpt lat="44.49779" lon="0.97069">
        <ele>107.65</ele>
        <time>2020-03-07T10:41:17Z</time>
      </trkpt>
      <trkpt lat="44.49781" lon="0.97072">
        <ele>110.09</ele>
        <time>2020-03-07T10:42:34Z</time>
      </trkpt>
      <trkpt lat="44.49781" lon="0.97068">
        <ele>110.82</ele>
        <time>2020-03-07T10:43:40Z</time>
      </trkpt>
      <trkpt lat="44.4978" lon="0.97069">
        <ele>110.75</ele>
        <time>2020-03-07T10:44:48Z</time>
      </trkpt>
      <trkpt lat="44.4978" lon="0.97068">
        <ele>104.35</ele>
        <time>2020-03-07T10:45:51Z</time>
      </trkpt>
      <trkpt lat="44.4978" lon="0.97068">
        <ele>104.35</ele>
        <time>2020-03-07T10:45:52Z</time>
      </trkpt>
      <trkpt lat="44.4978" lon="0.97068">
        <ele>109.95</ele>
        <time>2020-03-07T10:45:53Z</time>
      </trkpt>
      <trkpt lat="44.4978" lon="0.97068">
        <ele>109.96</ele>
        <time>2020-03-07T10:45:54Z</time>
      </trkpt>
      <trkpt lat="44.4978" lon="0.97064">
        <ele>109.89</ele>
        <time>2020-03-07T10:46:14Z</time>
      </trkpt>
      <trkpt lat="44.49777" lon="0.97056">
        <ele>109.92</ele>
        <time>2020-03-07T10:46:29Z</time>
      </trkpt>
      <trkpt lat="44.49777" lon="0.97036">
        <ele>109.96</ele>
        <time>2020-03-07T10:46:45Z</time>
      </trkpt>
      <trkpt lat="44.49777" lon="0.97033">
        <ele>109.98</ele>
        <time>2020-03-07T10:46:47Z</time>
      </trkpt>
      <trkpt lat="44.49752" lon="0.97027">
        <ele>109.97</ele>
        <time>2020-03-07T10:46:57Z</time>
      </trkpt>
      <trkpt lat="44.49739" lon="0.97027">
        <ele>109.9</ele>
        <time>2020-03-07T10:47:07Z</time>
      </trkpt>
      <trkpt lat="44.49732" lon="0.97025">
        <ele>109.9</ele>
        <time>2020-03-07T10:47:18Z</time>
      </trkpt>
      <trkpt lat="44.49729" lon="0.9702">
        <ele>109.9</ele>
        <time>2020-03-07T10:47:44Z</time>
      </trkpt>
      <trkpt lat="44.49727" lon="0.97021">
        <ele>109.9</ele>
        <time>2020-03-07T10:47:45Z</time>
      </trkpt>
      <trkpt lat="44.49724" lon="0.97022">
        <ele>109.9</ele>
        <time>2020-03-07T10:47:46Z</time>
      </trkpt>
      <trkpt lat="44.49721" lon="0.97022">
        <ele>109.89</ele>
        <time>2020-03-07T10:47:47Z</time>
      </trkpt>
      <trkpt lat="44.49717" lon="0.97023">
        <ele>109.88</ele>
        <time>2020-03-07T10:47:48Z</time>
      </trkpt>
      <trkpt lat="44.49705" lon="0.97027">
        <ele>107.58</ele>
        <time>2020-03-07T10:47:51Z</time>
      </trkpt>
      <trkpt lat="44.49697" lon="0.9703">
        <ele>106.68</ele>
        <time>2020-03-07T10:47:53Z</time>
      </trkpt>
      <trkpt lat="44.49673" lon="0.97038">
        <ele>105.59</ele>
        <time>2020-03-07T10:48:01Z</time>
      </trkpt>
      <trkpt lat="44.49669" lon="0.97044">
        <ele>104.97</ele>
        <time>2020-03-07T10:48:16Z</time>
      </trkpt>
      <trkpt lat="44.49668" lon="0.97046">
        <ele>104.9</ele>
        <time>2020-03-07T10:48:35Z</time>
      </trkpt>
      <trkpt lat="44.49679" lon="0.97076">
        <ele>103.97</ele>
        <time>2020-03-07T10:48:47Z</time>
      </trkpt>
      <trkpt lat="44.4969" lon="0.97113">
        <ele>102.23</ele>
        <time>2020-03-07T10:48:58Z</time>
      </trkpt>
      <trkpt lat="44.49701" lon="0.97124">
        <ele>102.2</ele>
        <time>2020-03-07T10:49:04Z</time>
      </trkpt>
      <trkpt lat="44.4973" lon="0.97118">
        <ele>101.36</ele>
        <time>2020-03-07T10:49:16Z</time>
      </trkpt>
      <trkpt lat="44.49746" lon="0.97116">
        <ele>101.35</ele>
        <time>2020-03-07T10:49:23Z</time>
      </trkpt>
      <trkpt lat="44.49748" lon="0.97116">
        <ele>101.35</ele>
        <time>2020-03-07T10:49:24Z</time>
      </trkpt>
      <trkpt lat="44.4975" lon="0.97116">
        <ele>101.34</ele>
        <time>2020-03-07T10:49:25Z</time>
      </trkpt>
      <trkpt lat="44.49753" lon="0.97116">
        <ele>101.33</ele>
        <time>2020-03-07T10:49:26Z</time>
      </trkpt>
      <trkpt lat="44.49756" lon="0.97116">
        <ele>100.51</ele>
        <time>2020-03-07T10:49:27Z</time>
      </trkpt>
      <trkpt lat="44.49771" lon="0.97113">
        <ele>99.54</ele>
        <time>2020-03-07T10:49:31Z</time>
      </trkpt>
      <trkpt lat="44.49795" lon="0.9712">
        <ele>98.29</ele>
        <time>2020-03-07T10:49:38Z</time>
      </trkpt>
      <trkpt lat="44.49796" lon="0.97122">
        <ele>98.28</ele>
        <time>2020-03-07T10:49:39Z</time>
      </trkpt>
      <trkpt lat="44.49797" lon="0.97125">
        <ele>98.28</ele>
        <time>2020-03-07T10:49:40Z</time>
      </trkpt>
      <trkpt lat="44.498" lon="0.97132">
        <ele>95.15</ele>
        <time>2020-03-07T10:49:57Z</time>
      </trkpt>
      <trkpt lat="44.49798" lon="0.97132">
        <ele>95.13</ele>
        <time>2020-03-07T10:49:59Z</time>
      </trkpt>
      <trkpt lat="44.49794" lon="0.97132">
        <ele>94.29</ele>
        <time>2020-03-07T10:50:01Z</time>
      </trkpt>
      <trkpt lat="44.49792" lon="0.97133">
        <ele>93.48</ele>
        <time>2020-03-07T10:50:02Z</time>
      </trkpt>
      <trkpt lat="44.49789" lon="0.97134">
        <ele>93.47</ele>
        <time>2020-03-07T10:50:03Z</time>
      </trkpt>
      <trkpt lat="44.49787" lon="0.97136">
        <ele>92.45</ele>
        <time>2020-03-07T10:50:04Z</time>
      </trkpt>
      <trkpt lat="44.49759" lon="0.97142">
        <ele>88.57</ele>
        <time>2020-03-07T10:50:13Z</time>
      </trkpt>
      <trkpt lat="44.49743" lon="0.97148">
        <ele>86.16</ele>
        <time>2020-03-07T10:50:18Z</time>
      </trkpt>
      <trkpt lat="44.49722" lon="0.97154">
        <ele>83.22</ele>
        <time>2020-03-07T10:50:26Z</time>
      </trkpt>
      <trkpt lat="44.49701" lon="0.97157">
        <ele>82.46</ele>
        <time>2020-03-07T10:50:36Z</time>
      </trkpt>
      <trkpt lat="44.49701" lon="0.97156">
        <ele>82.45</ele>
        <time>2020-03-07T10:50:37Z</time>
      </trkpt>
      <trkpt lat="44.49709" lon="0.97159">
        <ele>81.73</ele>
        <time>2020-03-07T10:50:47Z</time>
      </trkpt>
      <trkpt lat="44.49714" lon="0.97173">
        <ele>79.94</ele>
        <time>2020-03-07T10:51:04Z</time>
      </trkpt>
      <trkpt lat="44.49713" lon="0.97183">
        <ele>77.31</ele>
        <time>2020-03-07T10:51:13Z</time>
      </trkpt>
      <trkpt lat="44.49699" lon="0.97182">
        <ele>76.38</ele>
        <time>2020-03-07T10:51:25Z</time>
      </trkpt>
      <trkpt lat="44.49702" lon="0.97185">
        <ele>74.73</ele>
        <time>2020-03-07T10:51:34Z</time>
      </trkpt>
      <trkpt lat="44.49699" lon="0.97193">
        <ele>72.18</ele>
        <time>2020-03-07T10:51:50Z</time>
      </trkpt>
      <trkpt lat="44.49698" lon="0.97199">
        <ele>70.5</ele>
        <time>2020-03-07T10:52:01Z</time>
      </trkpt>
      <trkpt lat="44.497" lon="0.97219">
        <ele>67.57</ele>
        <time>2020-03-07T10:52:08Z</time>
      </trkpt>
      <trkpt lat="44.49699" lon="0.97216">
        <ele>66.78</ele>
        <time>2020-03-07T10:52:12Z</time>
      </trkpt>
      <trkpt lat="44.49697" lon="0.97214">
        <ele>66.76</ele>
        <time>2020-03-07T10:52:13Z</time>
      </trkpt>
      <trkpt lat="44.49695" lon="0.97214">
        <ele>65.58</ele>
        <time>2020-03-07T10:52:15Z</time>
      </trkpt>
      <trkpt lat="44.49694" lon="0.97217">
        <ele>65.58</ele>
        <time>2020-03-07T10:52:16Z</time>
      </trkpt>
      <trkpt lat="44.49695" lon="0.9722">
        <ele>64.56</ele>
        <time>2020-03-07T10:52:17Z</time>
      </trkpt>
      <trkpt lat="44.49706" lon="0.97261">
        <ele>63.9</ele>
        <time>2020-03-07T10:52:30Z</time>
      </trkpt>
      <trkpt lat="44.49719" lon="0.97308">
        <ele>63.2</ele>
        <time>2020-03-07T10:52:43Z</time>
      </trkpt>
      <trkpt lat="44.49739" lon="0.97369">
        <ele>63.12</ele>
        <time>2020-03-07T10:52:57Z</time>
      </trkpt>
      <trkpt lat="44.49753" lon="0.97436">
        <ele>63.07</ele>
        <time>2020-03-07T10:53:11Z</time>
      </trkpt>
      <trkpt lat="44.49769" lon="0.97502">
        <ele>63.05</ele>
        <time>2020-03-07T10:53:25Z</time>
      </trkpt>
      <trkpt lat="44.4978" lon="0.97548">
        <ele>63.04</ele>
        <time>2020-03-07T10:53:34Z</time>
      </trkpt>
      <trkpt lat="44.49782" lon="0.97553">
        <ele>63.04</ele>
        <time>2020-03-07T10:53:35Z</time>
      </trkpt>
      <trkpt lat="44.49783" lon="0.97559">
        <ele>63.03</ele>
        <time>2020-03-07T10:53:36Z</time>
      </trkpt>
      <trkpt lat="44.49784" lon="0.97564">
        <ele>63.04</ele>
        <time>2020-03-07T10:53:37Z</time>
      </trkpt>
      <trkpt lat="44.49785" lon="0.97569">
        <ele>63.04</ele>
        <time>2020-03-07T10:53:38Z</time>
      </trkpt>
      <trkpt lat="44.49787" lon="0.97574">
        <ele>62.25</ele>
        <time>2020-03-07T10:53:39Z</time>
      </trkpt>
      <trkpt lat="44.49788" lon="0.97579">
        <ele>62.26</ele>
        <time>2020-03-07T10:53:40Z</time>
      </trkpt>
      <trkpt lat="44.49789" lon="0.97584">
        <ele>62.25</ele>
        <time>2020-03-07T10:53:41Z</time>
      </trkpt>
      <trkpt lat="44.49806" lon="0.97641">
        <ele>62.3</ele>
        <time>2020-03-07T10:53:53Z</time>
      </trkpt>
      <trkpt lat="44.49816" lon="0.97685">
        <ele>54.97</ele>
        <time>2020-03-07T10:54:01Z</time>
      </trkpt>
      <trkpt lat="44.49817" lon="0.9769">
        <ele>60.2</ele>
        <time>2020-03-07T10:54:02Z</time>
      </trkpt>
      <trkpt lat="44.49819" lon="0.977">
        <ele>62.8</ele>
        <time>2020-03-07T10:54:04Z</time>
      </trkpt>
      <trkpt lat="44.4983" lon="0.97754">
        <ele>62.8</ele>
        <time>2020-03-07T10:54:15Z</time>
      </trkpt>
      <trkpt lat="44.49836" lon="0.97814">
        <ele>62.83</ele>
        <time>2020-03-07T10:54:27Z</time>
      </trkpt>
      <trkpt lat="44.49844" lon="0.97891">
        <ele>62.84</ele>
        <time>2020-03-07T10:54:42Z</time>
      </trkpt>
      <trkpt lat="44.49848" lon="0.97953">
        <ele>62.86</ele>
        <time>2020-03-07T10:54:54Z</time>
      </trkpt>
      <trkpt lat="44.49848" lon="0.98007">
        <ele>62.86</ele>
        <time>2020-03-07T10:55:04Z</time>
      </trkpt>
      <trkpt lat="44.49851" lon="0.98051">
        <ele>62.87</ele>
        <time>2020-03-07T10:55:12Z</time>
      </trkpt>
      <trkpt lat="44.49851" lon="0.98057">
        <ele>62.87</ele>
        <time>2020-03-07T10:55:13Z</time>
      </trkpt>
      <trkpt lat="44.49845" lon="0.98112">
        <ele>62.89</ele>
        <time>2020-03-07T10:55:23Z</time>
      </trkpt>
      <trkpt lat="44.49845" lon="0.98117">
        <ele>62.89</ele>
        <time>2020-03-07T10:55:24Z</time>
      </trkpt>
      <trkpt lat="44.49846" lon="0.98122">
        <ele>62.89</ele>
        <time>2020-03-07T10:55:25Z</time>
      </trkpt>
      <trkpt lat="44.49845" lon="0.98126">
        <ele>62.9</ele>
        <time>2020-03-07T10:55:26Z</time>
      </trkpt>
      <trkpt lat="44.49844" lon="0.9813">
        <ele>62.9</ele>
        <time>2020-03-07T10:55:27Z</time>
      </trkpt>
      <trkpt lat="44.49843" lon="0.98132">
        <ele>62.91</ele>
        <time>2020-03-07T10:55:28Z</time>
      </trkpt>
      <trkpt lat="44.49842" lon="0.98134">
        <ele>62.91</ele>
        <time>2020-03-07T10:55:29Z</time>
      </trkpt>
      <trkpt lat="44.49839" lon="0.98136">
        <ele>62.92</ele>
        <time>2020-03-07T10:55:42Z</time>
      </trkpt>
      <trkpt lat="44.49835" lon="0.98155">
        <ele>63.06</ele>
        <time>2020-03-07T10:56:20Z</time>
      </trkpt>
      <trkpt lat="44.49822" lon="0.98198">
        <ele>63.06</ele>
        <time>2020-03-07T10:56:31Z</time>
      </trkpt>
      <trkpt lat="44.49798" lon="0.98284">
        <ele>63.15</ele>
        <time>2020-03-07T10:56:50Z</time>
      </trkpt>
      <trkpt lat="44.49776" lon="0.98366">
        <ele>63.21</ele>
        <time>2020-03-07T10:57:09Z</time>
      </trkpt>
      <trkpt lat="44.49775" lon="0.98369">
        <ele>64.1</ele>
        <time>2020-03-07T10:57:10Z</time>
      </trkpt>
      <trkpt lat="44.49774" lon="0.98371">
        <ele>64.12</ele>
        <time>2020-03-07T10:57:11Z</time>
      </trkpt>
      <trkpt lat="44.49774" lon="0.98375">
        <ele>64.11</ele>
        <time>2020-03-07T10:57:12Z</time>
      </trkpt>
      <trkpt lat="44.49773" lon="0.98378">
        <ele>64.11</ele>
        <time>2020-03-07T10:57:13Z</time>
      </trkpt>
      <trkpt lat="44.49772" lon="0.98382">
        <ele>64.1</ele>
        <time>2020-03-07T10:57:14Z</time>
      </trkpt>
      <trkpt lat="44.49754" lon="0.98433">
        <ele>64.04</ele>
        <time>2020-03-07T10:57:26Z</time>
      </trkpt>
      <trkpt lat="44.4974" lon="0.98492">
        <ele>63.98</ele>
        <time>2020-03-07T10:57:39Z</time>
      </trkpt>
      <trkpt lat="44.49723" lon="0.98575">
        <ele>64.73</ele>
        <time>2020-03-07T10:57:56Z</time>
      </trkpt>
      <trkpt lat="44.49713" lon="0.9865">
        <ele>65.42</ele>
        <time>2020-03-07T10:58:12Z</time>
      </trkpt>
      <trkpt lat="44.49708" lon="0.98685">
        <ele>65.41</ele>
        <time>2020-03-07T10:58:24Z</time>
      </trkpt>
      <trkpt lat="44.49701" lon="0.98746">
        <ele>65.3</ele>
        <time>2020-03-07T10:58:37Z</time>
      </trkpt>
      <trkpt lat="44.49695" lon="0.98773">
        <ele>62.59</ele>
        <time>2020-03-07T10:58:42Z</time>
      </trkpt>
      <trkpt lat="44.49691" lon="0.98783">
        <ele>61.78</ele>
        <time>2020-03-07T10:58:49Z</time>
      </trkpt>
      <trkpt lat="44.49689" lon="0.98784">
        <ele>61.81</ele>
        <time>2020-03-07T10:58:50Z</time>
      </trkpt>
      <trkpt lat="44.49687" lon="0.98784">
        <ele>61.8</ele>
        <time>2020-03-07T10:58:51Z</time>
      </trkpt>
      <trkpt lat="44.49685" lon="0.98785">
        <ele>61.81</ele>
        <time>2020-03-07T10:58:52Z</time>
      </trkpt>
      <trkpt lat="44.49683" lon="0.98785">
        <ele>61.81</ele>
        <time>2020-03-07T10:58:53Z</time>
      </trkpt>
      <trkpt lat="44.49681" lon="0.98785">
        <ele>61.83</ele>
        <time>2020-03-07T10:58:54Z</time>
      </trkpt>
      <trkpt lat="44.49678" lon="0.98785">
        <ele>61.84</ele>
        <time>2020-03-07T10:58:55Z</time>
      </trkpt>
      <trkpt lat="44.49676" lon="0.98783">
        <ele>61.83</ele>
        <time>2020-03-07T10:58:56Z</time>
      </trkpt>
      <trkpt lat="44.49673" lon="0.98782">
        <ele>61.06</ele>
        <time>2020-03-07T10:58:57Z</time>
      </trkpt>
      <trkpt lat="44.49635" lon="0.98747">
        <ele>58.04</ele>
        <time>2020-03-07T10:59:10Z</time>
      </trkpt>
      <trkpt lat="44.49633" lon="0.98742">
        <ele>58.02</ele>
        <time>2020-03-07T10:59:11Z</time>
      </trkpt>
      <trkpt lat="44.49631" lon="0.98738">
        <ele>58.03</ele>
        <time>2020-03-07T10:59:12Z</time>
      </trkpt>
      <trkpt lat="44.49628" lon="0.98736">
        <ele>57.19</ele>
        <time>2020-03-07T10:59:13Z</time>
      </trkpt>
      <trkpt lat="44.49627" lon="0.98736">
        <ele>57.21</ele>
        <time>2020-03-07T10:59:14Z</time>
      </trkpt>
      <trkpt lat="44.49625" lon="0.98736">
        <ele>57.33</ele>
        <time>2020-03-07T10:59:29Z</time>
      </trkpt>
      <trkpt lat="44.49625" lon="0.98732">
        <ele>56.32</ele>
        <time>2020-03-07T10:59:45Z</time>
      </trkpt>
      <trkpt lat="44.49624" lon="0.9873">
        <ele>56.32</ele>
        <time>2020-03-07T10:59:46Z</time>
      </trkpt>
      <trkpt lat="44.49622" lon="0.98727">
        <ele>56.32</ele>
        <time>2020-03-07T10:59:47Z</time>
      </trkpt>
      <trkpt lat="44.49608" lon="0.98693">
        <ele>54.48</ele>
        <time>2020-03-07T10:59:58Z</time>
      </trkpt>
      <trkpt lat="44.49614" lon="0.98669">
        <ele>54.55</ele>
        <time>2020-03-07T11:00:10Z</time>
      </trkpt>
      <trkpt lat="44.49616" lon="0.98669">
        <ele>54.6</ele>
        <time>2020-03-07T11:00:31Z</time>
      </trkpt>
      <trkpt lat="44.4961" lon="0.98705">
        <ele>54.6</ele>
        <time>2020-03-07T11:00:42Z</time>
      </trkpt>
      <trkpt lat="44.49621" lon="0.98722">
        <ele>55.87</ele>
        <time>2020-03-07T11:00:49Z</time>
      </trkpt>
      <trkpt lat="44.49636" lon="0.98756">
        <ele>56.67</ele>
        <time>2020-03-07T11:01:00Z</time>
      </trkpt>
      <trkpt lat="44.49645" lon="0.98775">
        <ele>57.63</ele>
        <time>2020-03-07T11:01:07Z</time>
      </trkpt>
      <trkpt lat="44.49639" lon="0.98822">
        <ele>58.41</ele>
        <time>2020-03-07T11:01:22Z</time>
      </trkpt>
      <trkpt lat="44.49648" lon="0.98835">
        <ele>59.17</ele>
        <time>2020-03-07T11:01:29Z</time>
      </trkpt>
      <trkpt lat="44.49664" lon="0.98854">
        <ele>59.15</ele>
        <time>2020-03-07T11:01:38Z</time>
      </trkpt>
      <trkpt lat="44.49672" lon="0.98864">
        <ele>59.1</ele>
        <time>2020-03-07T11:01:43Z</time>
      </trkpt>
      <trkpt lat="44.49686" lon="0.98871">
        <ele>59.85</ele>
        <time>2020-03-07T11:01:57Z</time>
      </trkpt>
      <trkpt lat="44.49711" lon="0.98868">
        <ele>59.86</ele>
        <time>2020-03-07T11:02:07Z</time>
      </trkpt>
      <trkpt lat="44.49724" lon="0.98872">
        <ele>56.47</ele>
        <time>2020-03-07T11:02:12Z</time>
      </trkpt>
      <trkpt lat="44.49727" lon="0.98874">
        <ele>60.19</ele>
        <time>2020-03-07T11:02:13Z</time>
      </trkpt>
      <trkpt lat="44.49733" lon="0.98875">
        <ele>53.23</ele>
        <time>2020-03-07T11:02:16Z</time>
      </trkpt>
      <trkpt lat="44.49735" lon="0.98875">
        <ele>60.22</ele>
        <time>2020-03-07T11:02:17Z</time>
      </trkpt>
      <trkpt lat="44.49739" lon="0.98876">
        <ele>61.18</ele>
        <time>2020-03-07T11:02:19Z</time>
      </trkpt>
      <trkpt lat="44.49748" lon="0.98868">
        <ele>62.04</ele>
        <time>2020-03-07T11:02:24Z</time>
      </trkpt>
      <trkpt lat="44.49761" lon="0.98845">
        <ele>62.06</ele>
        <time>2020-03-07T11:02:32Z</time>
      </trkpt>
      <trkpt lat="44.49764" lon="0.98845">
        <ele>62.06</ele>
        <time>2020-03-07T11:02:33Z</time>
      </trkpt>
      <trkpt lat="44.49766" lon="0.98846">
        <ele>62.06</ele>
        <time>2020-03-07T11:02:34Z</time>
      </trkpt>
      <trkpt lat="44.49768" lon="0.98849">
        <ele>62.07</ele>
        <time>2020-03-07T11:02:35Z</time>
      </trkpt>
      <trkpt lat="44.49769" lon="0.98851">
        <ele>62.06</ele>
        <time>2020-03-07T11:02:36Z</time>
      </trkpt>
      <trkpt lat="44.49799" lon="0.9888">
        <ele>63.68</ele>
        <time>2020-03-07T11:02:49Z</time>
      </trkpt>
      <trkpt lat="44.49832" lon="0.98896">
        <ele>63.61</ele>
        <time>2020-03-07T11:03:01Z</time>
      </trkpt>
      <trkpt lat="44.49872" lon="0.98921">
        <ele>63.63</ele>
        <time>2020-03-07T11:03:14Z</time>
      </trkpt>
      <trkpt lat="44.49908" lon="0.98944">
        <ele>64.52</ele>
        <time>2020-03-07T11:03:26Z</time>
      </trkpt>
      <trkpt lat="44.49918" lon="0.98951">
        <ele>64.52</ele>
        <time>2020-03-07T11:03:29Z</time>
      </trkpt>
      <trkpt lat="44.49919" lon="0.98955">
        <ele>64.51</ele>
        <time>2020-03-07T11:03:30Z</time>
      </trkpt>
      <trkpt lat="44.4992" lon="0.98961">
        <ele>64.5</ele>
        <time>2020-03-07T11:03:31Z</time>
      </trkpt>
      <trkpt lat="44.49922" lon="0.99032">
        <ele>64.47</ele>
        <time>2020-03-07T11:03:45Z</time>
      </trkpt>
      <trkpt lat="44.49931" lon="0.99124">
        <ele>64.48</ele>
        <time>2020-03-07T11:04:04Z</time>
      </trkpt>
      <trkpt lat="44.49939" lon="0.99211">
        <ele>67.24</ele>
        <time>2020-03-07T11:04:24Z</time>
      </trkpt>
      <trkpt lat="44.49948" lon="0.99298">
        <ele>69.76</ele>
        <time>2020-03-07T11:04:46Z</time>
      </trkpt>
      <trkpt lat="44.49973" lon="0.99317">
        <ele>71.58</ele>
        <time>2020-03-07T11:04:57Z</time>
      </trkpt>
      <trkpt lat="44.50017" lon="0.99352">
        <ele>73.17</ele>
        <time>2020-03-07T11:05:15Z</time>
      </trkpt>
      <trkpt lat="44.50026" lon="0.99367">
        <ele>73.98</ele>
        <time>2020-03-07T11:05:21Z</time>
      </trkpt>
      <trkpt lat="44.50029" lon="0.9937">
        <ele>73.96</ele>
        <time>2020-03-07T11:05:22Z</time>
      </trkpt>
      <trkpt lat="44.50041" lon="0.99391">
        <ele>73.96</ele>
        <time>2020-03-07T11:05:26Z</time>
      </trkpt>
      <trkpt lat="44.5005" lon="0.99414">
        <ele>73.94</ele>
        <time>2020-03-07T11:05:29Z</time>
      </trkpt>
      <trkpt lat="44.50053" lon="0.99423">
        <ele>73.94</ele>
        <time>2020-03-07T11:05:30Z</time>
      </trkpt>
      <trkpt lat="44.50057" lon="0.9944">
        <ele>71.44</ele>
        <time>2020-03-07T11:05:32Z</time>
      </trkpt>
      <trkpt lat="44.50059" lon="0.99448">
        <ele>71.38</ele>
        <time>2020-03-07T11:05:33Z</time>
      </trkpt>
      <trkpt lat="44.50072" lon="0.99521">
        <ele>69.76</ele>
        <time>2020-03-07T11:05:44Z</time>
      </trkpt>
      <trkpt lat="44.50084" lon="0.99552">
        <ele>69.81</ele>
        <time>2020-03-07T11:05:53Z</time>
      </trkpt>
      <trkpt lat="44.50102" lon="0.99594">
        <ele>68.79</ele>
        <time>2020-03-07T11:06:03Z</time>
      </trkpt>
      <trkpt lat="44.50121" lon="0.99633">
        <ele>68.61</ele>
        <time>2020-03-07T11:06:14Z</time>
      </trkpt>
      <trkpt lat="44.50143" lon="0.99679">
        <ele>68.43</ele>
        <time>2020-03-07T11:06:27Z</time>
      </trkpt>
      <trkpt lat="44.50157" lon="0.99702">
        <ele>70.67</ele>
        <time>2020-03-07T11:06:35Z</time>
      </trkpt>
      <trkpt lat="44.50183" lon="0.99735">
        <ele>72.14</ele>
        <time>2020-03-07T11:06:50Z</time>
      </trkpt>
      <trkpt lat="44.50205" lon="0.99758">
        <ele>72.79</ele>
        <time>2020-03-07T11:06:59Z</time>
      </trkpt>
      <trkpt lat="44.50247" lon="0.99795">
        <ele>70.14</ele>
        <time>2020-03-07T11:07:09Z</time>
      </trkpt>
      <trkpt lat="44.50276" lon="0.99816">
        <ele>70.13</ele>
        <time>2020-03-07T11:07:21Z</time>
      </trkpt>
      <trkpt lat="44.50305" lon="0.99838">
        <ele>70.1</ele>
        <time>2020-03-07T11:07:34Z</time>
      </trkpt>
      <trkpt lat="44.50322" lon="0.99848">
        <ele>70.06</ele>
        <time>2020-03-07T11:07:39Z</time>
      </trkpt>
      <trkpt lat="44.50326" lon="0.99849">
        <ele>70.05</ele>
        <time>2020-03-07T11:07:40Z</time>
      </trkpt>
      <trkpt lat="44.50331" lon="0.99851">
        <ele>70.05</ele>
        <time>2020-03-07T11:07:41Z</time>
      </trkpt>
      <trkpt lat="44.50335" lon="0.99852">
        <ele>70.04</ele>
        <time>2020-03-07T11:07:42Z</time>
      </trkpt>
      <trkpt lat="44.50339" lon="0.99853">
        <ele>70.04</ele>
        <time>2020-03-07T11:07:43Z</time>
      </trkpt>
      <trkpt lat="44.50383" lon="0.99856">
        <ele>69.96</ele>
        <time>2020-03-07T11:07:56Z</time>
      </trkpt>
      <trkpt lat="44.50409" lon="0.9985">
        <ele>70.04</ele>
        <time>2020-03-07T11:08:05Z</time>
      </trkpt>
      <trkpt lat="44.50437" lon="0.99848">
        <ele>70.07</ele>
        <time>2020-03-07T11:08:16Z</time>
      </trkpt>
      <trkpt lat="44.50439" lon="0.99848">
        <ele>70.07</ele>
        <time>2020-03-07T11:08:17Z</time>
      </trkpt>
      <trkpt lat="44.50441" lon="0.99849">
        <ele>70.08</ele>
        <time>2020-03-07T11:08:18Z</time>
      </trkpt>
      <trkpt lat="44.50444" lon="0.99849">
        <ele>70.08</ele>
        <time>2020-03-07T11:08:19Z</time>
      </trkpt>
      <trkpt lat="44.50457" lon="0.99853">
        <ele>72.42</ele>
        <time>2020-03-07T11:08:25Z</time>
      </trkpt>
      <trkpt lat="44.50485" lon="0.99863">
        <ele>75.23</ele>
        <time>2020-03-07T11:08:40Z</time>
      </trkpt>
      <trkpt lat="44.50508" lon="0.99896">
        <ele>78.94</ele>
        <time>2020-03-07T11:08:56Z</time>
      </trkpt>
      <trkpt lat="44.50523" lon="0.99926">
        <ele>81.82</ele>
        <time>2020-03-07T11:09:10Z</time>
      </trkpt>
      <trkpt lat="44.50546" lon="0.99962">
        <ele>84.47</ele>
        <time>2020-03-07T11:09:29Z</time>
      </trkpt>
      <trkpt lat="44.50578" lon="0.99987">
        <ele>85.21</ele>
        <time>2020-03-07T11:09:47Z</time>
      </trkpt>
      <trkpt lat="44.50615" lon="1.00008">
        <ele>85.21</ele>
        <time>2020-03-07T11:10:03Z</time>
      </trkpt>
      <trkpt lat="44.5066" lon="1.0004">
        <ele>85.18</ele>
        <time>2020-03-07T11:10:17Z</time>
      </trkpt>
      <trkpt lat="44.50666" lon="1.00048">
        <ele>85.19</ele>
        <time>2020-03-07T11:10:19Z</time>
      </trkpt>
      <trkpt lat="44.50669" lon="1.00053">
        <ele>85.17</ele>
        <time>2020-03-07T11:10:20Z</time>
      </trkpt>
      <trkpt lat="44.5067" lon="1.00059">
        <ele>82.89</ele>
        <time>2020-03-07T11:10:21Z</time>
      </trkpt>
      <trkpt lat="44.50671" lon="1.00067">
        <ele>82.89</ele>
        <time>2020-03-07T11:10:22Z</time>
      </trkpt>
      <trkpt lat="44.50673" lon="1.00075">
        <ele>82.07</ele>
        <time>2020-03-07T11:10:23Z</time>
      </trkpt>
      <trkpt lat="44.50675" lon="1.00083">
        <ele>82.08</ele>
        <time>2020-03-07T11:10:24Z</time>
      </trkpt>
      <trkpt lat="44.50677" lon="1.00093">
        <ele>81.05</ele>
        <time>2020-03-07T11:10:25Z</time>
      </trkpt>
      <trkpt lat="44.50679" lon="1.00102">
        <ele>81.05</ele>
        <time>2020-03-07T11:10:26Z</time>
      </trkpt>
      <trkpt lat="44.50684" lon="1.00121">
        <ele>79.79</ele>
        <time>2020-03-07T11:10:28Z</time>
      </trkpt>
      <trkpt lat="44.50688" lon="1.00141">
        <ele>78.49</ele>
        <time>2020-03-07T11:10:30Z</time>
      </trkpt>
      <trkpt lat="44.50703" lon="1.00211">
        <ele>75.55</ele>
        <time>2020-03-07T11:10:38Z</time>
      </trkpt>
      <trkpt lat="44.50706" lon="1.00217">
        <ele>75.5</ele>
        <time>2020-03-07T11:10:39Z</time>
      </trkpt>
      <trkpt lat="44.50708" lon="1.00222">
        <ele>75.52</ele>
        <time>2020-03-07T11:10:40Z</time>
      </trkpt>
      <trkpt lat="44.5071" lon="1.00226">
        <ele>75.55</ele>
        <time>2020-03-07T11:10:41Z</time>
      </trkpt>
      <trkpt lat="44.50712" lon="1.0023">
        <ele>75.55</ele>
        <time>2020-03-07T11:10:42Z</time>
      </trkpt>
      <trkpt lat="44.50713" lon="1.00233">
        <ele>75.57</ele>
        <time>2020-03-07T11:10:43Z</time>
      </trkpt>
      <trkpt lat="44.50728" lon="1.00267">
        <ele>75.69</ele>
        <time>2020-03-07T11:10:54Z</time>
      </trkpt>
      <trkpt lat="44.50741" lon="1.00295">
        <ele>75.55</ele>
        <time>2020-03-07T11:11:04Z</time>
      </trkpt>
      <trkpt lat="44.50742" lon="1.00298">
        <ele>75.54</ele>
        <time>2020-03-07T11:11:05Z</time>
      </trkpt>
      <trkpt lat="44.50779" lon="1.00349">
        <ele>74.62</ele>
        <time>2020-03-07T11:11:19Z</time>
      </trkpt>
      <trkpt lat="44.50817" lon="1.00394">
        <ele>73.77</ele>
        <time>2020-03-07T11:11:33Z</time>
      </trkpt>
      <trkpt lat="44.50843" lon="1.0043">
        <ele>76.13</ele>
        <time>2020-03-07T11:11:44Z</time>
      </trkpt>
      <trkpt lat="44.50873" lon="1.00472">
        <ele>77.55</ele>
        <time>2020-03-07T11:12:00Z</time>
      </trkpt>
      <trkpt lat="44.50877" lon="1.00478">
        <ele>77.45</ele>
        <time>2020-03-07T11:12:11Z</time>
      </trkpt>
      <trkpt lat="44.50878" lon="1.00479">
        <ele>77.35</ele>
        <time>2020-03-07T11:12:34Z</time>
      </trkpt>
      <trkpt lat="44.50879" lon="1.00478">
        <ele>75.03</ele>
        <time>2020-03-07T11:13:13Z</time>
      </trkpt>
      <trkpt lat="44.50883" lon="1.00483">
        <ele>75.05</ele>
        <time>2020-03-07T11:13:29Z</time>
      </trkpt>
      <trkpt lat="44.50884" lon="1.00485">
        <ele>75.05</ele>
        <time>2020-03-07T11:13:30Z</time>
      </trkpt>
      <trkpt lat="44.50884" lon="1.00488">
        <ele>75.05</ele>
        <time>2020-03-07T11:13:31Z</time>
      </trkpt>
      <trkpt lat="44.50884" lon="1.0049">
        <ele>75.05</ele>
        <time>2020-03-07T11:13:32Z</time>
      </trkpt>
      <trkpt lat="44.50884" lon="1.00493">
        <ele>75.05</ele>
        <time>2020-03-07T11:13:33Z</time>
      </trkpt>
      <trkpt lat="44.50885" lon="1.00495">
        <ele>75.06</ele>
        <time>2020-03-07T11:13:34Z</time>
      </trkpt>
      <trkpt lat="44.50885" lon="1.00498">
        <ele>75.06</ele>
        <time>2020-03-07T11:13:35Z</time>
      </trkpt>
      <trkpt lat="44.50886" lon="1.005">
        <ele>75.07</ele>
        <time>2020-03-07T11:13:36Z</time>
      </trkpt>
      <trkpt lat="44.50886" lon="1.00509">
        <ele>77.37</ele>
        <time>2020-03-07T11:13:39Z</time>
      </trkpt>
      <trkpt lat="44.50908" lon="1.00558">
        <ele>80.15</ele>
        <time>2020-03-07T11:13:54Z</time>
      </trkpt>
      <trkpt lat="44.50938" lon="1.00615">
        <ele>80.11</ele>
        <time>2020-03-07T11:14:09Z</time>
      </trkpt>
      <trkpt lat="44.5095" lon="1.00629">
        <ele>80.12</ele>
        <time>2020-03-07T11:14:13Z</time>
      </trkpt>
      <trkpt lat="44.50954" lon="1.00632">
        <ele>80.12</ele>
        <time>2020-03-07T11:14:14Z</time>
      </trkpt>
      <trkpt lat="44.51001" lon="1.00679">
        <ele>77.85</ele>
        <time>2020-03-07T11:14:28Z</time>
      </trkpt>
      <trkpt lat="44.5103" lon="1.00714">
        <ele>77.9</ele>
        <time>2020-03-07T11:14:42Z</time>
      </trkpt>
      <trkpt lat="44.51071" lon="1.00763">
        <ele>77.15</ele>
        <time>2020-03-07T11:15:01Z</time>
      </trkpt>
      <trkpt lat="44.51093" lon="1.00787">
        <ele>79.54</ele>
        <time>2020-03-07T11:15:12Z</time>
      </trkpt>
      <trkpt lat="44.51115" lon="1.00815">
        <ele>82.59</ele>
        <time>2020-03-07T11:15:25Z</time>
      </trkpt>
      <trkpt lat="44.51146" lon="1.00852">
        <ele>85.19</ele>
        <time>2020-03-07T11:15:42Z</time>
      </trkpt>
      <trkpt lat="44.51167" lon="1.00887">
        <ele>85.19</ele>
        <time>2020-03-07T11:15:55Z</time>
      </trkpt>
      <trkpt lat="44.51189" lon="1.00921">
        <ele>85.2</ele>
        <time>2020-03-07T11:16:08Z</time>
      </trkpt>
      <trkpt lat="44.5122" lon="1.0096">
        <ele>85.23</ele>
        <time>2020-03-07T11:16:25Z</time>
      </trkpt>
      <trkpt lat="44.51256" lon="1.00989">
        <ele>85.26</ele>
        <time>2020-03-07T11:16:38Z</time>
      </trkpt>
      <trkpt lat="44.51278" lon="1.01009">
        <ele>85.23</ele>
        <time>2020-03-07T11:16:45Z</time>
      </trkpt>
      <trkpt lat="44.51281" lon="1.01013">
        <ele>85.23</ele>
        <time>2020-03-07T11:16:46Z</time>
      </trkpt>
      <trkpt lat="44.51284" lon="1.01019">
        <ele>85.24</ele>
        <time>2020-03-07T11:16:47Z</time>
      </trkpt>
      <trkpt lat="44.51288" lon="1.01029">
        <ele>82.49</ele>
        <time>2020-03-07T11:16:49Z</time>
      </trkpt>
      <trkpt lat="44.51291" lon="1.0104">
        <ele>81.71</ele>
        <time>2020-03-07T11:16:51Z</time>
      </trkpt>
      <trkpt lat="44.51292" lon="1.01046">
        <ele>81.71</ele>
        <time>2020-03-07T11:16:52Z</time>
      </trkpt>
      <trkpt lat="44.51293" lon="1.01052">
        <ele>81.68</ele>
        <time>2020-03-07T11:16:53Z</time>
      </trkpt>
      <trkpt lat="44.51293" lon="1.01058">
        <ele>80.44</ele>
        <time>2020-03-07T11:16:54Z</time>
      </trkpt>
      <trkpt lat="44.51293" lon="1.01064">
        <ele>80.43</ele>
        <time>2020-03-07T11:16:55Z</time>
      </trkpt>
      <trkpt lat="44.51297" lon="1.0111">
        <ele>78.66</ele>
        <time>2020-03-07T11:17:06Z</time>
      </trkpt>
      <trkpt lat="44.51302" lon="1.01152">
        <ele>78.57</ele>
        <time>2020-03-07T11:17:18Z</time>
      </trkpt>
      <trkpt lat="44.51307" lon="1.01198">
        <ele>78.42</ele>
        <time>2020-03-07T11:17:29Z</time>
      </trkpt>
      <trkpt lat="44.51293" lon="1.01234">
        <ele>80.72</ele>
        <time>2020-03-07T11:17:39Z</time>
      </trkpt>
      <trkpt lat="44.51284" lon="1.0126">
        <ele>83.29</ele>
        <time>2020-03-07T11:17:53Z</time>
      </trkpt>
      <trkpt lat="44.51276" lon="1.0128">
        <ele>83.9</ele>
        <time>2020-03-07T11:18:24Z</time>
      </trkpt>
      <trkpt lat="44.51273" lon="1.01318">
        <ele>84.72</ele>
        <time>2020-03-07T11:18:37Z</time>
      </trkpt>
      <trkpt lat="44.51288" lon="1.01374">
        <ele>84.68</ele>
        <time>2020-03-07T11:18:51Z</time>
      </trkpt>
      <trkpt lat="44.51296" lon="1.01396">
        <ele>84.69</ele>
        <time>2020-03-07T11:18:58Z</time>
      </trkpt>
      <trkpt lat="44.51297" lon="1.01399">
        <ele>84.68</ele>
        <time>2020-03-07T11:18:59Z</time>
      </trkpt>
      <trkpt lat="44.51298" lon="1.01402">
        <ele>84.68</ele>
        <time>2020-03-07T11:19:00Z</time>
      </trkpt>
      <trkpt lat="44.51321" lon="1.01444">
        <ele>84.69</ele>
        <time>2020-03-07T11:19:15Z</time>
      </trkpt>
      <trkpt lat="44.51346" lon="1.01472">
        <ele>84.69</ele>
        <time>2020-03-07T11:19:27Z</time>
      </trkpt>
      <trkpt lat="44.51368" lon="1.01495">
        <ele>84.71</ele>
        <time>2020-03-07T11:19:39Z</time>
      </trkpt>
      <trkpt lat="44.51406" lon="1.01516">
        <ele>84.75</ele>
        <time>2020-03-07T11:19:54Z</time>
      </trkpt>
      <trkpt lat="44.5145" lon="1.01529">
        <ele>85.59</ele>
        <time>2020-03-07T11:20:10Z</time>
      </trkpt>
      <trkpt lat="44.51482" lon="1.01538">
        <ele>87.38</ele>
        <time>2020-03-07T11:20:24Z</time>
      </trkpt>
      <trkpt lat="44.51515" lon="1.01547">
        <ele>89.25</ele>
        <time>2020-03-07T11:20:37Z</time>
      </trkpt>
      <trkpt lat="44.51565" lon="1.01554">
        <ele>91.06</ele>
        <time>2020-03-07T11:20:57Z</time>
      </trkpt>
      <trkpt lat="44.51597" lon="1.01557">
        <ele>91.12</ele>
        <time>2020-03-07T11:21:08Z</time>
      </trkpt>
      <trkpt lat="44.51607" lon="1.0156">
        <ele>91.12</ele>
        <time>2020-03-07T11:21:10Z</time>
      </trkpt>
      <trkpt lat="44.51613" lon="1.01564">
        <ele>88.58</ele>
        <time>2020-03-07T11:21:11Z</time>
      </trkpt>
      <trkpt lat="44.51618" lon="1.01567">
        <ele>88.58</ele>
        <time>2020-03-07T11:21:12Z</time>
      </trkpt>
      <trkpt lat="44.51624" lon="1.0157">
        <ele>87.21</ele>
        <time>2020-03-07T11:21:13Z</time>
      </trkpt>
      <trkpt lat="44.5163" lon="1.0157">
        <ele>86.28</ele>
        <time>2020-03-07T11:21:14Z</time>
      </trkpt>
      <trkpt lat="44.51637" lon="1.01569">
        <ele>86.25</ele>
        <time>2020-03-07T11:21:15Z</time>
      </trkpt>
      <trkpt lat="44.51643" lon="1.01565">
        <ele>85.4</ele>
        <time>2020-03-07T11:21:16Z</time>
      </trkpt>
      <trkpt lat="44.51648" lon="1.01558">
        <ele>85.36</ele>
        <time>2020-03-07T11:21:17Z</time>
      </trkpt>
      <trkpt lat="44.51653" lon="1.0155">
        <ele>85.4</ele>
        <time>2020-03-07T11:21:18Z</time>
      </trkpt>
      <trkpt lat="44.51657" lon="1.0154">
        <ele>83.43</ele>
        <time>2020-03-07T11:21:19Z</time>
      </trkpt>
      <trkpt lat="44.51662" lon="1.0153">
        <ele>82.4</ele>
        <time>2020-03-07T11:21:20Z</time>
      </trkpt>
      <trkpt lat="44.51667" lon="1.0152">
        <ele>81.56</ele>
        <time>2020-03-07T11:21:21Z</time>
      </trkpt>
      <trkpt lat="44.51672" lon="1.0151">
        <ele>81.59</ele>
        <time>2020-03-07T11:21:22Z</time>
      </trkpt>
      <trkpt lat="44.51683" lon="1.01492">
        <ele>80.03</ele>
        <time>2020-03-07T11:21:24Z</time>
      </trkpt>
      <trkpt lat="44.51692" lon="1.01479">
        <ele>79.11</ele>
        <time>2020-03-07T11:21:26Z</time>
      </trkpt>
      <trkpt lat="44.51697" lon="1.01476">
        <ele>79.06</ele>
        <time>2020-03-07T11:21:27Z</time>
      </trkpt>
      <trkpt lat="44.51703" lon="1.01475">
        <ele>77.94</ele>
        <time>2020-03-07T11:21:28Z</time>
      </trkpt>
      <trkpt lat="44.51708" lon="1.01477">
        <ele>77.89</ele>
        <time>2020-03-07T11:21:29Z</time>
      </trkpt>
      <trkpt lat="44.51713" lon="1.0148">
        <ele>77.19</ele>
        <time>2020-03-07T11:21:30Z</time>
      </trkpt>
      <trkpt lat="44.51717" lon="1.01483">
        <ele>77.19</ele>
        <time>2020-03-07T11:21:31Z</time>
      </trkpt>
      <trkpt lat="44.5172" lon="1.01488">
        <ele>77.2</ele>
        <time>2020-03-07T11:21:32Z</time>
      </trkpt>
      <trkpt lat="44.51748" lon="1.01522">
        <ele>77.28</ele>
        <time>2020-03-07T11:21:46Z</time>
      </trkpt>
      <trkpt lat="44.51759" lon="1.0154">
        <ele>79.57</ele>
        <time>2020-03-07T11:21:53Z</time>
      </trkpt>
      <trkpt lat="44.51785" lon="1.01599">
        <ele>80.48</ele>
        <time>2020-03-07T11:22:11Z</time>
      </trkpt>
      <trkpt lat="44.51808" lon="1.01652">
        <ele>77.87</ele>
        <time>2020-03-07T11:22:19Z</time>
      </trkpt>
      <trkpt lat="44.51823" lon="1.01688">
        <ele>77.1</ele>
        <time>2020-03-07T11:22:27Z</time>
      </trkpt>
      <trkpt lat="44.51823" lon="1.01689">
        <ele>76.95</ele>
        <time>2020-03-07T11:22:28Z</time>
      </trkpt>
      <trkpt lat="44.51823" lon="1.01691">
        <ele>79.39</ele>
        <time>2020-03-07T11:22:38Z</time>
      </trkpt>
      <trkpt lat="44.51823" lon="1.01693">
        <ele>79.4</ele>
        <time>2020-03-07T11:23:20Z</time>
      </trkpt>
      <trkpt lat="44.51819" lon="1.01694">
        <ele>79.39</ele>
        <time>2020-03-07T11:23:57Z</time>
      </trkpt>
      <trkpt lat="44.51818" lon="1.01695">
        <ele>79.39</ele>
        <time>2020-03-07T11:23:58Z</time>
      </trkpt>
      <trkpt lat="44.51817" lon="1.01696">
        <ele>79.39</ele>
        <time>2020-03-07T11:23:59Z</time>
      </trkpt>
      <trkpt lat="44.51816" lon="1.01696">
        <ele>79.39</ele>
        <time>2020-03-07T11:24:00Z</time>
      </trkpt>
      <trkpt lat="44.5181" lon="1.01696">
        <ele>79.42</ele>
        <time>2020-03-07T11:24:15Z</time>
      </trkpt>
      <trkpt lat="44.51792" lon="1.01705">
        <ele>79.42</ele>
        <time>2020-03-07T11:24:27Z</time>
      </trkpt>
      <trkpt lat="44.51756" lon="1.01751">
        <ele>81.23</ele>
        <time>2020-03-07T11:24:48Z</time>
      </trkpt>
      <trkpt lat="44.51751" lon="1.01761">
        <ele>82.5</ele>
        <time>2020-03-07T11:24:52Z</time>
      </trkpt>
      <trkpt lat="44.51741" lon="1.01826">
        <ele>85.07</ele>
        <time>2020-03-07T11:25:12Z</time>
      </trkpt>
      <trkpt lat="44.51743" lon="1.01893">
        <ele>87.57</ele>
        <time>2020-03-07T11:25:32Z</time>
      </trkpt>
      <trkpt lat="44.51751" lon="1.0193">
        <ele>88.31</ele>
        <time>2020-03-07T11:25:45Z</time>
      </trkpt>
      <trkpt lat="44.51763" lon="1.01969">
        <ele>88.27</ele>
        <time>2020-03-07T11:25:58Z</time>
      </trkpt>
      <trkpt lat="44.51767" lon="1.01986">
        <ele>88.23</ele>
        <time>2020-03-07T11:26:03Z</time>
      </trkpt>
      <trkpt lat="44.51778" lon="1.02024">
        <ele>85.77</ele>
        <time>2020-03-07T11:26:13Z</time>
      </trkpt>
      <trkpt lat="44.5179" lon="1.02055">
        <ele>84.76</ele>
        <time>2020-03-07T11:26:23Z</time>
      </trkpt>
      <trkpt lat="44.51805" lon="1.02091">
        <ele>83.51</ele>
        <time>2020-03-07T11:26:35Z</time>
      </trkpt>
      <trkpt lat="44.51813" lon="1.02108">
        <ele>83.35</ele>
        <time>2020-03-07T11:26:41Z</time>
      </trkpt>
      <trkpt lat="44.51835" lon="1.02142">
        <ele>82.12</ele>
        <time>2020-03-07T11:26:53Z</time>
      </trkpt>
      <trkpt lat="44.51827" lon="1.02173">
        <ele>81.85</ele>
        <time>2020-03-07T11:27:05Z</time>
      </trkpt>
      <trkpt lat="44.51794" lon="1.02207">
        <ele>81.46</ele>
        <time>2020-03-07T11:27:24Z</time>
      </trkpt>
      <trkpt lat="44.51788" lon="1.02213">
        <ele>83.71</ele>
        <time>2020-03-07T11:27:27Z</time>
      </trkpt>
      <trkpt lat="44.51748" lon="1.02237">
        <ele>84.47</ele>
        <time>2020-03-07T11:27:47Z</time>
      </trkpt>
      <trkpt lat="44.5171" lon="1.02237">
        <ele>85.24</ele>
        <time>2020-03-07T11:28:04Z</time>
      </trkpt>
      <trkpt lat="44.51678" lon="1.02228">
        <ele>87.05</ele>
        <time>2020-03-07T11:28:23Z</time>
      </trkpt>
      <trkpt lat="44.51674" lon="1.02231">
        <ele>87.01</ele>
        <time>2020-03-07T11:28:27Z</time>
      </trkpt>
      <trkpt lat="44.51663" lon="1.02247">
        <ele>87.99</ele>
        <time>2020-03-07T11:28:38Z</time>
      </trkpt>
      <trkpt lat="44.5166" lon="1.02254">
        <ele>88.87</ele>
        <time>2020-03-07T11:28:42Z</time>
      </trkpt>
      <trkpt lat="44.51647" lon="1.02276">
        <ele>90.64</ele>
        <time>2020-03-07T11:28:56Z</time>
      </trkpt>
      <trkpt lat="44.51631" lon="1.023">
        <ele>93.24</ele>
        <time>2020-03-07T11:29:09Z</time>
      </trkpt>
      <trkpt lat="44.51614" lon="1.02325">
        <ele>95.06</ele>
        <time>2020-03-07T11:29:24Z</time>
      </trkpt>
      <trkpt lat="44.51598" lon="1.02352">
        <ele>97.63</ele>
        <time>2020-03-07T11:29:40Z</time>
      </trkpt>
      <trkpt lat="44.51581" lon="1.02379">
        <ele>100.06</ele>
        <time>2020-03-07T11:29:56Z</time>
      </trkpt>
      <trkpt lat="44.51558" lon="1.02404">
        <ele>102.76</ele>
        <time>2020-03-07T11:30:13Z</time>
      </trkpt>
      <trkpt lat="44.51552" lon="1.02412">
        <ele>103.59</ele>
        <time>2020-03-07T11:30:19Z</time>
      </trkpt>
      <trkpt lat="44.51531" lon="1.02428">
        <ele>107.12</ele>
        <time>2020-03-07T11:30:35Z</time>
      </trkpt>
      <trkpt lat="44.5151" lon="1.02433">
        <ele>108.9</ele>
        <time>2020-03-07T11:30:49Z</time>
      </trkpt>
      <trkpt lat="44.51491" lon="1.02439">
        <ele>110.76</ele>
        <time>2020-03-07T11:31:02Z</time>
      </trkpt>
      <trkpt lat="44.51472" lon="1.02452">
        <ele>113.41</ele>
        <time>2020-03-07T11:31:16Z</time>
      </trkpt>
      <trkpt lat="44.51453" lon="1.02464">
        <ele>115.91</ele>
        <time>2020-03-07T11:31:30Z</time>
      </trkpt>
      <trkpt lat="44.51428" lon="1.02461">
        <ele>118.52</ele>
        <time>2020-03-07T11:31:46Z</time>
      </trkpt>
      <trkpt lat="44.514" lon="1.02469">
        <ele>120.99</ele>
        <time>2020-03-07T11:32:03Z</time>
      </trkpt>
      <trkpt lat="44.51379" lon="1.02485">
        <ele>124.74</ele>
        <time>2020-03-07T11:32:20Z</time>
      </trkpt>
      <trkpt lat="44.5136" lon="1.02511">
        <ele>127.3</ele>
        <time>2020-03-07T11:32:39Z</time>
      </trkpt>
      <trkpt lat="44.51347" lon="1.02528">
        <ele>130.82</ele>
        <time>2020-03-07T11:32:53Z</time>
      </trkpt>
      <trkpt lat="44.51333" lon="1.02547">
        <ele>134.2</ele>
        <time>2020-03-07T11:33:09Z</time>
      </trkpt>
      <trkpt lat="44.5132" lon="1.02567">
        <ele>137.91</ele>
        <time>2020-03-07T11:33:24Z</time>
      </trkpt>
      <trkpt lat="44.51307" lon="1.02587">
        <ele>140.31</ele>
        <time>2020-03-07T11:33:39Z</time>
      </trkpt>
      <trkpt lat="44.5129" lon="1.02611">
        <ele>143.98</ele>
        <time>2020-03-07T11:33:58Z</time>
      </trkpt>
      <trkpt lat="44.51291" lon="1.02637">
        <ele>145.74</ele>
        <time>2020-03-07T11:34:15Z</time>
      </trkpt>
      <trkpt lat="44.51304" lon="1.02656">
        <ele>146.7</ele>
        <time>2020-03-07T11:34:29Z</time>
      </trkpt>
      <trkpt lat="44.51316" lon="1.02679">
        <ele>150.68</ele>
        <time>2020-03-07T11:34:46Z</time>
      </trkpt>
      <trkpt lat="44.51329" lon="1.02697">
        <ele>154.15</ele>
        <time>2020-03-07T11:34:59Z</time>
      </trkpt>
      <trkpt lat="44.51337" lon="1.02711">
        <ele>157.47</ele>
        <time>2020-03-07T11:35:09Z</time>
      </trkpt>
      <trkpt lat="44.51349" lon="1.02732">
        <ele>160.86</ele>
        <time>2020-03-07T11:35:25Z</time>
      </trkpt>
      <trkpt lat="44.51352" lon="1.02738">
        <ele>161.63</ele>
        <time>2020-03-07T11:35:29Z</time>
      </trkpt>
      <trkpt lat="44.51359" lon="1.0276">
        <ele>163.97</ele>
        <time>2020-03-07T11:35:43Z</time>
      </trkpt>
      <trkpt lat="44.51361" lon="1.02775">
        <ele>166.47</ele>
        <time>2020-03-07T11:35:55Z</time>
      </trkpt>
      <trkpt lat="44.5136" lon="1.02776">
        <ele>166.44</ele>
        <time>2020-03-07T11:35:56Z</time>
      </trkpt>
      <trkpt lat="44.51357" lon="1.02782">
        <ele>167.26</ele>
        <time>2020-03-07T11:36:00Z</time>
      </trkpt>
      <trkpt lat="44.51343" lon="1.02794">
        <ele>169.67</ele>
        <time>2020-03-07T11:36:15Z</time>
      </trkpt>
      <trkpt lat="44.51328" lon="1.0281">
        <ele>172.15</ele>
        <time>2020-03-07T11:36:30Z</time>
      </trkpt>
      <trkpt lat="44.51315" lon="1.02827">
        <ele>175.46</ele>
        <time>2020-03-07T11:36:44Z</time>
      </trkpt>
      <trkpt lat="44.51313" lon="1.02829">
        <ele>175.43</ele>
        <time>2020-03-07T11:36:46Z</time>
      </trkpt>
      <trkpt lat="44.51306" lon="1.02835">
        <ele>176.24</ele>
        <time>2020-03-07T11:36:51Z</time>
      </trkpt>
      <trkpt lat="44.51287" lon="1.02845">
        <ele>178.69</ele>
        <time>2020-03-07T11:37:06Z</time>
      </trkpt>
      <trkpt lat="44.51267" lon="1.02854">
        <ele>180.22</ele>
        <time>2020-03-07T11:37:22Z</time>
      </trkpt>
      <trkpt lat="44.51259" lon="1.02857">
        <ele>181.02</ele>
        <time>2020-03-07T11:37:28Z</time>
      </trkpt>
      <trkpt lat="44.51238" lon="1.02864">
        <ele>181.83</ele>
        <time>2020-03-07T11:37:43Z</time>
      </trkpt>
      <trkpt lat="44.51207" lon="1.02868">
        <ele>184.24</ele>
        <time>2020-03-07T11:38:01Z</time>
      </trkpt>
      <trkpt lat="44.51188" lon="1.02876">
        <ele>186.55</ele>
        <time>2020-03-07T11:38:14Z</time>
      </trkpt>
      <trkpt lat="44.5117" lon="1.02886">
        <ele>189.09</ele>
        <time>2020-03-07T11:38:30Z</time>
      </trkpt>
      <trkpt lat="44.51166" lon="1.0289">
        <ele>189.87</ele>
        <time>2020-03-07T11:38:34Z</time>
      </trkpt>
      <trkpt lat="44.51162" lon="1.02895">
        <ele>190.73</ele>
        <time>2020-03-07T11:38:38Z</time>
      </trkpt>
      <trkpt lat="44.51146" lon="1.02911">
        <ele>194.51</ele>
        <time>2020-03-07T11:38:54Z</time>
      </trkpt>
      <trkpt lat="44.5114" lon="1.02923">
        <ele>196.26</ele>
        <time>2020-03-07T11:39:02Z</time>
      </trkpt>
      <trkpt lat="44.51134" lon="1.02926">
        <ele>197.21</ele>
        <time>2020-03-07T11:39:07Z</time>
      </trkpt>
      <trkpt lat="44.51117" lon="1.02939">
        <ele>199.77</ele>
        <time>2020-03-07T11:39:24Z</time>
      </trkpt>
      <trkpt lat="44.51101" lon="1.02955">
        <ele>203.28</ele>
        <time>2020-03-07T11:39:40Z</time>
      </trkpt>
      <trkpt lat="44.51087" lon="1.02969">
        <ele>206.06</ele>
        <time>2020-03-07T11:39:54Z</time>
      </trkpt>
      <trkpt lat="44.51078" lon="1.02978">
        <ele>207.1</ele>
        <time>2020-03-07T11:40:03Z</time>
      </trkpt>
      <trkpt lat="44.51064" lon="1.02999">
        <ele>208.89</ele>
        <time>2020-03-07T11:40:19Z</time>
      </trkpt>
      <trkpt lat="44.51052" lon="1.03021">
        <ele>212.46</ele>
        <time>2020-03-07T11:40:33Z</time>
      </trkpt>
      <trkpt lat="44.51045" lon="1.03046">
        <ele>214.24</ele>
        <time>2020-03-07T11:40:47Z</time>
      </trkpt>
      <trkpt lat="44.51045" lon="1.03054">
        <ele>215.05</ele>
        <time>2020-03-07T11:40:51Z</time>
      </trkpt>
      <trkpt lat="44.5104" lon="1.03098">
        <ele>215.78</ele>
        <time>2020-03-07T11:41:13Z</time>
      </trkpt>
      <trkpt lat="44.51016" lon="1.03121">
        <ele>217.43</ele>
        <time>2020-03-07T11:41:32Z</time>
      </trkpt>
      <trkpt lat="44.51008" lon="1.03124">
        <ele>218.98</ele>
        <time>2020-03-07T11:41:48Z</time>
      </trkpt>
      <trkpt lat="44.51008" lon="1.03123">
        <ele>218.97</ele>
        <time>2020-03-07T11:42:07Z</time>
      </trkpt>
      <trkpt lat="44.50998" lon="1.0313">
        <ele>218.97</ele>
        <time>2020-03-07T11:42:15Z</time>
      </trkpt>
      <trkpt lat="44.50997" lon="1.03131">
        <ele>218.97</ele>
        <time>2020-03-07T11:42:16Z</time>
      </trkpt>
      <trkpt lat="44.50994" lon="1.03133">
        <ele>218.97</ele>
        <time>2020-03-07T11:42:17Z</time>
      </trkpt>
      <trkpt lat="44.50955" lon="1.03165">
        <ele>216.28</ele>
        <time>2020-03-07T11:42:31Z</time>
      </trkpt>
      <trkpt lat="44.50955" lon="1.0317">
        <ele>216.3</ele>
        <time>2020-03-07T11:42:32Z</time>
      </trkpt>
      <trkpt lat="44.50956" lon="1.03175">
        <ele>216.3</ele>
        <time>2020-03-07T11:42:33Z</time>
      </trkpt>
      <trkpt lat="44.50957" lon="1.0318">
        <ele>216.28</ele>
        <time>2020-03-07T11:42:34Z</time>
      </trkpt>
      <trkpt lat="44.50959" lon="1.03185">
        <ele>216.27</ele>
        <time>2020-03-07T11:42:35Z</time>
      </trkpt>
      <trkpt lat="44.50961" lon="1.0319">
        <ele>216.28</ele>
        <time>2020-03-07T11:42:36Z</time>
      </trkpt>
      <trkpt lat="44.50963" lon="1.03195">
        <ele>215.33</ele>
        <time>2020-03-07T11:42:37Z</time>
      </trkpt>
      <trkpt lat="44.50979" lon="1.03253">
        <ele>213.7</ele>
        <time>2020-03-07T11:42:48Z</time>
      </trkpt>
      <trkpt lat="44.50977" lon="1.03255">
        <ele>213.69</ele>
        <time>2020-03-07T11:42:49Z</time>
      </trkpt>
      <trkpt lat="44.50975" lon="1.03254">
        <ele>212.81</ele>
        <time>2020-03-07T11:42:50Z</time>
      </trkpt>
      <trkpt lat="44.50974" lon="1.03251">
        <ele>212.77</ele>
        <time>2020-03-07T11:42:51Z</time>
      </trkpt>
      <trkpt lat="44.50972" lon="1.03248">
        <ele>212.78</ele>
        <time>2020-03-07T11:42:52Z</time>
      </trkpt>
      <trkpt lat="44.50971" lon="1.03246">
        <ele>211.89</ele>
        <time>2020-03-07T11:42:53Z</time>
      </trkpt>
      <trkpt lat="44.50956" lon="1.03218">
        <ele>211.19</ele>
        <time>2020-03-07T11:43:07Z</time>
      </trkpt>
      <trkpt lat="44.50938" lon="1.03198">
        <ele>211.25</ele>
        <time>2020-03-07T11:43:18Z</time>
      </trkpt>
      <trkpt lat="44.50907" lon="1.03176">
        <ele>208.93</ele>
        <time>2020-03-07T11:43:26Z</time>
      </trkpt>
      <trkpt lat="44.5089" lon="1.03168">
        <ele>207.15</ele>
        <time>2020-03-07T11:43:29Z</time>
      </trkpt>
      <trkpt lat="44.50879" lon="1.03162">
        <ele>205.71</ele>
        <time>2020-03-07T11:43:31Z</time>
      </trkpt>
      <trkpt lat="44.50862" lon="1.03153">
        <ele>202.59</ele>
        <time>2020-03-07T11:43:34Z</time>
      </trkpt>
      <trkpt lat="44.50852" lon="1.03146">
        <ele>200.82</ele>
        <time>2020-03-07T11:43:36Z</time>
      </trkpt>
      <trkpt lat="44.50845" lon="1.03144">
        <ele>199.6</ele>
        <time>2020-03-07T11:43:37Z</time>
      </trkpt>
      <trkpt lat="44.50832" lon="1.0314">
        <ele>197.67</ele>
        <time>2020-03-07T11:43:39Z</time>
      </trkpt>
      <trkpt lat="44.50825" lon="1.0314">
        <ele>196.93</ele>
        <time>2020-03-07T11:43:40Z</time>
      </trkpt>
      <trkpt lat="44.50818" lon="1.0314">
        <ele>195.72</ele>
        <time>2020-03-07T11:43:41Z</time>
      </trkpt>
      <trkpt lat="44.5081" lon="1.03142">
        <ele>194.68</ele>
        <time>2020-03-07T11:43:42Z</time>
      </trkpt>
      <trkpt lat="44.50803" lon="1.03144">
        <ele>193.81</ele>
        <time>2020-03-07T11:43:43Z</time>
      </trkpt>
      <trkpt lat="44.50796" lon="1.03147">
        <ele>192.6</ele>
        <time>2020-03-07T11:43:44Z</time>
      </trkpt>
      <trkpt lat="44.50789" lon="1.03153">
        <ele>192.62</ele>
        <time>2020-03-07T11:43:45Z</time>
      </trkpt>
      <trkpt lat="44.50782" lon="1.03159">
        <ele>191.04</ele>
        <time>2020-03-07T11:43:46Z</time>
      </trkpt>
      <trkpt lat="44.50776" lon="1.03165">
        <ele>191.08</ele>
        <time>2020-03-07T11:43:47Z</time>
      </trkpt>
      <trkpt lat="44.50764" lon="1.03175">
        <ele>189.64</ele>
        <time>2020-03-07T11:43:49Z</time>
      </trkpt>
      <trkpt lat="44.50758" lon="1.03179">
        <ele>188.6</ele>
        <time>2020-03-07T11:43:50Z</time>
      </trkpt>
      <trkpt lat="44.50727" lon="1.03195">
        <ele>186.34</ele>
        <time>2020-03-07T11:43:55Z</time>
      </trkpt>
      <trkpt lat="44.50715" lon="1.03201">
        <ele>185.46</ele>
        <time>2020-03-07T11:43:57Z</time>
      </trkpt>
      <trkpt lat="44.50708" lon="1.03202">
        <ele>185.45</ele>
        <time>2020-03-07T11:43:58Z</time>
      </trkpt>
      <trkpt lat="44.50695" lon="1.03203">
        <ele>184.51</ele>
        <time>2020-03-07T11:44:00Z</time>
      </trkpt>
      <trkpt lat="44.50688" lon="1.03205">
        <ele>184.46</ele>
        <time>2020-03-07T11:44:01Z</time>
      </trkpt>
      <trkpt lat="44.50682" lon="1.03207">
        <ele>183.72</ele>
        <time>2020-03-07T11:44:02Z</time>
      </trkpt>
      <trkpt lat="44.50677" lon="1.03207">
        <ele>183.68</ele>
        <time>2020-03-07T11:44:03Z</time>
      </trkpt>
      <trkpt lat="44.50672" lon="1.03205">
        <ele>183.72</ele>
        <time>2020-03-07T11:44:04Z</time>
      </trkpt>
      <trkpt lat="44.50669" lon="1.03202">
        <ele>183.73</ele>
        <time>2020-03-07T11:44:05Z</time>
      </trkpt>
      <trkpt lat="44.50666" lon="1.03199">
        <ele>182.97</ele>
        <time>2020-03-07T11:44:06Z</time>
      </trkpt>
      <trkpt lat="44.50644" lon="1.03166">
        <ele>180.53</ele>
        <time>2020-03-07T11:44:19Z</time>
      </trkpt>
      <trkpt lat="44.50634" lon="1.03145">
        <ele>179.68</ele>
        <time>2020-03-07T11:44:48Z</time>
      </trkpt>
      <trkpt lat="44.5061" lon="1.0309">
        <ele>175.97</ele>
        <time>2020-03-07T11:45:00Z</time>
      </trkpt>
      <trkpt lat="44.50607" lon="1.03072">
        <ele>174.97</ele>
        <time>2020-03-07T11:45:03Z</time>
      </trkpt>
      <trkpt lat="44.50604" lon="1.03053">
        <ele>173.96</ele>
        <time>2020-03-07T11:45:06Z</time>
      </trkpt>
      <trkpt lat="44.50602" lon="1.03046">
        <ele>172.62</ele>
        <time>2020-03-07T11:45:07Z</time>
      </trkpt>
      <trkpt lat="44.50599" lon="1.03039">
        <ele>172.63</ele>
        <time>2020-03-07T11:45:08Z</time>
      </trkpt>
      <trkpt lat="44.50593" lon="1.03027">
        <ele>171.19</ele>
        <time>2020-03-07T11:45:10Z</time>
      </trkpt>
      <trkpt lat="44.50588" lon="1.03021">
        <ele>170.03</ele>
        <time>2020-03-07T11:45:11Z</time>
      </trkpt>
      <trkpt lat="44.50569" lon="1.02997">
        <ele>167.01</ele>
        <time>2020-03-07T11:45:15Z</time>
      </trkpt>
      <trkpt lat="44.50564" lon="1.02991">
        <ele>166.96</ele>
        <time>2020-03-07T11:45:16Z</time>
      </trkpt>
      <trkpt lat="44.50554" lon="1.02979">
        <ele>164.9</ele>
        <time>2020-03-07T11:45:18Z</time>
      </trkpt>
      <trkpt lat="44.5055" lon="1.02973">
        <ele>164.88</ele>
        <time>2020-03-07T11:45:19Z</time>
      </trkpt>
      <trkpt lat="44.50538" lon="1.02954">
        <ele>161.5</ele>
        <time>2020-03-07T11:45:22Z</time>
      </trkpt>
      <trkpt lat="44.50533" lon="1.02948">
        <ele>160.56</ele>
        <time>2020-03-07T11:45:23Z</time>
      </trkpt>
      <trkpt lat="44.50523" lon="1.02936">
        <ele>159.57</ele>
        <time>2020-03-07T11:45:25Z</time>
      </trkpt>
      <trkpt lat="44.50513" lon="1.02923">
        <ele>158.04</ele>
        <time>2020-03-07T11:45:27Z</time>
      </trkpt>
      <trkpt lat="44.50509" lon="1.02915">
        <ele>156.62</ele>
        <time>2020-03-07T11:45:28Z</time>
      </trkpt>
      <trkpt lat="44.50507" lon="1.02907">
        <ele>156.59</ele>
        <time>2020-03-07T11:45:29Z</time>
      </trkpt>
      <trkpt lat="44.50502" lon="1.02891">
        <ele>155.23</ele>
        <time>2020-03-07T11:45:31Z</time>
      </trkpt>
      <trkpt lat="44.50482" lon="1.02828">
        <ele>152.56</ele>
        <time>2020-03-07T11:45:43Z</time>
      </trkpt>
      <trkpt lat="44.50471" lon="1.02799">
        <ele>152.75</ele>
        <time>2020-03-07T11:45:54Z</time>
      </trkpt>
      <trkpt lat="44.50462" lon="1.02779">
        <ele>155.07</ele>
        <time>2020-03-07T11:46:01Z</time>
      </trkpt>
      <trkpt lat="44.50433" lon="1.02742">
        <ele>155.8</ele>
        <time>2020-03-07T11:46:18Z</time>
      </trkpt>
      <trkpt lat="44.50406" lon="1.02728">
        <ele>155.69</ele>
        <time>2020-03-07T11:46:28Z</time>
      </trkpt>
      <trkpt lat="44.50371" lon="1.02729">
        <ele>155.66</ele>
        <time>2020-03-07T11:46:42Z</time>
      </trkpt>
      <trkpt lat="44.50353" lon="1.02733">
        <ele>153.25</ele>
        <time>2020-03-07T11:46:49Z</time>
      </trkpt>
      <trkpt lat="44.503" lon="1.02738">
        <ele>150.32</ele>
        <time>2020-03-07T11:47:06Z</time>
      </trkpt>
      <trkpt lat="44.50274" lon="1.02743">
        <ele>148.23</ele>
        <time>2020-03-07T11:47:13Z</time>
      </trkpt>
      <trkpt lat="44.50234" lon="1.02758">
        <ele>144.37</ele>
        <time>2020-03-07T11:47:21Z</time>
      </trkpt>
      <trkpt lat="44.50199" lon="1.02778">
        <ele>141.07</ele>
        <time>2020-03-07T11:47:27Z</time>
      </trkpt>
      <trkpt lat="44.50185" lon="1.02785">
        <ele>139.76</ele>
        <time>2020-03-07T11:47:29Z</time>
      </trkpt>
      <trkpt lat="44.50164" lon="1.02798">
        <ele>136.41</ele>
        <time>2020-03-07T11:47:32Z</time>
      </trkpt>
      <trkpt lat="44.5015" lon="1.02808">
        <ele>135.33</ele>
        <time>2020-03-07T11:47:34Z</time>
      </trkpt>
      <trkpt lat="44.50131" lon="1.02824">
        <ele>132.53</ele>
        <time>2020-03-07T11:47:37Z</time>
      </trkpt>
      <trkpt lat="44.50125" lon="1.02827">
        <ele>131.78</ele>
        <time>2020-03-07T11:47:38Z</time>
      </trkpt>
      <trkpt lat="44.50118" lon="1.02829">
        <ele>131.68</ele>
        <time>2020-03-07T11:47:39Z</time>
      </trkpt>
      <trkpt lat="44.50112" lon="1.02829">
        <ele>130.57</ele>
        <time>2020-03-07T11:47:40Z</time>
      </trkpt>
      <trkpt lat="44.50106" lon="1.02829">
        <ele>130.6</ele>
        <time>2020-03-07T11:47:41Z</time>
      </trkpt>
      <trkpt lat="44.50044" lon="1.0284">
        <ele>127.25</ele>
        <time>2020-03-07T11:47:53Z</time>
      </trkpt>
      <trkpt lat="44.49989" lon="1.02837">
        <ele>125.69</ele>
        <time>2020-03-07T11:48:07Z</time>
      </trkpt>
      <trkpt lat="44.49946" lon="1.02828">
        <ele>125.85</ele>
        <time>2020-03-07T11:48:25Z</time>
      </trkpt>
      <trkpt lat="44.49905" lon="1.02829">
        <ele>125.82</ele>
        <time>2020-03-07T11:48:39Z</time>
      </trkpt>
      <trkpt lat="44.49865" lon="1.0285">
        <ele>123.97</ele>
        <time>2020-03-07T11:48:51Z</time>
      </trkpt>
      <trkpt lat="44.49835" lon="1.02849">
        <ele>123.99</ele>
        <time>2020-03-07T11:49:03Z</time>
      </trkpt>
      <trkpt lat="44.49803" lon="1.02846">
        <ele>124.01</ele>
        <time>2020-03-07T11:49:16Z</time>
      </trkpt>
      <trkpt lat="44.49765" lon="1.02847">
        <ele>122.3</ele>
        <time>2020-03-07T11:49:27Z</time>
      </trkpt>
      <trkpt lat="44.49722" lon="1.02858">
        <ele>122.28</ele>
        <time>2020-03-07T11:49:40Z</time>
      </trkpt>
      <trkpt lat="44.49687" lon="1.02836">
        <ele>122.28</ele>
        <time>2020-03-07T11:49:53Z</time>
      </trkpt>
      <trkpt lat="44.49659" lon="1.02817">
        <ele>122.29</ele>
        <time>2020-03-07T11:50:07Z</time>
      </trkpt>
      <trkpt lat="44.49657" lon="1.02819">
        <ele>122.3</ele>
        <time>2020-03-07T11:50:08Z</time>
      </trkpt>
      <trkpt lat="44.49656" lon="1.02821">
        <ele>122.29</ele>
        <time>2020-03-07T11:50:09Z</time>
      </trkpt>
      <trkpt lat="44.49649" lon="1.02839">
        <ele>124.71</ele>
        <time>2020-03-07T11:50:17Z</time>
      </trkpt>
      <trkpt lat="44.49636" lon="1.02874">
        <ele>127.3</ele>
        <time>2020-03-07T11:50:34Z</time>
      </trkpt>
      <trkpt lat="44.49623" lon="1.02902">
        <ele>129.93</ele>
        <time>2020-03-07T11:50:50Z</time>
      </trkpt>
      <trkpt lat="44.49613" lon="1.02931">
        <ele>133.16</ele>
        <time>2020-03-07T11:51:05Z</time>
      </trkpt>
      <trkpt lat="44.49603" lon="1.02961">
        <ele>135.71</ele>
        <time>2020-03-07T11:51:22Z</time>
      </trkpt>
      <trkpt lat="44.49595" lon="1.02995">
        <ele>137.41</ele>
        <time>2020-03-07T11:51:41Z</time>
      </trkpt>
      <trkpt lat="44.49591" lon="1.03034">
        <ele>140.04</ele>
        <time>2020-03-07T11:51:58Z</time>
      </trkpt>
      <trkpt lat="44.49589" lon="1.03076">
        <ele>142.6</ele>
        <time>2020-03-07T11:52:17Z</time>
      </trkpt>
      <trkpt lat="44.49581" lon="1.03104">
        <ele>145.89</ele>
        <time>2020-03-07T11:52:32Z</time>
      </trkpt>
      <trkpt lat="44.49568" lon="1.03134">
        <ele>146.65</ele>
        <time>2020-03-07T11:52:49Z</time>
      </trkpt>
      <trkpt lat="44.49568" lon="1.03166">
        <ele>148.3</ele>
        <time>2020-03-07T11:53:04Z</time>
      </trkpt>
      <trkpt lat="44.49571" lon="1.03184">
        <ele>148.28</ele>
        <time>2020-03-07T11:53:15Z</time>
      </trkpt>
      <trkpt lat="44.49572" lon="1.03186">
        <ele>148.28</ele>
        <time>2020-03-07T11:53:16Z</time>
      </trkpt>
      <trkpt lat="44.49573" lon="1.03187">
        <ele>148.28</ele>
        <time>2020-03-07T11:53:17Z</time>
      </trkpt>
      <trkpt lat="44.49574" lon="1.03188">
        <ele>148.27</ele>
        <time>2020-03-07T11:53:18Z</time>
      </trkpt>
      <trkpt lat="44.49575" lon="1.0319">
        <ele>148.27</ele>
        <time>2020-03-07T11:53:19Z</time>
      </trkpt>
      <trkpt lat="44.49577" lon="1.03192">
        <ele>148.27</ele>
        <time>2020-03-07T11:53:20Z</time>
      </trkpt>
      <trkpt lat="44.49586" lon="1.03202">
        <ele>148.23</ele>
        <time>2020-03-07T11:53:24Z</time>
      </trkpt>
      <trkpt lat="44.49588" lon="1.03205">
        <ele>148.23</ele>
        <time>2020-03-07T11:53:25Z</time>
      </trkpt>
      <trkpt lat="44.49589" lon="1.03209">
        <ele>148.22</ele>
        <time>2020-03-07T11:53:26Z</time>
      </trkpt>
      <trkpt lat="44.49599" lon="1.03234">
        <ele>148.2</ele>
        <time>2020-03-07T11:53:31Z</time>
      </trkpt>
      <trkpt lat="44.49618" lon="1.03258">
        <ele>145.89</ele>
        <time>2020-03-07T11:53:40Z</time>
      </trkpt>
      <trkpt lat="44.49652" lon="1.03263">
        <ele>145.92</ele>
        <time>2020-03-07T11:53:57Z</time>
      </trkpt>
      <trkpt lat="44.49656" lon="1.03267">
        <ele>145.92</ele>
        <time>2020-03-07T11:54:00Z</time>
      </trkpt>
      <trkpt lat="44.49656" lon="1.03271">
        <ele>145.04</ele>
        <time>2020-03-07T11:54:01Z</time>
      </trkpt>
      <trkpt lat="44.49658" lon="1.03275">
        <ele>145.05</ele>
        <time>2020-03-07T11:54:02Z</time>
      </trkpt>
      <trkpt lat="44.49659" lon="1.0328">
        <ele>144.28</ele>
        <time>2020-03-07T11:54:03Z</time>
      </trkpt>
      <trkpt lat="44.49667" lon="1.03317">
        <ele>141.18</ele>
        <time>2020-03-07T11:54:10Z</time>
      </trkpt>
      <trkpt lat="44.4968" lon="1.03354">
        <ele>138.03</ele>
        <time>2020-03-07T11:54:16Z</time>
      </trkpt>
      <trkpt lat="44.49693" lon="1.03377">
        <ele>136.96</ele>
        <time>2020-03-07T11:54:20Z</time>
      </trkpt>
      <trkpt lat="44.49697" lon="1.034">
        <ele>135.03</ele>
        <time>2020-03-07T11:54:24Z</time>
      </trkpt>
      <trkpt lat="44.49702" lon="1.03466">
        <ele>133.52</ele>
        <time>2020-03-07T11:54:38Z</time>
      </trkpt>
      <trkpt lat="44.49701" lon="1.03512">
        <ele>131.92</ele>
        <time>2020-03-07T11:54:50Z</time>
      </trkpt>
      <trkpt lat="44.49708" lon="1.03527">
        <ele>131</ele>
        <time>2020-03-07T11:54:53Z</time>
      </trkpt>
      <trkpt lat="44.49721" lon="1.03539">
        <ele>129.08</ele>
        <time>2020-03-07T11:54:56Z</time>
      </trkpt>
      <trkpt lat="44.49731" lon="1.03545">
        <ele>127.71</ele>
        <time>2020-03-07T11:54:58Z</time>
      </trkpt>
      <trkpt lat="44.49745" lon="1.03555">
        <ele>124.47</ele>
        <time>2020-03-07T11:55:01Z</time>
      </trkpt>
      <trkpt lat="44.49753" lon="1.03563">
        <ele>123.59</ele>
        <time>2020-03-07T11:55:03Z</time>
      </trkpt>
      <trkpt lat="44.4976" lon="1.0357">
        <ele>121.02</ele>
        <time>2020-03-07T11:55:05Z</time>
      </trkpt>
      <trkpt lat="44.49771" lon="1.03581">
        <ele>118.99</ele>
        <time>2020-03-07T11:55:08Z</time>
      </trkpt>
      <trkpt lat="44.49775" lon="1.0359">
        <ele>117.48</ele>
        <time>2020-03-07T11:55:10Z</time>
      </trkpt>
      <trkpt lat="44.49779" lon="1.03604">
        <ele>115.24</ele>
        <time>2020-03-07T11:55:14Z</time>
      </trkpt>
      <trkpt lat="44.49782" lon="1.03607">
        <ele>114.3</ele>
        <time>2020-03-07T11:55:15Z</time>
      </trkpt>
      <trkpt lat="44.49784" lon="1.03609">
        <ele>114.3</ele>
        <time>2020-03-07T11:55:16Z</time>
      </trkpt>
      <trkpt lat="44.49786" lon="1.0361">
        <ele>114.36</ele>
        <time>2020-03-07T11:55:17Z</time>
      </trkpt>
      <trkpt lat="44.49788" lon="1.03611">
        <ele>113.25</ele>
        <time>2020-03-07T11:55:18Z</time>
      </trkpt>
      <trkpt lat="44.4981" lon="1.03638">
        <ele>111.69</ele>
        <time>2020-03-07T11:55:32Z</time>
      </trkpt>
      <trkpt lat="44.49809" lon="1.03675">
        <ele>111.7</ele>
        <time>2020-03-07T11:55:45Z</time>
      </trkpt>
      <trkpt lat="44.49794" lon="1.03703">
        <ele>111.72</ele>
        <time>2020-03-07T11:55:58Z</time>
      </trkpt>
      <trkpt lat="44.4979" lon="1.03711">
        <ele>113.98</ele>
        <time>2020-03-07T11:56:02Z</time>
      </trkpt>
      <trkpt lat="44.49788" lon="1.03721">
        <ele>113.98</ele>
        <time>2020-03-07T11:56:06Z</time>
      </trkpt>
      <trkpt lat="44.49788" lon="1.03723">
        <ele>113.98</ele>
        <time>2020-03-07T11:56:07Z</time>
      </trkpt>
      <trkpt lat="44.49787" lon="1.03725">
        <ele>114.83</ele>
        <time>2020-03-07T11:56:08Z</time>
      </trkpt>
      <trkpt lat="44.49787" lon="1.03727">
        <ele>114.83</ele>
        <time>2020-03-07T11:56:09Z</time>
      </trkpt>
      <trkpt lat="44.49786" lon="1.0373">
        <ele>114.82</ele>
        <time>2020-03-07T11:56:10Z</time>
      </trkpt>
      <trkpt lat="44.49786" lon="1.03732">
        <ele>114.83</ele>
        <time>2020-03-07T11:56:11Z</time>
      </trkpt>
      <trkpt lat="44.49785" lon="1.03734">
        <ele>114.83</ele>
        <time>2020-03-07T11:56:12Z</time>
      </trkpt>
      <trkpt lat="44.49785" lon="1.03736">
        <ele>114.84</ele>
        <time>2020-03-07T11:56:13Z</time>
      </trkpt>
      <trkpt lat="44.49784" lon="1.03738">
        <ele>115.63</ele>
        <time>2020-03-07T11:56:14Z</time>
      </trkpt>
      <trkpt lat="44.49784" lon="1.03741">
        <ele>115.63</ele>
        <time>2020-03-07T11:56:15Z</time>
      </trkpt>
      <trkpt lat="44.49783" lon="1.03742">
        <ele>115.62</ele>
        <time>2020-03-07T11:56:16Z</time>
      </trkpt>
      <trkpt lat="44.49783" lon="1.03744">
        <ele>115.62</ele>
        <time>2020-03-07T11:56:17Z</time>
      </trkpt>
      <trkpt lat="44.49784" lon="1.03746">
        <ele>115.63</ele>
        <time>2020-03-07T11:56:18Z</time>
      </trkpt>
      <trkpt lat="44.49783" lon="1.03748">
        <ele>115.64</ele>
        <time>2020-03-07T11:56:19Z</time>
      </trkpt>
      <trkpt lat="44.49783" lon="1.0375">
        <ele>115.61</ele>
        <time>2020-03-07T11:56:20Z</time>
      </trkpt>
      <trkpt lat="44.49783" lon="1.03759">
        <ele>116.57</ele>
        <time>2020-03-07T11:56:24Z</time>
      </trkpt>
      <trkpt lat="44.49783" lon="1.03761">
        <ele>116.58</ele>
        <time>2020-03-07T11:56:25Z</time>
      </trkpt>
      <trkpt lat="44.49783" lon="1.03776">
        <ele>118.25</ele>
        <time>2020-03-07T11:56:33Z</time>
      </trkpt>
      <trkpt lat="44.49783" lon="1.03796">
        <ele>120.18</ele>
        <time>2020-03-07T11:56:42Z</time>
      </trkpt>
      <trkpt lat="44.49783" lon="1.03799">
        <ele>120.18</ele>
        <time>2020-03-07T11:56:44Z</time>
      </trkpt>
      <trkpt lat="44.49783" lon="1.03828">
        <ele>121.75</ele>
        <time>2020-03-07T11:56:58Z</time>
      </trkpt>
      <trkpt lat="44.49785" lon="1.03861">
        <ele>125.03</ele>
        <time>2020-03-07T11:57:13Z</time>
      </trkpt>
      <trkpt lat="44.49792" lon="1.03893">
        <ele>127.7</ele>
        <time>2020-03-07T11:57:28Z</time>
      </trkpt>
      <trkpt lat="44.49803" lon="1.03933">
        <ele>130.15</ele>
        <time>2020-03-07T11:57:46Z</time>
      </trkpt>
      <trkpt lat="44.49804" lon="1.03935">
        <ele>130.16</ele>
        <time>2020-03-07T11:57:47Z</time>
      </trkpt>
      <trkpt lat="44.49805" lon="1.03937">
        <ele>130.15</ele>
        <time>2020-03-07T11:57:48Z</time>
      </trkpt>
      <trkpt lat="44.4982" lon="1.03975">
        <ele>133.61</ele>
        <time>2020-03-07T11:58:07Z</time>
      </trkpt>
      <trkpt lat="44.49827" lon="1.04027">
        <ele>135.25</ele>
        <time>2020-03-07T11:58:26Z</time>
      </trkpt>
      <trkpt lat="44.49828" lon="1.04042">
        <ele>135.24</ele>
        <time>2020-03-07T11:58:29Z</time>
      </trkpt>
      <trkpt lat="44.49831" lon="1.04053">
        <ele>135.22</ele>
        <time>2020-03-07T11:58:31Z</time>
      </trkpt>
      <trkpt lat="44.49833" lon="1.04059">
        <ele>135.23</ele>
        <time>2020-03-07T11:58:32Z</time>
      </trkpt>
      <trkpt lat="44.49836" lon="1.04065">
        <ele>135.22</ele>
        <time>2020-03-07T11:58:33Z</time>
      </trkpt>
      <trkpt lat="44.49841" lon="1.04078">
        <ele>132.47</ele>
        <time>2020-03-07T11:58:35Z</time>
      </trkpt>
      <trkpt lat="44.49844" lon="1.04085">
        <ele>132.47</ele>
        <time>2020-03-07T11:58:36Z</time>
      </trkpt>
      <trkpt lat="44.49845" lon="1.04092">
        <ele>131.56</ele>
        <time>2020-03-07T11:58:37Z</time>
      </trkpt>
      <trkpt lat="44.49847" lon="1.041">
        <ele>131.56</ele>
        <time>2020-03-07T11:58:38Z</time>
      </trkpt>
      <trkpt lat="44.49848" lon="1.04108">
        <ele>131.57</ele>
        <time>2020-03-07T11:58:39Z</time>
      </trkpt>
      <trkpt lat="44.49849" lon="1.04117">
        <ele>130.2</ele>
        <time>2020-03-07T11:58:40Z</time>
      </trkpt>
      <trkpt lat="44.49849" lon="1.04126">
        <ele>130.18</ele>
        <time>2020-03-07T11:58:41Z</time>
      </trkpt>
      <trkpt lat="44.49849" lon="1.04145">
        <ele>128.83</ele>
        <time>2020-03-07T11:58:43Z</time>
      </trkpt>
      <trkpt lat="44.49849" lon="1.04165">
        <ele>127.59</ele>
        <time>2020-03-07T11:58:45Z</time>
      </trkpt>
      <trkpt lat="44.49848" lon="1.04195">
        <ele>124.29</ele>
        <time>2020-03-07T11:58:48Z</time>
      </trkpt>
      <trkpt lat="44.49848" lon="1.04205">
        <ele>124.23</ele>
        <time>2020-03-07T11:58:49Z</time>
      </trkpt>
      <trkpt lat="44.49848" lon="1.04222">
        <ele>122.88</ele>
        <time>2020-03-07T11:58:51Z</time>
      </trkpt>
      <trkpt lat="44.49847" lon="1.04253">
        <ele>116.57</ele>
        <time>2020-03-07T11:58:56Z</time>
      </trkpt>
      <trkpt lat="44.49847" lon="1.04257">
        <ele>119.62</ele>
        <time>2020-03-07T11:58:57Z</time>
      </trkpt>
      <trkpt lat="44.49847" lon="1.04291">
        <ele>119.67</ele>
        <time>2020-03-07T11:59:05Z</time>
      </trkpt>
      <trkpt lat="44.49849" lon="1.04295">
        <ele>117.48</ele>
        <time>2020-03-07T11:59:16Z</time>
      </trkpt>
      <trkpt lat="44.49848" lon="1.04299">
        <ele>117.49</ele>
        <time>2020-03-07T11:59:25Z</time>
      </trkpt>
      <trkpt lat="44.49839" lon="1.04303">
        <ele>117.49</ele>
        <time>2020-03-07T11:59:32Z</time>
      </trkpt>
      <trkpt lat="44.49838" lon="1.04304">
        <ele>117.49</ele>
        <time>2020-03-07T11:59:33Z</time>
      </trkpt>
      <trkpt lat="44.49839" lon="1.04305">
        <ele>117.48</ele>
        <time>2020-03-07T11:59:35Z</time>
      </trkpt>
      <trkpt lat="44.49839" lon="1.04305">
        <ele>117.49</ele>
        <time>2020-03-07T11:59:36Z</time>
      </trkpt>
      <trkpt lat="44.4984" lon="1.04303">
        <ele>117.48</ele>
        <time>2020-03-07T11:59:37Z</time>
      </trkpt>
      <trkpt lat="44.49841" lon="1.04302">
        <ele>117.48</ele>
        <time>2020-03-07T11:59:38Z</time>
      </trkpt>
      <trkpt lat="44.49841" lon="1.04301">
        <ele>116.64</ele>
        <time>2020-03-07T11:59:39Z</time>
      </trkpt>
      <trkpt lat="44.49847" lon="1.04281">
        <ele>116.67</ele>
        <time>2020-03-07T11:59:54Z</time>
      </trkpt>
      <trkpt lat="44.49847" lon="1.04279">
        <ele>116.67</ele>
        <time>2020-03-07T11:59:55Z</time>
      </trkpt>
      <trkpt lat="44.49847" lon="1.04277">
        <ele>116.67</ele>
        <time>2020-03-07T11:59:56Z</time>
      </trkpt>
      <trkpt lat="44.49847" lon="1.04276">
        <ele>116.67</ele>
        <time>2020-03-07T11:59:57Z</time>
      </trkpt>
      <trkpt lat="44.49847" lon="1.04253">
        <ele>116.67</ele>
        <time>2020-03-07T12:00:13Z</time>
      </trkpt>
      <trkpt lat="44.49847" lon="1.04254">
        <ele>119.1</ele>
        <time>2020-03-07T12:00:14Z</time>
      </trkpt>
      <trkpt lat="44.49847" lon="1.04256">
        <ele>119.1</ele>
        <time>2020-03-07T12:00:15Z</time>
      </trkpt>
      <trkpt lat="44.49845" lon="1.04287">
        <ele>119.1</ele>
        <time>2020-03-07T12:00:29Z</time>
      </trkpt>
      <trkpt lat="44.49846" lon="1.04289">
        <ele>119.09</ele>
        <time>2020-03-07T12:00:30Z</time>
      </trkpt>
      <trkpt lat="44.49847" lon="1.04291">
        <ele>119.08</ele>
        <time>2020-03-07T12:00:31Z</time>
      </trkpt>
      <trkpt lat="44.49849" lon="1.04293">
        <ele>119.09</ele>
        <time>2020-03-07T12:00:32Z</time>
      </trkpt>
      <trkpt lat="44.49851" lon="1.04294">
        <ele>119.08</ele>
        <time>2020-03-07T12:00:33Z</time>
      </trkpt>
      <trkpt lat="44.49853" lon="1.04295">
        <ele>119.09</ele>
        <time>2020-03-07T12:00:34Z</time>
      </trkpt>
      <trkpt lat="44.49855" lon="1.04295">
        <ele>119.09</ele>
        <time>2020-03-07T12:00:35Z</time>
      </trkpt>
      <trkpt lat="44.49857" lon="1.04294">
        <ele>119.09</ele>
        <time>2020-03-07T12:00:36Z</time>
      </trkpt>
      <trkpt lat="44.49891" lon="1.04283">
        <ele>116.68</ele>
        <time>2020-03-07T12:00:52Z</time>
      </trkpt>
      <trkpt lat="44.49895" lon="1.04283">
        <ele>116.68</ele>
        <time>2020-03-07T12:00:53Z</time>
      </trkpt>
      <trkpt lat="44.49899" lon="1.04284">
        <ele>116.68</ele>
        <time>2020-03-07T12:00:54Z</time>
      </trkpt>
      <trkpt lat="44.49903" lon="1.04283">
        <ele>115.7</ele>
        <time>2020-03-07T12:00:55Z</time>
      </trkpt>
      <trkpt lat="44.49908" lon="1.04281">
        <ele>115.72</ele>
        <time>2020-03-07T12:00:56Z</time>
      </trkpt>
      <trkpt lat="44.49913" lon="1.04279">
        <ele>114.52</ele>
        <time>2020-03-07T12:00:57Z</time>
      </trkpt>
      <trkpt lat="44.49917" lon="1.04275">
        <ele>114.54</ele>
        <time>2020-03-07T12:00:58Z</time>
      </trkpt>
      <trkpt lat="44.49921" lon="1.0427">
        <ele>113.5</ele>
        <time>2020-03-07T12:00:59Z</time>
      </trkpt>
      <trkpt lat="44.49925" lon="1.04265">
        <ele>113.5</ele>
        <time>2020-03-07T12:01:00Z</time>
      </trkpt>
      <trkpt lat="44.49927" lon="1.04258">
        <ele>112.51</ele>
        <time>2020-03-07T12:01:01Z</time>
      </trkpt>
      <trkpt lat="44.49929" lon="1.04251">
        <ele>112.52</ele>
        <time>2020-03-07T12:01:02Z</time>
      </trkpt>
      <trkpt lat="44.4993" lon="1.04244">
        <ele>112.5</ele>
        <time>2020-03-07T12:01:03Z</time>
      </trkpt>
      <trkpt lat="44.49931" lon="1.04238">
        <ele>112.53</ele>
        <time>2020-03-07T12:01:04Z</time>
      </trkpt>
      <trkpt lat="44.49932" lon="1.04231">
        <ele>111.65</ele>
        <time>2020-03-07T12:01:05Z</time>
      </trkpt>
      <trkpt lat="44.49933" lon="1.04224">
        <ele>111.65</ele>
        <time>2020-03-07T12:01:06Z</time>
      </trkpt>
      <trkpt lat="44.49933" lon="1.04217">
        <ele>111.62</ele>
        <time>2020-03-07T12:01:07Z</time>
      </trkpt>
      <trkpt lat="44.4994" lon="1.04168">
        <ele>109.82</ele>
        <time>2020-03-07T12:01:14Z</time>
      </trkpt>
      <trkpt lat="44.49942" lon="1.04162">
        <ele>109.81</ele>
        <time>2020-03-07T12:01:15Z</time>
      </trkpt>
      <trkpt lat="44.49963" lon="1.04119">
        <ele>108.03</ele>
        <time>2020-03-07T12:01:26Z</time>
      </trkpt>
      <trkpt lat="44.49986" lon="1.04098">
        <ele>107.99</ele>
        <time>2020-03-07T12:01:38Z</time>
      </trkpt>
      <trkpt lat="44.49994" lon="1.04091">
        <ele>107.97</ele>
        <time>2020-03-07T12:01:42Z</time>
      </trkpt>
      <trkpt lat="44.49997" lon="1.04091">
        <ele>107.97</ele>
        <time>2020-03-07T12:01:43Z</time>
      </trkpt>
      <trkpt lat="44.5" lon="1.0409">
        <ele>107.96</ele>
        <time>2020-03-07T12:01:44Z</time>
      </trkpt>
      <trkpt lat="44.50004" lon="1.04091">
        <ele>107.96</ele>
        <time>2020-03-07T12:01:45Z</time>
      </trkpt>
      <trkpt lat="44.50007" lon="1.04092">
        <ele>107.95</ele>
        <time>2020-03-07T12:01:46Z</time>
      </trkpt>
      <trkpt lat="44.50025" lon="1.04098">
        <ele>106.87</ele>
        <time>2020-03-07T12:01:50Z</time>
      </trkpt>
      <trkpt lat="44.50044" lon="1.04107">
        <ele>105.21</ele>
        <time>2020-03-07T12:01:54Z</time>
      </trkpt>
      <trkpt lat="44.50108" lon="1.0413">
        <ele>101.76</ele>
        <time>2020-03-07T12:02:07Z</time>
      </trkpt>
      <trkpt lat="44.50117" lon="1.04135">
        <ele>101.76</ele>
        <time>2020-03-07T12:02:09Z</time>
      </trkpt>
      <trkpt lat="44.50121" lon="1.04138">
        <ele>100.96</ele>
        <time>2020-03-07T12:02:10Z</time>
      </trkpt>
      <trkpt lat="44.50124" lon="1.04143">
        <ele>100.96</ele>
        <time>2020-03-07T12:02:11Z</time>
      </trkpt>
      <trkpt lat="44.50126" lon="1.04149">
        <ele>100.96</ele>
        <time>2020-03-07T12:02:12Z</time>
      </trkpt>
      <trkpt lat="44.50128" lon="1.04154">
        <ele>99.96</ele>
        <time>2020-03-07T12:02:13Z</time>
      </trkpt>
      <trkpt lat="44.50136" lon="1.04166">
        <ele>99.98</ele>
        <time>2020-03-07T12:02:16Z</time>
      </trkpt>
      <trkpt lat="44.50137" lon="1.04167">
        <ele>99.97</ele>
        <time>2020-03-07T12:02:17Z</time>
      </trkpt>
      <trkpt lat="44.50139" lon="1.04167">
        <ele>99.98</ele>
        <time>2020-03-07T12:02:18Z</time>
      </trkpt>
      <trkpt lat="44.50142" lon="1.04168">
        <ele>100.01</ele>
        <time>2020-03-07T12:02:21Z</time>
      </trkpt>
      <trkpt lat="44.50143" lon="1.04167">
        <ele>99.99</ele>
        <time>2020-03-07T12:02:22Z</time>
      </trkpt>
      <trkpt lat="44.50145" lon="1.04166">
        <ele>99.97</ele>
        <time>2020-03-07T12:02:23Z</time>
      </trkpt>
      <trkpt lat="44.50146" lon="1.04166">
        <ele>99.99</ele>
        <time>2020-03-07T12:02:24Z</time>
      </trkpt>
      <trkpt lat="44.50148" lon="1.04165">
        <ele>99.99</ele>
        <time>2020-03-07T12:02:25Z</time>
      </trkpt>
      <trkpt lat="44.5015" lon="1.04164">
        <ele>100</ele>
        <time>2020-03-07T12:02:26Z</time>
      </trkpt>
      <trkpt lat="44.50174" lon="1.04154">
        <ele>100.02</ele>
        <time>2020-03-07T12:02:40Z</time>
      </trkpt>
      <trkpt lat="44.50185" lon="1.04153">
        <ele>102.4</ele>
        <time>2020-03-07T12:02:47Z</time>
      </trkpt>
      <trkpt lat="44.50192" lon="1.04154">
        <ele>102.42</ele>
        <time>2020-03-07T12:02:51Z</time>
      </trkpt>
      <trkpt lat="44.50209" lon="1.04153">
        <ele>105.04</ele>
        <time>2020-03-07T12:03:01Z</time>
      </trkpt>
      <trkpt lat="44.50226" lon="1.04157">
        <ele>106.54</ele>
        <time>2020-03-07T12:03:11Z</time>
      </trkpt>
      <trkpt lat="44.50237" lon="1.04158">
        <ele>107.34</ele>
        <time>2020-03-07T12:03:18Z</time>
      </trkpt>
      <trkpt lat="44.50238" lon="1.04158">
        <ele>107.36</ele>
        <time>2020-03-07T12:03:19Z</time>
      </trkpt>
      <trkpt lat="44.50256" lon="1.04162">
        <ele>110.03</ele>
        <time>2020-03-07T12:03:32Z</time>
      </trkpt>
      <trkpt lat="44.50276" lon="1.04165">
        <ele>110.84</ele>
        <time>2020-03-07T12:03:45Z</time>
      </trkpt>
      <trkpt lat="44.50283" lon="1.04165">
        <ele>110.81</ele>
        <time>2020-03-07T12:03:49Z</time>
      </trkpt>
      <trkpt lat="44.50291" lon="1.04164">
        <ele>110.78</ele>
        <time>2020-03-07T12:03:55Z</time>
      </trkpt>
      <trkpt lat="44.50293" lon="1.04163">
        <ele>110.77</ele>
        <time>2020-03-07T12:03:56Z</time>
      </trkpt>
      <trkpt lat="44.50295" lon="1.04163">
        <ele>110.77</ele>
        <time>2020-03-07T12:03:57Z</time>
      </trkpt>
      <trkpt lat="44.50296" lon="1.04161">
        <ele>110.77</ele>
        <time>2020-03-07T12:03:58Z</time>
      </trkpt>
      <trkpt lat="44.50298" lon="1.0416">
        <ele>110.76</ele>
        <time>2020-03-07T12:03:59Z</time>
      </trkpt>
      <trkpt lat="44.50303" lon="1.04154">
        <ele>110.75</ele>
        <time>2020-03-07T12:04:03Z</time>
      </trkpt>
      <trkpt lat="44.50319" lon="1.0413">
        <ele>112.35</ele>
        <time>2020-03-07T12:04:16Z</time>
      </trkpt>
      <trkpt lat="44.50325" lon="1.04129">
        <ele>112.34</ele>
        <time>2020-03-07T12:04:20Z</time>
      </trkpt>
      <trkpt lat="44.50331" lon="1.04131">
        <ele>112.31</ele>
        <time>2020-03-07T12:04:24Z</time>
      </trkpt>
      <trkpt lat="44.50342" lon="1.04136">
        <ele>113.06</ele>
        <time>2020-03-07T12:04:30Z</time>
      </trkpt>
      <trkpt lat="44.50355" lon="1.04142">
        <ele>113.83</ele>
        <time>2020-03-07T12:04:37Z</time>
      </trkpt>
      <trkpt lat="44.5036" lon="1.04146">
        <ele>113.79</ele>
        <time>2020-03-07T12:04:40Z</time>
      </trkpt>
      <trkpt lat="44.50377" lon="1.0416">
        <ele>114.49</ele>
        <time>2020-03-07T12:04:50Z</time>
      </trkpt>
      <trkpt lat="44.50397" lon="1.04175">
        <ele>116.13</ele>
        <time>2020-03-07T12:05:01Z</time>
      </trkpt>
      <trkpt lat="44.50409" lon="1.04184">
        <ele>116.04</ele>
        <time>2020-03-07T12:05:08Z</time>
      </trkpt>
      <trkpt lat="44.50423" lon="1.04198">
        <ele>116.77</ele>
        <time>2020-03-07T12:05:18Z</time>
      </trkpt>
      <trkpt lat="44.50437" lon="1.04212">
        <ele>117.42</ele>
        <time>2020-03-07T12:05:29Z</time>
      </trkpt>
      <trkpt lat="44.5044" lon="1.04216">
        <ele>118.31</ele>
        <time>2020-03-07T12:05:32Z</time>
      </trkpt>
      <trkpt lat="44.50455" lon="1.04226">
        <ele>119.09</ele>
        <time>2020-03-07T12:05:44Z</time>
      </trkpt>
      <trkpt lat="44.50459" lon="1.04227">
        <ele>118.99</ele>
        <time>2020-03-07T12:05:46Z</time>
      </trkpt>
      <trkpt lat="44.5047" lon="1.04235">
        <ele>120.52</ele>
        <time>2020-03-07T12:05:54Z</time>
      </trkpt>
      <trkpt lat="44.50474" lon="1.04237">
        <ele>121.37</ele>
        <time>2020-03-07T12:05:57Z</time>
      </trkpt>
      <trkpt lat="44.50481" lon="1.04244">
        <ele>121.28</ele>
        <time>2020-03-07T12:06:02Z</time>
      </trkpt>
      <trkpt lat="44.50497" lon="1.04263">
        <ele>122.66</ele>
        <time>2020-03-07T12:06:15Z</time>
      </trkpt>
      <trkpt lat="44.50502" lon="1.0429">
        <ele>123.16</ele>
        <time>2020-03-07T12:06:28Z</time>
      </trkpt>
      <trkpt lat="44.50509" lon="1.043">
        <ele>124.49</ele>
        <time>2020-03-07T12:06:42Z</time>
      </trkpt>
      <trkpt lat="44.50504" lon="1.04313">
        <ele>124.91</ele>
        <time>2020-03-07T12:07:02Z</time>
      </trkpt>
      <trkpt lat="44.50496" lon="1.04318">
        <ele>125.31</ele>
        <time>2020-03-07T12:07:44Z</time>
      </trkpt>
      <trkpt lat="44.50499" lon="1.04338">
        <ele>126.29</ele>
        <time>2020-03-07T12:08:05Z</time>
      </trkpt>
      <trkpt lat="44.50499" lon="1.0436">
        <ele>127.14</ele>
        <time>2020-03-07T12:08:21Z</time>
      </trkpt>
      <trkpt lat="44.50498" lon="1.04372">
        <ele>128.61</ele>
        <time>2020-03-07T12:08:37Z</time>
      </trkpt>
      <trkpt lat="44.505" lon="1.04382">
        <ele>128.68</ele>
        <time>2020-03-07T12:08:53Z</time>
      </trkpt>
      <trkpt lat="44.50506" lon="1.04398">
        <ele>130.4</ele>
        <time>2020-03-07T12:09:09Z</time>
      </trkpt>
      <trkpt lat="44.50512" lon="1.04404">
        <ele>131.35</ele>
        <time>2020-03-07T12:09:25Z</time>
      </trkpt>
      <trkpt lat="44.50521" lon="1.04411">
        <ele>133.34</ele>
        <time>2020-03-07T12:09:39Z</time>
      </trkpt>
      <trkpt lat="44.50532" lon="1.04416">
        <ele>135.17</ele>
        <time>2020-03-07T12:09:54Z</time>
      </trkpt>
      <trkpt lat="44.50542" lon="1.04414">
        <ele>136.93</ele>
        <time>2020-03-07T12:10:09Z</time>
      </trkpt>
      <trkpt lat="44.50554" lon="1.04401">
        <ele>138.55</ele>
        <time>2020-03-07T12:10:25Z</time>
      </trkpt>
      <trkpt lat="44.5056" lon="1.04396">
        <ele>139.4</ele>
        <time>2020-03-07T12:10:37Z</time>
      </trkpt>
      <trkpt lat="44.50573" lon="1.04377">
        <ele>140.25</ele>
        <time>2020-03-07T12:10:52Z</time>
      </trkpt>
      <trkpt lat="44.50582" lon="1.04371">
        <ele>141.95</ele>
        <time>2020-03-07T12:11:00Z</time>
      </trkpt>
      <trkpt lat="44.50591" lon="1.04367">
        <ele>141.98</ele>
        <time>2020-03-07T12:11:05Z</time>
      </trkpt>
      <trkpt lat="44.50596" lon="1.0437">
        <ele>141.96</ele>
        <time>2020-03-07T12:11:09Z</time>
      </trkpt>
      <trkpt lat="44.50598" lon="1.04376">
        <ele>142.7</ele>
        <time>2020-03-07T12:11:16Z</time>
      </trkpt>
      <trkpt lat="44.50595" lon="1.04384">
        <ele>143.46</ele>
        <time>2020-03-07T12:11:21Z</time>
      </trkpt>
      <trkpt lat="44.50594" lon="1.04391">
        <ele>144.39</ele>
        <time>2020-03-07T12:11:25Z</time>
      </trkpt>
      <trkpt lat="44.50598" lon="1.04397">
        <ele>144.41</ele>
        <time>2020-03-07T12:11:29Z</time>
      </trkpt>
      <trkpt lat="44.50618" lon="1.04393">
        <ele>148.59</ele>
        <time>2020-03-07T12:11:45Z</time>
      </trkpt>
      <trkpt lat="44.50633" lon="1.04384">
        <ele>150.27</ele>
        <time>2020-03-07T12:11:57Z</time>
      </trkpt>
      <trkpt lat="44.50651" lon="1.04378">
        <ele>151.86</ele>
        <time>2020-03-07T12:12:10Z</time>
      </trkpt>
      <trkpt lat="44.50663" lon="1.04376">
        <ele>154.33</ele>
        <time>2020-03-07T12:12:24Z</time>
      </trkpt>
      <trkpt lat="44.50671" lon="1.04389">
        <ele>156.88</ele>
        <time>2020-03-07T12:12:45Z</time>
      </trkpt>
      <trkpt lat="44.5067" lon="1.04395">
        <ele>159.53</ele>
        <time>2020-03-07T12:13:02Z</time>
      </trkpt>
      <trkpt lat="44.50668" lon="1.04397">
        <ele>159.62</ele>
        <time>2020-03-07T12:13:23Z</time>
      </trkpt>
      <trkpt lat="44.5064" lon="1.04425">
        <ele>160.42</ele>
        <time>2020-03-07T12:13:40Z</time>
      </trkpt>
      <trkpt lat="44.50639" lon="1.04435">
        <ele>160.45</ele>
        <time>2020-03-07T12:13:44Z</time>
      </trkpt>
      <trkpt lat="44.50638" lon="1.04439">
        <ele>160.49</ele>
        <time>2020-03-07T12:13:46Z</time>
      </trkpt>
      <trkpt lat="44.50627" lon="1.04451">
        <ele>161.4</ele>
        <time>2020-03-07T12:13:55Z</time>
      </trkpt>
      <trkpt lat="44.50624" lon="1.04462">
        <ele>163.03</ele>
        <time>2020-03-07T12:14:14Z</time>
      </trkpt>
      <trkpt lat="44.50618" lon="1.04474">
        <ele>163.07</ele>
        <time>2020-03-07T12:14:31Z</time>
      </trkpt>
      <trkpt lat="44.506" lon="1.04498">
        <ele>163.02</ele>
        <time>2020-03-07T12:14:42Z</time>
      </trkpt>
      <trkpt lat="44.50578" lon="1.04514">
        <ele>162.98</ele>
        <time>2020-03-07T12:14:50Z</time>
      </trkpt>
      <trkpt lat="44.50567" lon="1.04532">
        <ele>164.73</ele>
        <time>2020-03-07T12:15:03Z</time>
      </trkpt>
      <trkpt lat="44.50565" lon="1.04544">
        <ele>168.25</ele>
        <time>2020-03-07T12:15:18Z</time>
      </trkpt>
      <trkpt lat="44.50563" lon="1.0455">
        <ele>170.6</ele>
        <time>2020-03-07T12:15:37Z</time>
      </trkpt>
      <trkpt lat="44.50562" lon="1.04559">
        <ele>172.4</ele>
        <time>2020-03-07T12:15:50Z</time>
      </trkpt>
      <trkpt lat="44.50558" lon="1.04572">
        <ele>175.95</ele>
        <time>2020-03-07T12:16:08Z</time>
      </trkpt>
      <trkpt lat="44.50555" lon="1.04581">
        <ele>179.17</ele>
        <time>2020-03-07T12:16:23Z</time>
      </trkpt>
      <trkpt lat="44.50552" lon="1.04586">
        <ele>179.8</ele>
        <time>2020-03-07T12:16:35Z</time>
      </trkpt>
      <trkpt lat="44.50533" lon="1.04603">
        <ele>180.7</ele>
        <time>2020-03-07T12:16:51Z</time>
      </trkpt>
      <trkpt lat="44.50512" lon="1.04626">
        <ele>180.72</ele>
        <time>2020-03-07T12:17:07Z</time>
      </trkpt>
      <trkpt lat="44.50505" lon="1.04637">
        <ele>181.48</ele>
        <time>2020-03-07T12:17:22Z</time>
      </trkpt>
      <trkpt lat="44.50502" lon="1.04641">
        <ele>181.46</ele>
        <time>2020-03-07T12:17:55Z</time>
      </trkpt>
      <trkpt lat="44.50498" lon="1.04648">
        <ele>181.46</ele>
        <time>2020-03-07T12:17:59Z</time>
      </trkpt>
      <trkpt lat="44.50481" lon="1.0468">
        <ele>181.34</ele>
        <time>2020-03-07T12:18:13Z</time>
      </trkpt>
      <trkpt lat="44.50478" lon="1.04684">
        <ele>179.02</ele>
        <time>2020-03-07T12:18:15Z</time>
      </trkpt>
      <trkpt lat="44.50476" lon="1.04703">
        <ele>176.37</ele>
        <time>2020-03-07T12:18:21Z</time>
      </trkpt>
      <trkpt lat="44.50472" lon="1.04747">
        <ele>174.61</ele>
        <time>2020-03-07T12:18:32Z</time>
      </trkpt>
      <trkpt lat="44.50479" lon="1.04767">
        <ele>174.71</ele>
        <time>2020-03-07T12:18:44Z</time>
      </trkpt>
      <trkpt lat="44.50481" lon="1.04772">
        <ele>177.33</ele>
        <time>2020-03-07T12:18:51Z</time>
      </trkpt>
      <trkpt lat="44.50487" lon="1.04776">
        <ele>180.78</ele>
        <time>2020-03-07T12:19:07Z</time>
      </trkpt>
      <trkpt lat="44.50492" lon="1.04778">
        <ele>182.49</ele>
        <time>2020-03-07T12:19:28Z</time>
      </trkpt>
      <trkpt lat="44.50498" lon="1.04782">
        <ele>185.02</ele>
        <time>2020-03-07T12:19:46Z</time>
      </trkpt>
      <trkpt lat="44.50502" lon="1.04785">
        <ele>187</ele>
        <time>2020-03-07T12:20:01Z</time>
      </trkpt>
      <trkpt lat="44.50507" lon="1.04784">
        <ele>187.94</ele>
        <time>2020-03-07T12:20:39Z</time>
      </trkpt>
      <trkpt lat="44.50513" lon="1.0478">
        <ele>189.77</ele>
        <time>2020-03-07T12:20:53Z</time>
      </trkpt>
      <trkpt lat="44.50511" lon="1.04774">
        <ele>191.21</ele>
        <time>2020-03-07T12:21:13Z</time>
      </trkpt>
      <trkpt lat="44.50517" lon="1.04765">
        <ele>192.96</ele>
        <time>2020-03-07T12:21:30Z</time>
      </trkpt>
      <trkpt lat="44.50519" lon="1.04761">
        <ele>194.6</ele>
        <time>2020-03-07T12:21:47Z</time>
      </trkpt>
      <trkpt lat="44.50525" lon="1.04761">
        <ele>198.06</ele>
        <time>2020-03-07T12:22:04Z</time>
      </trkpt>
      <trkpt lat="44.5053" lon="1.04757">
        <ele>200.76</ele>
        <time>2020-03-07T12:22:19Z</time>
      </trkpt>
      <trkpt lat="44.50535" lon="1.04756">
        <ele>202.37</ele>
        <time>2020-03-07T12:22:37Z</time>
      </trkpt>
      <trkpt lat="44.50541" lon="1.04759">
        <ele>203.19</ele>
        <time>2020-03-07T12:22:54Z</time>
      </trkpt>
      <trkpt lat="44.50544" lon="1.04762">
        <ele>204.03</ele>
        <time>2020-03-07T12:23:12Z</time>
      </trkpt>
      <trkpt lat="44.50562" lon="1.04766">
        <ele>205.9</ele>
        <time>2020-03-07T12:23:26Z</time>
      </trkpt>
      <trkpt lat="44.50574" lon="1.04768">
        <ele>205.85</ele>
        <time>2020-03-07T12:23:40Z</time>
      </trkpt>
      <trkpt lat="44.50588" lon="1.04772">
        <ele>206.69</ele>
        <time>2020-03-07T12:23:51Z</time>
      </trkpt>
      <trkpt lat="44.50613" lon="1.04772">
        <ele>206.6</ele>
        <time>2020-03-07T12:24:08Z</time>
      </trkpt>
      <trkpt lat="44.50619" lon="1.04771">
        <ele>207.37</ele>
        <time>2020-03-07T12:24:11Z</time>
      </trkpt>
      <trkpt lat="44.50626" lon="1.04765">
        <ele>207.34</ele>
        <time>2020-03-07T12:24:16Z</time>
      </trkpt>
      <trkpt lat="44.50649" lon="1.04735">
        <ele>208.06</ele>
        <time>2020-03-07T12:24:32Z</time>
      </trkpt>
      <trkpt lat="44.50664" lon="1.04714">
        <ele>208.76</ele>
        <time>2020-03-07T12:24:44Z</time>
      </trkpt>
      <trkpt lat="44.50671" lon="1.04696">
        <ele>209.53</ele>
        <time>2020-03-07T12:24:53Z</time>
      </trkpt>
      <trkpt lat="44.50684" lon="1.0466">
        <ele>210.18</ele>
        <time>2020-03-07T12:25:08Z</time>
      </trkpt>
      <trkpt lat="44.50708" lon="1.04618">
        <ele>210.04</ele>
        <time>2020-03-07T12:25:28Z</time>
      </trkpt>
      <trkpt lat="44.50724" lon="1.04589">
        <ele>210</ele>
        <time>2020-03-07T12:25:41Z</time>
      </trkpt>
      <trkpt lat="44.50743" lon="1.04571">
        <ele>210.82</ele>
        <time>2020-03-07T12:25:54Z</time>
      </trkpt>
      <trkpt lat="44.50761" lon="1.04562">
        <ele>211.6</ele>
        <time>2020-03-07T12:26:05Z</time>
      </trkpt>
      <trkpt lat="44.50787" lon="1.04543">
        <ele>211.49</ele>
        <time>2020-03-07T12:26:17Z</time>
      </trkpt>
      <trkpt lat="44.50808" lon="1.04533">
        <ele>209.02</ele>
        <time>2020-03-07T12:26:25Z</time>
      </trkpt>
      <trkpt lat="44.50834" lon="1.04514">
        <ele>206.2</ele>
        <time>2020-03-07T12:26:34Z</time>
      </trkpt>
      <trkpt lat="44.50848" lon="1.04498">
        <ele>204.17</ele>
        <time>2020-03-07T12:26:40Z</time>
      </trkpt>
      <trkpt lat="44.50879" lon="1.04471">
        <ele>202.49</ele>
        <time>2020-03-07T12:26:52Z</time>
      </trkpt>
      <trkpt lat="44.50903" lon="1.04459">
        <ele>202.46</ele>
        <time>2020-03-07T12:27:03Z</time>
      </trkpt>
      <trkpt lat="44.50932" lon="1.04449">
        <ele>202.33</ele>
        <time>2020-03-07T12:27:15Z</time>
      </trkpt>
      <trkpt lat="44.50949" lon="1.04444">
        <ele>202.25</ele>
        <time>2020-03-07T12:27:22Z</time>
      </trkpt>
      <trkpt lat="44.50952" lon="1.04443">
        <ele>202.24</ele>
        <time>2020-03-07T12:27:23Z</time>
      </trkpt>
      <trkpt lat="44.50954" lon="1.04442">
        <ele>202.24</ele>
        <time>2020-03-07T12:27:24Z</time>
      </trkpt>
      <trkpt lat="44.50957" lon="1.0444">
        <ele>202.23</ele>
        <time>2020-03-07T12:27:25Z</time>
      </trkpt>
      <trkpt lat="44.50959" lon="1.04439">
        <ele>202.22</ele>
        <time>2020-03-07T12:27:26Z</time>
      </trkpt>
      <trkpt lat="44.50961" lon="1.04437">
        <ele>202.21</ele>
        <time>2020-03-07T12:27:27Z</time>
      </trkpt>
      <trkpt lat="44.50995" lon="1.04401">
        <ele>204.41</ele>
        <time>2020-03-07T12:27:42Z</time>
      </trkpt>
      <trkpt lat="44.51027" lon="1.04358">
        <ele>206.11</ele>
        <time>2020-03-07T12:27:59Z</time>
      </trkpt>
      <trkpt lat="44.51053" lon="1.04316">
        <ele>209.25</ele>
        <time>2020-03-07T12:28:16Z</time>
      </trkpt>
      <trkpt lat="44.51054" lon="1.04314">
        <ele>209.25</ele>
        <time>2020-03-07T12:28:17Z</time>
      </trkpt>
      <trkpt lat="44.5107" lon="1.0426">
        <ele>209.99</ele>
        <time>2020-03-07T12:28:33Z</time>
      </trkpt>
      <trkpt lat="44.51076" lon="1.04207">
        <ele>207.19</ele>
        <time>2020-03-07T12:28:40Z</time>
      </trkpt>
      <trkpt lat="44.51083" lon="1.04179">
        <ele>204.3</ele>
        <time>2020-03-07T12:28:43Z</time>
      </trkpt>
      <trkpt lat="44.51087" lon="1.0417">
        <ele>204.29</ele>
        <time>2020-03-07T12:28:44Z</time>
      </trkpt>
      <trkpt lat="44.51092" lon="1.04163">
        <ele>203.39</ele>
        <time>2020-03-07T12:28:45Z</time>
      </trkpt>
      <trkpt lat="44.51097" lon="1.04158">
        <ele>203.34</ele>
        <time>2020-03-07T12:28:46Z</time>
      </trkpt>
      <trkpt lat="44.51102" lon="1.04154">
        <ele>202.59</ele>
        <time>2020-03-07T12:28:47Z</time>
      </trkpt>
      <trkpt lat="44.51108" lon="1.04149">
        <ele>202.59</ele>
        <time>2020-03-07T12:28:48Z</time>
      </trkpt>
      <trkpt lat="44.51112" lon="1.04143">
        <ele>202.59</ele>
        <time>2020-03-07T12:28:49Z</time>
      </trkpt>
      <trkpt lat="44.51115" lon="1.04136">
        <ele>202.57</ele>
        <time>2020-03-07T12:28:50Z</time>
      </trkpt>
      <trkpt lat="44.51117" lon="1.04128">
        <ele>201.7</ele>
        <time>2020-03-07T12:28:51Z</time>
      </trkpt>
      <trkpt lat="44.51118" lon="1.0412">
        <ele>201.72</ele>
        <time>2020-03-07T12:28:52Z</time>
      </trkpt>
      <trkpt lat="44.51118" lon="1.04112">
        <ele>201.75</ele>
        <time>2020-03-07T12:28:53Z</time>
      </trkpt>
      <trkpt lat="44.51118" lon="1.04103">
        <ele>201.77</ele>
        <time>2020-03-07T12:28:54Z</time>
      </trkpt>
      <trkpt lat="44.51117" lon="1.04095">
        <ele>201.69</ele>
        <time>2020-03-07T12:28:55Z</time>
      </trkpt>
      <trkpt lat="44.51115" lon="1.04087">
        <ele>200.93</ele>
        <time>2020-03-07T12:28:56Z</time>
      </trkpt>
      <trkpt lat="44.51107" lon="1.04001">
        <ele>200.29</ele>
        <time>2020-03-07T12:29:10Z</time>
      </trkpt>
      <trkpt lat="44.51123" lon="1.03895">
        <ele>200.41</ele>
        <time>2020-03-07T12:29:30Z</time>
      </trkpt>
      <trkpt lat="44.51142" lon="1.03843">
        <ele>202.83</ele>
        <time>2020-03-07T12:29:43Z</time>
      </trkpt>
      <trkpt lat="44.51161" lon="1.03793">
        <ele>204.36</ele>
        <time>2020-03-07T12:29:58Z</time>
      </trkpt>
      <trkpt lat="44.51185" lon="1.03738">
        <ele>204.34</ele>
        <time>2020-03-07T12:30:14Z</time>
      </trkpt>
      <trkpt lat="44.51186" lon="1.03737">
        <ele>204.34</ele>
        <time>2020-03-07T12:30:15Z</time>
      </trkpt>
      <trkpt lat="44.51188" lon="1.03739">
        <ele>204.34</ele>
        <time>2020-03-07T12:30:16Z</time>
      </trkpt>
      <trkpt lat="44.51189" lon="1.03741">
        <ele>204.34</ele>
        <time>2020-03-07T12:30:17Z</time>
      </trkpt>
      <trkpt lat="44.5119" lon="1.03745">
        <ele>204.34</ele>
        <time>2020-03-07T12:30:18Z</time>
      </trkpt>
      <trkpt lat="44.51192" lon="1.03748">
        <ele>204.34</ele>
        <time>2020-03-07T12:30:19Z</time>
      </trkpt>
      <trkpt lat="44.51209" lon="1.03777">
        <ele>204.3</ele>
        <time>2020-03-07T12:30:26Z</time>
      </trkpt>
      <trkpt lat="44.51212" lon="1.0378">
        <ele>201.72</ele>
        <time>2020-03-07T12:30:27Z</time>
      </trkpt>
      <trkpt lat="44.51215" lon="1.03784">
        <ele>201.72</ele>
        <time>2020-03-07T12:30:28Z</time>
      </trkpt>
      <trkpt lat="44.51228" lon="1.03803">
        <ele>199.49</ele>
        <time>2020-03-07T12:30:34Z</time>
      </trkpt>
      <trkpt lat="44.51241" lon="1.0382">
        <ele>196.33</ele>
        <time>2020-03-07T12:30:40Z</time>
      </trkpt>
      <trkpt lat="44.51245" lon="1.0383">
        <ele>195.24</ele>
        <time>2020-03-07T12:30:42Z</time>
      </trkpt>
      <trkpt lat="44.51246" lon="1.03835">
        <ele>195.26</ele>
        <time>2020-03-07T12:30:43Z</time>
      </trkpt>
      <trkpt lat="44.51248" lon="1.03841">
        <ele>194.25</ele>
        <time>2020-03-07T12:30:44Z</time>
      </trkpt>
      <trkpt lat="44.51249" lon="1.03846">
        <ele>194.26</ele>
        <time>2020-03-07T12:30:45Z</time>
      </trkpt>
      <trkpt lat="44.5125" lon="1.03852">
        <ele>193.41</ele>
        <time>2020-03-07T12:30:46Z</time>
      </trkpt>
      <trkpt lat="44.51251" lon="1.03858">
        <ele>193.41</ele>
        <time>2020-03-07T12:30:47Z</time>
      </trkpt>
      <trkpt lat="44.51251" lon="1.03864">
        <ele>191.94</ele>
        <time>2020-03-07T12:30:48Z</time>
      </trkpt>
      <trkpt lat="44.51252" lon="1.03871">
        <ele>191.9</ele>
        <time>2020-03-07T12:30:49Z</time>
      </trkpt>
      <trkpt lat="44.51258" lon="1.03918">
        <ele>188.27</ele>
        <time>2020-03-07T12:30:58Z</time>
      </trkpt>
      <trkpt lat="44.51284" lon="1.03949">
        <ele>186.39</ele>
        <time>2020-03-07T12:31:08Z</time>
      </trkpt>
      <trkpt lat="44.51301" lon="1.03963">
        <ele>185.26</ele>
        <time>2020-03-07T12:31:18Z</time>
      </trkpt>
      <trkpt lat="44.51305" lon="1.03968">
        <ele>184.22</ele>
        <time>2020-03-07T12:31:20Z</time>
      </trkpt>
      <trkpt lat="44.51309" lon="1.03972">
        <ele>183.4</ele>
        <time>2020-03-07T12:31:22Z</time>
      </trkpt>
      <trkpt lat="44.51311" lon="1.03973">
        <ele>183.42</ele>
        <time>2020-03-07T12:31:23Z</time>
      </trkpt>
      <trkpt lat="44.51315" lon="1.03976">
        <ele>182.14</ele>
        <time>2020-03-07T12:31:25Z</time>
      </trkpt>
      <trkpt lat="44.51316" lon="1.03977">
        <ele>181.36</ele>
        <time>2020-03-07T12:31:26Z</time>
      </trkpt>
      <trkpt lat="44.51318" lon="1.03978">
        <ele>181.34</ele>
        <time>2020-03-07T12:31:27Z</time>
      </trkpt>
      <trkpt lat="44.51321" lon="1.03978">
        <ele>180.36</ele>
        <time>2020-03-07T12:31:28Z</time>
      </trkpt>
      <trkpt lat="44.51323" lon="1.03978">
        <ele>180.35</ele>
        <time>2020-03-07T12:31:29Z</time>
      </trkpt>
      <trkpt lat="44.51327" lon="1.03978">
        <ele>179.43</ele>
        <time>2020-03-07T12:31:30Z</time>
      </trkpt>
      <trkpt lat="44.51329" lon="1.03977">
        <ele>179.42</ele>
        <time>2020-03-07T12:31:31Z</time>
      </trkpt>
      <trkpt lat="44.51346" lon="1.03973">
        <ele>176.42</ele>
        <time>2020-03-07T12:31:38Z</time>
      </trkpt>
      <trkpt lat="44.51364" lon="1.03971">
        <ele>173.34</ele>
        <time>2020-03-07T12:31:47Z</time>
      </trkpt>
      <trkpt lat="44.51366" lon="1.03971">
        <ele>173.27</ele>
        <time>2020-03-07T12:31:48Z</time>
      </trkpt>
      <trkpt lat="44.51387" lon="1.03969">
        <ele>170.13</ele>
        <time>2020-03-07T12:31:57Z</time>
      </trkpt>
      <trkpt lat="44.5141" lon="1.03966">
        <ele>167.07</ele>
        <time>2020-03-07T12:32:05Z</time>
      </trkpt>
      <trkpt lat="44.51442" lon="1.03951">
        <ele>163.33</ele>
        <time>2020-03-07T12:32:16Z</time>
      </trkpt>
      <trkpt lat="44.51445" lon="1.03949">
        <ele>163.32</ele>
        <time>2020-03-07T12:32:17Z</time>
      </trkpt>
      <trkpt lat="44.51448" lon="1.03947">
        <ele>163.3</ele>
        <time>2020-03-07T12:32:18Z</time>
      </trkpt>
      <trkpt lat="44.51471" lon="1.0393">
        <ele>159.86</ele>
        <time>2020-03-07T12:32:27Z</time>
      </trkpt>
      <trkpt lat="44.51492" lon="1.03912">
        <ele>157.89</ele>
        <time>2020-03-07T12:32:35Z</time>
      </trkpt>
      <trkpt lat="44.51523" lon="1.03897">
        <ele>154.5</ele>
        <time>2020-03-07T12:32:45Z</time>
      </trkpt>
      <trkpt lat="44.51536" lon="1.03894">
        <ele>153.48</ele>
        <time>2020-03-07T12:32:48Z</time>
      </trkpt>
      <trkpt lat="44.51541" lon="1.03892">
        <ele>153.47</ele>
        <time>2020-03-07T12:32:49Z</time>
      </trkpt>
      <trkpt lat="44.51563" lon="1.03882">
        <ele>151.28</ele>
        <time>2020-03-07T12:32:53Z</time>
      </trkpt>
      <trkpt lat="44.51574" lon="1.03876">
        <ele>150.05</ele>
        <time>2020-03-07T12:32:55Z</time>
      </trkpt>
      <trkpt lat="44.51586" lon="1.03871">
        <ele>148.68</ele>
        <time>2020-03-07T12:32:57Z</time>
      </trkpt>
      <trkpt lat="44.51599" lon="1.03868">
        <ele>147.37</ele>
        <time>2020-03-07T12:32:59Z</time>
      </trkpt>
      <trkpt lat="44.51618" lon="1.03862">
        <ele>144.91</ele>
        <time>2020-03-07T12:33:02Z</time>
      </trkpt>
      <trkpt lat="44.51633" lon="1.03859">
        <ele>142.98</ele>
        <time>2020-03-07T12:33:05Z</time>
      </trkpt>
      <trkpt lat="44.51647" lon="1.03855">
        <ele>141.17</ele>
        <time>2020-03-07T12:33:08Z</time>
      </trkpt>
      <trkpt lat="44.51652" lon="1.03854">
        <ele>140.15</ele>
        <time>2020-03-07T12:33:09Z</time>
      </trkpt>
      <trkpt lat="44.51657" lon="1.03852">
        <ele>140.16</ele>
        <time>2020-03-07T12:33:10Z</time>
      </trkpt>
      <trkpt lat="44.51665" lon="1.03848">
        <ele>138.81</ele>
        <time>2020-03-07T12:33:12Z</time>
      </trkpt>
      <trkpt lat="44.5167" lon="1.03847">
        <ele>137.41</ele>
        <time>2020-03-07T12:33:13Z</time>
      </trkpt>
      <trkpt lat="44.51674" lon="1.03847">
        <ele>137.51</ele>
        <time>2020-03-07T12:33:14Z</time>
      </trkpt>
      <trkpt lat="44.51682" lon="1.03847">
        <ele>136.16</ele>
        <time>2020-03-07T12:33:16Z</time>
      </trkpt>
      <trkpt lat="44.51701" lon="1.0385">
        <ele>132.47</ele>
        <time>2020-03-07T12:33:20Z</time>
      </trkpt>
      <trkpt lat="44.51706" lon="1.03851">
        <ele>132.41</ele>
        <time>2020-03-07T12:33:21Z</time>
      </trkpt>
      <trkpt lat="44.51722" lon="1.03855">
        <ele>130.25</ele>
        <time>2020-03-07T12:33:24Z</time>
      </trkpt>
      <trkpt lat="44.51734" lon="1.03859">
        <ele>128.65</ele>
        <time>2020-03-07T12:33:26Z</time>
      </trkpt>
      <trkpt lat="44.51746" lon="1.03863">
        <ele>127.24</ele>
        <time>2020-03-07T12:33:28Z</time>
      </trkpt>
      <trkpt lat="44.51757" lon="1.03866">
        <ele>125.95</ele>
        <time>2020-03-07T12:33:30Z</time>
      </trkpt>
      <trkpt lat="44.51769" lon="1.03871">
        <ele>124.66</ele>
        <time>2020-03-07T12:33:32Z</time>
      </trkpt>
      <trkpt lat="44.51801" lon="1.0388">
        <ele>121.22</ele>
        <time>2020-03-07T12:33:37Z</time>
      </trkpt>
      <trkpt lat="44.51828" lon="1.03887">
        <ele>119.09</ele>
        <time>2020-03-07T12:33:41Z</time>
      </trkpt>
      <trkpt lat="44.51841" lon="1.03888">
        <ele>118.32</ele>
        <time>2020-03-07T12:33:43Z</time>
      </trkpt>
      <trkpt lat="44.51848" lon="1.03888">
        <ele>118.39</ele>
        <time>2020-03-07T12:33:44Z</time>
      </trkpt>
      <trkpt lat="44.51867" lon="1.03889">
        <ele>116.54</ele>
        <time>2020-03-07T12:33:47Z</time>
      </trkpt>
      <trkpt lat="44.51885" lon="1.03891">
        <ele>114.58</ele>
        <time>2020-03-07T12:33:50Z</time>
      </trkpt>
      <trkpt lat="44.5189" lon="1.03892">
        <ele>113.37</ele>
        <time>2020-03-07T12:33:51Z</time>
      </trkpt>
      <trkpt lat="44.51901" lon="1.03895">
        <ele>112.21</ele>
        <time>2020-03-07T12:33:53Z</time>
      </trkpt>
      <trkpt lat="44.51906" lon="1.03898">
        <ele>111.44</ele>
        <time>2020-03-07T12:33:54Z</time>
      </trkpt>
      <trkpt lat="44.5191" lon="1.039">
        <ele>111.39</ele>
        <time>2020-03-07T12:33:55Z</time>
      </trkpt>
      <trkpt lat="44.51914" lon="1.03903">
        <ele>110.12</ele>
        <time>2020-03-07T12:33:56Z</time>
      </trkpt>
      <trkpt lat="44.51918" lon="1.03905">
        <ele>110.12</ele>
        <time>2020-03-07T12:33:57Z</time>
      </trkpt>
      <trkpt lat="44.51921" lon="1.03908">
        <ele>109</ele>
        <time>2020-03-07T12:33:58Z</time>
      </trkpt>
      <trkpt lat="44.51924" lon="1.03911">
        <ele>109.05</ele>
        <time>2020-03-07T12:33:59Z</time>
      </trkpt>
      <trkpt lat="44.51928" lon="1.03914">
        <ele>107.85</ele>
        <time>2020-03-07T12:34:00Z</time>
      </trkpt>
      <trkpt lat="44.51947" lon="1.0393">
        <ele>105.15</ele>
        <time>2020-03-07T12:34:04Z</time>
      </trkpt>
      <trkpt lat="44.51962" lon="1.03942">
        <ele>101.78</ele>
        <time>2020-03-07T12:34:07Z</time>
      </trkpt>
      <trkpt lat="44.51971" lon="1.03948">
        <ele>100.85</ele>
        <time>2020-03-07T12:34:09Z</time>
      </trkpt>
      <trkpt lat="44.51986" lon="1.03959">
        <ele>97.63</ele>
        <time>2020-03-07T12:34:12Z</time>
      </trkpt>
      <trkpt lat="44.5199" lon="1.03962">
        <ele>97.56</ele>
        <time>2020-03-07T12:34:13Z</time>
      </trkpt>
      <trkpt lat="44.51996" lon="1.03967">
        <ele>96.27</ele>
        <time>2020-03-07T12:34:15Z</time>
      </trkpt>
      <trkpt lat="44.51998" lon="1.03968">
        <ele>95.17</ele>
        <time>2020-03-07T12:34:16Z</time>
      </trkpt>
      <trkpt lat="44.52001" lon="1.03963">
        <ele>94.23</ele>
        <time>2020-03-07T12:34:18Z</time>
      </trkpt>
      <trkpt lat="44.52" lon="1.03959">
        <ele>94.26</ele>
        <time>2020-03-07T12:34:19Z</time>
      </trkpt>
      <trkpt lat="44.51999" lon="1.03956">
        <ele>93.21</ele>
        <time>2020-03-07T12:34:20Z</time>
      </trkpt>
      <trkpt lat="44.51997" lon="1.03952">
        <ele>93.16</ele>
        <time>2020-03-07T12:34:21Z</time>
      </trkpt>
      <trkpt lat="44.51974" lon="1.03899">
        <ele>89.21</ele>
        <time>2020-03-07T12:34:32Z</time>
      </trkpt>
      <trkpt lat="44.51939" lon="1.0382">
        <ele>86.43</ele>
        <time>2020-03-07T12:34:48Z</time>
      </trkpt>
      <trkpt lat="44.5192" lon="1.03752">
        <ele>85.73</ele>
        <time>2020-03-07T12:35:05Z</time>
      </trkpt>
      <trkpt lat="44.51905" lon="1.0368">
        <ele>85.78</ele>
        <time>2020-03-07T12:35:19Z</time>
      </trkpt>
      <trkpt lat="44.51902" lon="1.03661">
        <ele>84.98</ele>
        <time>2020-03-07T12:35:22Z</time>
      </trkpt>
      <trkpt lat="44.51886" lon="1.03597">
        <ele>85.06</ele>
        <time>2020-03-07T12:35:37Z</time>
      </trkpt>
      <trkpt lat="44.51882" lon="1.03558">
        <ele>85.07</ele>
        <time>2020-03-07T12:35:44Z</time>
      </trkpt>
      <trkpt lat="44.51886" lon="1.03482">
        <ele>84.16</ele>
        <time>2020-03-07T12:35:58Z</time>
      </trkpt>
      <trkpt lat="44.51891" lon="1.03421">
        <ele>84.26</ele>
        <time>2020-03-07T12:36:11Z</time>
      </trkpt>
      <trkpt lat="44.51891" lon="1.03414">
        <ele>84.27</ele>
        <time>2020-03-07T12:36:22Z</time>
      </trkpt>
      <trkpt lat="44.51893" lon="1.03406">
        <ele>84.29</ele>
        <time>2020-03-07T12:36:39Z</time>
      </trkpt>
      <trkpt lat="44.51897" lon="1.03389">
        <ele>84.29</ele>
        <time>2020-03-07T12:36:45Z</time>
      </trkpt>
      <trkpt lat="44.51897" lon="1.03325">
        <ele>84.3</ele>
        <time>2020-03-07T12:36:59Z</time>
      </trkpt>
      <trkpt lat="44.51889" lon="1.03268">
        <ele>84.37</ele>
        <time>2020-03-07T12:37:13Z</time>
      </trkpt>
      <trkpt lat="44.51885" lon="1.0323">
        <ele>84.42</ele>
        <time>2020-03-07T12:37:24Z</time>
      </trkpt>
      <trkpt lat="44.51895" lon="1.03228">
        <ele>84.42</ele>
        <time>2020-03-07T12:37:28Z</time>
      </trkpt>
      <trkpt lat="44.51921" lon="1.03231">
        <ele>83.67</ele>
        <time>2020-03-07T12:37:34Z</time>
      </trkpt>
      <trkpt lat="44.51927" lon="1.03187">
        <ele>81.11</ele>
        <time>2020-03-07T12:37:46Z</time>
      </trkpt>
      <trkpt lat="44.51929" lon="1.03108">
        <ele>80.45</ele>
        <time>2020-03-07T12:38:06Z</time>
      </trkpt>
      <trkpt lat="44.51929" lon="1.03105">
        <ele>80.45</ele>
        <time>2020-03-07T12:38:07Z</time>
      </trkpt>
      <trkpt lat="44.51936" lon="1.03099">
        <ele>80.47</ele>
        <time>2020-03-07T12:38:12Z</time>
      </trkpt>
      <trkpt lat="44.51967" lon="1.03102">
        <ele>80.56</ele>
        <time>2020-03-07T12:38:25Z</time>
      </trkpt>
      <trkpt lat="44.52011" lon="1.03109">
        <ele>80.56</ele>
        <time>2020-03-07T12:38:39Z</time>
      </trkpt>
      <trkpt lat="44.52064" lon="1.03111">
        <ele>80.59</ele>
        <time>2020-03-07T12:38:56Z</time>
      </trkpt>
      <trkpt lat="44.52102" lon="1.03114">
        <ele>80.62</ele>
        <time>2020-03-07T12:39:09Z</time>
      </trkpt>
      <trkpt lat="44.5214" lon="1.03127">
        <ele>80.64</ele>
        <time>2020-03-07T12:39:22Z</time>
      </trkpt>
      <trkpt lat="44.5217" lon="1.03137">
        <ele>83</ele>
        <time>2020-03-07T12:39:33Z</time>
      </trkpt>
      <trkpt lat="44.52181" lon="1.0314">
        <ele>84.13</ele>
        <time>2020-03-07T12:39:39Z</time>
      </trkpt>
      <trkpt lat="44.52183" lon="1.03139">
        <ele>84.13</ele>
        <time>2020-03-07T12:39:40Z</time>
      </trkpt>
      <trkpt lat="44.52184" lon="1.03136">
        <ele>84.14</ele>
        <time>2020-03-07T12:39:41Z</time>
      </trkpt>
      <trkpt lat="44.52185" lon="1.03133">
        <ele>84.13</ele>
        <time>2020-03-07T12:39:42Z</time>
      </trkpt>
      <trkpt lat="44.52186" lon="1.03129">
        <ele>84.15</ele>
        <time>2020-03-07T12:39:43Z</time>
      </trkpt>
      <trkpt lat="44.52186" lon="1.03125">
        <ele>84.14</ele>
        <time>2020-03-07T12:39:44Z</time>
      </trkpt>
      <trkpt lat="44.52186" lon="1.03121">
        <ele>84.15</ele>
        <time>2020-03-07T12:39:45Z</time>
      </trkpt>
      <trkpt lat="44.52186" lon="1.03117">
        <ele>84.15</ele>
        <time>2020-03-07T12:39:46Z</time>
      </trkpt>
      <trkpt lat="44.52186" lon="1.03113">
        <ele>84.16</ele>
        <time>2020-03-07T12:39:47Z</time>
      </trkpt>
      <trkpt lat="44.52179" lon="1.03023">
        <ele>85.07</ele>
        <time>2020-03-07T12:40:06Z</time>
      </trkpt>
      <trkpt lat="44.52175" lon="1.02975">
        <ele>82.78</ele>
        <time>2020-03-07T12:40:15Z</time>
      </trkpt>
      <trkpt lat="44.52167" lon="1.02867">
        <ele>81.86</ele>
        <time>2020-03-07T12:40:33Z</time>
      </trkpt>
      <trkpt lat="44.52156" lon="1.02711">
        <ele>80.36</ele>
        <time>2020-03-07T12:40:58Z</time>
      </trkpt>
      <trkpt lat="44.52144" lon="1.02553">
        <ele>78.83</ele>
        <time>2020-03-07T12:41:23Z</time>
      </trkpt>
      <trkpt lat="44.52134" lon="1.02391">
        <ele>78.92</ele>
        <time>2020-03-07T12:41:50Z</time>
      </trkpt>
      <trkpt lat="44.52123" lon="1.02246">
        <ele>78.98</ele>
        <time>2020-03-07T12:42:14Z</time>
      </trkpt>
      <trkpt lat="44.52111" lon="1.02088">
        <ele>79.03</ele>
        <time>2020-03-07T12:42:40Z</time>
      </trkpt>
      <trkpt lat="44.52088" lon="1.01945">
        <ele>79.07</ele>
        <time>2020-03-07T12:43:04Z</time>
      </trkpt>
      <trkpt lat="44.52056" lon="1.01805">
        <ele>80.27</ele>
        <time>2020-03-07T12:43:27Z</time>
      </trkpt>
      <trkpt lat="44.52029" lon="1.01686">
        <ele>80.29</ele>
        <time>2020-03-07T12:43:48Z</time>
      </trkpt>
      <trkpt lat="44.52012" lon="1.0161">
        <ele>80.32</ele>
        <time>2020-03-07T12:44:03Z</time>
      </trkpt>
      <trkpt lat="44.52013" lon="1.01606">
        <ele>80.32</ele>
        <time>2020-03-07T12:44:04Z</time>
      </trkpt>
      <trkpt lat="44.52015" lon="1.01603">
        <ele>80.32</ele>
        <time>2020-03-07T12:44:05Z</time>
      </trkpt>
      <trkpt lat="44.52018" lon="1.01596">
        <ele>80.32</ele>
        <time>2020-03-07T12:44:07Z</time>
      </trkpt>
      <trkpt lat="44.52018" lon="1.01592">
        <ele>80.33</ele>
        <time>2020-03-07T12:44:08Z</time>
      </trkpt>
      <trkpt lat="44.52018" lon="1.01589">
        <ele>80.33</ele>
        <time>2020-03-07T12:44:09Z</time>
      </trkpt>
      <trkpt lat="44.52017" lon="1.01574">
        <ele>80.34</ele>
        <time>2020-03-07T12:44:20Z</time>
      </trkpt>
      <trkpt lat="44.52018" lon="1.01574">
        <ele>80.37</ele>
        <time>2020-03-07T12:45:07Z</time>
      </trkpt>
      <trkpt lat="44.52018" lon="1.01574">
        <ele>80.36</ele>
        <time>2020-03-07T12:46:06Z</time>
      </trkpt>
      <trkpt lat="44.52019" lon="1.01572">
        <ele>80.37</ele>
        <time>2020-03-07T12:46:08Z</time>
      </trkpt>
      <trkpt lat="44.5202" lon="1.01571">
        <ele>80.36</ele>
        <time>2020-03-07T12:46:09Z</time>
      </trkpt>
      <trkpt lat="44.52022" lon="1.01571">
        <ele>80.36</ele>
        <time>2020-03-07T12:46:10Z</time>
      </trkpt>
      <trkpt lat="44.52023" lon="1.01571">
        <ele>80.36</ele>
        <time>2020-03-07T12:46:11Z</time>
      </trkpt>
      <trkpt lat="44.52024" lon="1.01571">
        <ele>80.36</ele>
        <time>2020-03-07T12:46:12Z</time>
      </trkpt>
      <trkpt lat="44.52026" lon="1.01571">
        <ele>80.36</ele>
        <time>2020-03-07T12:46:13Z</time>
      </trkpt>
      <trkpt lat="44.52067" lon="1.01569">
        <ele>81.95</ele>
        <time>2020-03-07T12:46:29Z</time>
      </trkpt>
      <trkpt lat="44.5212" lon="1.01555">
        <ele>84.42</ele>
        <time>2020-03-07T12:46:50Z</time>
      </trkpt>
      <trkpt lat="44.52164" lon="1.01567">
        <ele>86.13</ele>
        <time>2020-03-07T12:47:08Z</time>
      </trkpt>
      <trkpt lat="44.5222" lon="1.01599">
        <ele>88.47</ele>
        <time>2020-03-07T12:47:30Z</time>
      </trkpt>
      <trkpt lat="44.52259" lon="1.01633">
        <ele>90.12</ele>
        <time>2020-03-07T12:47:49Z</time>
      </trkpt>
      <trkpt lat="44.52282" lon="1.01653">
        <ele>91.89</ele>
        <time>2020-03-07T12:48:04Z</time>
      </trkpt>
      <trkpt lat="44.52286" lon="1.01653">
        <ele>93.09</ele>
        <time>2020-03-07T12:48:06Z</time>
      </trkpt>
      <trkpt lat="44.52305" lon="1.01651">
        <ele>96.75</ele>
        <time>2020-03-07T12:48:16Z</time>
      </trkpt>
      <trkpt lat="44.52312" lon="1.0165">
        <ele>98.29</ele>
        <time>2020-03-07T12:48:20Z</time>
      </trkpt>
      <trkpt lat="44.52336" lon="1.01642">
        <ele>100.97</ele>
        <time>2020-03-07T12:48:34Z</time>
      </trkpt>
      <trkpt lat="44.52337" lon="1.0164">
        <ele>100.98</ele>
        <time>2020-03-07T12:48:35Z</time>
      </trkpt>
      <trkpt lat="44.52339" lon="1.01638">
        <ele>101.82</ele>
        <time>2020-03-07T12:48:36Z</time>
      </trkpt>
      <trkpt lat="44.52344" lon="1.01595">
        <ele>104.35</ele>
        <time>2020-03-07T12:48:53Z</time>
      </trkpt>
      <trkpt lat="44.52336" lon="1.01546">
        <ele>107.08</ele>
        <time>2020-03-07T12:49:14Z</time>
      </trkpt>
      <trkpt lat="44.52318" lon="1.01522">
        <ele>109.8</ele>
        <time>2020-03-07T12:49:30Z</time>
      </trkpt>
      <trkpt lat="44.52298" lon="1.01504">
        <ele>112.79</ele>
        <time>2020-03-07T12:49:45Z</time>
      </trkpt>
      <trkpt lat="44.52281" lon="1.01484">
        <ele>115.31</ele>
        <time>2020-03-07T12:49:59Z</time>
      </trkpt>
      <trkpt lat="44.52279" lon="1.01481">
        <ele>116.28</ele>
        <time>2020-03-07T12:50:01Z</time>
      </trkpt>
      <trkpt lat="44.52278" lon="1.0148">
        <ele>116.3</ele>
        <time>2020-03-07T12:50:02Z</time>
      </trkpt>
      <trkpt lat="44.52277" lon="1.01478">
        <ele>117.16</ele>
        <time>2020-03-07T12:50:03Z</time>
      </trkpt>
      <trkpt lat="44.52277" lon="1.01477">
        <ele>117.14</ele>
        <time>2020-03-07T12:50:04Z</time>
      </trkpt>
      <trkpt lat="44.52276" lon="1.01475">
        <ele>117.13</ele>
        <time>2020-03-07T12:50:05Z</time>
      </trkpt>
      <trkpt lat="44.52275" lon="1.01474">
        <ele>117.12</ele>
        <time>2020-03-07T12:50:06Z</time>
      </trkpt>
      <trkpt lat="44.52273" lon="1.01475">
        <ele>117.09</ele>
        <time>2020-03-07T12:50:08Z</time>
      </trkpt>
      <trkpt lat="44.52269" lon="1.0148">
        <ele>117.78</ele>
        <time>2020-03-07T12:50:26Z</time>
      </trkpt>
      <trkpt lat="44.52272" lon="1.01475">
        <ele>118.6</ele>
        <time>2020-03-07T12:51:01Z</time>
      </trkpt>
      <trkpt lat="44.52272" lon="1.01474">
        <ele>118.6</ele>
        <time>2020-03-07T12:51:02Z</time>
      </trkpt>
      <trkpt lat="44.52271" lon="1.01439">
        <ele>121.37</ele>
        <time>2020-03-07T12:51:18Z</time>
      </trkpt>
      <trkpt lat="44.52281" lon="1.01407">
        <ele>124.07</ele>
        <time>2020-03-07T12:51:34Z</time>
      </trkpt>
      <trkpt lat="44.52278" lon="1.01373">
        <ele>126.38</ele>
        <time>2020-03-07T12:51:51Z</time>
      </trkpt>
      <trkpt lat="44.52283" lon="1.01334">
        <ele>127.8</ele>
        <time>2020-03-07T12:52:09Z</time>
      </trkpt>
      <trkpt lat="44.52292" lon="1.01314">
        <ele>127.75</ele>
        <time>2020-03-07T12:52:22Z</time>
      </trkpt>
      <trkpt lat="44.52307" lon="1.01303">
        <ele>128.66</ele>
        <time>2020-03-07T12:52:32Z</time>
      </trkpt>
      <trkpt lat="44.5233" lon="1.01297">
        <ele>129.5</ele>
        <time>2020-03-07T12:52:44Z</time>
      </trkpt>
      <trkpt lat="44.52352" lon="1.01291">
        <ele>131.2</ele>
        <time>2020-03-07T12:52:58Z</time>
      </trkpt>
      <trkpt lat="44.52376" lon="1.01276">
        <ele>132.02</ele>
        <time>2020-03-07T12:53:13Z</time>
      </trkpt>
      <trkpt lat="44.52379" lon="1.01275">
        <ele>132</ele>
        <time>2020-03-07T12:53:15Z</time>
      </trkpt>
      <trkpt lat="44.52381" lon="1.01274">
        <ele>132.85</ele>
        <time>2020-03-07T12:53:16Z</time>
      </trkpt>
      <trkpt lat="44.52393" lon="1.01271">
        <ele>132.84</ele>
        <time>2020-03-07T12:53:22Z</time>
      </trkpt>
      <trkpt lat="44.52394" lon="1.01271">
        <ele>132.84</ele>
        <time>2020-03-07T12:53:23Z</time>
      </trkpt>
      <trkpt lat="44.52427" lon="1.01267">
        <ele>134.56</ele>
        <time>2020-03-07T12:53:41Z</time>
      </trkpt>
      <trkpt lat="44.52449" lon="1.01253">
        <ele>135.32</ele>
        <time>2020-03-07T12:53:55Z</time>
      </trkpt>
      <trkpt lat="44.52466" lon="1.01223">
        <ele>135.22</ele>
        <time>2020-03-07T12:54:08Z</time>
      </trkpt>
      <trkpt lat="44.52466" lon="1.01219">
        <ele>135.21</ele>
        <time>2020-03-07T12:54:10Z</time>
      </trkpt>
      <trkpt lat="44.52467" lon="1.01216">
        <ele>135.2</ele>
        <time>2020-03-07T12:54:11Z</time>
      </trkpt>
      <trkpt lat="44.52469" lon="1.01214">
        <ele>135.19</ele>
        <time>2020-03-07T12:54:12Z</time>
      </trkpt>
      <trkpt lat="44.5247" lon="1.01211">
        <ele>135.18</ele>
        <time>2020-03-07T12:54:13Z</time>
      </trkpt>
      <trkpt lat="44.52471" lon="1.01208">
        <ele>135.17</ele>
        <time>2020-03-07T12:54:14Z</time>
      </trkpt>
      <trkpt lat="44.52471" lon="1.01206">
        <ele>135.17</ele>
        <time>2020-03-07T12:54:15Z</time>
      </trkpt>
      <trkpt lat="44.52472" lon="1.01203">
        <ele>135.17</ele>
        <time>2020-03-07T12:54:16Z</time>
      </trkpt>
      <trkpt lat="44.52473" lon="1.012">
        <ele>135.16</ele>
        <time>2020-03-07T12:54:17Z</time>
      </trkpt>
      <trkpt lat="44.52473" lon="1.01197">
        <ele>135.15</ele>
        <time>2020-03-07T12:54:18Z</time>
      </trkpt>
      <trkpt lat="44.52473" lon="1.01194">
        <ele>135.14</ele>
        <time>2020-03-07T12:54:19Z</time>
      </trkpt>
      <trkpt lat="44.52475" lon="1.01183">
        <ele>135.14</ele>
        <time>2020-03-07T12:54:23Z</time>
      </trkpt>
      <trkpt lat="44.52475" lon="1.01181">
        <ele>135.14</ele>
        <time>2020-03-07T12:54:24Z</time>
      </trkpt>
      <trkpt lat="44.52475" lon="1.01178">
        <ele>135.13</ele>
        <time>2020-03-07T12:54:25Z</time>
      </trkpt>
      <trkpt lat="44.52475" lon="1.01176">
        <ele>135.13</ele>
        <time>2020-03-07T12:54:26Z</time>
      </trkpt>
      <trkpt lat="44.52475" lon="1.01174">
        <ele>135.13</ele>
        <time>2020-03-07T12:54:27Z</time>
      </trkpt>
      <trkpt lat="44.52475" lon="1.01171">
        <ele>135.12</ele>
        <time>2020-03-07T12:54:28Z</time>
      </trkpt>
      <trkpt lat="44.52474" lon="1.01165">
        <ele>135.1</ele>
        <time>2020-03-07T12:54:31Z</time>
      </trkpt>
      <trkpt lat="44.52474" lon="1.01164">
        <ele>135.11</ele>
        <time>2020-03-07T12:54:32Z</time>
      </trkpt>
      <trkpt lat="44.52474" lon="1.01161">
        <ele>135.1</ele>
        <time>2020-03-07T12:54:33Z</time>
      </trkpt>
      <trkpt lat="44.52474" lon="1.0116">
        <ele>135.11</ele>
        <time>2020-03-07T12:54:34Z</time>
      </trkpt>
      <trkpt lat="44.52476" lon="1.01142">
        <ele>135.08</ele>
        <time>2020-03-07T12:54:46Z</time>
      </trkpt>
      <trkpt lat="44.52477" lon="1.0114">
        <ele>135.09</ele>
        <time>2020-03-07T12:54:47Z</time>
      </trkpt>
      <trkpt lat="44.52479" lon="1.01139">
        <ele>135.09</ele>
        <time>2020-03-07T12:54:48Z</time>
      </trkpt>
      <trkpt lat="44.52481" lon="1.01137">
        <ele>135.08</ele>
        <time>2020-03-07T12:54:50Z</time>
      </trkpt>
      <trkpt lat="44.52496" lon="1.01132">
        <ele>135.05</ele>
        <time>2020-03-07T12:55:01Z</time>
      </trkpt>
      <trkpt lat="44.52516" lon="1.01125">
        <ele>136.95</ele>
        <time>2020-03-07T12:55:13Z</time>
      </trkpt>
      <trkpt lat="44.52528" lon="1.01121">
        <ele>138.95</ele>
        <time>2020-03-07T12:55:20Z</time>
      </trkpt>
      <trkpt lat="44.52536" lon="1.01115">
        <ele>139.85</ele>
        <time>2020-03-07T12:55:25Z</time>
      </trkpt>
      <trkpt lat="44.52557" lon="1.01102">
        <ele>141.33</ele>
        <time>2020-03-07T12:55:39Z</time>
      </trkpt>
      <trkpt lat="44.52574" lon="1.01089">
        <ele>142.86</ele>
        <time>2020-03-07T12:55:52Z</time>
      </trkpt>
      <trkpt lat="44.52585" lon="1.01077">
        <ele>142.83</ele>
        <time>2020-03-07T12:55:58Z</time>
      </trkpt>
      <trkpt lat="44.52591" lon="1.01068">
        <ele>143.59</ele>
        <time>2020-03-07T12:56:03Z</time>
      </trkpt>
      <trkpt lat="44.52601" lon="1.01052">
        <ele>145.34</ele>
        <time>2020-03-07T12:56:16Z</time>
      </trkpt>
      <trkpt lat="44.52606" lon="1.01049">
        <ele>145.15</ele>
        <time>2020-03-07T12:56:59Z</time>
      </trkpt>
      <trkpt lat="44.5263" lon="1.01056">
        <ele>145.11</ele>
        <time>2020-03-07T12:57:13Z</time>
      </trkpt>
      <trkpt lat="44.52658" lon="1.01067">
        <ele>145.96</ele>
        <time>2020-03-07T12:57:28Z</time>
      </trkpt>
      <trkpt lat="44.52683" lon="1.01076">
        <ele>146</ele>
        <time>2020-03-07T12:57:42Z</time>
      </trkpt>
      <trkpt lat="44.52686" lon="1.01077">
        <ele>146.83</ele>
        <time>2020-03-07T12:57:44Z</time>
      </trkpt>
      <trkpt lat="44.52706" lon="1.01083">
        <ele>148.58</ele>
        <time>2020-03-07T12:57:55Z</time>
      </trkpt>
      <trkpt lat="44.52717" lon="1.01086">
        <ele>149.43</ele>
        <time>2020-03-07T12:58:00Z</time>
      </trkpt>
      <trkpt lat="44.52724" lon="1.01102">
        <ele>151.14</ele>
        <time>2020-03-07T12:58:09Z</time>
      </trkpt>
      <trkpt lat="44.52716" lon="1.01159">
        <ele>152.65</ele>
        <time>2020-03-07T12:58:27Z</time>
      </trkpt>
      <trkpt lat="44.52714" lon="1.01175">
        <ele>152.61</ele>
        <time>2020-03-07T12:58:30Z</time>
      </trkpt>
      <trkpt lat="44.52715" lon="1.0118">
        <ele>152.59</ele>
        <time>2020-03-07T12:58:31Z</time>
      </trkpt>
      <trkpt lat="44.52717" lon="1.01184">
        <ele>152.58</ele>
        <time>2020-03-07T12:58:32Z</time>
      </trkpt>
      <trkpt lat="44.5272" lon="1.01187">
        <ele>152.56</ele>
        <time>2020-03-07T12:58:33Z</time>
      </trkpt>
      <trkpt lat="44.52723" lon="1.01188">
        <ele>152.55</ele>
        <time>2020-03-07T12:58:34Z</time>
      </trkpt>
      <trkpt lat="44.52726" lon="1.01188">
        <ele>152.57</ele>
        <time>2020-03-07T12:58:35Z</time>
      </trkpt>
      <trkpt lat="44.52758" lon="1.01207">
        <ele>152.54</ele>
        <time>2020-03-07T12:58:48Z</time>
      </trkpt>
      <trkpt lat="44.52801" lon="1.0125">
        <ele>150.12</ele>
        <time>2020-03-07T12:59:02Z</time>
      </trkpt>
      <trkpt lat="44.52845" lon="1.01302">
        <ele>150.19</ele>
        <time>2020-03-07T12:59:18Z</time>
      </trkpt>
      <trkpt lat="44.52864" lon="1.01366">
        <ele>149.36</ele>
        <time>2020-03-07T12:59:31Z</time>
      </trkpt>
      <trkpt lat="44.52891" lon="1.01373">
        <ele>149.37</ele>
        <time>2020-03-07T12:59:42Z</time>
      </trkpt>
      <trkpt lat="44.52894" lon="1.01372">
        <ele>149.39</ele>
        <time>2020-03-07T12:59:45Z</time>
      </trkpt>
      <trkpt lat="44.52894" lon="1.0137">
        <ele>149.39</ele>
        <time>2020-03-07T12:59:46Z</time>
      </trkpt>
      <trkpt lat="44.52879" lon="1.01374">
        <ele>149.36</ele>
        <time>2020-03-07T12:59:54Z</time>
      </trkpt>
      <trkpt lat="44.52879" lon="1.01381">
        <ele>149.33</ele>
        <time>2020-03-07T12:59:58Z</time>
      </trkpt>
      <trkpt lat="44.52893" lon="1.01402">
        <ele>149.23</ele>
        <time>2020-03-07T13:00:14Z</time>
      </trkpt>
      <trkpt lat="44.529" lon="1.01415">
        <ele>151.53</ele>
        <time>2020-03-07T13:00:23Z</time>
      </trkpt>
      <trkpt lat="44.52916" lon="1.01434">
        <ele>153.19</ele>
        <time>2020-03-07T13:00:38Z</time>
      </trkpt>
      <trkpt lat="44.52934" lon="1.01449">
        <ele>155.95</ele>
        <time>2020-03-07T13:00:51Z</time>
      </trkpt>
      <trkpt lat="44.52952" lon="1.01463">
        <ele>157.45</ele>
        <time>2020-03-07T13:01:06Z</time>
      </trkpt>
      <trkpt lat="44.52965" lon="1.01479">
        <ele>158.93</ele>
        <time>2020-03-07T13:01:19Z</time>
      </trkpt>
      <trkpt lat="44.52975" lon="1.01489">
        <ele>159.8</ele>
        <time>2020-03-07T13:01:32Z</time>
      </trkpt>
      <trkpt lat="44.52983" lon="1.01494">
        <ele>160.46</ele>
        <time>2020-03-07T13:01:46Z</time>
      </trkpt>
      <trkpt lat="44.52993" lon="1.01497">
        <ele>161.32</ele>
        <time>2020-03-07T13:02:01Z</time>
      </trkpt>
      <trkpt lat="44.52997" lon="1.01498">
        <ele>162.13</ele>
        <time>2020-03-07T13:02:18Z</time>
      </trkpt>
      <trkpt lat="44.52997" lon="1.01498">
        <ele>162.16</ele>
        <time>2020-03-07T13:03:12Z</time>
      </trkpt>
      <trkpt lat="44.52999" lon="1.01495">
        <ele>162.28</ele>
        <time>2020-03-07T13:04:06Z</time>
      </trkpt>
      <trkpt lat="44.52996" lon="1.01492">
        <ele>162.44</ele>
        <time>2020-03-07T13:04:45Z</time>
      </trkpt>
      <trkpt lat="44.52994" lon="1.01492">
        <ele>162.67</ele>
        <time>2020-03-07T13:05:43Z</time>
      </trkpt>
      <trkpt lat="44.52996" lon="1.01493">
        <ele>162.83</ele>
        <time>2020-03-07T13:06:42Z</time>
      </trkpt>
      <trkpt lat="44.52996" lon="1.01493">
        <ele>162.89</ele>
        <time>2020-03-07T13:07:29Z</time>
      </trkpt>
      <trkpt lat="44.52998" lon="1.01493">
        <ele>163.01</ele>
        <time>2020-03-07T13:08:09Z</time>
      </trkpt>
      <trkpt lat="44.53" lon="1.01491">
        <ele>163.19</ele>
        <time>2020-03-07T13:08:56Z</time>
      </trkpt>
      <trkpt lat="44.53" lon="1.01489">
        <ele>163.31</ele>
        <time>2020-03-07T13:09:35Z</time>
      </trkpt>
      <trkpt lat="44.53002" lon="1.01489">
        <ele>163.47</ele>
        <time>2020-03-07T13:10:16Z</time>
      </trkpt>
      <trkpt lat="44.52999" lon="1.01487">
        <ele>163.61</ele>
        <time>2020-03-07T13:11:03Z</time>
      </trkpt>
      <trkpt lat="44.52996" lon="1.01487">
        <ele>163.7</ele>
        <time>2020-03-07T13:11:37Z</time>
      </trkpt>
      <trkpt lat="44.52996" lon="1.01487">
        <ele>163.79</ele>
        <time>2020-03-07T13:12:11Z</time>
      </trkpt>
      <trkpt lat="44.52997" lon="1.01489">
        <ele>164.63</ele>
        <time>2020-03-07T13:12:59Z</time>
      </trkpt>
      <trkpt lat="44.52998" lon="1.01489">
        <ele>164.75</ele>
        <time>2020-03-07T13:13:44Z</time>
      </trkpt>
      <trkpt lat="44.53002" lon="1.01489">
        <ele>165.81</ele>
        <time>2020-03-07T13:14:42Z</time>
      </trkpt>
      <trkpt lat="44.53001" lon="1.01488">
        <ele>166.12</ele>
        <time>2020-03-07T13:15:33Z</time>
      </trkpt>
      <trkpt lat="44.52997" lon="1.01488">
        <ele>166.42</ele>
        <time>2020-03-07T13:16:25Z</time>
      </trkpt>
      <trkpt lat="44.52998" lon="1.01491">
        <ele>166.69</ele>
        <time>2020-03-07T13:17:20Z</time>
      </trkpt>
      <trkpt lat="44.52999" lon="1.01492">
        <ele>166.83</ele>
        <time>2020-03-07T13:18:12Z</time>
      </trkpt>
      <trkpt lat="44.52998" lon="1.01494">
        <ele>166.88</ele>
        <time>2020-03-07T13:18:49Z</time>
      </trkpt>
      <trkpt lat="44.53002" lon="1.01496">
        <ele>166.9</ele>
        <time>2020-03-07T13:19:15Z</time>
      </trkpt>
      <trkpt lat="44.53014" lon="1.01497">
        <ele>168.45</ele>
        <time>2020-03-07T13:19:33Z</time>
      </trkpt>
      <trkpt lat="44.53033" lon="1.01491">
        <ele>168.45</ele>
        <time>2020-03-07T13:19:49Z</time>
      </trkpt>
      <trkpt lat="44.5305" lon="1.01484">
        <ele>169.89</ele>
        <time>2020-03-07T13:20:01Z</time>
      </trkpt>
      <trkpt lat="44.53068" lon="1.01474">
        <ele>170.58</ele>
        <time>2020-03-07T13:20:14Z</time>
      </trkpt>
      <trkpt lat="44.53085" lon="1.01464">
        <ele>171.35</ele>
        <time>2020-03-07T13:20:25Z</time>
      </trkpt>
      <trkpt lat="44.53104" lon="1.01454">
        <ele>172.99</ele>
        <time>2020-03-07T13:20:38Z</time>
      </trkpt>
      <trkpt lat="44.53121" lon="1.01442">
        <ele>173.66</ele>
        <time>2020-03-07T13:20:51Z</time>
      </trkpt>
      <trkpt lat="44.53122" lon="1.01441">
        <ele>173.64</ele>
        <time>2020-03-07T13:20:52Z</time>
      </trkpt>
      <trkpt lat="44.53159" lon="1.01428">
        <ele>170.83</ele>
        <time>2020-03-07T13:21:04Z</time>
      </trkpt>
      <trkpt lat="44.53207" lon="1.01396">
        <ele>166.91</ele>
        <time>2020-03-07T13:21:16Z</time>
      </trkpt>
      <trkpt lat="44.53226" lon="1.0138">
        <ele>166.1</ele>
        <time>2020-03-07T13:21:22Z</time>
      </trkpt>
      <trkpt lat="44.53247" lon="1.01369">
        <ele>164.36</ele>
        <time>2020-03-07T13:21:29Z</time>
      </trkpt>
      <trkpt lat="44.5326" lon="1.01364">
        <ele>163.5</ele>
        <time>2020-03-07T13:21:36Z</time>
      </trkpt>
      <trkpt lat="44.53286" lon="1.01351">
        <ele>162.5</ele>
        <time>2020-03-07T13:21:49Z</time>
      </trkpt>
      <trkpt lat="44.5329" lon="1.01352">
        <ele>162.48</ele>
        <time>2020-03-07T13:21:51Z</time>
      </trkpt>
      <trkpt lat="44.53307" lon="1.01352">
        <ele>164.68</ele>
        <time>2020-03-07T13:21:59Z</time>
      </trkpt>
      <trkpt lat="44.53324" lon="1.01351">
        <ele>166.4</ele>
        <time>2020-03-07T13:22:09Z</time>
      </trkpt>
      <trkpt lat="44.53333" lon="1.01349">
        <ele>166.38</ele>
        <time>2020-03-07T13:22:15Z</time>
      </trkpt>
      <trkpt lat="44.53336" lon="1.01341">
        <ele>166.36</ele>
        <time>2020-03-07T13:22:18Z</time>
      </trkpt>
      <trkpt lat="44.53339" lon="1.0134">
        <ele>166.36</ele>
        <time>2020-03-07T13:22:19Z</time>
      </trkpt>
      <trkpt lat="44.53343" lon="1.01339">
        <ele>166.35</ele>
        <time>2020-03-07T13:22:20Z</time>
      </trkpt>
      <trkpt lat="44.53368" lon="1.01361">
        <ele>166.3</ele>
        <time>2020-03-07T13:22:31Z</time>
      </trkpt>
      <trkpt lat="44.53373" lon="1.01372">
        <ele>166.29</ele>
        <time>2020-03-07T13:22:33Z</time>
      </trkpt>
      <trkpt lat="44.53386" lon="1.0141">
        <ele>162.67</ele>
        <time>2020-03-07T13:22:37Z</time>
      </trkpt>
      <trkpt lat="44.53398" lon="1.01442">
        <ele>159.21</ele>
        <time>2020-03-07T13:22:40Z</time>
      </trkpt>
      <trkpt lat="44.53407" lon="1.0147">
        <ele>156.04</ele>
        <time>2020-03-07T13:22:43Z</time>
      </trkpt>
      <trkpt lat="44.53409" lon="1.01477">
        <ele>156.03</ele>
        <time>2020-03-07T13:22:44Z</time>
      </trkpt>
      <trkpt lat="44.53417" lon="1.01495">
        <ele>153.95</ele>
        <time>2020-03-07T13:22:47Z</time>
      </trkpt>
      <trkpt lat="44.53421" lon="1.01505">
        <ele>152.69</ele>
        <time>2020-03-07T13:22:49Z</time>
      </trkpt>
      <trkpt lat="44.53425" lon="1.01513">
        <ele>151.42</ele>
        <time>2020-03-07T13:22:51Z</time>
      </trkpt>
      <trkpt lat="44.53435" lon="1.01523">
        <ele>150</ele>
        <time>2020-03-07T13:22:54Z</time>
      </trkpt>
      <trkpt lat="44.53448" lon="1.0153">
        <ele>148.07</ele>
        <time>2020-03-07T13:22:57Z</time>
      </trkpt>
      <trkpt lat="44.53453" lon="1.0153">
        <ele>146.88</ele>
        <time>2020-03-07T13:22:58Z</time>
      </trkpt>
      <trkpt lat="44.53458" lon="1.0153">
        <ele>146.88</ele>
        <time>2020-03-07T13:22:59Z</time>
      </trkpt>
      <trkpt lat="44.53464" lon="1.01527">
        <ele>145.86</ele>
        <time>2020-03-07T13:23:00Z</time>
      </trkpt>
      <trkpt lat="44.53471" lon="1.01524">
        <ele>145.01</ele>
        <time>2020-03-07T13:23:01Z</time>
      </trkpt>
      <trkpt lat="44.53477" lon="1.01521">
        <ele>145.07</ele>
        <time>2020-03-07T13:23:02Z</time>
      </trkpt>
      <trkpt lat="44.53489" lon="1.01515">
        <ele>143.66</ele>
        <time>2020-03-07T13:23:04Z</time>
      </trkpt>
      <trkpt lat="44.53495" lon="1.01511">
        <ele>142.55</ele>
        <time>2020-03-07T13:23:05Z</time>
      </trkpt>
      <trkpt lat="44.53499" lon="1.01508">
        <ele>142.55</ele>
        <time>2020-03-07T13:23:06Z</time>
      </trkpt>
      <trkpt lat="44.53503" lon="1.01504">
        <ele>141.64</ele>
        <time>2020-03-07T13:23:07Z</time>
      </trkpt>
      <trkpt lat="44.53506" lon="1.01502">
        <ele>141.64</ele>
        <time>2020-03-07T13:23:08Z</time>
      </trkpt>
      <trkpt lat="44.5351" lon="1.01501">
        <ele>141.59</ele>
        <time>2020-03-07T13:23:09Z</time>
      </trkpt>
      <trkpt lat="44.53513" lon="1.015">
        <ele>141.65</ele>
        <time>2020-03-07T13:23:10Z</time>
      </trkpt>
      <trkpt lat="44.53537" lon="1.0151">
        <ele>141.64</ele>
        <time>2020-03-07T13:23:22Z</time>
      </trkpt>
      <trkpt lat="44.53542" lon="1.01516">
        <ele>144.15</ele>
        <time>2020-03-07T13:23:26Z</time>
      </trkpt>
      <trkpt lat="44.53547" lon="1.01525">
        <ele>145.2</ele>
        <time>2020-03-07T13:23:33Z</time>
      </trkpt>
      <trkpt lat="44.53551" lon="1.01522">
        <ele>145.14</ele>
        <time>2020-03-07T13:23:45Z</time>
      </trkpt>
      <trkpt lat="44.53551" lon="1.01522">
        <ele>145.85</ele>
        <time>2020-03-07T13:24:09Z</time>
      </trkpt>
      <trkpt lat="44.53549" lon="1.01521">
        <ele>145.85</ele>
        <time>2020-03-07T13:24:12Z</time>
      </trkpt>
      <trkpt lat="44.53545" lon="1.01531">
        <ele>145.79</ele>
        <time>2020-03-07T13:24:17Z</time>
      </trkpt>
      <trkpt lat="44.53531" lon="1.01557">
        <ele>149.18</ele>
        <time>2020-03-07T13:24:31Z</time>
      </trkpt>
      <trkpt lat="44.53533" lon="1.01582">
        <ele>149.9</ele>
        <time>2020-03-07T13:24:42Z</time>
      </trkpt>
      <trkpt lat="44.53538" lon="1.01597">
        <ele>150.78</ele>
        <time>2020-03-07T13:24:50Z</time>
      </trkpt>
      <trkpt lat="44.53539" lon="1.01609">
        <ele>151.52</ele>
        <time>2020-03-07T13:24:55Z</time>
      </trkpt>
      <trkpt lat="44.53548" lon="1.01652">
        <ele>149.05</ele>
        <time>2020-03-07T13:25:03Z</time>
      </trkpt>
      <trkpt lat="44.53549" lon="1.01657">
        <ele>148.96</ele>
        <time>2020-03-07T13:25:04Z</time>
      </trkpt>
      <trkpt lat="44.53552" lon="1.01663">
        <ele>148.91</ele>
        <time>2020-03-07T13:25:05Z</time>
      </trkpt>
      <trkpt lat="44.53558" lon="1.01685">
        <ele>146.71</ele>
        <time>2020-03-07T13:25:09Z</time>
      </trkpt>
      <trkpt lat="44.53563" lon="1.01693">
        <ele>145.4</ele>
        <time>2020-03-07T13:25:12Z</time>
      </trkpt>
      <trkpt lat="44.53567" lon="1.01696">
        <ele>144.5</ele>
        <time>2020-03-07T13:25:16Z</time>
      </trkpt>
      <trkpt lat="44.53577" lon="1.01692">
        <ele>143.01</ele>
        <time>2020-03-07T13:25:21Z</time>
      </trkpt>
      <trkpt lat="44.53582" lon="1.01686">
        <ele>142.71</ele>
        <time>2020-03-07T13:25:23Z</time>
      </trkpt>
      <trkpt lat="44.53591" lon="1.0167">
        <ele>140.23</ele>
        <time>2020-03-07T13:25:26Z</time>
      </trkpt>
      <trkpt lat="44.53595" lon="1.01659">
        <ele>138.69</ele>
        <time>2020-03-07T13:25:28Z</time>
      </trkpt>
      <trkpt lat="44.53599" lon="1.01646">
        <ele>137.15</ele>
        <time>2020-03-07T13:25:30Z</time>
      </trkpt>
      <trkpt lat="44.53611" lon="1.01621">
        <ele>133.83</ele>
        <time>2020-03-07T13:25:34Z</time>
      </trkpt>
      <trkpt lat="44.53615" lon="1.01613">
        <ele>133.73</ele>
        <time>2020-03-07T13:25:35Z</time>
      </trkpt>
      <trkpt lat="44.53624" lon="1.01597">
        <ele>130.49</ele>
        <time>2020-03-07T13:25:37Z</time>
      </trkpt>
      <trkpt lat="44.53639" lon="1.01572">
        <ele>127.32</ele>
        <time>2020-03-07T13:25:40Z</time>
      </trkpt>
      <trkpt lat="44.53643" lon="1.01566">
        <ele>126.35</ele>
        <time>2020-03-07T13:25:41Z</time>
      </trkpt>
      <trkpt lat="44.53647" lon="1.0156">
        <ele>126.37</ele>
        <time>2020-03-07T13:25:42Z</time>
      </trkpt>
      <trkpt lat="44.53659" lon="1.01543">
        <ele>123.84</ele>
        <time>2020-03-07T13:25:45Z</time>
      </trkpt>
      <trkpt lat="44.53669" lon="1.01533">
        <ele>123.13</ele>
        <time>2020-03-07T13:25:47Z</time>
      </trkpt>
      <trkpt lat="44.53675" lon="1.01527">
        <ele>122.23</ele>
        <time>2020-03-07T13:25:48Z</time>
      </trkpt>
      <trkpt lat="44.53679" lon="1.01522">
        <ele>122.18</ele>
        <time>2020-03-07T13:25:49Z</time>
      </trkpt>
      <trkpt lat="44.53692" lon="1.01503">
        <ele>120.75</ele>
        <time>2020-03-07T13:25:54Z</time>
      </trkpt>
      <trkpt lat="44.53695" lon="1.01498">
        <ele>119.44</ele>
        <time>2020-03-07T13:26:07Z</time>
      </trkpt>
      <trkpt lat="44.5371" lon="1.01482">
        <ele>118.27</ele>
        <time>2020-03-07T13:26:42Z</time>
      </trkpt>
      <trkpt lat="44.53735" lon="1.01465">
        <ele>118.21</ele>
        <time>2020-03-07T13:26:55Z</time>
      </trkpt>
      <trkpt lat="44.53737" lon="1.01467">
        <ele>117.33</ele>
        <time>2020-03-07T13:27:21Z</time>
      </trkpt>
      <trkpt lat="44.53738" lon="1.01462">
        <ele>116.41</ele>
        <time>2020-03-07T13:27:31Z</time>
      </trkpt>
      <trkpt lat="44.53737" lon="1.0146">
        <ele>116.41</ele>
        <time>2020-03-07T13:27:32Z</time>
      </trkpt>
      <trkpt lat="44.53737" lon="1.01458">
        <ele>116.41</ele>
        <time>2020-03-07T13:27:33Z</time>
      </trkpt>
      <trkpt lat="44.53736" lon="1.01455">
        <ele>116.4</ele>
        <time>2020-03-07T13:27:34Z</time>
      </trkpt>
      <trkpt lat="44.53735" lon="1.01452">
        <ele>116.38</ele>
        <time>2020-03-07T13:27:35Z</time>
      </trkpt>
      <trkpt lat="44.53734" lon="1.01448">
        <ele>116.38</ele>
        <time>2020-03-07T13:27:36Z</time>
      </trkpt>
      <trkpt lat="44.53733" lon="1.01445">
        <ele>116.37</ele>
        <time>2020-03-07T13:27:37Z</time>
      </trkpt>
      <trkpt lat="44.53718" lon="1.01394">
        <ele>115.53</ele>
        <time>2020-03-07T13:27:52Z</time>
      </trkpt>
      <trkpt lat="44.53718" lon="1.01393">
        <ele>112.05</ele>
        <time>2020-03-07T13:27:53Z</time>
      </trkpt>
      <trkpt lat="44.53717" lon="1.01391">
        <ele>112</ele>
        <time>2020-03-07T13:27:54Z</time>
      </trkpt>
      <trkpt lat="44.53716" lon="1.01388">
        <ele>115.71</ele>
        <time>2020-03-07T13:27:56Z</time>
      </trkpt>
      <trkpt lat="44.53716" lon="1.01386">
        <ele>115.74</ele>
        <time>2020-03-07T13:27:57Z</time>
      </trkpt>
      <trkpt lat="44.53715" lon="1.01384">
        <ele>115.7</ele>
        <time>2020-03-07T13:27:59Z</time>
      </trkpt>
      <trkpt lat="44.53717" lon="1.01404">
        <ele>115.65</ele>
        <time>2020-03-07T13:28:08Z</time>
      </trkpt>
      <trkpt lat="44.53727" lon="1.01442">
        <ele>115.65</ele>
        <time>2020-03-07T13:28:22Z</time>
      </trkpt>
      <trkpt lat="44.53736" lon="1.01458">
        <ele>115.7</ele>
        <time>2020-03-07T13:28:29Z</time>
      </trkpt>
      <trkpt lat="44.53738" lon="1.01458">
        <ele>115.71</ele>
        <time>2020-03-07T13:28:30Z</time>
      </trkpt>
      <trkpt lat="44.5374" lon="1.01457">
        <ele>115.73</ele>
        <time>2020-03-07T13:28:31Z</time>
      </trkpt>
      <trkpt lat="44.53741" lon="1.01455">
        <ele>115.74</ele>
        <time>2020-03-07T13:28:33Z</time>
      </trkpt>
      <trkpt lat="44.53742" lon="1.01453">
        <ele>115.75</ele>
        <time>2020-03-07T13:28:34Z</time>
      </trkpt>
      <trkpt lat="44.53741" lon="1.01418">
        <ele>118.19</ele>
        <time>2020-03-07T13:28:50Z</time>
      </trkpt>
      <trkpt lat="44.53741" lon="1.01395">
        <ele>119.81</ele>
        <time>2020-03-07T13:29:03Z</time>
      </trkpt>
      <trkpt lat="44.53741" lon="1.01395">
        <ele>119.8</ele>
        <time>2020-03-07T13:29:04Z</time>
      </trkpt>
      <trkpt lat="44.53742" lon="1.01396">
        <ele>119.82</ele>
        <time>2020-03-07T13:29:05Z</time>
      </trkpt>
      <trkpt lat="44.53749" lon="1.01404">
        <ele>121.44</ele>
        <time>2020-03-07T13:29:11Z</time>
      </trkpt>
      <trkpt lat="44.53749" lon="1.01403">
        <ele>122.39</ele>
        <time>2020-03-07T13:29:12Z</time>
      </trkpt>
      <trkpt lat="44.5375" lon="1.01402">
        <ele>122.42</ele>
        <time>2020-03-07T13:29:13Z</time>
      </trkpt>
      <trkpt lat="44.5375" lon="1.014">
        <ele>122.39</ele>
        <time>2020-03-07T13:29:14Z</time>
      </trkpt>
      <trkpt lat="44.5375" lon="1.01381">
        <ele>125.13</ele>
        <time>2020-03-07T13:29:27Z</time>
      </trkpt>
      <trkpt lat="44.53749" lon="1.01378">
        <ele>125.11</ele>
        <time>2020-03-07T13:29:29Z</time>
      </trkpt>
      <trkpt lat="44.5375" lon="1.01376">
        <ele>125.12</ele>
        <time>2020-03-07T13:29:30Z</time>
      </trkpt>
      <trkpt lat="44.5375" lon="1.01374">
        <ele>125.11</ele>
        <time>2020-03-07T13:29:31Z</time>
      </trkpt>
      <trkpt lat="44.53751" lon="1.01372">
        <ele>125.1</ele>
        <time>2020-03-07T13:29:32Z</time>
      </trkpt>
      <trkpt lat="44.53751" lon="1.0137">
        <ele>125.1</ele>
        <time>2020-03-07T13:29:33Z</time>
      </trkpt>
      <trkpt lat="44.53752" lon="1.01369">
        <ele>126</ele>
        <time>2020-03-07T13:29:34Z</time>
      </trkpt>
      <trkpt lat="44.53752" lon="1.01367">
        <ele>125.99</ele>
        <time>2020-03-07T13:29:35Z</time>
      </trkpt>
      <trkpt lat="44.53753" lon="1.01365">
        <ele>125.96</ele>
        <time>2020-03-07T13:29:36Z</time>
      </trkpt>
      <trkpt lat="44.53754" lon="1.01364">
        <ele>125.95</ele>
        <time>2020-03-07T13:29:37Z</time>
      </trkpt>
      <trkpt lat="44.53754" lon="1.01362">
        <ele>125.93</ele>
        <time>2020-03-07T13:29:38Z</time>
      </trkpt>
      <trkpt lat="44.53757" lon="1.01358">
        <ele>125.89</ele>
        <time>2020-03-07T13:29:41Z</time>
      </trkpt>
      <trkpt lat="44.53758" lon="1.01357">
        <ele>125.87</ele>
        <time>2020-03-07T13:29:42Z</time>
      </trkpt>
      <trkpt lat="44.53759" lon="1.01357">
        <ele>125.87</ele>
        <time>2020-03-07T13:29:43Z</time>
      </trkpt>
      <trkpt lat="44.53766" lon="1.01354">
        <ele>126.71</ele>
        <time>2020-03-07T13:29:49Z</time>
      </trkpt>
      <trkpt lat="44.53768" lon="1.01355">
        <ele>126.71</ele>
        <time>2020-03-07T13:29:50Z</time>
      </trkpt>
      <trkpt lat="44.5377" lon="1.01355">
        <ele>126.71</ele>
        <time>2020-03-07T13:29:51Z</time>
      </trkpt>
      <trkpt lat="44.53771" lon="1.01355">
        <ele>127.54</ele>
        <time>2020-03-07T13:29:52Z</time>
      </trkpt>
      <trkpt lat="44.53773" lon="1.01354">
        <ele>127.54</ele>
        <time>2020-03-07T13:29:53Z</time>
      </trkpt>
      <trkpt lat="44.53791" lon="1.01352">
        <ele>130.28</ele>
        <time>2020-03-07T13:30:05Z</time>
      </trkpt>
      <trkpt lat="44.53808" lon="1.0135">
        <ele>131.84</ele>
        <time>2020-03-07T13:30:18Z</time>
      </trkpt>
      <trkpt lat="44.53814" lon="1.01351">
        <ele>132.52</ele>
        <time>2020-03-07T13:30:32Z</time>
      </trkpt>
      <trkpt lat="44.53826" lon="1.01346">
        <ele>133.18</ele>
        <time>2020-03-07T13:30:46Z</time>
      </trkpt>
      <trkpt lat="44.53831" lon="1.01345">
        <ele>133.19</ele>
        <time>2020-03-07T13:30:51Z</time>
      </trkpt>
      <trkpt lat="44.53845" lon="1.01347">
        <ele>135.68</ele>
        <time>2020-03-07T13:31:07Z</time>
      </trkpt>
      <trkpt lat="44.53853" lon="1.01348">
        <ele>136.4</ele>
        <time>2020-03-07T13:31:22Z</time>
      </trkpt>
      <trkpt lat="44.53859" lon="1.01344">
        <ele>137.13</ele>
        <time>2020-03-07T13:31:35Z</time>
      </trkpt>
      <trkpt lat="44.53859" lon="1.01341">
        <ele>137.09</ele>
        <time>2020-03-07T13:31:52Z</time>
      </trkpt>
      <trkpt lat="44.5386" lon="1.0134">
        <ele>137.1</ele>
        <time>2020-03-07T13:31:53Z</time>
      </trkpt>
      <trkpt lat="44.53882" lon="1.0132">
        <ele>137.02</ele>
        <time>2020-03-07T13:32:03Z</time>
      </trkpt>
      <trkpt lat="44.53888" lon="1.01315">
        <ele>134.56</ele>
        <time>2020-03-07T13:32:06Z</time>
      </trkpt>
      <trkpt lat="44.53893" lon="1.01311">
        <ele>133.76</ele>
        <time>2020-03-07T13:32:10Z</time>
      </trkpt>
      <trkpt lat="44.53894" lon="1.01313">
        <ele>133.74</ele>
        <time>2020-03-07T13:32:12Z</time>
      </trkpt>
      <trkpt lat="44.53894" lon="1.01314">
        <ele>132.77</ele>
        <time>2020-03-07T13:32:13Z</time>
      </trkpt>
      <trkpt lat="44.53892" lon="1.01315">
        <ele>132.78</ele>
        <time>2020-03-07T13:32:14Z</time>
      </trkpt>
      <trkpt lat="44.5389" lon="1.01316">
        <ele>132.75</ele>
        <time>2020-03-07T13:32:15Z</time>
      </trkpt>
      <trkpt lat="44.53888" lon="1.01316">
        <ele>132.78</ele>
        <time>2020-03-07T13:32:16Z</time>
      </trkpt>
      <trkpt lat="44.53867" lon="1.01326">
        <ele>132.93</ele>
        <time>2020-03-07T13:32:30Z</time>
      </trkpt>
      <trkpt lat="44.53866" lon="1.01328">
        <ele>132.94</ele>
        <time>2020-03-07T13:32:31Z</time>
      </trkpt>
      <trkpt lat="44.53865" lon="1.0133">
        <ele>132.95</ele>
        <time>2020-03-07T13:32:32Z</time>
      </trkpt>
      <trkpt lat="44.5386" lon="1.01337">
        <ele>135.23</ele>
        <time>2020-03-07T13:32:37Z</time>
      </trkpt>
      <trkpt lat="44.53858" lon="1.01346">
        <ele>136.14</ele>
        <time>2020-03-07T13:32:50Z</time>
      </trkpt>
      <trkpt lat="44.5386" lon="1.01348">
        <ele>136.76</ele>
        <time>2020-03-07T13:33:11Z</time>
      </trkpt>
      <trkpt lat="44.5386" lon="1.01343">
        <ele>136.72</ele>
        <time>2020-03-07T13:33:20Z</time>
      </trkpt>
      <trkpt lat="44.53861" lon="1.01341">
        <ele>136.71</ele>
        <time>2020-03-07T13:33:21Z</time>
      </trkpt>
      <trkpt lat="44.53863" lon="1.0134">
        <ele>136.71</ele>
        <time>2020-03-07T13:33:22Z</time>
      </trkpt>
      <trkpt lat="44.53866" lon="1.01337">
        <ele>136.69</ele>
        <time>2020-03-07T13:33:23Z</time>
      </trkpt>
      <trkpt lat="44.53869" lon="1.01333">
        <ele>136.69</ele>
        <time>2020-03-07T13:33:24Z</time>
      </trkpt>
      <trkpt lat="44.53872" lon="1.0133">
        <ele>136.67</ele>
        <time>2020-03-07T13:33:25Z</time>
      </trkpt>
      <trkpt lat="44.53887" lon="1.01319">
        <ele>134.11</ele>
        <time>2020-03-07T13:33:29Z</time>
      </trkpt>
      <trkpt lat="44.53903" lon="1.01307">
        <ele>132.96</ele>
        <time>2020-03-07T13:33:33Z</time>
      </trkpt>
      <trkpt lat="44.53906" lon="1.01303">
        <ele>132.93</ele>
        <time>2020-03-07T13:33:34Z</time>
      </trkpt>
      <trkpt lat="44.53909" lon="1.013">
        <ele>131.69</ele>
        <time>2020-03-07T13:33:35Z</time>
      </trkpt>
      <trkpt lat="44.53911" lon="1.01298">
        <ele>131.69</ele>
        <time>2020-03-07T13:33:36Z</time>
      </trkpt>
      <trkpt lat="44.53912" lon="1.01297">
        <ele>131.7</ele>
        <time>2020-03-07T13:33:37Z</time>
      </trkpt>
      <trkpt lat="44.53919" lon="1.01296">
        <ele>131.69</ele>
        <time>2020-03-07T13:33:41Z</time>
      </trkpt>
      <trkpt lat="44.5392" lon="1.01295">
        <ele>131.68</ele>
        <time>2020-03-07T13:33:42Z</time>
      </trkpt>
      <trkpt lat="44.53922" lon="1.01295">
        <ele>131.75</ele>
        <time>2020-03-07T13:33:43Z</time>
      </trkpt>
      <trkpt lat="44.53923" lon="1.01294">
        <ele>131.79</ele>
        <time>2020-03-07T13:33:44Z</time>
      </trkpt>
      <trkpt lat="44.53925" lon="1.01294">
        <ele>131.85</ele>
        <time>2020-03-07T13:33:45Z</time>
      </trkpt>
      <trkpt lat="44.53926" lon="1.01294">
        <ele>131.9</ele>
        <time>2020-03-07T13:33:46Z</time>
      </trkpt>
      <trkpt lat="44.53928" lon="1.01293">
        <ele>131.92</ele>
        <time>2020-03-07T13:33:47Z</time>
      </trkpt>
      <trkpt lat="44.53936" lon="1.01292">
        <ele>131.96</ele>
        <time>2020-03-07T13:33:52Z</time>
      </trkpt>
      <trkpt lat="44.53937" lon="1.01291">
        <ele>131.98</ele>
        <time>2020-03-07T13:33:53Z</time>
      </trkpt>
      <trkpt lat="44.53939" lon="1.01291">
        <ele>131.98</ele>
        <time>2020-03-07T13:33:54Z</time>
      </trkpt>
      <trkpt lat="44.53944" lon="1.0129">
        <ele>134.26</ele>
        <time>2020-03-07T13:33:57Z</time>
      </trkpt>
      <trkpt lat="44.53954" lon="1.01288">
        <ele>135.98</ele>
        <time>2020-03-07T13:34:07Z</time>
      </trkpt>
      <trkpt lat="44.53954" lon="1.01289">
        <ele>136.92</ele>
        <time>2020-03-07T13:34:08Z</time>
      </trkpt>
      <trkpt lat="44.53953" lon="1.0129">
        <ele>136.93</ele>
        <time>2020-03-07T13:34:09Z</time>
      </trkpt>
      <trkpt lat="44.53952" lon="1.01291">
        <ele>136.92</ele>
        <time>2020-03-07T13:34:10Z</time>
      </trkpt>
      <trkpt lat="44.5395" lon="1.01294">
        <ele>137.67</ele>
        <time>2020-03-07T13:34:12Z</time>
      </trkpt>
      <trkpt lat="44.53935" lon="1.01308">
        <ele>139.23</ele>
        <time>2020-03-07T13:34:26Z</time>
      </trkpt>
      <trkpt lat="44.53934" lon="1.01308">
        <ele>140.22</ele>
        <time>2020-03-07T13:34:27Z</time>
      </trkpt>
      <trkpt lat="44.53922" lon="1.01321">
        <ele>141.92</ele>
        <time>2020-03-07T13:34:40Z</time>
      </trkpt>
      <trkpt lat="44.53926" lon="1.01324">
        <ele>142.81</ele>
        <time>2020-03-07T13:34:47Z</time>
      </trkpt>
      <trkpt lat="44.53934" lon="1.01322">
        <ele>143.61</ele>
        <time>2020-03-07T13:34:54Z</time>
      </trkpt>
      <trkpt lat="44.53954" lon="1.01317">
        <ele>145.57</ele>
        <time>2020-03-07T13:35:08Z</time>
      </trkpt>
      <trkpt lat="44.53957" lon="1.01316">
        <ele>145.58</ele>
        <time>2020-03-07T13:35:10Z</time>
      </trkpt>
      <trkpt lat="44.5396" lon="1.01321">
        <ele>147.32</ele>
        <time>2020-03-07T13:35:14Z</time>
      </trkpt>
      <trkpt lat="44.5395" lon="1.01335">
        <ele>150.65</ele>
        <time>2020-03-07T13:35:26Z</time>
      </trkpt>
      <trkpt lat="44.53943" lon="1.01343">
        <ele>151.57</ele>
        <time>2020-03-07T13:35:32Z</time>
      </trkpt>
      <trkpt lat="44.53934" lon="1.01354">
        <ele>152.23</ele>
        <time>2020-03-07T13:35:40Z</time>
      </trkpt>
      <trkpt lat="44.53927" lon="1.01366">
        <ele>154.11</ele>
        <time>2020-03-07T13:35:49Z</time>
      </trkpt>
      <trkpt lat="44.53929" lon="1.01372">
        <ele>154.69</ele>
        <time>2020-03-07T13:36:03Z</time>
      </trkpt>
      <trkpt lat="44.53927" lon="1.01366">
        <ele>154.43</ele>
        <time>2020-03-07T13:36:41Z</time>
      </trkpt>
      <trkpt lat="44.53923" lon="1.01363">
        <ele>154.35</ele>
        <time>2020-03-07T13:36:58Z</time>
      </trkpt>
      <trkpt lat="44.53919" lon="1.01367">
        <ele>154.33</ele>
        <time>2020-03-07T13:37:02Z</time>
      </trkpt>
      <trkpt lat="44.53905" lon="1.0139">
        <ele>155.96</ele>
        <time>2020-03-07T13:37:17Z</time>
      </trkpt>
      <trkpt lat="44.53899" lon="1.01395">
        <ele>156.77</ele>
        <time>2020-03-07T13:37:21Z</time>
      </trkpt>
      <trkpt lat="44.53888" lon="1.01414">
        <ele>158.28</ele>
        <time>2020-03-07T13:37:35Z</time>
      </trkpt>
      <trkpt lat="44.53886" lon="1.01413">
        <ele>158.99</ele>
        <time>2020-03-07T13:37:46Z</time>
      </trkpt>
      <trkpt lat="44.53889" lon="1.01412">
        <ele>158.89</ele>
        <time>2020-03-07T13:38:04Z</time>
      </trkpt>
      <trkpt lat="44.53894" lon="1.01425">
        <ele>158.86</ele>
        <time>2020-03-07T13:38:14Z</time>
      </trkpt>
      <trkpt lat="44.53896" lon="1.01425">
        <ele>159.7</ele>
        <time>2020-03-07T13:38:15Z</time>
      </trkpt>
      <trkpt lat="44.53898" lon="1.01426">
        <ele>159.7</ele>
        <time>2020-03-07T13:38:17Z</time>
      </trkpt>
      <trkpt lat="44.53912" lon="1.0141">
        <ele>160.49</ele>
        <time>2020-03-07T13:38:31Z</time>
      </trkpt>
      <trkpt lat="44.53913" lon="1.01404">
        <ele>161.25</ele>
        <time>2020-03-07T13:38:35Z</time>
      </trkpt>
      <trkpt lat="44.5392" lon="1.01402">
        <ele>162.04</ele>
        <time>2020-03-07T13:38:41Z</time>
      </trkpt>
      <trkpt lat="44.53928" lon="1.01397">
        <ele>162.99</ele>
        <time>2020-03-07T13:38:48Z</time>
      </trkpt>
      <trkpt lat="44.53935" lon="1.01397">
        <ele>164.61</ele>
        <time>2020-03-07T13:38:53Z</time>
      </trkpt>
      <trkpt lat="44.53952" lon="1.01394">
        <ele>167.49</ele>
        <time>2020-03-07T13:39:04Z</time>
      </trkpt>
      <trkpt lat="44.53962" lon="1.01391">
        <ele>170.06</ele>
        <time>2020-03-07T13:39:13Z</time>
      </trkpt>
      <trkpt lat="44.53969" lon="1.01392">
        <ele>171.12</ele>
        <time>2020-03-07T13:39:18Z</time>
      </trkpt>
      <trkpt lat="44.53975" lon="1.01391">
        <ele>172.76</ele>
        <time>2020-03-07T13:39:28Z</time>
      </trkpt>
      <trkpt lat="44.53969" lon="1.01408">
        <ele>173.37</ele>
        <time>2020-03-07T13:39:40Z</time>
      </trkpt>
      <trkpt lat="44.53968" lon="1.0141">
        <ele>173.36</ele>
        <time>2020-03-07T13:39:41Z</time>
      </trkpt>
      <trkpt lat="44.53968" lon="1.01421">
        <ele>173.25</ele>
        <time>2020-03-07T13:39:53Z</time>
      </trkpt>
      <trkpt lat="44.53971" lon="1.01428">
        <ele>173.24</ele>
        <time>2020-03-07T13:39:56Z</time>
      </trkpt>
      <trkpt lat="44.53975" lon="1.01434">
        <ele>173.21</ele>
        <time>2020-03-07T13:39:59Z</time>
      </trkpt>
      <trkpt lat="44.53993" lon="1.01446">
        <ele>174.08</ele>
        <time>2020-03-07T13:40:12Z</time>
      </trkpt>
      <trkpt lat="44.54007" lon="1.01456">
        <ele>177.17</ele>
        <time>2020-03-07T13:40:24Z</time>
      </trkpt>
      <trkpt lat="44.54008" lon="1.01456">
        <ele>177.18</ele>
        <time>2020-03-07T13:40:25Z</time>
      </trkpt>
      <trkpt lat="44.54021" lon="1.01449">
        <ele>179.78</ele>
        <time>2020-03-07T13:40:38Z</time>
      </trkpt>
      <trkpt lat="44.54037" lon="1.01436">
        <ele>183.01</ele>
        <time>2020-03-07T13:40:50Z</time>
      </trkpt>
      <trkpt lat="44.54055" lon="1.01427">
        <ele>184.97</ele>
        <time>2020-03-07T13:41:03Z</time>
      </trkpt>
      <trkpt lat="44.5406" lon="1.01428">
        <ele>185.78</ele>
        <time>2020-03-07T13:41:10Z</time>
      </trkpt>
      <trkpt lat="44.54063" lon="1.01433">
        <ele>186.75</ele>
        <time>2020-03-07T13:41:14Z</time>
      </trkpt>
      <trkpt lat="44.54065" lon="1.01449">
        <ele>188.51</ele>
        <time>2020-03-07T13:41:24Z</time>
      </trkpt>
      <trkpt lat="44.54074" lon="1.0147">
        <ele>191.88</ele>
        <time>2020-03-07T13:41:38Z</time>
      </trkpt>
      <trkpt lat="44.54089" lon="1.01486">
        <ele>194.23</ele>
        <time>2020-03-07T13:41:52Z</time>
      </trkpt>
      <trkpt lat="44.54096" lon="1.0149">
        <ele>194.91</ele>
        <time>2020-03-07T13:41:58Z</time>
      </trkpt>
      <trkpt lat="44.54102" lon="1.01498">
        <ele>195.6</ele>
        <time>2020-03-07T13:42:04Z</time>
      </trkpt>
      <trkpt lat="44.54112" lon="1.01505">
        <ele>196.29</ele>
        <time>2020-03-07T13:42:12Z</time>
      </trkpt>
      <trkpt lat="44.54115" lon="1.01502">
        <ele>197.04</ele>
        <time>2020-03-07T13:42:25Z</time>
      </trkpt>
      <trkpt lat="44.5411" lon="1.01497">
        <ele>196.7</ele>
        <time>2020-03-07T13:43:13Z</time>
      </trkpt>
      <trkpt lat="44.5411" lon="1.01498">
        <ele>196.7</ele>
        <time>2020-03-07T13:43:14Z</time>
      </trkpt>
      <trkpt lat="44.54117" lon="1.01499">
        <ele>196.68</ele>
        <time>2020-03-07T13:43:19Z</time>
      </trkpt>
      <trkpt lat="44.54139" lon="1.01501">
        <ele>197.48</ele>
        <time>2020-03-07T13:43:34Z</time>
      </trkpt>
      <trkpt lat="44.54163" lon="1.01497">
        <ele>199.06</ele>
        <time>2020-03-07T13:43:49Z</time>
      </trkpt>
      <trkpt lat="44.54167" lon="1.01494">
        <ele>199.81</ele>
        <time>2020-03-07T13:43:52Z</time>
      </trkpt>
      <trkpt lat="44.54185" lon="1.01482">
        <ele>200.51</ele>
        <time>2020-03-07T13:44:04Z</time>
      </trkpt>
      <trkpt lat="44.54202" lon="1.01473">
        <ele>201.99</ele>
        <time>2020-03-07T13:44:16Z</time>
      </trkpt>
      <trkpt lat="44.54224" lon="1.01464">
        <ele>201.85</ele>
        <time>2020-03-07T13:44:27Z</time>
      </trkpt>
      <trkpt lat="44.54243" lon="1.01454">
        <ele>201.72</ele>
        <time>2020-03-07T13:44:38Z</time>
      </trkpt>
      <trkpt lat="44.54267" lon="1.01442">
        <ele>201.56</ele>
        <time>2020-03-07T13:44:49Z</time>
      </trkpt>
      <trkpt lat="44.54281" lon="1.01438">
        <ele>201.46</ele>
        <time>2020-03-07T13:44:55Z</time>
      </trkpt>
      <trkpt lat="44.54284" lon="1.01437">
        <ele>201.44</ele>
        <time>2020-03-07T13:44:56Z</time>
      </trkpt>
      <trkpt lat="44.54287" lon="1.01437">
        <ele>201.43</ele>
        <time>2020-03-07T13:44:57Z</time>
      </trkpt>
      <trkpt lat="44.54293" lon="1.01434">
        <ele>201.39</ele>
        <time>2020-03-07T13:44:59Z</time>
      </trkpt>
      <trkpt lat="44.54297" lon="1.01434">
        <ele>201.37</ele>
        <time>2020-03-07T13:45:00Z</time>
      </trkpt>
      <trkpt lat="44.543" lon="1.01432">
        <ele>201.35</ele>
        <time>2020-03-07T13:45:01Z</time>
      </trkpt>
      <trkpt lat="44.54332" lon="1.01419">
        <ele>201.19</ele>
        <time>2020-03-07T13:45:08Z</time>
      </trkpt>
      <trkpt lat="44.54337" lon="1.01416">
        <ele>201.16</ele>
        <time>2020-03-07T13:45:09Z</time>
      </trkpt>
      <trkpt lat="44.54342" lon="1.01413">
        <ele>198.52</ele>
        <time>2020-03-07T13:45:10Z</time>
      </trkpt>
      <trkpt lat="44.54348" lon="1.0141">
        <ele>198.5</ele>
        <time>2020-03-07T13:45:11Z</time>
      </trkpt>
      <trkpt lat="44.54353" lon="1.01408">
        <ele>198.49</ele>
        <time>2020-03-07T13:45:12Z</time>
      </trkpt>
      <trkpt lat="44.54382" lon="1.01394">
        <ele>196.56</ele>
        <time>2020-03-07T13:45:17Z</time>
      </trkpt>
      <trkpt lat="44.54387" lon="1.0139">
        <ele>196.54</ele>
        <time>2020-03-07T13:45:18Z</time>
      </trkpt>
      <trkpt lat="44.54399" lon="1.01381">
        <ele>195.57</ele>
        <time>2020-03-07T13:45:21Z</time>
      </trkpt>
      <trkpt lat="44.54404" lon="1.0138">
        <ele>194.72</ele>
        <time>2020-03-07T13:45:22Z</time>
      </trkpt>
      <trkpt lat="44.54409" lon="1.01379">
        <ele>194.71</ele>
        <time>2020-03-07T13:45:23Z</time>
      </trkpt>
      <trkpt lat="44.54436" lon="1.01376">
        <ele>193.03</ele>
        <time>2020-03-07T13:45:28Z</time>
      </trkpt>
      <trkpt lat="44.5447" lon="1.01387">
        <ele>192.24</ele>
        <time>2020-03-07T13:45:38Z</time>
      </trkpt>
      <trkpt lat="44.54484" lon="1.01399">
        <ele>191.22</ele>
        <time>2020-03-07T13:45:47Z</time>
      </trkpt>
      <trkpt lat="44.54484" lon="1.01395">
        <ele>190.45</ele>
        <time>2020-03-07T13:45:51Z</time>
      </trkpt>
      <trkpt lat="44.54483" lon="1.01393">
        <ele>190.45</ele>
        <time>2020-03-07T13:45:52Z</time>
      </trkpt>
      <trkpt lat="44.54483" lon="1.01391">
        <ele>190.43</ele>
        <time>2020-03-07T13:45:53Z</time>
      </trkpt>
      <trkpt lat="44.54488" lon="1.0139">
        <ele>190.43</ele>
        <time>2020-03-07T13:45:57Z</time>
      </trkpt>
      <trkpt lat="44.54489" lon="1.01391">
        <ele>190.43</ele>
        <time>2020-03-07T13:45:58Z</time>
      </trkpt>
      <trkpt lat="44.54492" lon="1.01393">
        <ele>190.43</ele>
        <time>2020-03-07T13:45:59Z</time>
      </trkpt>
      <trkpt lat="44.54495" lon="1.01394">
        <ele>190.42</ele>
        <time>2020-03-07T13:46:00Z</time>
      </trkpt>
      <trkpt lat="44.54498" lon="1.01396">
        <ele>190.41</ele>
        <time>2020-03-07T13:46:01Z</time>
      </trkpt>
      <trkpt lat="44.54501" lon="1.01397">
        <ele>190.41</ele>
        <time>2020-03-07T13:46:02Z</time>
      </trkpt>
      <trkpt lat="44.54522" lon="1.01406">
        <ele>190.36</ele>
        <time>2020-03-07T13:46:12Z</time>
      </trkpt>
      <trkpt lat="44.54551" lon="1.0144">
        <ele>188.56</ele>
        <time>2020-03-07T13:46:23Z</time>
      </trkpt>
      <trkpt lat="44.54571" lon="1.01463">
        <ele>187.51</ele>
        <time>2020-03-07T13:46:29Z</time>
      </trkpt>
      <trkpt lat="44.54578" lon="1.01484">
        <ele>186.48</ele>
        <time>2020-03-07T13:46:37Z</time>
      </trkpt>
      <trkpt lat="44.54581" lon="1.01483">
        <ele>186.45</ele>
        <time>2020-03-07T13:46:38Z</time>
      </trkpt>
      <trkpt lat="44.54584" lon="1.01482">
        <ele>185.5</ele>
        <time>2020-03-07T13:46:39Z</time>
      </trkpt>
      <trkpt lat="44.54624" lon="1.01478">
        <ele>183.82</ele>
        <time>2020-03-07T13:46:50Z</time>
      </trkpt>
      <trkpt lat="44.54645" lon="1.01475">
        <ele>183.8</ele>
        <time>2020-03-07T13:46:59Z</time>
      </trkpt>
      <trkpt lat="44.54679" lon="1.01479">
        <ele>186.18</ele>
        <time>2020-03-07T13:47:12Z</time>
      </trkpt>
      <trkpt lat="44.54681" lon="1.0148">
        <ele>186.17</ele>
        <time>2020-03-07T13:47:13Z</time>
      </trkpt>
      <trkpt lat="44.5472" lon="1.01473">
        <ele>186.14</ele>
        <time>2020-03-07T13:47:22Z</time>
      </trkpt>
      <trkpt lat="44.5474" lon="1.01467">
        <ele>183.54</ele>
        <time>2020-03-07T13:47:25Z</time>
      </trkpt>
      <trkpt lat="44.54753" lon="1.01465">
        <ele>182.61</ele>
        <time>2020-03-07T13:47:27Z</time>
      </trkpt>
      <trkpt lat="44.54765" lon="1.01464">
        <ele>182.59</ele>
        <time>2020-03-07T13:47:29Z</time>
      </trkpt>
      <trkpt lat="44.54781" lon="1.01464">
        <ele>181.75</ele>
        <time>2020-03-07T13:47:32Z</time>
      </trkpt>
      <trkpt lat="44.54791" lon="1.01467">
        <ele>181.76</ele>
        <time>2020-03-07T13:47:34Z</time>
      </trkpt>
      <trkpt lat="44.54839" lon="1.01496">
        <ele>181.1</ele>
        <time>2020-03-07T13:47:46Z</time>
      </trkpt>
      <trkpt lat="44.54853" lon="1.01517">
        <ele>180.31</ele>
        <time>2020-03-07T13:47:51Z</time>
      </trkpt>
      <trkpt lat="44.5487" lon="1.01552">
        <ele>179.59</ele>
        <time>2020-03-07T13:47:57Z</time>
      </trkpt>
      <trkpt lat="44.54873" lon="1.01556">
        <ele>179.61</ele>
        <time>2020-03-07T13:47:58Z</time>
      </trkpt>
      <trkpt lat="44.54877" lon="1.01559">
        <ele>179.62</ele>
        <time>2020-03-07T13:47:59Z</time>
      </trkpt>
      <trkpt lat="44.5488" lon="1.01561">
        <ele>179.61</ele>
        <time>2020-03-07T13:48:00Z</time>
      </trkpt>
      <trkpt lat="44.54885" lon="1.01562">
        <ele>179.62</ele>
        <time>2020-03-07T13:48:01Z</time>
      </trkpt>
      <trkpt lat="44.54889" lon="1.01562">
        <ele>179.63</ele>
        <time>2020-03-07T13:48:02Z</time>
      </trkpt>
      <trkpt lat="44.54962" lon="1.01571">
        <ele>182.18</ele>
        <time>2020-03-07T13:48:23Z</time>
      </trkpt>
      <trkpt lat="44.55014" lon="1.01587">
        <ele>184.63</ele>
        <time>2020-03-07T13:48:42Z</time>
      </trkpt>
      <trkpt lat="44.5507" lon="1.01622">
        <ele>186.45</ele>
        <time>2020-03-07T13:49:03Z</time>
      </trkpt>
      <trkpt lat="44.55112" lon="1.01647">
        <ele>187.4</ele>
        <time>2020-03-07T13:49:19Z</time>
      </trkpt>
      <trkpt lat="44.55163" lon="1.01689">
        <ele>190.01</ele>
        <time>2020-03-07T13:49:40Z</time>
      </trkpt>
      <trkpt lat="44.55192" lon="1.01729">
        <ele>193.56</ele>
        <time>2020-03-07T13:49:56Z</time>
      </trkpt>
      <trkpt lat="44.55214" lon="1.01761">
        <ele>197.26</ele>
        <time>2020-03-07T13:50:09Z</time>
      </trkpt>
      <trkpt lat="44.55256" lon="1.01802">
        <ele>197.96</ele>
        <time>2020-03-07T13:50:26Z</time>
      </trkpt>
      <trkpt lat="44.55311" lon="1.01849">
        <ele>199.69</ele>
        <time>2020-03-07T13:50:51Z</time>
      </trkpt>
      <trkpt lat="44.55332" lon="1.01838">
        <ele>200.6</ele>
        <time>2020-03-07T13:51:02Z</time>
      </trkpt>
      <trkpt lat="44.55364" lon="1.01799">
        <ele>200.64</ele>
        <time>2020-03-07T13:51:19Z</time>
      </trkpt>
      <trkpt lat="44.55413" lon="1.01793">
        <ele>201.47</ele>
        <time>2020-03-07T13:51:35Z</time>
      </trkpt>
      <trkpt lat="44.5543" lon="1.01781">
        <ele>198.87</ele>
        <time>2020-03-07T13:51:40Z</time>
      </trkpt>
      <trkpt lat="44.55438" lon="1.01775">
        <ele>196.78</ele>
        <time>2020-03-07T13:51:43Z</time>
      </trkpt>
      <trkpt lat="44.55442" lon="1.01763">
        <ele>195.53</ele>
        <time>2020-03-07T13:51:46Z</time>
      </trkpt>
      <trkpt lat="44.5545" lon="1.01748">
        <ele>193</ele>
        <time>2020-03-07T13:51:50Z</time>
      </trkpt>
      <trkpt lat="44.55454" lon="1.01747">
        <ele>191.87</ele>
        <time>2020-03-07T13:51:51Z</time>
      </trkpt>
      <trkpt lat="44.55457" lon="1.01747">
        <ele>191.88</ele>
        <time>2020-03-07T13:51:52Z</time>
      </trkpt>
      <trkpt lat="44.55474" lon="1.01742">
        <ele>188.82</ele>
        <time>2020-03-07T13:51:57Z</time>
      </trkpt>
      <trkpt lat="44.55481" lon="1.01736">
        <ele>187.43</ele>
        <time>2020-03-07T13:51:59Z</time>
      </trkpt>
      <trkpt lat="44.55493" lon="1.01726">
        <ele>185.09</ele>
        <time>2020-03-07T13:52:02Z</time>
      </trkpt>
      <trkpt lat="44.55498" lon="1.01722">
        <ele>183.87</ele>
        <time>2020-03-07T13:52:03Z</time>
      </trkpt>
      <trkpt lat="44.55503" lon="1.01719">
        <ele>183.92</ele>
        <time>2020-03-07T13:52:04Z</time>
      </trkpt>
      <trkpt lat="44.55512" lon="1.01712">
        <ele>182.91</ele>
        <time>2020-03-07T13:52:06Z</time>
      </trkpt>
      <trkpt lat="44.55527" lon="1.01701">
        <ele>180.72</ele>
        <time>2020-03-07T13:52:09Z</time>
      </trkpt>
      <trkpt lat="44.55531" lon="1.01696">
        <ele>180.72</ele>
        <time>2020-03-07T13:52:10Z</time>
      </trkpt>
      <trkpt lat="44.55534" lon="1.01691">
        <ele>180.7</ele>
        <time>2020-03-07T13:52:11Z</time>
      </trkpt>
      <trkpt lat="44.55536" lon="1.01685">
        <ele>179.92</ele>
        <time>2020-03-07T13:52:12Z</time>
      </trkpt>
      <trkpt lat="44.55538" lon="1.0168">
        <ele>179.92</ele>
        <time>2020-03-07T13:52:13Z</time>
      </trkpt>
      <trkpt lat="44.55538" lon="1.01675">
        <ele>179.94</ele>
        <time>2020-03-07T13:52:14Z</time>
      </trkpt>
      <trkpt lat="44.55539" lon="1.01671">
        <ele>179.93</ele>
        <time>2020-03-07T13:52:15Z</time>
      </trkpt>
      <trkpt lat="44.55535" lon="1.01612">
        <ele>180.08</ele>
        <time>2020-03-07T13:52:29Z</time>
      </trkpt>
      <trkpt lat="44.55534" lon="1.01598">
        <ele>180.08</ele>
        <time>2020-03-07T13:52:31Z</time>
      </trkpt>
      <trkpt lat="44.55535" lon="1.01591">
        <ele>179.23</ele>
        <time>2020-03-07T13:52:32Z</time>
      </trkpt>
      <trkpt lat="44.55536" lon="1.01585">
        <ele>179.23</ele>
        <time>2020-03-07T13:52:33Z</time>
      </trkpt>
      <trkpt lat="44.55538" lon="1.01578">
        <ele>179.23</ele>
        <time>2020-03-07T13:52:34Z</time>
      </trkpt>
      <trkpt lat="44.5554" lon="1.01573">
        <ele>178.4</ele>
        <time>2020-03-07T13:52:35Z</time>
      </trkpt>
      <trkpt lat="44.55562" lon="1.0152">
        <ele>177.45</ele>
        <time>2020-03-07T13:52:47Z</time>
      </trkpt>
      <trkpt lat="44.5558" lon="1.01483">
        <ele>177.46</ele>
        <time>2020-03-07T13:52:57Z</time>
      </trkpt>
      <trkpt lat="44.55626" lon="1.01408">
        <ele>174.56</ele>
        <time>2020-03-07T13:53:14Z</time>
      </trkpt>
      <trkpt lat="44.5563" lon="1.01389">
        <ele>174.55</ele>
        <time>2020-03-07T13:53:17Z</time>
      </trkpt>
      <trkpt lat="44.55639" lon="1.01296">
        <ele>173.78</ele>
        <time>2020-03-07T13:53:35Z</time>
      </trkpt>
      <trkpt lat="44.55648" lon="1.01252">
        <ele>170.98</ele>
        <time>2020-03-07T13:53:45Z</time>
      </trkpt>
      <trkpt lat="44.55644" lon="1.01228">
        <ele>169.2</ele>
        <time>2020-03-07T13:53:49Z</time>
      </trkpt>
      <trkpt lat="44.55639" lon="1.01179">
        <ele>166.36</ele>
        <time>2020-03-07T13:53:59Z</time>
      </trkpt>
      <trkpt lat="44.55641" lon="1.01173">
        <ele>165.5</ele>
        <time>2020-03-07T13:54:03Z</time>
      </trkpt>
      <trkpt lat="44.55636" lon="1.01187">
        <ele>165.58</ele>
        <time>2020-03-07T13:54:12Z</time>
      </trkpt>
      <trkpt lat="44.55637" lon="1.012">
        <ele>165.56</ele>
        <time>2020-03-07T13:54:17Z</time>
      </trkpt>
      <trkpt lat="44.55643" lon="1.01223">
        <ele>165.51</ele>
        <time>2020-03-07T13:54:25Z</time>
      </trkpt>
      <trkpt lat="44.55647" lon="1.01244">
        <ele>168.03</ele>
        <time>2020-03-07T13:54:32Z</time>
      </trkpt>
      <trkpt lat="44.55647" lon="1.01258">
        <ele>169.78</ele>
        <time>2020-03-07T13:54:38Z</time>
      </trkpt>
      <trkpt lat="44.55648" lon="1.01263">
        <ele>169.74</ele>
        <time>2020-03-07T13:54:42Z</time>
      </trkpt>
      <trkpt lat="44.55649" lon="1.01254">
        <ele>169.52</ele>
        <time>2020-03-07T13:54:57Z</time>
      </trkpt>
      <trkpt lat="44.5565" lon="1.01248">
        <ele>169.64</ele>
        <time>2020-03-07T13:56:17Z</time>
      </trkpt>
      <trkpt lat="44.55649" lon="1.01247">
        <ele>169.52</ele>
        <time>2020-03-07T13:56:32Z</time>
      </trkpt>
      <trkpt lat="44.55648" lon="1.01243">
        <ele>170.32</ele>
        <time>2020-03-07T13:56:34Z</time>
      </trkpt>
      <trkpt lat="44.55648" lon="1.0124">
        <ele>170.3</ele>
        <time>2020-03-07T13:56:35Z</time>
      </trkpt>
      <trkpt lat="44.55647" lon="1.01235">
        <ele>170.3</ele>
        <time>2020-03-07T13:56:36Z</time>
      </trkpt>
      <trkpt lat="44.55646" lon="1.0123">
        <ele>170.28</ele>
        <time>2020-03-07T13:56:37Z</time>
      </trkpt>
      <trkpt lat="44.5564" lon="1.01206">
        <ele>167.21</ele>
        <time>2020-03-07T13:56:41Z</time>
      </trkpt>
      <trkpt lat="44.55639" lon="1.012">
        <ele>167.2</ele>
        <time>2020-03-07T13:56:42Z</time>
      </trkpt>
      <trkpt lat="44.55637" lon="1.01192">
        <ele>166.21</ele>
        <time>2020-03-07T13:56:44Z</time>
      </trkpt>
      <trkpt lat="44.55637" lon="1.01173">
        <ele>165.26</ele>
        <time>2020-03-07T13:56:50Z</time>
      </trkpt>
      <trkpt lat="44.55658" lon="1.01132">
        <ele>165.21</ele>
        <time>2020-03-07T13:57:04Z</time>
      </trkpt>
      <trkpt lat="44.55664" lon="1.0112">
        <ele>167.62</ele>
        <time>2020-03-07T13:57:09Z</time>
      </trkpt>
      <trkpt lat="44.55684" lon="1.01094">
        <ele>169.06</ele>
        <time>2020-03-07T13:57:22Z</time>
      </trkpt>
      <trkpt lat="44.55703" lon="1.01078">
        <ele>171.64</ele>
        <time>2020-03-07T13:57:36Z</time>
      </trkpt>
      <trkpt lat="44.55711" lon="1.01083">
        <ele>172.56</ele>
        <time>2020-03-07T13:57:41Z</time>
      </trkpt>
      <trkpt lat="44.55732" lon="1.01118">
        <ele>172.39</ele>
        <time>2020-03-07T13:57:54Z</time>
      </trkpt>
      <trkpt lat="44.5575" lon="1.01154">
        <ele>172.28</ele>
        <time>2020-03-07T13:58:04Z</time>
      </trkpt>
      <trkpt lat="44.55776" lon="1.0115">
        <ele>175.22</ele>
        <time>2020-03-07T13:58:17Z</time>
      </trkpt>
      <trkpt lat="44.55794" lon="1.0114">
        <ele>178.46</ele>
        <time>2020-03-07T13:58:26Z</time>
      </trkpt>
      <trkpt lat="44.55813" lon="1.01129">
        <ele>181.06</ele>
        <time>2020-03-07T13:58:37Z</time>
      </trkpt>
      <trkpt lat="44.55817" lon="1.01127">
        <ele>181.08</ele>
        <time>2020-03-07T13:58:39Z</time>
      </trkpt>
      <trkpt lat="44.55819" lon="1.01126">
        <ele>181.08</ele>
        <time>2020-03-07T13:58:40Z</time>
      </trkpt>
      <trkpt lat="44.55838" lon="1.0111">
        <ele>184.93</ele>
        <time>2020-03-07T13:58:52Z</time>
      </trkpt>
      <trkpt lat="44.55859" lon="1.01083">
        <ele>187.32</ele>
        <time>2020-03-07T13:59:06Z</time>
      </trkpt>
      <trkpt lat="44.55861" lon="1.01082">
        <ele>187.35</ele>
        <time>2020-03-07T13:59:07Z</time>
      </trkpt>
      <trkpt lat="44.55865" lon="1.01077">
        <ele>187.31</ele>
        <time>2020-03-07T13:59:10Z</time>
      </trkpt>
      <trkpt lat="44.55871" lon="1.0107">
        <ele>188.11</ele>
        <time>2020-03-07T13:59:14Z</time>
      </trkpt>
      <trkpt lat="44.55872" lon="1.01069">
        <ele>188.1</ele>
        <time>2020-03-07T13:59:15Z</time>
      </trkpt>
      <trkpt lat="44.55881" lon="1.01056">
        <ele>188.84</ele>
        <time>2020-03-07T13:59:22Z</time>
      </trkpt>
      <trkpt lat="44.55883" lon="1.01055">
        <ele>188.84</ele>
        <time>2020-03-07T13:59:23Z</time>
      </trkpt>
      <trkpt lat="44.55901" lon="1.01038">
        <ele>190.52</ele>
        <time>2020-03-07T13:59:34Z</time>
      </trkpt>
      <trkpt lat="44.55903" lon="1.01036">
        <ele>190.52</ele>
        <time>2020-03-07T13:59:35Z</time>
      </trkpt>
      <trkpt lat="44.55905" lon="1.01034">
        <ele>190.53</ele>
        <time>2020-03-07T13:59:36Z</time>
      </trkpt>
      <trkpt lat="44.55906" lon="1.01033">
        <ele>190.51</ele>
        <time>2020-03-07T13:59:37Z</time>
      </trkpt>
      <trkpt lat="44.55908" lon="1.01032">
        <ele>190.51</ele>
        <time>2020-03-07T13:59:38Z</time>
      </trkpt>
      <trkpt lat="44.5591" lon="1.01031">
        <ele>190.51</ele>
        <time>2020-03-07T13:59:39Z</time>
      </trkpt>
      <trkpt lat="44.55912" lon="1.01029">
        <ele>190.5</ele>
        <time>2020-03-07T13:59:40Z</time>
      </trkpt>
      <trkpt lat="44.5592" lon="1.01023">
        <ele>191.28</ele>
        <time>2020-03-07T13:59:44Z</time>
      </trkpt>
      <trkpt lat="44.55937" lon="1.01007">
        <ele>192.01</ele>
        <time>2020-03-07T13:59:52Z</time>
      </trkpt>
      <trkpt lat="44.55939" lon="1.01005">
        <ele>192.01</ele>
        <time>2020-03-07T13:59:53Z</time>
      </trkpt>
      <trkpt lat="44.5594" lon="1.01004">
        <ele>192</ele>
        <time>2020-03-07T13:59:54Z</time>
      </trkpt>
      <trkpt lat="44.55942" lon="1.01002">
        <ele>192</ele>
        <time>2020-03-07T13:59:55Z</time>
      </trkpt>
      <trkpt lat="44.55944" lon="1.01">
        <ele>191.99</ele>
        <time>2020-03-07T13:59:56Z</time>
      </trkpt>
      <trkpt lat="44.55946" lon="1.00997">
        <ele>192.88</ele>
        <time>2020-03-07T13:59:57Z</time>
      </trkpt>
      <trkpt lat="44.55948" lon="1.00994">
        <ele>192.88</ele>
        <time>2020-03-07T13:59:58Z</time>
      </trkpt>
      <trkpt lat="44.5595" lon="1.00991">
        <ele>192.87</ele>
        <time>2020-03-07T13:59:59Z</time>
      </trkpt>
      <trkpt lat="44.55956" lon="1.00981">
        <ele>192.86</ele>
        <time>2020-03-07T14:00:02Z</time>
      </trkpt>
      <trkpt lat="44.55958" lon="1.00977">
        <ele>192.85</ele>
        <time>2020-03-07T14:00:03Z</time>
      </trkpt>
      <trkpt lat="44.55985" lon="1.00935">
        <ele>192.81</ele>
        <time>2020-03-07T14:00:16Z</time>
      </trkpt>
      <trkpt lat="44.56009" lon="1.00898">
        <ele>192.77</ele>
        <time>2020-03-07T14:00:28Z</time>
      </trkpt>
      <trkpt lat="44.56025" lon="1.0087">
        <ele>192.73</ele>
        <time>2020-03-07T14:00:39Z</time>
      </trkpt>
      <trkpt lat="44.56043" lon="1.00838">
        <ele>193.41</ele>
        <time>2020-03-07T14:00:50Z</time>
      </trkpt>
      <trkpt lat="44.56043" lon="1.00832">
        <ele>194.39</ele>
        <time>2020-03-07T14:00:52Z</time>
      </trkpt>
      <trkpt lat="44.56043" lon="1.00829">
        <ele>194.38</ele>
        <time>2020-03-07T14:00:53Z</time>
      </trkpt>
      <trkpt lat="44.56042" lon="1.00826">
        <ele>194.38</ele>
        <time>2020-03-07T14:00:54Z</time>
      </trkpt>
      <trkpt lat="44.5602" lon="1.00779">
        <ele>196.06</ele>
        <time>2020-03-07T14:01:09Z</time>
      </trkpt>
      <trkpt lat="44.56008" lon="1.00742">
        <ele>195.95</ele>
        <time>2020-03-07T14:01:20Z</time>
      </trkpt>
      <trkpt lat="44.55995" lon="1.00701">
        <ele>195.85</ele>
        <time>2020-03-07T14:01:32Z</time>
      </trkpt>
      <trkpt lat="44.55988" lon="1.00677">
        <ele>193.31</ele>
        <time>2020-03-07T14:01:37Z</time>
      </trkpt>
      <trkpt lat="44.55986" lon="1.00672">
        <ele>193.3</ele>
        <time>2020-03-07T14:01:38Z</time>
      </trkpt>
      <trkpt lat="44.55982" lon="1.0066">
        <ele>193.28</ele>
        <time>2020-03-07T14:01:40Z</time>
      </trkpt>
      <trkpt lat="44.5598" lon="1.00654">
        <ele>192.26</ele>
        <time>2020-03-07T14:01:41Z</time>
      </trkpt>
      <trkpt lat="44.55971" lon="1.00628">
        <ele>191.4</ele>
        <time>2020-03-07T14:01:45Z</time>
      </trkpt>
      <trkpt lat="44.55953" lon="1.00577">
        <ele>189.62</ele>
        <time>2020-03-07T14:01:52Z</time>
      </trkpt>
      <trkpt lat="44.5595" lon="1.00572">
        <ele>189.62</ele>
        <time>2020-03-07T14:01:53Z</time>
      </trkpt>
      <trkpt lat="44.55946" lon="1.00569">
        <ele>189.61</ele>
        <time>2020-03-07T14:01:54Z</time>
      </trkpt>
      <trkpt lat="44.55942" lon="1.00567">
        <ele>189.61</ele>
        <time>2020-03-07T14:01:55Z</time>
      </trkpt>
      <trkpt lat="44.55937" lon="1.00568">
        <ele>189.58</ele>
        <time>2020-03-07T14:01:56Z</time>
      </trkpt>
      <trkpt lat="44.55934" lon="1.0057">
        <ele>189.58</ele>
        <time>2020-03-07T14:01:57Z</time>
      </trkpt>
      <trkpt lat="44.55932" lon="1.00572">
        <ele>189.6</ele>
        <time>2020-03-07T14:01:58Z</time>
      </trkpt>
      <trkpt lat="44.5593" lon="1.00575">
        <ele>189.6</ele>
        <time>2020-03-07T14:01:59Z</time>
      </trkpt>
      <trkpt lat="44.55928" lon="1.00577">
        <ele>189.6</ele>
        <time>2020-03-07T14:02:00Z</time>
      </trkpt>
      <trkpt lat="44.55926" lon="1.00579">
        <ele>189.6</ele>
        <time>2020-03-07T14:02:01Z</time>
      </trkpt>
      <trkpt lat="44.55908" lon="1.00604">
        <ele>189.6</ele>
        <time>2020-03-07T14:02:09Z</time>
      </trkpt>
      <trkpt lat="44.55905" lon="1.00603">
        <ele>189.61</ele>
        <time>2020-03-07T14:02:10Z</time>
      </trkpt>
      <trkpt lat="44.55885" lon="1.00578">
        <ele>189.59</ele>
        <time>2020-03-07T14:02:19Z</time>
      </trkpt>
      <trkpt lat="44.55857" lon="1.00552">
        <ele>187.81</ele>
        <time>2020-03-07T14:02:27Z</time>
      </trkpt>
      <trkpt lat="44.55831" lon="1.00532">
        <ele>185.17</ele>
        <time>2020-03-07T14:02:32Z</time>
      </trkpt>
      <trkpt lat="44.55826" lon="1.00526">
        <ele>185.17</ele>
        <time>2020-03-07T14:02:33Z</time>
      </trkpt>
      <trkpt lat="44.55786" lon="1.00473">
        <ele>181.33</ele>
        <time>2020-03-07T14:02:40Z</time>
      </trkpt>
      <trkpt lat="44.55781" lon="1.00465">
        <ele>181.33</ele>
        <time>2020-03-07T14:02:41Z</time>
      </trkpt>
      <trkpt lat="44.5577" lon="1.00448">
        <ele>180.04</ele>
        <time>2020-03-07T14:02:43Z</time>
      </trkpt>
      <trkpt lat="44.55754" lon="1.00423">
        <ele>178.47</ele>
        <time>2020-03-07T14:02:46Z</time>
      </trkpt>
      <trkpt lat="44.55726" lon="1.0038">
        <ele>177.67</ele>
        <time>2020-03-07T14:02:52Z</time>
      </trkpt>
      <trkpt lat="44.55721" lon="1.00375">
        <ele>177.67</ele>
        <time>2020-03-07T14:02:53Z</time>
      </trkpt>
      <trkpt lat="44.55716" lon="1.0037">
        <ele>176.77</ele>
        <time>2020-03-07T14:02:54Z</time>
      </trkpt>
      <trkpt lat="44.55669" lon="1.00342">
        <ele>176.72</ele>
        <time>2020-03-07T14:03:05Z</time>
      </trkpt>
      <trkpt lat="44.55639" lon="1.00316">
        <ele>175.8</ele>
        <time>2020-03-07T14:03:11Z</time>
      </trkpt>
      <trkpt lat="44.55634" lon="1.00309">
        <ele>174.59</ele>
        <time>2020-03-07T14:03:12Z</time>
      </trkpt>
      <trkpt lat="44.55628" lon="1.00302">
        <ele>174.57</ele>
        <time>2020-03-07T14:03:13Z</time>
      </trkpt>
      <trkpt lat="44.55607" lon="1.00274">
        <ele>172.28</ele>
        <time>2020-03-07T14:03:17Z</time>
      </trkpt>
      <trkpt lat="44.55577" lon="1.00252">
        <ele>172.3</ele>
        <time>2020-03-07T14:03:23Z</time>
      </trkpt>
      <trkpt lat="44.55573" lon="1.0025">
        <ele>172.3</ele>
        <time>2020-03-07T14:03:24Z</time>
      </trkpt>
      <trkpt lat="44.55569" lon="1.00249">
        <ele>172.3</ele>
        <time>2020-03-07T14:03:25Z</time>
      </trkpt>
      <trkpt lat="44.55511" lon="1.00248">
        <ele>172.3</ele>
        <time>2020-03-07T14:03:41Z</time>
      </trkpt>
      <trkpt lat="44.55501" lon="1.00246">
        <ele>174.94</ele>
        <time>2020-03-07T14:03:45Z</time>
      </trkpt>
      <trkpt lat="44.55477" lon="1.00223">
        <ele>178.33</ele>
        <time>2020-03-07T14:03:57Z</time>
      </trkpt>
      <trkpt lat="44.55465" lon="1.00191">
        <ele>180.9</ele>
        <time>2020-03-07T14:04:09Z</time>
      </trkpt>
      <trkpt lat="44.55442" lon="1.00161">
        <ele>184.57</ele>
        <time>2020-03-07T14:04:24Z</time>
      </trkpt>
      <trkpt lat="44.55403" lon="1.00147">
        <ele>186.21</ele>
        <time>2020-03-07T14:04:42Z</time>
      </trkpt>
      <trkpt lat="44.55367" lon="1.00121">
        <ele>187.91</ele>
        <time>2020-03-07T14:05:01Z</time>
      </trkpt>
      <trkpt lat="44.55343" lon="1.00093">
        <ele>188.82</ele>
        <time>2020-03-07T14:05:15Z</time>
      </trkpt>
      <trkpt lat="44.55308" lon="1.00066">
        <ele>190.41</ele>
        <time>2020-03-07T14:05:32Z</time>
      </trkpt>
      <trkpt lat="44.55277" lon="1.0004">
        <ele>192.13</ele>
        <time>2020-03-07T14:05:48Z</time>
      </trkpt>
      <trkpt lat="44.55254" lon="1.00017">
        <ele>193.93</ele>
        <time>2020-03-07T14:06:03Z</time>
      </trkpt>
      <trkpt lat="44.55245" lon="1.00007">
        <ele>195.81</ele>
        <time>2020-03-07T14:06:10Z</time>
      </trkpt>
      <trkpt lat="44.55231" lon="0.99984">
        <ele>198.67</ele>
        <time>2020-03-07T14:06:21Z</time>
      </trkpt>
      <trkpt lat="44.55208" lon="0.99952">
        <ele>199.31</ele>
        <time>2020-03-07T14:06:32Z</time>
      </trkpt>
      <trkpt lat="44.55182" lon="0.99909">
        <ele>199.14</ele>
        <time>2020-03-07T14:06:44Z</time>
      </trkpt>
      <trkpt lat="44.55151" lon="0.9985">
        <ele>196.69</ele>
        <time>2020-03-07T14:06:56Z</time>
      </trkpt>
      <trkpt lat="44.55129" lon="0.99813">
        <ele>195.68</ele>
        <time>2020-03-07T14:07:03Z</time>
      </trkpt>
      <trkpt lat="44.55089" lon="0.99751">
        <ele>193.84</ele>
        <time>2020-03-07T14:07:16Z</time>
      </trkpt>
      <trkpt lat="44.55083" lon="0.99738">
        <ele>193.86</ele>
        <time>2020-03-07T14:07:19Z</time>
      </trkpt>
      <trkpt lat="44.5508" lon="0.99733">
        <ele>193.87</ele>
        <time>2020-03-07T14:07:20Z</time>
      </trkpt>
      <trkpt lat="44.55047" lon="0.99635">
        <ele>191.13</ele>
        <time>2020-03-07T14:07:36Z</time>
      </trkpt>
      <trkpt lat="44.55027" lon="0.99571">
        <ele>188.12</ele>
        <time>2020-03-07T14:07:45Z</time>
      </trkpt>
      <trkpt lat="44.55" lon="0.99492">
        <ele>184.48</ele>
        <time>2020-03-07T14:07:56Z</time>
      </trkpt>
      <trkpt lat="44.55001" lon="0.99487">
        <ele>184.43</ele>
        <time>2020-03-07T14:07:57Z</time>
      </trkpt>
      <trkpt lat="44.55003" lon="0.99484">
        <ele>184.46</ele>
        <time>2020-03-07T14:07:58Z</time>
      </trkpt>
      <trkpt lat="44.55006" lon="0.99482">
        <ele>184.46</ele>
        <time>2020-03-07T14:07:59Z</time>
      </trkpt>
      <trkpt lat="44.55043" lon="0.99448">
        <ele>183.83</ele>
        <time>2020-03-07T14:08:12Z</time>
      </trkpt>
      <trkpt lat="44.55092" lon="0.99417">
        <ele>182.09</ele>
        <time>2020-03-07T14:08:24Z</time>
      </trkpt>
      <trkpt lat="44.55144" lon="0.99375">
        <ele>178.49</ele>
        <time>2020-03-07T14:08:34Z</time>
      </trkpt>
      <trkpt lat="44.55212" lon="0.99323">
        <ele>174.66</ele>
        <time>2020-03-07T14:08:49Z</time>
      </trkpt>
      <trkpt lat="44.55283" lon="0.99267">
        <ele>172.11</ele>
        <time>2020-03-07T14:09:07Z</time>
      </trkpt>
      <trkpt lat="44.55316" lon="0.99272">
        <ele>172.32</ele>
        <time>2020-03-07T14:09:17Z</time>
      </trkpt>
      <trkpt lat="44.55329" lon="0.99278">
        <ele>174.68</ele>
        <time>2020-03-07T14:09:21Z</time>
      </trkpt>
      <trkpt lat="44.55333" lon="0.99277">
        <ele>174.71</ele>
        <time>2020-03-07T14:09:22Z</time>
      </trkpt>
      <trkpt lat="44.55336" lon="0.99274">
        <ele>174.7</ele>
        <time>2020-03-07T14:09:23Z</time>
      </trkpt>
      <trkpt lat="44.55375" lon="0.99242">
        <ele>171.84</ele>
        <time>2020-03-07T14:09:36Z</time>
      </trkpt>
      <trkpt lat="44.55381" lon="0.99238">
        <ele>174.21</ele>
        <time>2020-03-07T14:09:38Z</time>
      </trkpt>
      <trkpt lat="44.55423" lon="0.99211">
        <ele>177.25</ele>
        <time>2020-03-07T14:09:53Z</time>
      </trkpt>
      <trkpt lat="44.55459" lon="0.99205">
        <ele>180.78</ele>
        <time>2020-03-07T14:10:07Z</time>
      </trkpt>
      <trkpt lat="44.5549" lon="0.99189">
        <ele>181.55</ele>
        <time>2020-03-07T14:10:22Z</time>
      </trkpt>
      <trkpt lat="44.55515" lon="0.99165">
        <ele>183.4</ele>
        <time>2020-03-07T14:10:36Z</time>
      </trkpt>
      <trkpt lat="44.55539" lon="0.99133">
        <ele>184.25</ele>
        <time>2020-03-07T14:10:50Z</time>
      </trkpt>
      <trkpt lat="44.55541" lon="0.99131">
        <ele>184.26</ele>
        <time>2020-03-07T14:10:51Z</time>
      </trkpt>
      <trkpt lat="44.55543" lon="0.99129">
        <ele>184.25</ele>
        <time>2020-03-07T14:10:52Z</time>
      </trkpt>
      <trkpt lat="44.55545" lon="0.99127">
        <ele>184.25</ele>
        <time>2020-03-07T14:10:53Z</time>
      </trkpt>
      <trkpt lat="44.55546" lon="0.99125">
        <ele>184.25</ele>
        <time>2020-03-07T14:10:54Z</time>
      </trkpt>
      <trkpt lat="44.55548" lon="0.99124">
        <ele>184.25</ele>
        <time>2020-03-07T14:10:55Z</time>
      </trkpt>
      <trkpt lat="44.5557" lon="0.99109">
        <ele>185.98</ele>
        <time>2020-03-07T14:11:09Z</time>
      </trkpt>
      <trkpt lat="44.55586" lon="0.99102">
        <ele>186.96</ele>
        <time>2020-03-07T14:11:20Z</time>
      </trkpt>
      <trkpt lat="44.55587" lon="0.99101">
        <ele>186.98</ele>
        <time>2020-03-07T14:11:21Z</time>
      </trkpt>
      <trkpt lat="44.55607" lon="0.99088">
        <ele>188.53</ele>
        <time>2020-03-07T14:11:33Z</time>
      </trkpt>
      <trkpt lat="44.55627" lon="0.9907">
        <ele>189.96</ele>
        <time>2020-03-07T14:11:43Z</time>
      </trkpt>
      <trkpt lat="44.55637" lon="0.99062">
        <ele>191.72</ele>
        <time>2020-03-07T14:11:49Z</time>
      </trkpt>
      <trkpt lat="44.55656" lon="0.99045">
        <ele>192.37</ele>
        <time>2020-03-07T14:12:02Z</time>
      </trkpt>
      <trkpt lat="44.55668" lon="0.99031">
        <ele>195.18</ele>
        <time>2020-03-07T14:12:12Z</time>
      </trkpt>
      <trkpt lat="44.55669" lon="0.99027">
        <ele>195.96</ele>
        <time>2020-03-07T14:12:13Z</time>
      </trkpt>
      <trkpt lat="44.55671" lon="0.99026">
        <ele>195.93</ele>
        <time>2020-03-07T14:12:14Z</time>
      </trkpt>
      <trkpt lat="44.55672" lon="0.99024">
        <ele>195.91</ele>
        <time>2020-03-07T14:12:15Z</time>
      </trkpt>
      <trkpt lat="44.55673" lon="0.99024">
        <ele>196.68</ele>
        <time>2020-03-07T14:12:16Z</time>
      </trkpt>
      <trkpt lat="44.55675" lon="0.99024">
        <ele>196.61</ele>
        <time>2020-03-07T14:12:17Z</time>
      </trkpt>
      <trkpt lat="44.55676" lon="0.99026">
        <ele>196.62</ele>
        <time>2020-03-07T14:12:18Z</time>
      </trkpt>
      <trkpt lat="44.55678" lon="0.99027">
        <ele>196.59</ele>
        <time>2020-03-07T14:12:19Z</time>
      </trkpt>
      <trkpt lat="44.55679" lon="0.99029">
        <ele>196.56</ele>
        <time>2020-03-07T14:12:20Z</time>
      </trkpt>
      <trkpt lat="44.55695" lon="0.99048">
        <ele>197.89</ele>
        <time>2020-03-07T14:12:33Z</time>
      </trkpt>
      <trkpt lat="44.55696" lon="0.9905">
        <ele>197.86</ele>
        <time>2020-03-07T14:12:34Z</time>
      </trkpt>
      <trkpt lat="44.55697" lon="0.99052">
        <ele>197.83</ele>
        <time>2020-03-07T14:12:35Z</time>
      </trkpt>
      <trkpt lat="44.55709" lon="0.99069">
        <ele>198.49</ele>
        <time>2020-03-07T14:12:47Z</time>
      </trkpt>
      <trkpt lat="44.55713" lon="0.9907">
        <ele>198.48</ele>
        <time>2020-03-07T14:12:48Z</time>
      </trkpt>
      <trkpt lat="44.55715" lon="0.99072">
        <ele>199.23</ele>
        <time>2020-03-07T14:12:49Z</time>
      </trkpt>
      <trkpt lat="44.55716" lon="0.99074">
        <ele>199.23</ele>
        <time>2020-03-07T14:12:50Z</time>
      </trkpt>
      <trkpt lat="44.55717" lon="0.99076">
        <ele>199.21</ele>
        <time>2020-03-07T14:12:51Z</time>
      </trkpt>
      <trkpt lat="44.55718" lon="0.99077">
        <ele>199.21</ele>
        <time>2020-03-07T14:12:52Z</time>
      </trkpt>
      <trkpt lat="44.55719" lon="0.99079">
        <ele>199.23</ele>
        <time>2020-03-07T14:12:53Z</time>
      </trkpt>
      <trkpt lat="44.55731" lon="0.99108">
        <ele>200.74</ele>
        <time>2020-03-07T14:13:07Z</time>
      </trkpt>
      <trkpt lat="44.55745" lon="0.99131">
        <ele>202.4</ele>
        <time>2020-03-07T14:13:20Z</time>
      </trkpt>
      <trkpt lat="44.5577" lon="0.99152">
        <ele>203.11</ele>
        <time>2020-03-07T14:13:33Z</time>
      </trkpt>
      <trkpt lat="44.55783" lon="0.99166">
        <ele>203.8</ele>
        <time>2020-03-07T14:13:42Z</time>
      </trkpt>
      <trkpt lat="44.55822" lon="0.99191">
        <ele>203.68</ele>
        <time>2020-03-07T14:13:55Z</time>
      </trkpt>
      <trkpt lat="44.55825" lon="0.99193">
        <ele>203.67</ele>
        <time>2020-03-07T14:13:56Z</time>
      </trkpt>
      <trkpt lat="44.55852" lon="0.99209">
        <ele>201.05</ele>
        <time>2020-03-07T14:14:04Z</time>
      </trkpt>
      <trkpt lat="44.55856" lon="0.99209">
        <ele>200.25</ele>
        <time>2020-03-07T14:14:06Z</time>
      </trkpt>
      <trkpt lat="44.55858" lon="0.9921">
        <ele>200.22</ele>
        <time>2020-03-07T14:14:07Z</time>
      </trkpt>
      <trkpt lat="44.5586" lon="0.99211">
        <ele>199.44</ele>
        <time>2020-03-07T14:14:08Z</time>
      </trkpt>
      <trkpt lat="44.55861" lon="0.99213">
        <ele>199.45</ele>
        <time>2020-03-07T14:14:09Z</time>
      </trkpt>
      <trkpt lat="44.55863" lon="0.99215">
        <ele>199.45</ele>
        <time>2020-03-07T14:14:10Z</time>
      </trkpt>
      <trkpt lat="44.55865" lon="0.99217">
        <ele>199.44</ele>
        <time>2020-03-07T14:14:11Z</time>
      </trkpt>
      <trkpt lat="44.55868" lon="0.99219">
        <ele>198.56</ele>
        <time>2020-03-07T14:14:12Z</time>
      </trkpt>
      <trkpt lat="44.55872" lon="0.99221">
        <ele>198.52</ele>
        <time>2020-03-07T14:14:13Z</time>
      </trkpt>
      <trkpt lat="44.5592" lon="0.99249">
        <ele>195.24</ele>
        <time>2020-03-07T14:14:23Z</time>
      </trkpt>
      <trkpt lat="44.55953" lon="0.99272">
        <ele>194.62</ele>
        <time>2020-03-07T14:14:36Z</time>
      </trkpt>
      <trkpt lat="44.55978" lon="0.99298">
        <ele>193.71</ele>
        <time>2020-03-07T14:14:47Z</time>
      </trkpt>
      <trkpt lat="44.55982" lon="0.99302">
        <ele>193.7</ele>
        <time>2020-03-07T14:14:48Z</time>
      </trkpt>
      <trkpt lat="44.55993" lon="0.99311">
        <ele>192.68</ele>
        <time>2020-03-07T14:14:51Z</time>
      </trkpt>
      <trkpt lat="44.55997" lon="0.99313">
        <ele>192.69</ele>
        <time>2020-03-07T14:14:52Z</time>
      </trkpt>
      <trkpt lat="44.56041" lon="0.9933">
        <ele>191.92</ele>
        <time>2020-03-07T14:15:05Z</time>
      </trkpt>
      <trkpt lat="44.56094" lon="0.99337">
        <ele>188.2</ele>
        <time>2020-03-07T14:15:18Z</time>
      </trkpt>
      <trkpt lat="44.56119" lon="0.99334">
        <ele>185.83</ele>
        <time>2020-03-07T14:15:23Z</time>
      </trkpt>
      <trkpt lat="44.56141" lon="0.99329">
        <ele>183.4</ele>
        <time>2020-03-07T14:15:27Z</time>
      </trkpt>
      <trkpt lat="44.56153" lon="0.99326">
        <ele>182.13</ele>
        <time>2020-03-07T14:15:29Z</time>
      </trkpt>
      <trkpt lat="44.56164" lon="0.99324">
        <ele>180.86</ele>
        <time>2020-03-07T14:15:31Z</time>
      </trkpt>
      <trkpt lat="44.56169" lon="0.99322">
        <ele>179.92</ele>
        <time>2020-03-07T14:15:32Z</time>
      </trkpt>
      <trkpt lat="44.56182" lon="0.99317">
        <ele>178.28</ele>
        <time>2020-03-07T14:15:35Z</time>
      </trkpt>
      <trkpt lat="44.562" lon="0.99307">
        <ele>174.55</ele>
        <time>2020-03-07T14:15:44Z</time>
      </trkpt>
      <trkpt lat="44.56248" lon="0.99298">
        <ele>172.18</ele>
        <time>2020-03-07T14:15:59Z</time>
      </trkpt>
      <trkpt lat="44.56281" lon="0.99316">
        <ele>171.56</ele>
        <time>2020-03-07T14:16:13Z</time>
      </trkpt>
      <trkpt lat="44.56315" lon="0.99352">
        <ele>170.53</ele>
        <time>2020-03-07T14:16:26Z</time>
      </trkpt>
      <trkpt lat="44.56352" lon="0.99383">
        <ele>167.97</ele>
        <time>2020-03-07T14:16:42Z</time>
      </trkpt>
      <trkpt lat="44.56358" lon="0.99387">
        <ele>165.12</ele>
        <time>2020-03-07T14:16:44Z</time>
      </trkpt>
      <trkpt lat="44.56394" lon="0.99418">
        <ele>165.14</ele>
        <time>2020-03-07T14:17:00Z</time>
      </trkpt>
      <trkpt lat="44.56405" lon="0.99418">
        <ele>164.33</ele>
        <time>2020-03-07T14:17:03Z</time>
      </trkpt>
      <trkpt lat="44.5641" lon="0.99416">
        <ele>164.33</ele>
        <time>2020-03-07T14:17:04Z</time>
      </trkpt>
      <trkpt lat="44.56418" lon="0.99412">
        <ele>163.1</ele>
        <time>2020-03-07T14:17:06Z</time>
      </trkpt>
      <trkpt lat="44.56423" lon="0.99408">
        <ele>162.14</ele>
        <time>2020-03-07T14:17:07Z</time>
      </trkpt>
      <trkpt lat="44.56428" lon="0.99404">
        <ele>162.13</ele>
        <time>2020-03-07T14:17:08Z</time>
      </trkpt>
      <trkpt lat="44.56437" lon="0.99396">
        <ele>161.23</ele>
        <time>2020-03-07T14:17:10Z</time>
      </trkpt>
      <trkpt lat="44.56442" lon="0.99393">
        <ele>160.35</ele>
        <time>2020-03-07T14:17:11Z</time>
      </trkpt>
      <trkpt lat="44.56447" lon="0.9939">
        <ele>160.31</ele>
        <time>2020-03-07T14:17:12Z</time>
      </trkpt>
      <trkpt lat="44.56453" lon="0.99389">
        <ele>159.22</ele>
        <time>2020-03-07T14:17:13Z</time>
      </trkpt>
      <trkpt lat="44.56458" lon="0.99388">
        <ele>159.22</ele>
        <time>2020-03-07T14:17:14Z</time>
      </trkpt>
      <trkpt lat="44.56463" lon="0.99388">
        <ele>158.18</ele>
        <time>2020-03-07T14:17:15Z</time>
      </trkpt>
      <trkpt lat="44.56468" lon="0.99388">
        <ele>158.18</ele>
        <time>2020-03-07T14:17:16Z</time>
      </trkpt>
      <trkpt lat="44.56472" lon="0.99389">
        <ele>158.23</ele>
        <time>2020-03-07T14:17:17Z</time>
      </trkpt>
      <trkpt lat="44.56476" lon="0.99388">
        <ele>158.23</ele>
        <time>2020-03-07T14:17:19Z</time>
      </trkpt>
      <trkpt lat="44.56479" lon="0.99385">
        <ele>158.46</ele>
        <time>2020-03-07T14:17:30Z</time>
      </trkpt>
      <trkpt lat="44.56502" lon="0.99349">
        <ele>155.44</ele>
        <time>2020-03-07T14:17:38Z</time>
      </trkpt>
      <trkpt lat="44.56526" lon="0.99322">
        <ele>154.64</ele>
        <time>2020-03-07T14:17:48Z</time>
      </trkpt>
      <trkpt lat="44.56541" lon="0.99305">
        <ele>154.71</ele>
        <time>2020-03-07T14:17:58Z</time>
      </trkpt>
      <trkpt lat="44.56542" lon="0.99302">
        <ele>154.71</ele>
        <time>2020-03-07T14:17:59Z</time>
      </trkpt>
      <trkpt lat="44.56555" lon="0.99276">
        <ele>152.94</ele>
        <time>2020-03-07T14:18:06Z</time>
      </trkpt>
      <trkpt lat="44.56558" lon="0.99273">
        <ele>152.92</ele>
        <time>2020-03-07T14:18:07Z</time>
      </trkpt>
      <trkpt lat="44.56559" lon="0.99269">
        <ele>152.9</ele>
        <time>2020-03-07T14:18:08Z</time>
      </trkpt>
      <trkpt lat="44.56561" lon="0.99266">
        <ele>151.95</ele>
        <time>2020-03-07T14:18:09Z</time>
      </trkpt>
      <trkpt lat="44.56563" lon="0.99262">
        <ele>151.93</ele>
        <time>2020-03-07T14:18:10Z</time>
      </trkpt>
      <trkpt lat="44.56564" lon="0.99258">
        <ele>151.91</ele>
        <time>2020-03-07T14:18:11Z</time>
      </trkpt>
      <trkpt lat="44.56566" lon="0.99255">
        <ele>150.77</ele>
        <time>2020-03-07T14:18:12Z</time>
      </trkpt>
      <trkpt lat="44.56585" lon="0.99227">
        <ele>147.43</ele>
        <time>2020-03-07T14:18:21Z</time>
      </trkpt>
      <trkpt lat="44.56593" lon="0.99221">
        <ele>146.46</ele>
        <time>2020-03-07T14:18:24Z</time>
      </trkpt>
      <trkpt lat="44.56596" lon="0.99221">
        <ele>146.43</ele>
        <time>2020-03-07T14:18:25Z</time>
      </trkpt>
      <trkpt lat="44.566" lon="0.99221">
        <ele>145.38</ele>
        <time>2020-03-07T14:18:26Z</time>
      </trkpt>
      <trkpt lat="44.56624" lon="0.99222">
        <ele>141.96</ele>
        <time>2020-03-07T14:18:32Z</time>
      </trkpt>
      <trkpt lat="44.56628" lon="0.99226">
        <ele>141.16</ele>
        <time>2020-03-07T14:18:34Z</time>
      </trkpt>
      <trkpt lat="44.56637" lon="0.99231">
        <ele>137.95</ele>
        <time>2020-03-07T14:18:39Z</time>
      </trkpt>
      <trkpt lat="44.56638" lon="0.99233">
        <ele>137.9</ele>
        <time>2020-03-07T14:18:40Z</time>
      </trkpt>
      <trkpt lat="44.5664" lon="0.99235">
        <ele>137.15</ele>
        <time>2020-03-07T14:18:41Z</time>
      </trkpt>
      <trkpt lat="44.56641" lon="0.99237">
        <ele>137.23</ele>
        <time>2020-03-07T14:18:42Z</time>
      </trkpt>
      <trkpt lat="44.56643" lon="0.99238">
        <ele>136.1</ele>
        <time>2020-03-07T14:18:43Z</time>
      </trkpt>
      <trkpt lat="44.56645" lon="0.99241">
        <ele>135.34</ele>
        <time>2020-03-07T14:18:44Z</time>
      </trkpt>
      <trkpt lat="44.56647" lon="0.99244">
        <ele>135.22</ele>
        <time>2020-03-07T14:18:45Z</time>
      </trkpt>
      <trkpt lat="44.56659" lon="0.99257">
        <ele>133.34</ele>
        <time>2020-03-07T14:18:51Z</time>
      </trkpt>
      <trkpt lat="44.56671" lon="0.99255">
        <ele>131.5</ele>
        <time>2020-03-07T14:19:02Z</time>
      </trkpt>
      <trkpt lat="44.56673" lon="0.99256">
        <ele>131.51</ele>
        <time>2020-03-07T14:19:03Z</time>
      </trkpt>
      <trkpt lat="44.56675" lon="0.99256">
        <ele>131.49</ele>
        <time>2020-03-07T14:19:04Z</time>
      </trkpt>
      <trkpt lat="44.56677" lon="0.99258">
        <ele>131.48</ele>
        <time>2020-03-07T14:19:05Z</time>
      </trkpt>
      <trkpt lat="44.56678" lon="0.99258">
        <ele>131.48</ele>
        <time>2020-03-07T14:19:06Z</time>
      </trkpt>
      <trkpt lat="44.56679" lon="0.99259">
        <ele>130.47</ele>
        <time>2020-03-07T14:19:07Z</time>
      </trkpt>
      <trkpt lat="44.5668" lon="0.9926">
        <ele>130.46</ele>
        <time>2020-03-07T14:19:08Z</time>
      </trkpt>
      <trkpt lat="44.56682" lon="0.99262">
        <ele>130.44</ele>
        <time>2020-03-07T14:19:09Z</time>
      </trkpt>
      <trkpt lat="44.56684" lon="0.99264">
        <ele>130.42</ele>
        <time>2020-03-07T14:19:10Z</time>
      </trkpt>
      <trkpt lat="44.56685" lon="0.99266">
        <ele>130.43</ele>
        <time>2020-03-07T14:19:11Z</time>
      </trkpt>
      <trkpt lat="44.56687" lon="0.99268">
        <ele>130.41</ele>
        <time>2020-03-07T14:19:12Z</time>
      </trkpt>
      <trkpt lat="44.56695" lon="0.99273">
        <ele>130.35</ele>
        <time>2020-03-07T14:19:18Z</time>
      </trkpt>
      <trkpt lat="44.567" lon="0.99268">
        <ele>130.18</ele>
        <time>2020-03-07T14:19:32Z</time>
      </trkpt>
      <trkpt lat="44.56721" lon="0.99269">
        <ele>129.66</ele>
        <time>2020-03-07T14:20:35Z</time>
      </trkpt>
      <trkpt lat="44.56723" lon="0.99272">
        <ele>129.59</ele>
        <time>2020-03-07T14:20:47Z</time>
      </trkpt>
      <trkpt lat="44.5673" lon="0.99275">
        <ele>129.36</ele>
        <time>2020-03-07T14:21:51Z</time>
      </trkpt>
      <trkpt lat="44.56732" lon="0.99279">
        <ele>129.31</ele>
        <time>2020-03-07T14:22:43Z</time>
      </trkpt>
      <trkpt lat="44.56732" lon="0.9928">
        <ele>127.67</ele>
        <time>2020-03-07T14:22:53Z</time>
      </trkpt>
      <trkpt lat="44.56732" lon="0.9928">
        <ele>129.99</ele>
        <time>2020-03-07T14:22:57Z</time>
      </trkpt>
      <trkpt lat="44.56733" lon="0.99281">
        <ele>129.96</ele>
        <time>2020-03-07T14:23:11Z</time>
      </trkpt>
      <trkpt lat="44.56733" lon="0.99282">
        <ele>129.96</ele>
        <time>2020-03-07T14:23:12Z</time>
      </trkpt>
      <trkpt lat="44.56733" lon="0.99284">
        <ele>129.96</ele>
        <time>2020-03-07T14:23:13Z</time>
      </trkpt>
      <trkpt lat="44.56734" lon="0.99285">
        <ele>129.96</ele>
        <time>2020-03-07T14:23:14Z</time>
      </trkpt>
      <trkpt lat="44.56734" lon="0.99287">
        <ele>129.95</ele>
        <time>2020-03-07T14:23:15Z</time>
      </trkpt>
      <trkpt lat="44.56734" lon="0.9929">
        <ele>129.95</ele>
        <time>2020-03-07T14:23:16Z</time>
      </trkpt>
      <trkpt lat="44.56735" lon="0.99292">
        <ele>129.96</ele>
        <time>2020-03-07T14:23:17Z</time>
      </trkpt>
      <trkpt lat="44.56736" lon="0.99295">
        <ele>129.96</ele>
        <time>2020-03-07T14:23:18Z</time>
      </trkpt>
      <trkpt lat="44.56737" lon="0.99297">
        <ele>129.96</ele>
        <time>2020-03-07T14:23:19Z</time>
      </trkpt>
      <trkpt lat="44.56737" lon="0.99299">
        <ele>129.96</ele>
        <time>2020-03-07T14:23:20Z</time>
      </trkpt>
      <trkpt lat="44.56739" lon="0.99301">
        <ele>129.96</ele>
        <time>2020-03-07T14:23:21Z</time>
      </trkpt>
      <trkpt lat="44.5674" lon="0.99303">
        <ele>129.97</ele>
        <time>2020-03-07T14:23:22Z</time>
      </trkpt>
      <trkpt lat="44.56776" lon="0.99337">
        <ele>130.88</ele>
        <time>2020-03-07T14:23:40Z</time>
      </trkpt>
      <trkpt lat="44.56809" lon="0.99348">
        <ele>130.91</ele>
        <time>2020-03-07T14:23:55Z</time>
      </trkpt>
      <trkpt lat="44.56821" lon="0.99341">
        <ele>130.89</ele>
        <time>2020-03-07T14:24:07Z</time>
      </trkpt>
      <trkpt lat="44.56832" lon="0.99331">
        <ele>128.44</ele>
        <time>2020-03-07T14:24:16Z</time>
      </trkpt>
      <trkpt lat="44.56851" lon="0.99316">
        <ele>125.92</ele>
        <time>2020-03-07T14:24:29Z</time>
      </trkpt>
      <trkpt lat="44.56885" lon="0.99298">
        <ele>122.4</ele>
        <time>2020-03-07T14:24:40Z</time>
      </trkpt>
      <trkpt lat="44.56923" lon="0.99326">
        <ele>119.88</ele>
        <time>2020-03-07T14:24:51Z</time>
      </trkpt>
      <trkpt lat="44.5695" lon="0.99365">
        <ele>117.2</ele>
        <time>2020-03-07T14:25:03Z</time>
      </trkpt>
      <trkpt lat="44.56954" lon="0.99384">
        <ele>115.32</ele>
        <time>2020-03-07T14:25:08Z</time>
      </trkpt>
      <trkpt lat="44.56954" lon="0.99388">
        <ele>115.31</ele>
        <time>2020-03-07T14:25:09Z</time>
      </trkpt>
      <trkpt lat="44.56953" lon="0.99392">
        <ele>114.57</ele>
        <time>2020-03-07T14:25:10Z</time>
      </trkpt>
      <trkpt lat="44.56952" lon="0.99395">
        <ele>114.52</ele>
        <time>2020-03-07T14:25:11Z</time>
      </trkpt>
      <trkpt lat="44.56951" lon="0.99398">
        <ele>114.54</ele>
        <time>2020-03-07T14:25:12Z</time>
      </trkpt>
      <trkpt lat="44.56953" lon="0.99432">
        <ele>114.67</ele>
        <time>2020-03-07T14:25:23Z</time>
      </trkpt>
      <trkpt lat="44.56963" lon="0.99473">
        <ele>114.8</ele>
        <time>2020-03-07T14:25:36Z</time>
      </trkpt>
      <trkpt lat="44.56945" lon="0.99516">
        <ele>115.85</ele>
        <time>2020-03-07T14:25:51Z</time>
      </trkpt>
      <trkpt lat="44.56946" lon="0.99565">
        <ele>117.65</ele>
        <time>2020-03-07T14:26:05Z</time>
      </trkpt>
      <trkpt lat="44.56948" lon="0.99576">
        <ele>117.68</ele>
        <time>2020-03-07T14:26:09Z</time>
      </trkpt>
      <trkpt lat="44.56951" lon="0.99576">
        <ele>117.69</ele>
        <time>2020-03-07T14:26:10Z</time>
      </trkpt>
      <trkpt lat="44.56952" lon="0.99573">
        <ele>117.7</ele>
        <time>2020-03-07T14:26:11Z</time>
      </trkpt>
      <trkpt lat="44.56952" lon="0.9957">
        <ele>117.71</ele>
        <time>2020-03-07T14:26:12Z</time>
      </trkpt>
      <trkpt lat="44.56952" lon="0.99567">
        <ele>117.73</ele>
        <time>2020-03-07T14:26:13Z</time>
      </trkpt>
      <trkpt lat="44.56965" lon="0.99545">
        <ele>121.67</ele>
        <time>2020-03-07T14:26:27Z</time>
      </trkpt>
      <trkpt lat="44.56983" lon="0.9954">
        <ele>125.11</ele>
        <time>2020-03-07T14:26:38Z</time>
      </trkpt>
      <trkpt lat="44.57003" lon="0.99548">
        <ele>128.77</ele>
        <time>2020-03-07T14:26:51Z</time>
      </trkpt>
      <trkpt lat="44.57014" lon="0.99588">
        <ele>131.37</ele>
        <time>2020-03-07T14:27:09Z</time>
      </trkpt>
      <trkpt lat="44.5702" lon="0.99636">
        <ele>132.23</ele>
        <time>2020-03-07T14:27:22Z</time>
      </trkpt>
      <trkpt lat="44.57024" lon="0.99687">
        <ele>132.29</ele>
        <time>2020-03-07T14:27:36Z</time>
      </trkpt>
      <trkpt lat="44.57037" lon="0.9973">
        <ele>132.41</ele>
        <time>2020-03-07T14:27:47Z</time>
      </trkpt>
      <trkpt lat="44.5706" lon="0.99764">
        <ele>132.47</ele>
        <time>2020-03-07T14:27:58Z</time>
      </trkpt>
      <trkpt lat="44.57077" lon="0.99777">
        <ele>132.55</ele>
        <time>2020-03-07T14:28:10Z</time>
      </trkpt>
      <trkpt lat="44.57077" lon="0.99776">
        <ele>132.56</ele>
        <time>2020-03-07T14:28:12Z</time>
      </trkpt>
      <trkpt lat="44.57079" lon="0.99784">
        <ele>132.64</ele>
        <time>2020-03-07T14:28:24Z</time>
      </trkpt>
      <trkpt lat="44.5708" lon="0.99786">
        <ele>132.64</ele>
        <time>2020-03-07T14:28:25Z</time>
      </trkpt>
      <trkpt lat="44.57094" lon="0.99794">
        <ele>132.72</ele>
        <time>2020-03-07T14:28:39Z</time>
      </trkpt>
      <trkpt lat="44.57117" lon="0.99797">
        <ele>132.76</ele>
        <time>2020-03-07T14:28:51Z</time>
      </trkpt>
      <trkpt lat="44.57147" lon="0.99807">
        <ele>132.88</ele>
        <time>2020-03-07T14:29:07Z</time>
      </trkpt>
      <trkpt lat="44.57153" lon="0.99809">
        <ele>132.91</ele>
        <time>2020-03-07T14:29:11Z</time>
      </trkpt>
      <trkpt lat="44.57154" lon="0.9981">
        <ele>132.93</ele>
        <time>2020-03-07T14:29:12Z</time>
      </trkpt>
      <trkpt lat="44.57156" lon="0.9981">
        <ele>132.95</ele>
        <time>2020-03-07T14:29:13Z</time>
      </trkpt>
      <trkpt lat="44.57158" lon="0.9981">
        <ele>133.74</ele>
        <time>2020-03-07T14:29:14Z</time>
      </trkpt>
      <trkpt lat="44.57159" lon="0.99811">
        <ele>133.75</ele>
        <time>2020-03-07T14:29:15Z</time>
      </trkpt>
      <trkpt lat="44.57171" lon="0.99811">
        <ele>134.82</ele>
        <time>2020-03-07T14:29:23Z</time>
      </trkpt>
      <trkpt lat="44.57174" lon="0.99814">
        <ele>135.73</ele>
        <time>2020-03-07T14:29:26Z</time>
      </trkpt>
      <trkpt lat="44.57175" lon="0.99814">
        <ele>135.75</ele>
        <time>2020-03-07T14:29:27Z</time>
      </trkpt>
      <trkpt lat="44.5719" lon="0.99822">
        <ele>137.7</ele>
        <time>2020-03-07T14:29:37Z</time>
      </trkpt>
      <trkpt lat="44.57206" lon="0.99831">
        <ele>140.34</ele>
        <time>2020-03-07T14:29:49Z</time>
      </trkpt>
      <trkpt lat="44.57226" lon="0.9984">
        <ele>142.13</ele>
        <time>2020-03-07T14:30:01Z</time>
      </trkpt>
      <trkpt lat="44.57244" lon="0.99841">
        <ele>144.77</ele>
        <time>2020-03-07T14:30:14Z</time>
      </trkpt>
      <trkpt lat="44.57242" lon="0.99841">
        <ele>146.48</ele>
        <time>2020-03-07T14:30:27Z</time>
      </trkpt>
      <trkpt lat="44.57245" lon="0.99853">
        <ele>146.45</ele>
        <time>2020-03-07T14:30:37Z</time>
      </trkpt>
      <trkpt lat="44.57246" lon="0.99856">
        <ele>146.45</ele>
        <time>2020-03-07T14:30:38Z</time>
      </trkpt>
      <trkpt lat="44.57248" lon="0.99859">
        <ele>146.45</ele>
        <time>2020-03-07T14:30:40Z</time>
      </trkpt>
      <trkpt lat="44.57262" lon="0.99868">
        <ele>146.53</ele>
        <time>2020-03-07T14:30:53Z</time>
      </trkpt>
      <trkpt lat="44.57283" lon="0.99874">
        <ele>149.38</ele>
        <time>2020-03-07T14:31:12Z</time>
      </trkpt>
      <trkpt lat="44.57305" lon="0.99891">
        <ele>151.69</ele>
        <time>2020-03-07T14:31:27Z</time>
      </trkpt>
      <trkpt lat="44.57322" lon="0.99908">
        <ele>154.13</ele>
        <time>2020-03-07T14:31:43Z</time>
      </trkpt>
      <trkpt lat="44.57323" lon="0.99909">
        <ele>154.12</ele>
        <time>2020-03-07T14:31:44Z</time>
      </trkpt>
      <trkpt lat="44.57328" lon="0.99916">
        <ele>154.11</ele>
        <time>2020-03-07T14:31:48Z</time>
      </trkpt>
      <trkpt lat="44.5734" lon="0.99936">
        <ele>155.68</ele>
        <time>2020-03-07T14:31:59Z</time>
      </trkpt>
      <trkpt lat="44.57353" lon="0.99956">
        <ele>157.31</ele>
        <time>2020-03-07T14:32:11Z</time>
      </trkpt>
      <trkpt lat="44.57368" lon="0.99985">
        <ele>158.08</ele>
        <time>2020-03-07T14:32:25Z</time>
      </trkpt>
      <trkpt lat="44.57381" lon="1.00013">
        <ele>157.97</ele>
        <time>2020-03-07T14:32:34Z</time>
      </trkpt>
      <trkpt lat="44.57385" lon="1.0002">
        <ele>155.65</ele>
        <time>2020-03-07T14:32:37Z</time>
      </trkpt>
      <trkpt lat="44.574" lon="1.00041">
        <ele>154.64</ele>
        <time>2020-03-07T14:32:49Z</time>
      </trkpt>
      <trkpt lat="44.57412" lon="1.00068">
        <ele>154.57</ele>
        <time>2020-03-07T14:33:03Z</time>
      </trkpt>
      <trkpt lat="44.5742" lon="1.00082">
        <ele>154.53</ele>
        <time>2020-03-07T14:33:09Z</time>
      </trkpt>
      <trkpt lat="44.57426" lon="1.00092">
        <ele>154.5</ele>
        <time>2020-03-07T14:33:15Z</time>
      </trkpt>
      <trkpt lat="44.57435" lon="1.00104">
        <ele>154.46</ele>
        <time>2020-03-07T14:33:22Z</time>
      </trkpt>
      <trkpt lat="44.57442" lon="1.00113">
        <ele>154.44</ele>
        <time>2020-03-07T14:33:27Z</time>
      </trkpt>
      <trkpt lat="44.57453" lon="1.00126">
        <ele>156.69</ele>
        <time>2020-03-07T14:33:35Z</time>
      </trkpt>
      <trkpt lat="44.57463" lon="1.00135">
        <ele>157.51</ele>
        <time>2020-03-07T14:33:41Z</time>
      </trkpt>
      <trkpt lat="44.57473" lon="1.00158">
        <ele>158.44</ele>
        <time>2020-03-07T14:33:54Z</time>
      </trkpt>
      <trkpt lat="44.57485" lon="1.00177">
        <ele>159.17</ele>
        <time>2020-03-07T14:34:05Z</time>
      </trkpt>
      <trkpt lat="44.57498" lon="1.00198">
        <ele>160</ele>
        <time>2020-03-07T14:34:17Z</time>
      </trkpt>
      <trkpt lat="44.57508" lon="1.00218">
        <ele>160</ele>
        <time>2020-03-07T14:34:25Z</time>
      </trkpt>
      <trkpt lat="44.57521" lon="1.00238">
        <ele>160</ele>
        <time>2020-03-07T14:34:35Z</time>
      </trkpt>
      <trkpt lat="44.57528" lon="1.00248">
        <ele>160.01</ele>
        <time>2020-03-07T14:34:40Z</time>
      </trkpt>
      <trkpt lat="44.57546" lon="1.0027">
        <ele>160.02</ele>
        <time>2020-03-07T14:34:52Z</time>
      </trkpt>
      <trkpt lat="44.5755" lon="1.00268">
        <ele>160.01</ele>
        <time>2020-03-07T14:34:53Z</time>
      </trkpt>
      <trkpt lat="44.57553" lon="1.00265">
        <ele>160.01</ele>
        <time>2020-03-07T14:34:54Z</time>
      </trkpt>
      <trkpt lat="44.57561" lon="1.00256">
        <ele>157.71</ele>
        <time>2020-03-07T14:34:56Z</time>
      </trkpt>
      <trkpt lat="44.57582" lon="1.00237">
        <ele>154.25</ele>
        <time>2020-03-07T14:35:00Z</time>
      </trkpt>
      <trkpt lat="44.57595" lon="1.00228">
        <ele>153.48</ele>
        <time>2020-03-07T14:35:02Z</time>
      </trkpt>
      <trkpt lat="44.57616" lon="1.00218">
        <ele>150.19</ele>
        <time>2020-03-07T14:35:05Z</time>
      </trkpt>
      <trkpt lat="44.57629" lon="1.00214">
        <ele>149.3</ele>
        <time>2020-03-07T14:35:07Z</time>
      </trkpt>
      <trkpt lat="44.57635" lon="1.00211">
        <ele>148.4</ele>
        <time>2020-03-07T14:35:08Z</time>
      </trkpt>
      <trkpt lat="44.57641" lon="1.00206">
        <ele>148.28</ele>
        <time>2020-03-07T14:35:09Z</time>
      </trkpt>
      <trkpt lat="44.57647" lon="1.00199">
        <ele>147.25</ele>
        <time>2020-03-07T14:35:10Z</time>
      </trkpt>
      <trkpt lat="44.57658" lon="1.00186">
        <ele>146.27</ele>
        <time>2020-03-07T14:35:12Z</time>
      </trkpt>
      <trkpt lat="44.57663" lon="1.00178">
        <ele>145.25</ele>
        <time>2020-03-07T14:35:13Z</time>
      </trkpt>
      <trkpt lat="44.57667" lon="1.00168">
        <ele>145.26</ele>
        <time>2020-03-07T14:35:14Z</time>
      </trkpt>
      <trkpt lat="44.5767" lon="1.00158">
        <ele>143.9</ele>
        <time>2020-03-07T14:35:15Z</time>
      </trkpt>
      <trkpt lat="44.57672" lon="1.00148">
        <ele>143.99</ele>
        <time>2020-03-07T14:35:16Z</time>
      </trkpt>
      <trkpt lat="44.57674" lon="1.00137">
        <ele>142.87</ele>
        <time>2020-03-07T14:35:17Z</time>
      </trkpt>
      <trkpt lat="44.57676" lon="1.00128">
        <ele>142.88</ele>
        <time>2020-03-07T14:35:18Z</time>
      </trkpt>
      <trkpt lat="44.57679" lon="1.00119">
        <ele>141.81</ele>
        <time>2020-03-07T14:35:19Z</time>
      </trkpt>
      <trkpt lat="44.57684" lon="1.00111">
        <ele>141.87</ele>
        <time>2020-03-07T14:35:20Z</time>
      </trkpt>
      <trkpt lat="44.57689" lon="1.00105">
        <ele>140.8</ele>
        <time>2020-03-07T14:35:21Z</time>
      </trkpt>
      <trkpt lat="44.57695" lon="1.00099">
        <ele>140.87</ele>
        <time>2020-03-07T14:35:22Z</time>
      </trkpt>
      <trkpt lat="44.57707" lon="1.0009">
        <ele>139.79</ele>
        <time>2020-03-07T14:35:24Z</time>
      </trkpt>
      <trkpt lat="44.57729" lon="1.00076">
        <ele>136.61</ele>
        <time>2020-03-07T14:35:27Z</time>
      </trkpt>
      <trkpt lat="44.57756" lon="1.00052">
        <ele>132.14</ele>
        <time>2020-03-07T14:35:30Z</time>
      </trkpt>
      <trkpt lat="44.57776" lon="1.00032">
        <ele>128.59</ele>
        <time>2020-03-07T14:35:32Z</time>
      </trkpt>
      <trkpt lat="44.57797" lon="1.00013">
        <ele>125.03</ele>
        <time>2020-03-07T14:35:34Z</time>
      </trkpt>
      <trkpt lat="44.57826" lon="0.99986">
        <ele>120.61</ele>
        <time>2020-03-07T14:35:37Z</time>
      </trkpt>
      <trkpt lat="44.57853" lon="0.9996">
        <ele>117.56</ele>
        <time>2020-03-07T14:35:40Z</time>
      </trkpt>
      <trkpt lat="44.57878" lon="0.99933">
        <ele>115.72</ele>
        <time>2020-03-07T14:35:43Z</time>
      </trkpt>
      <trkpt lat="44.57923" lon="0.99888">
        <ele>112.77</ele>
        <time>2020-03-07T14:35:49Z</time>
      </trkpt>
      <trkpt lat="44.57931" lon="0.99883">
        <ele>111.77</ele>
        <time>2020-03-07T14:35:50Z</time>
      </trkpt>
      <trkpt lat="44.5794" lon="0.99879">
        <ele>111.75</ele>
        <time>2020-03-07T14:35:51Z</time>
      </trkpt>
      <trkpt lat="44.5797" lon="0.99871">
        <ele>107.89</ele>
        <time>2020-03-07T14:35:54Z</time>
      </trkpt>
      <trkpt lat="44.57999" lon="0.99863">
        <ele>105.9</ele>
        <time>2020-03-07T14:35:57Z</time>
      </trkpt>
      <trkpt lat="44.58015" lon="0.9986">
        <ele>104.55</ele>
        <time>2020-03-07T14:35:59Z</time>
      </trkpt>
      <trkpt lat="44.58027" lon="0.99857">
        <ele>103.08</ele>
        <time>2020-03-07T14:36:01Z</time>
      </trkpt>
      <trkpt lat="44.58039" lon="0.99855">
        <ele>100.84</ele>
        <time>2020-03-07T14:36:04Z</time>
      </trkpt>
      <trkpt lat="44.58047" lon="0.99862">
        <ele>98.87</ele>
        <time>2020-03-07T14:36:07Z</time>
      </trkpt>
      <trkpt lat="44.58049" lon="0.99865">
        <ele>98.87</ele>
        <time>2020-03-07T14:36:08Z</time>
      </trkpt>
      <trkpt lat="44.5805" lon="0.99867">
        <ele>98.12</ele>
        <time>2020-03-07T14:36:09Z</time>
      </trkpt>
      <trkpt lat="44.58052" lon="0.99867">
        <ele>98.14</ele>
        <time>2020-03-07T14:36:10Z</time>
      </trkpt>
      <trkpt lat="44.58054" lon="0.99867">
        <ele>98.14</ele>
        <time>2020-03-07T14:36:11Z</time>
      </trkpt>
      <trkpt lat="44.58057" lon="0.99867">
        <ele>97.07</ele>
        <time>2020-03-07T14:36:12Z</time>
      </trkpt>
      <trkpt lat="44.58059" lon="0.99866">
        <ele>97.09</ele>
        <time>2020-03-07T14:36:13Z</time>
      </trkpt>
      <trkpt lat="44.58062" lon="0.99865">
        <ele>97.1</ele>
        <time>2020-03-07T14:36:14Z</time>
      </trkpt>
      <trkpt lat="44.58073" lon="0.99862">
        <ele>95.72</ele>
        <time>2020-03-07T14:36:25Z</time>
      </trkpt>
      <trkpt lat="44.58076" lon="0.99868">
        <ele>94.95</ele>
        <time>2020-03-07T14:36:34Z</time>
      </trkpt>
      <trkpt lat="44.58076" lon="0.9987">
        <ele>94.94</ele>
        <time>2020-03-07T14:36:35Z</time>
      </trkpt>
      <trkpt lat="44.5808" lon="0.99878">
        <ele>94.18</ele>
        <time>2020-03-07T14:36:51Z</time>
      </trkpt>
      <trkpt lat="44.58084" lon="0.99888">
        <ele>93.59</ele>
        <time>2020-03-07T14:37:27Z</time>
      </trkpt>
      <trkpt lat="44.58088" lon="0.99896">
        <ele>93.69</ele>
        <time>2020-03-07T14:37:43Z</time>
      </trkpt>
      <trkpt lat="44.58091" lon="0.99903">
        <ele>93.78</ele>
        <time>2020-03-07T14:37:56Z</time>
      </trkpt>
      <trkpt lat="44.581" lon="0.99917">
        <ele>93.86</ele>
        <time>2020-03-07T14:38:09Z</time>
      </trkpt>
      <trkpt lat="44.58106" lon="0.99932">
        <ele>93.91</ele>
        <time>2020-03-07T14:38:16Z</time>
      </trkpt>
      <trkpt lat="44.58106" lon="0.99934">
        <ele>93.91</ele>
        <time>2020-03-07T14:38:17Z</time>
      </trkpt>
      <trkpt lat="44.58107" lon="0.99937">
        <ele>93.92</ele>
        <time>2020-03-07T14:38:18Z</time>
      </trkpt>
      <trkpt lat="44.58109" lon="0.99939">
        <ele>93.92</ele>
        <time>2020-03-07T14:38:19Z</time>
      </trkpt>
      <trkpt lat="44.5811" lon="0.99942">
        <ele>93.93</ele>
        <time>2020-03-07T14:38:20Z</time>
      </trkpt>
      <trkpt lat="44.58111" lon="0.99945">
        <ele>93.94</ele>
        <time>2020-03-07T14:38:21Z</time>
      </trkpt>
      <trkpt lat="44.58112" lon="0.99947">
        <ele>93.95</ele>
        <time>2020-03-07T14:38:22Z</time>
      </trkpt>
      <trkpt lat="44.58113" lon="0.9995">
        <ele>93.95</ele>
        <time>2020-03-07T14:38:23Z</time>
      </trkpt>
      <trkpt lat="44.58114" lon="0.99952">
        <ele>93.95</ele>
        <time>2020-03-07T14:38:24Z</time>
      </trkpt>
      <trkpt lat="44.58114" lon="0.99955">
        <ele>93.96</ele>
        <time>2020-03-07T14:38:25Z</time>
      </trkpt>
      <trkpt lat="44.58128" lon="0.99985">
        <ele>93.99</ele>
        <time>2020-03-07T14:38:36Z</time>
      </trkpt>
      <trkpt lat="44.58138" lon="1.00009">
        <ele>94</ele>
        <time>2020-03-07T14:38:43Z</time>
      </trkpt>
      <trkpt lat="44.58139" lon="1.00012">
        <ele>93.99</ele>
        <time>2020-03-07T14:38:44Z</time>
      </trkpt>
      <trkpt lat="44.5814" lon="1.00016">
        <ele>93.99</ele>
        <time>2020-03-07T14:38:45Z</time>
      </trkpt>
      <trkpt lat="44.5814" lon="1.0002">
        <ele>93.98</ele>
        <time>2020-03-07T14:38:46Z</time>
      </trkpt>
      <trkpt lat="44.58142" lon="1.00023">
        <ele>93.98</ele>
        <time>2020-03-07T14:38:47Z</time>
      </trkpt>
      <trkpt lat="44.58156" lon="1.00057">
        <ele>93.93</ele>
        <time>2020-03-07T14:38:57Z</time>
      </trkpt>
      <trkpt lat="44.58179" lon="1.00093">
        <ele>93.83</ele>
        <time>2020-03-07T14:39:10Z</time>
      </trkpt>
      <trkpt lat="44.58197" lon="1.00141">
        <ele>93.7</ele>
        <time>2020-03-07T14:39:25Z</time>
      </trkpt>
      <trkpt lat="44.58203" lon="1.00165">
        <ele>87.91</ele>
        <time>2020-03-07T14:39:32Z</time>
      </trkpt>
      <trkpt lat="44.58205" lon="1.00168">
        <ele>95.01</ele>
        <time>2020-03-07T14:39:33Z</time>
      </trkpt>
      <trkpt lat="44.58207" lon="1.00171">
        <ele>95</ele>
        <time>2020-03-07T14:39:34Z</time>
      </trkpt>
      <trkpt lat="44.58227" lon="1.00229">
        <ele>94.86</ele>
        <time>2020-03-07T14:39:50Z</time>
      </trkpt>
      <trkpt lat="44.58231" lon="1.00276">
        <ele>95.63</ele>
        <time>2020-03-07T14:40:02Z</time>
      </trkpt>
      <trkpt lat="44.5824" lon="1.00334">
        <ele>95.59</ele>
        <time>2020-03-07T14:40:18Z</time>
      </trkpt>
      <trkpt lat="44.58242" lon="1.00369">
        <ele>95.57</ele>
        <time>2020-03-07T14:40:28Z</time>
      </trkpt>
      <trkpt lat="44.58255" lon="1.00419">
        <ele>95.54</ele>
        <time>2020-03-07T14:40:42Z</time>
      </trkpt>
      <trkpt lat="44.58267" lon="1.00455">
        <ele>95.53</ele>
        <time>2020-03-07T14:40:53Z</time>
      </trkpt>
      <trkpt lat="44.58286" lon="1.00489">
        <ele>96.31</ele>
        <time>2020-03-07T14:41:06Z</time>
      </trkpt>
      <trkpt lat="44.58288" lon="1.00491">
        <ele>96.31</ele>
        <time>2020-03-07T14:41:07Z</time>
      </trkpt>
      <trkpt lat="44.58289" lon="1.00499">
        <ele>97.92</ele>
        <time>2020-03-07T14:41:18Z</time>
      </trkpt>
      <trkpt lat="44.58289" lon="1.00502">
        <ele>98.16</ele>
        <time>2020-03-07T14:42:04Z</time>
      </trkpt>
      <trkpt lat="44.58261" lon="1.00503">
        <ele>98.22</ele>
        <time>2020-03-07T14:42:17Z</time>
      </trkpt>
      <trkpt lat="44.58229" lon="1.00509">
        <ele>98.28</ele>
        <time>2020-03-07T14:42:28Z</time>
      </trkpt>
      <trkpt lat="44.58227" lon="1.00512">
        <ele>98.28</ele>
        <time>2020-03-07T14:42:29Z</time>
      </trkpt>
      <trkpt lat="44.58227" lon="1.00516">
        <ele>98.3</ele>
        <time>2020-03-07T14:42:30Z</time>
      </trkpt>
      <trkpt lat="44.58236" lon="1.00576">
        <ele>99.26</ele>
        <time>2020-03-07T14:42:44Z</time>
      </trkpt>
      <trkpt lat="44.5824" lon="1.00659">
        <ele>99.34</ele>
        <time>2020-03-07T14:43:01Z</time>
      </trkpt>
      <trkpt lat="44.5823" lon="1.00726">
        <ele>100.21</ele>
        <time>2020-03-07T14:43:14Z</time>
      </trkpt>
      <trkpt lat="44.58217" lon="1.00816">
        <ele>101.06</ele>
        <time>2020-03-07T14:43:32Z</time>
      </trkpt>
      <trkpt lat="44.58225" lon="1.00852">
        <ele>101.86</ele>
        <time>2020-03-07T14:43:40Z</time>
      </trkpt>
      <trkpt lat="44.58231" lon="1.00861">
        <ele>101.87</ele>
        <time>2020-03-07T14:43:42Z</time>
      </trkpt>
      <trkpt lat="44.58236" lon="1.00864">
        <ele>101.87</ele>
        <time>2020-03-07T14:43:43Z</time>
      </trkpt>
      <trkpt lat="44.58284" lon="1.00929">
        <ele>99.45</ele>
        <time>2020-03-07T14:43:56Z</time>
      </trkpt>
      <trkpt lat="44.58312" lon="1.01025">
        <ele>99.67</ele>
        <time>2020-03-07T14:44:14Z</time>
      </trkpt>
      <trkpt lat="44.58309" lon="1.01066">
        <ele>99.75</ele>
        <time>2020-03-07T14:44:22Z</time>
      </trkpt>
      <trkpt lat="44.58308" lon="1.01069">
        <ele>99.76</ele>
        <time>2020-03-07T14:44:23Z</time>
      </trkpt>
      <trkpt lat="44.58299" lon="1.01087">
        <ele>102.11</ele>
        <time>2020-03-07T14:44:28Z</time>
      </trkpt>
      <trkpt lat="44.58281" lon="1.01127">
        <ele>104.9</ele>
        <time>2020-03-07T14:44:41Z</time>
      </trkpt>
      <trkpt lat="44.5825" lon="1.01159">
        <ele>108.39</ele>
        <time>2020-03-07T14:44:57Z</time>
      </trkpt>
      <trkpt lat="44.58228" lon="1.01175">
        <ele>110.23</ele>
        <time>2020-03-07T14:45:09Z</time>
      </trkpt>
      <trkpt lat="44.58212" lon="1.0118">
        <ele>111.97</ele>
        <time>2020-03-07T14:45:17Z</time>
      </trkpt>
      <trkpt lat="44.58179" lon="1.01191">
        <ele>113.57</ele>
        <time>2020-03-07T14:45:30Z</time>
      </trkpt>
      <trkpt lat="44.58169" lon="1.01198">
        <ele>113.55</ele>
        <time>2020-03-07T14:45:32Z</time>
      </trkpt>
      <trkpt lat="44.58164" lon="1.01203">
        <ele>113.4</ele>
        <time>2020-03-07T14:45:33Z</time>
      </trkpt>
      <trkpt lat="44.5816" lon="1.0121">
        <ele>113.51</ele>
        <time>2020-03-07T14:45:34Z</time>
      </trkpt>
      <trkpt lat="44.58156" lon="1.0122">
        <ele>113.49</ele>
        <time>2020-03-07T14:45:35Z</time>
      </trkpt>
      <trkpt lat="44.58152" lon="1.0123">
        <ele>111.11</ele>
        <time>2020-03-07T14:45:36Z</time>
      </trkpt>
      <trkpt lat="44.58145" lon="1.01238">
        <ele>111.07</ele>
        <time>2020-03-07T14:45:37Z</time>
      </trkpt>
      <trkpt lat="44.58139" lon="1.01245">
        <ele>109.66</ele>
        <time>2020-03-07T14:45:38Z</time>
      </trkpt>
      <trkpt lat="44.58133" lon="1.0125">
        <ele>109.61</ele>
        <time>2020-03-07T14:45:39Z</time>
      </trkpt>
      <trkpt lat="44.58127" lon="1.01254">
        <ele>108.71</ele>
        <time>2020-03-07T14:45:40Z</time>
      </trkpt>
      <trkpt lat="44.5809" lon="1.01278">
        <ele>108.54</ele>
        <time>2020-03-07T14:45:47Z</time>
      </trkpt>
      <trkpt lat="44.58087" lon="1.01282">
        <ele>108.54</ele>
        <time>2020-03-07T14:45:48Z</time>
      </trkpt>
      <trkpt lat="44.5806" lon="1.01327">
        <ele>108.81</ele>
        <time>2020-03-07T14:46:01Z</time>
      </trkpt>
      <trkpt lat="44.58042" lon="1.01368">
        <ele>108.79</ele>
        <time>2020-03-07T14:46:11Z</time>
      </trkpt>
      <trkpt lat="44.58044" lon="1.01374">
        <ele>108.79</ele>
        <time>2020-03-07T14:46:12Z</time>
      </trkpt>
      <trkpt lat="44.58047" lon="1.01378">
        <ele>108.78</ele>
        <time>2020-03-07T14:46:13Z</time>
      </trkpt>
      <trkpt lat="44.58071" lon="1.01401">
        <ele>108.69</ele>
        <time>2020-03-07T14:46:18Z</time>
      </trkpt>
      <trkpt lat="44.58098" lon="1.01428">
        <ele>106.71</ele>
        <time>2020-03-07T14:46:24Z</time>
      </trkpt>
      <trkpt lat="44.581" lon="1.01432">
        <ele>106.7</ele>
        <time>2020-03-07T14:46:25Z</time>
      </trkpt>
      <trkpt lat="44.58101" lon="1.01436">
        <ele>106.71</ele>
        <time>2020-03-07T14:46:26Z</time>
      </trkpt>
      <trkpt lat="44.58101" lon="1.0144">
        <ele>106.71</ele>
        <time>2020-03-07T14:46:27Z</time>
      </trkpt>
      <trkpt lat="44.58101" lon="1.01444">
        <ele>106.74</ele>
        <time>2020-03-07T14:46:28Z</time>
      </trkpt>
      <trkpt lat="44.58102" lon="1.01448">
        <ele>106.73</ele>
        <time>2020-03-07T14:46:29Z</time>
      </trkpt>
      <trkpt lat="44.58102" lon="1.01451">
        <ele>106.72</ele>
        <time>2020-03-07T14:46:30Z</time>
      </trkpt>
      <trkpt lat="44.58101" lon="1.01484">
        <ele>109.6</ele>
        <time>2020-03-07T14:46:40Z</time>
      </trkpt>
      <trkpt lat="44.58093" lon="1.01526">
        <ele>111.65</ele>
        <time>2020-03-07T14:46:52Z</time>
      </trkpt>
      <trkpt lat="44.58094" lon="1.01558">
        <ele>115.2</ele>
        <time>2020-03-07T14:47:03Z</time>
      </trkpt>
      <trkpt lat="44.58083" lon="1.01608">
        <ele>118.03</ele>
        <time>2020-03-07T14:47:20Z</time>
      </trkpt>
      <trkpt lat="44.58076" lon="1.01652">
        <ele>117.96</ele>
        <time>2020-03-07T14:47:35Z</time>
      </trkpt>
      <trkpt lat="44.58063" lon="1.01699">
        <ele>117.96</ele>
        <time>2020-03-07T14:47:50Z</time>
      </trkpt>
      <trkpt lat="44.58036" lon="1.01738">
        <ele>118.92</ele>
        <time>2020-03-07T14:48:07Z</time>
      </trkpt>
      <trkpt lat="44.58003" lon="1.01759">
        <ele>118.99</ele>
        <time>2020-03-07T14:48:24Z</time>
      </trkpt>
      <trkpt lat="44.58" lon="1.01761">
        <ele>118.99</ele>
        <time>2020-03-07T14:48:26Z</time>
      </trkpt>
      <trkpt lat="44.57996" lon="1.0177">
        <ele>119.8</ele>
        <time>2020-03-07T14:48:32Z</time>
      </trkpt>
      <trkpt lat="44.5799" lon="1.01782">
        <ele>119.84</ele>
        <time>2020-03-07T14:48:38Z</time>
      </trkpt>
      <trkpt lat="44.57975" lon="1.018">
        <ele>120.68</ele>
        <time>2020-03-07T14:48:47Z</time>
      </trkpt>
      <trkpt lat="44.57968" lon="1.01813">
        <ele>120.72</ele>
        <time>2020-03-07T14:48:52Z</time>
      </trkpt>
      <trkpt lat="44.57966" lon="1.01828">
        <ele>121.55</ele>
        <time>2020-03-07T14:48:58Z</time>
      </trkpt>
      <trkpt lat="44.5796" lon="1.01845">
        <ele>121.56</ele>
        <time>2020-03-07T14:49:05Z</time>
      </trkpt>
      <trkpt lat="44.57948" lon="1.01882">
        <ele>122.32</ele>
        <time>2020-03-07T14:49:18Z</time>
      </trkpt>
      <trkpt lat="44.57945" lon="1.019">
        <ele>122.3</ele>
        <time>2020-03-07T14:49:24Z</time>
      </trkpt>
      <trkpt lat="44.57944" lon="1.01911">
        <ele>122.3</ele>
        <time>2020-03-07T14:49:28Z</time>
      </trkpt>
      <trkpt lat="44.57943" lon="1.01917">
        <ele>122.3</ele>
        <time>2020-03-07T14:49:31Z</time>
      </trkpt>
      <trkpt lat="44.5794" lon="1.0193">
        <ele>123.05</ele>
        <time>2020-03-07T14:49:36Z</time>
      </trkpt>
      <trkpt lat="44.57935" lon="1.01948">
        <ele>123.92</ele>
        <time>2020-03-07T14:49:42Z</time>
      </trkpt>
      <trkpt lat="44.57934" lon="1.01979">
        <ele>127.08</ele>
        <time>2020-03-07T14:49:52Z</time>
      </trkpt>
      <trkpt lat="44.57924" lon="1.02002">
        <ele>128.64</ele>
        <time>2020-03-07T14:50:02Z</time>
      </trkpt>
      <trkpt lat="44.57923" lon="1.02005">
        <ele>128.63</ele>
        <time>2020-03-07T14:50:03Z</time>
      </trkpt>
      <trkpt lat="44.57921" lon="1.02012">
        <ele>128.55</ele>
        <time>2020-03-07T14:50:07Z</time>
      </trkpt>
      <trkpt lat="44.57917" lon="1.02023">
        <ele>129.23</ele>
        <time>2020-03-07T14:50:12Z</time>
      </trkpt>
      <trkpt lat="44.57905" lon="1.02062">
        <ele>129.04</ele>
        <time>2020-03-07T14:50:25Z</time>
      </trkpt>
      <trkpt lat="44.57904" lon="1.02083">
        <ele>129.76</ele>
        <time>2020-03-07T14:50:30Z</time>
      </trkpt>
      <trkpt lat="44.57907" lon="1.02097">
        <ele>129.73</ele>
        <time>2020-03-07T14:50:34Z</time>
      </trkpt>
      <trkpt lat="44.5791" lon="1.02147">
        <ele>129.61</ele>
        <time>2020-03-07T14:50:47Z</time>
      </trkpt>
      <trkpt lat="44.57906" lon="1.02185">
        <ele>129.59</ele>
        <time>2020-03-07T14:51:00Z</time>
      </trkpt>
      <trkpt lat="44.57904" lon="1.02208">
        <ele>130.4</ele>
        <time>2020-03-07T14:51:08Z</time>
      </trkpt>
      <trkpt lat="44.57911" lon="1.02251">
        <ele>131.13</ele>
        <time>2020-03-07T14:51:22Z</time>
      </trkpt>
      <trkpt lat="44.57927" lon="1.02287">
        <ele>131.94</ele>
        <time>2020-03-07T14:51:37Z</time>
      </trkpt>
      <trkpt lat="44.57935" lon="1.02293">
        <ele>131.92</ele>
        <time>2020-03-07T14:51:42Z</time>
      </trkpt>
      <trkpt lat="44.57952" lon="1.02301">
        <ele>131.95</ele>
        <time>2020-03-07T14:51:51Z</time>
      </trkpt>
      <trkpt lat="44.57969" lon="1.02303">
        <ele>132.76</ele>
        <time>2020-03-07T14:52:02Z</time>
      </trkpt>
      <trkpt lat="44.57976" lon="1.02311">
        <ele>133.62</ele>
        <time>2020-03-07T14:52:08Z</time>
      </trkpt>
      <trkpt lat="44.57982" lon="1.02323">
        <ele>135.34</ele>
        <time>2020-03-07T14:52:15Z</time>
      </trkpt>
      <trkpt lat="44.57989" lon="1.02346">
        <ele>138.02</ele>
        <time>2020-03-07T14:52:28Z</time>
      </trkpt>
      <trkpt lat="44.57994" lon="1.02366">
        <ele>139.77</ele>
        <time>2020-03-07T14:52:40Z</time>
      </trkpt>
      <trkpt lat="44.57996" lon="1.02376">
        <ele>140.56</ele>
        <time>2020-03-07T14:52:45Z</time>
      </trkpt>
      <trkpt lat="44.57993" lon="1.02399">
        <ele>142.17</ele>
        <time>2020-03-07T14:52:56Z</time>
      </trkpt>
      <trkpt lat="44.57984" lon="1.02419">
        <ele>142.82</ele>
        <time>2020-03-07T14:53:07Z</time>
      </trkpt>
      <trkpt lat="44.57973" lon="1.02444">
        <ele>144.51</ele>
        <time>2020-03-07T14:53:20Z</time>
      </trkpt>
      <trkpt lat="44.57959" lon="1.02479">
        <ele>145.16</ele>
        <time>2020-03-07T14:53:37Z</time>
      </trkpt>
      <trkpt lat="44.57946" lon="1.02514">
        <ele>145.79</ele>
        <time>2020-03-07T14:53:52Z</time>
      </trkpt>
      <trkpt lat="44.57942" lon="1.0253">
        <ele>146.58</ele>
        <time>2020-03-07T14:53:58Z</time>
      </trkpt>
      <trkpt lat="44.57944" lon="1.02533">
        <ele>146.58</ele>
        <time>2020-03-07T14:54:00Z</time>
      </trkpt>
      <trkpt lat="44.57946" lon="1.02531">
        <ele>147.31</ele>
        <time>2020-03-07T14:54:08Z</time>
      </trkpt>
      <trkpt lat="44.57953" lon="1.02521">
        <ele>148.03</ele>
        <time>2020-03-07T14:54:21Z</time>
      </trkpt>
      <trkpt lat="44.5797" lon="1.02514">
        <ele>149.65</ele>
        <time>2020-03-07T14:54:34Z</time>
      </trkpt>
      <trkpt lat="44.57997" lon="1.02496">
        <ele>152.09</ele>
        <time>2020-03-07T14:54:51Z</time>
      </trkpt>
      <trkpt lat="44.58016" lon="1.02479">
        <ele>152.87</ele>
        <time>2020-03-07T14:55:05Z</time>
      </trkpt>
      <trkpt lat="44.58034" lon="1.02466">
        <ele>153.95</ele>
        <time>2020-03-07T14:55:19Z</time>
      </trkpt>
      <trkpt lat="44.58053" lon="1.02456">
        <ele>156.54</ele>
        <time>2020-03-07T14:55:33Z</time>
      </trkpt>
      <trkpt lat="44.58074" lon="1.0245">
        <ele>159.39</ele>
        <time>2020-03-07T14:55:49Z</time>
      </trkpt>
      <trkpt lat="44.58091" lon="1.0245">
        <ele>161.02</ele>
        <time>2020-03-07T14:56:01Z</time>
      </trkpt>
      <trkpt lat="44.58114" lon="1.02441">
        <ele>161.98</ele>
        <time>2020-03-07T14:56:17Z</time>
      </trkpt>
      <trkpt lat="44.58136" lon="1.02432">
        <ele>164.57</ele>
        <time>2020-03-07T14:56:32Z</time>
      </trkpt>
      <trkpt lat="44.58158" lon="1.02421">
        <ele>167.02</ele>
        <time>2020-03-07T14:56:48Z</time>
      </trkpt>
      <trkpt lat="44.58176" lon="1.02406">
        <ele>167.05</ele>
        <time>2020-03-07T14:57:03Z</time>
      </trkpt>
      <trkpt lat="44.58196" lon="1.02393">
        <ele>167.91</ele>
        <time>2020-03-07T14:57:18Z</time>
      </trkpt>
      <trkpt lat="44.582" lon="1.02395">
        <ele>167.93</ele>
        <time>2020-03-07T14:57:22Z</time>
      </trkpt>
      <trkpt lat="44.58211" lon="1.02413">
        <ele>169.72</ele>
        <time>2020-03-07T14:57:38Z</time>
      </trkpt>
      <trkpt lat="44.58221" lon="1.02416">
        <ele>169.71</ele>
        <time>2020-03-07T14:58:01Z</time>
      </trkpt>
      <trkpt lat="44.58213" lon="1.02404">
        <ele>169.68</ele>
        <time>2020-03-07T14:58:15Z</time>
      </trkpt>
      <trkpt lat="44.58211" lon="1.02402">
        <ele>167.19</ele>
        <time>2020-03-07T14:58:18Z</time>
      </trkpt>
      <trkpt lat="44.58209" lon="1.02401">
        <ele>169.47</ele>
        <time>2020-03-07T14:58:20Z</time>
      </trkpt>
      <trkpt lat="44.58196" lon="1.02395">
        <ele>169.41</ele>
        <time>2020-03-07T14:58:37Z</time>
      </trkpt>
      <trkpt lat="44.58194" lon="1.0239">
        <ele>169.37</ele>
        <time>2020-03-07T14:58:53Z</time>
      </trkpt>
      <trkpt lat="44.58197" lon="1.02385">
        <ele>166.91</ele>
        <time>2020-03-07T14:59:05Z</time>
      </trkpt>
      <trkpt lat="44.58201" lon="1.02385">
        <ele>166.88</ele>
        <time>2020-03-07T14:59:14Z</time>
      </trkpt>
      <trkpt lat="44.58209" lon="1.02389">
        <ele>166.93</ele>
        <time>2020-03-07T14:59:23Z</time>
      </trkpt>
      <trkpt lat="44.58211" lon="1.02373">
        <ele>166.91</ele>
        <time>2020-03-07T14:59:30Z</time>
      </trkpt>
      <trkpt lat="44.58215" lon="1.02363">
        <ele>165.91</ele>
        <time>2020-03-07T14:59:33Z</time>
      </trkpt>
      <trkpt lat="44.58217" lon="1.0236">
        <ele>165.9</ele>
        <time>2020-03-07T14:59:34Z</time>
      </trkpt>
      <trkpt lat="44.58219" lon="1.02359">
        <ele>165.9</ele>
        <time>2020-03-07T14:59:35Z</time>
      </trkpt>
      <trkpt lat="44.58222" lon="1.02358">
        <ele>164.74</ele>
        <time>2020-03-07T14:59:36Z</time>
      </trkpt>
      <trkpt lat="44.58225" lon="1.02357">
        <ele>164.71</ele>
        <time>2020-03-07T14:59:37Z</time>
      </trkpt>
      <trkpt lat="44.58227" lon="1.02357">
        <ele>164.71</ele>
        <time>2020-03-07T14:59:38Z</time>
      </trkpt>
      <trkpt lat="44.58236" lon="1.02349">
        <ele>163.85</ele>
        <time>2020-03-07T14:59:41Z</time>
      </trkpt>
      <trkpt lat="44.58238" lon="1.02342">
        <ele>162.56</ele>
        <time>2020-03-07T14:59:42Z</time>
      </trkpt>
      <trkpt lat="44.5824" lon="1.02335">
        <ele>162.54</ele>
        <time>2020-03-07T14:59:43Z</time>
      </trkpt>
      <trkpt lat="44.58243" lon="1.02328">
        <ele>161.45</ele>
        <time>2020-03-07T14:59:44Z</time>
      </trkpt>
      <trkpt lat="44.58248" lon="1.02322">
        <ele>160.66</ele>
        <time>2020-03-07T14:59:45Z</time>
      </trkpt>
      <trkpt lat="44.58255" lon="1.02317">
        <ele>160.65</ele>
        <time>2020-03-07T14:59:46Z</time>
      </trkpt>
      <trkpt lat="44.58261" lon="1.02314">
        <ele>159.15</ele>
        <time>2020-03-07T14:59:47Z</time>
      </trkpt>
      <trkpt lat="44.58268" lon="1.02312">
        <ele>159.1</ele>
        <time>2020-03-07T14:59:48Z</time>
      </trkpt>
      <trkpt lat="44.5828" lon="1.02308">
        <ele>157.91</ele>
        <time>2020-03-07T14:59:50Z</time>
      </trkpt>
      <trkpt lat="44.58327" lon="1.02275">
        <ele>157.36</ele>
        <time>2020-03-07T15:00:01Z</time>
      </trkpt>
      <trkpt lat="44.58331" lon="1.02272">
        <ele>157.39</ele>
        <time>2020-03-07T15:00:02Z</time>
      </trkpt>
      <trkpt lat="44.58362" lon="1.02245">
        <ele>157.55</ele>
        <time>2020-03-07T15:00:15Z</time>
      </trkpt>
      <trkpt lat="44.58398" lon="1.02215">
        <ele>157.66</ele>
        <time>2020-03-07T15:00:30Z</time>
      </trkpt>
      <trkpt lat="44.58427" lon="1.02202">
        <ele>160.15</ele>
        <time>2020-03-07T15:00:42Z</time>
      </trkpt>
      <trkpt lat="44.58439" lon="1.022">
        <ele>160.19</ele>
        <time>2020-03-07T15:00:47Z</time>
      </trkpt>
      <trkpt lat="44.58441" lon="1.02203">
        <ele>160.22</ele>
        <time>2020-03-07T15:00:48Z</time>
      </trkpt>
      <trkpt lat="44.58442" lon="1.02206">
        <ele>160.21</ele>
        <time>2020-03-07T15:00:49Z</time>
      </trkpt>
      <trkpt lat="44.58463" lon="1.02264">
        <ele>161.91</ele>
        <time>2020-03-07T15:01:07Z</time>
      </trkpt>
      <trkpt lat="44.5849" lon="1.02312">
        <ele>162</ele>
        <time>2020-03-07T15:01:23Z</time>
      </trkpt>
      <trkpt lat="44.58498" lon="1.0232">
        <ele>161.98</ele>
        <time>2020-03-07T15:01:26Z</time>
      </trkpt>
      <trkpt lat="44.58503" lon="1.0232">
        <ele>161.97</ele>
        <time>2020-03-07T15:01:27Z</time>
      </trkpt>
      <trkpt lat="44.58508" lon="1.02318">
        <ele>161.98</ele>
        <time>2020-03-07T15:01:28Z</time>
      </trkpt>
      <trkpt lat="44.58512" lon="1.02314">
        <ele>161.97</ele>
        <time>2020-03-07T15:01:29Z</time>
      </trkpt>
      <trkpt lat="44.58516" lon="1.02308">
        <ele>158.95</ele>
        <time>2020-03-07T15:01:30Z</time>
      </trkpt>
      <trkpt lat="44.5852" lon="1.02302">
        <ele>158.17</ele>
        <time>2020-03-07T15:01:31Z</time>
      </trkpt>
      <trkpt lat="44.58524" lon="1.02296">
        <ele>158.16</ele>
        <time>2020-03-07T15:01:32Z</time>
      </trkpt>
      <trkpt lat="44.58538" lon="1.02268">
        <ele>155.79</ele>
        <time>2020-03-07T15:01:36Z</time>
      </trkpt>
      <trkpt lat="44.5855" lon="1.02238">
        <ele>153.35</ele>
        <time>2020-03-07T15:01:40Z</time>
      </trkpt>
      <trkpt lat="44.58564" lon="1.02194">
        <ele>149.85</ele>
        <time>2020-03-07T15:01:45Z</time>
      </trkpt>
      <trkpt lat="44.5857" lon="1.02163">
        <ele>147.97</ele>
        <time>2020-03-07T15:01:48Z</time>
      </trkpt>
      <trkpt lat="44.58579" lon="1.02121">
        <ele>145.48</ele>
        <time>2020-03-07T15:01:52Z</time>
      </trkpt>
      <trkpt lat="44.58585" lon="1.02088">
        <ele>143.33</ele>
        <time>2020-03-07T15:01:55Z</time>
      </trkpt>
      <trkpt lat="44.58589" lon="1.02066">
        <ele>142.11</ele>
        <time>2020-03-07T15:01:57Z</time>
      </trkpt>
      <trkpt lat="44.58605" lon="1.02014">
        <ele>139.19</ele>
        <time>2020-03-07T15:02:02Z</time>
      </trkpt>
      <trkpt lat="44.5861" lon="1.02005">
        <ele>139.24</ele>
        <time>2020-03-07T15:02:03Z</time>
      </trkpt>
      <trkpt lat="44.58615" lon="1.01996">
        <ele>138.31</ele>
        <time>2020-03-07T15:02:04Z</time>
      </trkpt>
      <trkpt lat="44.58649" lon="1.01946">
        <ele>134.01</ele>
        <time>2020-03-07T15:02:11Z</time>
      </trkpt>
      <trkpt lat="44.58654" lon="1.0194">
        <ele>134.01</ele>
        <time>2020-03-07T15:02:12Z</time>
      </trkpt>
      <trkpt lat="44.58714" lon="1.01856">
        <ele>132.15</ele>
        <time>2020-03-07T15:02:26Z</time>
      </trkpt>
      <trkpt lat="44.58729" lon="1.01821">
        <ele>129.44</ele>
        <time>2020-03-07T15:02:30Z</time>
      </trkpt>
      <trkpt lat="44.58734" lon="1.01801">
        <ele>128.09</ele>
        <time>2020-03-07T15:02:32Z</time>
      </trkpt>
      <trkpt lat="44.58745" lon="1.01748">
        <ele>124.48</ele>
        <time>2020-03-07T15:02:37Z</time>
      </trkpt>
      <trkpt lat="44.58749" lon="1.01738">
        <ele>124.51</ele>
        <time>2020-03-07T15:02:38Z</time>
      </trkpt>
      <trkpt lat="44.5877" lon="1.01699">
        <ele>122.14</ele>
        <time>2020-03-07T15:02:42Z</time>
      </trkpt>
      <trkpt lat="44.58777" lon="1.01691">
        <ele>120.51</ele>
        <time>2020-03-07T15:02:43Z</time>
      </trkpt>
      <trkpt lat="44.58784" lon="1.01684">
        <ele>119.58</ele>
        <time>2020-03-07T15:02:44Z</time>
      </trkpt>
      <trkpt lat="44.58791" lon="1.01677">
        <ele>119.54</ele>
        <time>2020-03-07T15:02:45Z</time>
      </trkpt>
      <trkpt lat="44.58812" lon="1.01658">
        <ele>117.45</ele>
        <time>2020-03-07T15:02:48Z</time>
      </trkpt>
      <trkpt lat="44.58856" lon="1.01617">
        <ele>113.62</ele>
        <time>2020-03-07T15:02:55Z</time>
      </trkpt>
      <trkpt lat="44.58893" lon="1.01575">
        <ele>110.41</ele>
        <time>2020-03-07T15:03:01Z</time>
      </trkpt>
      <trkpt lat="44.58903" lon="1.01559">
        <ele>109.49</ele>
        <time>2020-03-07T15:03:03Z</time>
      </trkpt>
      <trkpt lat="44.58913" lon="1.01545">
        <ele>108.39</ele>
        <time>2020-03-07T15:03:05Z</time>
      </trkpt>
      <trkpt lat="44.58918" lon="1.0154">
        <ele>108.39</ele>
        <time>2020-03-07T15:03:06Z</time>
      </trkpt>
      <trkpt lat="44.58923" lon="1.01537">
        <ele>107.33</ele>
        <time>2020-03-07T15:03:07Z</time>
      </trkpt>
      <trkpt lat="44.58938" lon="1.01527">
        <ele>107.42</ele>
        <time>2020-03-07T15:03:12Z</time>
      </trkpt>
      <trkpt lat="44.58954" lon="1.01506">
        <ele>106.92</ele>
        <time>2020-03-07T15:03:25Z</time>
      </trkpt>
      <trkpt lat="44.58958" lon="1.01506">
        <ele>107.04</ele>
        <time>2020-03-07T15:03:43Z</time>
      </trkpt>
      <trkpt lat="44.58959" lon="1.01503">
        <ele>106.32</ele>
        <time>2020-03-07T15:03:56Z</time>
      </trkpt>
      <trkpt lat="44.58962" lon="1.01504">
        <ele>106.54</ele>
        <time>2020-03-07T15:04:58Z</time>
      </trkpt>
      <trkpt lat="44.58962" lon="1.01503">
        <ele>106.69</ele>
        <time>2020-03-07T15:05:24Z</time>
      </trkpt>
      <trkpt lat="44.58962" lon="1.01501">
        <ele>106.7</ele>
        <time>2020-03-07T15:05:25Z</time>
      </trkpt>
      <trkpt lat="44.58961" lon="1.01498">
        <ele>106.7</ele>
        <time>2020-03-07T15:05:26Z</time>
      </trkpt>
      <trkpt lat="44.58961" lon="1.01494">
        <ele>106.7</ele>
        <time>2020-03-07T15:05:27Z</time>
      </trkpt>
      <trkpt lat="44.58961" lon="1.01491">
        <ele>106.71</ele>
        <time>2020-03-07T15:05:28Z</time>
      </trkpt>
      <trkpt lat="44.58961" lon="1.01488">
        <ele>106.71</ele>
        <time>2020-03-07T15:05:29Z</time>
      </trkpt>
      <trkpt lat="44.58962" lon="1.0148">
        <ele>106.73</ele>
        <time>2020-03-07T15:05:32Z</time>
      </trkpt>
      <trkpt lat="44.58963" lon="1.01479">
        <ele>106.73</ele>
        <time>2020-03-07T15:05:33Z</time>
      </trkpt>
      <trkpt lat="44.58964" lon="1.01477">
        <ele>106.74</ele>
        <time>2020-03-07T15:05:34Z</time>
      </trkpt>
      <trkpt lat="44.58966" lon="1.01475">
        <ele>106.75</ele>
        <time>2020-03-07T15:05:35Z</time>
      </trkpt>
      <trkpt lat="44.58967" lon="1.01473">
        <ele>105.99</ele>
        <time>2020-03-07T15:05:36Z</time>
      </trkpt>
      <trkpt lat="44.58988" lon="1.01442">
        <ele>105.29</ele>
        <time>2020-03-07T15:05:48Z</time>
      </trkpt>
      <trkpt lat="44.59007" lon="1.01409">
        <ele>105.37</ele>
        <time>2020-03-07T15:06:00Z</time>
      </trkpt>
      <trkpt lat="44.59037" lon="1.01353">
        <ele>103.58</ele>
        <time>2020-03-07T15:06:13Z</time>
      </trkpt>
      <trkpt lat="44.59047" lon="1.01333">
        <ele>103.58</ele>
        <time>2020-03-07T15:06:19Z</time>
      </trkpt>
      <trkpt lat="44.59048" lon="1.0133">
        <ele>103.6</ele>
        <time>2020-03-07T15:06:20Z</time>
      </trkpt>
      <trkpt lat="44.59048" lon="1.01328">
        <ele>103.61</ele>
        <time>2020-03-07T15:06:21Z</time>
      </trkpt>
      <trkpt lat="44.59048" lon="1.01326">
        <ele>103.61</ele>
        <time>2020-03-07T15:06:22Z</time>
      </trkpt>
      <trkpt lat="44.59048" lon="1.01321">
        <ele>103.73</ele>
        <time>2020-03-07T15:06:38Z</time>
      </trkpt>
      <trkpt lat="44.59065" lon="1.01306">
        <ele>103.77</ele>
        <time>2020-03-07T15:06:52Z</time>
      </trkpt>
      <trkpt lat="44.59065" lon="1.01306">
        <ele>102.21</ele>
        <time>2020-03-07T15:06:57Z</time>
      </trkpt>
      <trkpt lat="44.59065" lon="1.01305">
        <ele>102.26</ele>
        <time>2020-03-07T15:07:04Z</time>
      </trkpt>
      <trkpt lat="44.59064" lon="1.01304">
        <ele>102.26</ele>
        <time>2020-03-07T15:07:05Z</time>
      </trkpt>
      <trkpt lat="44.59063" lon="1.01304">
        <ele>102.27</ele>
        <time>2020-03-07T15:07:06Z</time>
      </trkpt>
      <trkpt lat="44.59055" lon="1.01308">
        <ele>102.27</ele>
        <time>2020-03-07T15:07:12Z</time>
      </trkpt>
      <trkpt lat="44.59054" lon="1.01306">
        <ele>102.27</ele>
        <time>2020-03-07T15:07:13Z</time>
      </trkpt>
      <trkpt lat="44.59052" lon="1.01305">
        <ele>99.14</ele>
        <time>2020-03-07T15:07:14Z</time>
      </trkpt>
      <trkpt lat="44.5905" lon="1.01303">
        <ele>103.79</ele>
        <time>2020-03-07T15:07:15Z</time>
      </trkpt>
      <trkpt lat="44.59048" lon="1.013">
        <ele>103.79</ele>
        <time>2020-03-07T15:07:16Z</time>
      </trkpt>
      <trkpt lat="44.59046" lon="1.01298">
        <ele>103.79</ele>
        <time>2020-03-07T15:07:17Z</time>
      </trkpt>
      <trkpt lat="44.59043" lon="1.01294">
        <ele>103.79</ele>
        <time>2020-03-07T15:07:18Z</time>
      </trkpt>
      <trkpt lat="44.59003" lon="1.01242">
        <ele>103.83</ele>
        <time>2020-03-07T15:07:35Z</time>
      </trkpt>
      <trkpt lat="44.58965" lon="1.01209">
        <ele>103.96</ele>
        <time>2020-03-07T15:07:49Z</time>
      </trkpt>
      <trkpt lat="44.58916" lon="1.01158">
        <ele>104.01</ele>
        <time>2020-03-07T15:08:06Z</time>
      </trkpt>
      <trkpt lat="44.58879" lon="1.01097">
        <ele>101.54</ele>
        <time>2020-03-07T15:08:19Z</time>
      </trkpt>
      <trkpt lat="44.58804" lon="1.01012">
        <ele>100.89</ele>
        <time>2020-03-07T15:08:40Z</time>
      </trkpt>
      <trkpt lat="44.58783" lon="1.00989">
        <ele>100.11</ele>
        <time>2020-03-07T15:08:46Z</time>
      </trkpt>
      <trkpt lat="44.58726" lon="1.00922">
        <ele>100.23</ele>
        <time>2020-03-07T15:09:03Z</time>
      </trkpt>
      <trkpt lat="44.58719" lon="1.00915">
        <ele>100.28</ele>
        <time>2020-03-07T15:09:06Z</time>
      </trkpt>
      <trkpt lat="44.58719" lon="1.00917">
        <ele>100.29</ele>
        <time>2020-03-07T15:09:07Z</time>
      </trkpt>
      <trkpt lat="44.5872" lon="1.0092">
        <ele>100.29</ele>
        <time>2020-03-07T15:09:08Z</time>
      </trkpt>
      <trkpt lat="44.58723" lon="1.00922">
        <ele>100.38</ele>
        <time>2020-03-07T15:09:23Z</time>
      </trkpt>
      <trkpt lat="44.58724" lon="1.00922">
        <ele>100.51</ele>
        <time>2020-03-07T15:09:55Z</time>
      </trkpt>
      <trkpt lat="44.58714" lon="1.00906">
        <ele>100.55</ele>
        <time>2020-03-07T15:10:04Z</time>
      </trkpt>
      <trkpt lat="44.58675" lon="1.00857">
        <ele>100.64</ele>
        <time>2020-03-07T15:10:20Z</time>
      </trkpt>
      <trkpt lat="44.58656" lon="1.0083">
        <ele>103.13</ele>
        <time>2020-03-07T15:10:30Z</time>
      </trkpt>
      <trkpt lat="44.58623" lon="1.00781">
        <ele>104.79</ele>
        <time>2020-03-07T15:10:47Z</time>
      </trkpt>
      <trkpt lat="44.58594" lon="1.00721">
        <ele>104.85</ele>
        <time>2020-03-07T15:11:03Z</time>
      </trkpt>
      <trkpt lat="44.58559" lon="1.00639">
        <ele>104.95</ele>
        <time>2020-03-07T15:11:23Z</time>
      </trkpt>
      <trkpt lat="44.58537" lon="1.00582">
        <ele>107.64</ele>
        <time>2020-03-07T15:11:41Z</time>
      </trkpt>
      <trkpt lat="44.58535" lon="1.00573">
        <ele>108.45</ele>
        <time>2020-03-07T15:11:54Z</time>
      </trkpt>
      <trkpt lat="44.58535" lon="1.00574">
        <ele>107.07</ele>
        <time>2020-03-07T15:12:06Z</time>
      </trkpt>
      <trkpt lat="44.58535" lon="1.00574">
        <ele>109.37</ele>
        <time>2020-03-07T15:12:09Z</time>
      </trkpt>
      <trkpt lat="44.58536" lon="1.00575">
        <ele>109.64</ele>
        <time>2020-03-07T15:13:04Z</time>
      </trkpt>
      <trkpt lat="44.58537" lon="1.00575">
        <ele>109.68</ele>
        <time>2020-03-07T15:13:10Z</time>
      </trkpt>
      <trkpt lat="44.58539" lon="1.00575">
        <ele>109.69</ele>
        <time>2020-03-07T15:13:12Z</time>
      </trkpt>
      <trkpt lat="44.58541" lon="1.00576">
        <ele>109.7</ele>
        <time>2020-03-07T15:13:13Z</time>
      </trkpt>
      <trkpt lat="44.58542" lon="1.00576">
        <ele>109.7</ele>
        <time>2020-03-07T15:13:14Z</time>
      </trkpt>
      <trkpt lat="44.58568" lon="1.00563">
        <ele>110.54</ele>
        <time>2020-03-07T15:13:27Z</time>
      </trkpt>
      <trkpt lat="44.5857" lon="1.0056">
        <ele>110.54</ele>
        <time>2020-03-07T15:13:28Z</time>
      </trkpt>
      <trkpt lat="44.58572" lon="1.00556">
        <ele>110.55</ele>
        <time>2020-03-07T15:13:29Z</time>
      </trkpt>
      <trkpt lat="44.58572" lon="1.00551">
        <ele>110.54</ele>
        <time>2020-03-07T15:13:30Z</time>
      </trkpt>
      <trkpt lat="44.58572" lon="1.00546">
        <ele>110.54</ele>
        <time>2020-03-07T15:13:31Z</time>
      </trkpt>
      <trkpt lat="44.58572" lon="1.00542">
        <ele>110.54</ele>
        <time>2020-03-07T15:13:32Z</time>
      </trkpt>
      <trkpt lat="44.58571" lon="1.00537">
        <ele>110.54</ele>
        <time>2020-03-07T15:13:33Z</time>
      </trkpt>
      <trkpt lat="44.5857" lon="1.00532">
        <ele>110.54</ele>
        <time>2020-03-07T15:13:34Z</time>
      </trkpt>
      <trkpt lat="44.58568" lon="1.00527">
        <ele>110.53</ele>
        <time>2020-03-07T15:13:35Z</time>
      </trkpt>
      <trkpt lat="44.58561" lon="1.005">
        <ele>108.15</ele>
        <time>2020-03-07T15:13:40Z</time>
      </trkpt>
      <trkpt lat="44.58521" lon="1.00362">
        <ele>105.65</ele>
        <time>2020-03-07T15:14:01Z</time>
      </trkpt>
      <trkpt lat="44.58464" lon="1.00177">
        <ele>104.14</ele>
        <time>2020-03-07T15:14:29Z</time>
      </trkpt>
      <trkpt lat="44.58423" lon="1.00058">
        <ele>98.79</ele>
        <time>2020-03-07T15:14:47Z</time>
      </trkpt>
      <trkpt lat="44.58421" lon="1.00051">
        <ele>98.8</ele>
        <time>2020-03-07T15:14:48Z</time>
      </trkpt>
      <trkpt lat="44.58419" lon="1.00045">
        <ele>103.28</ele>
        <time>2020-03-07T15:14:49Z</time>
      </trkpt>
      <trkpt lat="44.58417" lon="1.00038">
        <ele>103.3</ele>
        <time>2020-03-07T15:14:50Z</time>
      </trkpt>
      <trkpt lat="44.58375" lon="0.99913">
        <ele>101.13</ele>
        <time>2020-03-07T15:15:09Z</time>
      </trkpt>
      <trkpt lat="44.58327" lon="0.99776">
        <ele>98.75</ele>
        <time>2020-03-07T15:15:29Z</time>
      </trkpt>
      <trkpt lat="44.58277" lon="0.9962">
        <ele>97.25</ele>
        <time>2020-03-07T15:15:51Z</time>
      </trkpt>
      <trkpt lat="44.58237" lon="0.99499">
        <ele>96.52</ele>
        <time>2020-03-07T15:16:11Z</time>
      </trkpt>
      <trkpt lat="44.58187" lon="0.99364">
        <ele>96.67</ele>
        <time>2020-03-07T15:16:34Z</time>
      </trkpt>
      <trkpt lat="44.58147" lon="0.99253">
        <ele>95.87</ele>
        <time>2020-03-07T15:16:53Z</time>
      </trkpt>
      <trkpt lat="44.58111" lon="0.99148">
        <ele>95.14</ele>
        <time>2020-03-07T15:17:13Z</time>
      </trkpt>
      <trkpt lat="44.58095" lon="0.99101">
        <ele>95.17</ele>
        <time>2020-03-07T15:17:22Z</time>
      </trkpt>
      <trkpt lat="44.58093" lon="0.99096">
        <ele>95.17</ele>
        <time>2020-03-07T15:17:23Z</time>
      </trkpt>
      <trkpt lat="44.58051" lon="0.98976">
        <ele>95.23</ele>
        <time>2020-03-07T15:17:46Z</time>
      </trkpt>
      <trkpt lat="44.58017" lon="0.98877">
        <ele>95.28</ele>
        <time>2020-03-07T15:18:05Z</time>
      </trkpt>
      <trkpt lat="44.57971" lon="0.9875">
        <ele>95.37</ele>
        <time>2020-03-07T15:18:30Z</time>
      </trkpt>
      <trkpt lat="44.57966" lon="0.98736">
        <ele>97.65</ele>
        <time>2020-03-07T15:18:33Z</time>
      </trkpt>
      <trkpt lat="44.57925" lon="0.98617">
        <ele>100.18</ele>
        <time>2020-03-07T15:18:58Z</time>
      </trkpt>
      <trkpt lat="44.57898" lon="0.98536">
        <ele>100.23</ele>
        <time>2020-03-07T15:19:14Z</time>
      </trkpt>
      <trkpt lat="44.57876" lon="0.98401">
        <ele>100.31</ele>
        <time>2020-03-07T15:19:36Z</time>
      </trkpt>
      <trkpt lat="44.57876" lon="0.98387">
        <ele>98.01</ele>
        <time>2020-03-07T15:19:38Z</time>
      </trkpt>
      <trkpt lat="44.57879" lon="0.98248">
        <ele>97.31</ele>
        <time>2020-03-07T15:19:58Z</time>
      </trkpt>
      <trkpt lat="44.57886" lon="0.98087">
        <ele>93.97</ele>
        <time>2020-03-07T15:20:20Z</time>
      </trkpt>
      <trkpt lat="44.57893" lon="0.97923">
        <ele>92.51</ele>
        <time>2020-03-07T15:20:42Z</time>
      </trkpt>
      <trkpt lat="44.57898" lon="0.97779">
        <ele>92.61</ele>
        <time>2020-03-07T15:21:04Z</time>
      </trkpt>
      <trkpt lat="44.5788" lon="0.97648">
        <ele>92.69</ele>
        <time>2020-03-07T15:21:25Z</time>
      </trkpt>
      <trkpt lat="44.57831" lon="0.97534">
        <ele>92.75</ele>
        <time>2020-03-07T15:21:45Z</time>
      </trkpt>
      <trkpt lat="44.57799" lon="0.97493">
        <ele>92.77</ele>
        <time>2020-03-07T15:21:54Z</time>
      </trkpt>
      <trkpt lat="44.57795" lon="0.97488">
        <ele>92.77</ele>
        <time>2020-03-07T15:21:55Z</time>
      </trkpt>
      <trkpt lat="44.57784" lon="0.97476">
        <ele>92.78</ele>
        <time>2020-03-07T15:21:58Z</time>
      </trkpt>
      <trkpt lat="44.57758" lon="0.97433">
        <ele>92.79</ele>
        <time>2020-03-07T15:22:07Z</time>
      </trkpt>
      <trkpt lat="44.57753" lon="0.97423">
        <ele>92.8</ele>
        <time>2020-03-07T15:22:09Z</time>
      </trkpt>
      <trkpt lat="44.57751" lon="0.97418">
        <ele>92.8</ele>
        <time>2020-03-07T15:22:10Z</time>
      </trkpt>
      <trkpt lat="44.57749" lon="0.97413">
        <ele>92.8</ele>
        <time>2020-03-07T15:22:11Z</time>
      </trkpt>
      <trkpt lat="44.57747" lon="0.97408">
        <ele>92.8</ele>
        <time>2020-03-07T15:22:12Z</time>
      </trkpt>
      <trkpt lat="44.57745" lon="0.97403">
        <ele>92.8</ele>
        <time>2020-03-07T15:22:13Z</time>
      </trkpt>
      <trkpt lat="44.57744" lon="0.97397">
        <ele>92.8</ele>
        <time>2020-03-07T15:22:14Z</time>
      </trkpt>
      <trkpt lat="44.57742" lon="0.97392">
        <ele>92.8</ele>
        <time>2020-03-07T15:22:15Z</time>
      </trkpt>
      <trkpt lat="44.5773" lon="0.97328">
        <ele>95.1</ele>
        <time>2020-03-07T15:22:26Z</time>
      </trkpt>
      <trkpt lat="44.57724" lon="0.9726">
        <ele>95.85</ele>
        <time>2020-03-07T15:22:39Z</time>
      </trkpt>
      <trkpt lat="44.57724" lon="0.97238">
        <ele>96.73</ele>
        <time>2020-03-07T15:22:48Z</time>
      </trkpt>
      <trkpt lat="44.57717" lon="0.97242">
        <ele>96.73</ele>
        <time>2020-03-07T15:23:35Z</time>
      </trkpt>
      <trkpt lat="44.57714" lon="0.97236">
        <ele>96.77</ele>
        <time>2020-03-07T15:24:28Z</time>
      </trkpt>
      <trkpt lat="44.57701" lon="0.97199">
        <ele>96.79</ele>
        <time>2020-03-07T15:24:38Z</time>
      </trkpt>
      <trkpt lat="44.577" lon="0.97167">
        <ele>94.15</ele>
        <time>2020-03-07T15:24:45Z</time>
      </trkpt>
      <trkpt lat="44.57688" lon="0.97125">
        <ele>94.15</ele>
        <time>2020-03-07T15:24:57Z</time>
      </trkpt>
      <trkpt lat="44.57651" lon="0.97115">
        <ele>94.2</ele>
        <time>2020-03-07T15:25:09Z</time>
      </trkpt>
      <trkpt lat="44.57612" lon="0.97108">
        <ele>94.24</ele>
        <time>2020-03-07T15:25:20Z</time>
      </trkpt>
      <trkpt lat="44.57603" lon="0.97106">
        <ele>94.24</ele>
        <time>2020-03-07T15:25:25Z</time>
      </trkpt>
      <trkpt lat="44.57602" lon="0.97104">
        <ele>94.19</ele>
        <time>2020-03-07T15:25:26Z</time>
      </trkpt>
      <trkpt lat="44.57601" lon="0.97102">
        <ele>94.17</ele>
        <time>2020-03-07T15:25:27Z</time>
      </trkpt>
      <trkpt lat="44.57599" lon="0.97101">
        <ele>94.23</ele>
        <time>2020-03-07T15:25:39Z</time>
      </trkpt>
      <trkpt lat="44.57597" lon="0.97099">
        <ele>94.18</ele>
        <time>2020-03-07T15:26:05Z</time>
      </trkpt>
      <trkpt lat="44.57596" lon="0.971">
        <ele>94.17</ele>
        <time>2020-03-07T15:26:06Z</time>
      </trkpt>
      <trkpt lat="44.57596" lon="0.97101">
        <ele>94.18</ele>
        <time>2020-03-07T15:26:07Z</time>
      </trkpt>
      <trkpt lat="44.57594" lon="0.97102">
        <ele>94.16</ele>
        <time>2020-03-07T15:26:08Z</time>
      </trkpt>
      <trkpt lat="44.57592" lon="0.97103">
        <ele>94.18</ele>
        <time>2020-03-07T15:26:09Z</time>
      </trkpt>
      <trkpt lat="44.57589" lon="0.97102">
        <ele>94.18</ele>
        <time>2020-03-07T15:26:10Z</time>
      </trkpt>
      <trkpt lat="44.57562" lon="0.97107">
        <ele>93.35</ele>
        <time>2020-03-07T15:26:20Z</time>
      </trkpt>
      <trkpt lat="44.57526" lon="0.97145">
        <ele>91.57</ele>
        <time>2020-03-07T15:26:31Z</time>
      </trkpt>
      <trkpt lat="44.57523" lon="0.9715">
        <ele>91.55</ele>
        <time>2020-03-07T15:26:32Z</time>
      </trkpt>
      <trkpt lat="44.57492" lon="0.97203">
        <ele>90.92</ele>
        <time>2020-03-07T15:26:46Z</time>
      </trkpt>
      <trkpt lat="44.57479" lon="0.97233">
        <ele>89.47</ele>
        <time>2020-03-07T15:26:54Z</time>
      </trkpt>
      <trkpt lat="44.57473" lon="0.97248">
        <ele>92.32</ele>
        <time>2020-03-07T15:26:58Z</time>
      </trkpt>
      <trkpt lat="44.57428" lon="0.97284">
        <ele>93.24</ele>
        <time>2020-03-07T15:27:13Z</time>
      </trkpt>
      <trkpt lat="44.57408" lon="0.97309">
        <ele>93.25</ele>
        <time>2020-03-07T15:27:20Z</time>
      </trkpt>
      <trkpt lat="44.57408" lon="0.97314">
        <ele>93.26</ele>
        <time>2020-03-07T15:27:21Z</time>
      </trkpt>
      <trkpt lat="44.57409" lon="0.9732">
        <ele>93.26</ele>
        <time>2020-03-07T15:27:22Z</time>
      </trkpt>
      <trkpt lat="44.5741" lon="0.97325">
        <ele>93.27</ele>
        <time>2020-03-07T15:27:23Z</time>
      </trkpt>
      <trkpt lat="44.57411" lon="0.9733">
        <ele>93.26</ele>
        <time>2020-03-07T15:27:24Z</time>
      </trkpt>
      <trkpt lat="44.57416" lon="0.97351">
        <ele>93.27</ele>
        <time>2020-03-07T15:27:28Z</time>
      </trkpt>
      <trkpt lat="44.57424" lon="0.97385">
        <ele>93.25</ele>
        <time>2020-03-07T15:27:34Z</time>
      </trkpt>
      <trkpt lat="44.57435" lon="0.97466">
        <ele>94.96</ele>
        <time>2020-03-07T15:27:49Z</time>
      </trkpt>
      <trkpt lat="44.57439" lon="0.97519">
        <ele>98.46</ele>
        <time>2020-03-07T15:28:02Z</time>
      </trkpt>
      <trkpt lat="44.57443" lon="0.97582">
        <ele>101.12</ele>
        <time>2020-03-07T15:28:18Z</time>
      </trkpt>
      <trkpt lat="44.57437" lon="0.97641">
        <ele>104.35</ele>
        <time>2020-03-07T15:28:35Z</time>
      </trkpt>
      <trkpt lat="44.57419" lon="0.97702">
        <ele>107.53</ele>
        <time>2020-03-07T15:28:56Z</time>
      </trkpt>
      <trkpt lat="44.57396" lon="0.97759">
        <ele>110.15</ele>
        <time>2020-03-07T15:29:17Z</time>
      </trkpt>
      <trkpt lat="44.57382" lon="0.97819">
        <ele>113.87</ele>
        <time>2020-03-07T15:29:36Z</time>
      </trkpt>
      <trkpt lat="44.57386" lon="0.97881">
        <ele>115.87</ele>
        <time>2020-03-07T15:29:55Z</time>
      </trkpt>
      <trkpt lat="44.57379" lon="0.97926">
        <ele>118.25</ele>
        <time>2020-03-07T15:30:10Z</time>
      </trkpt>
      <trkpt lat="44.5738" lon="0.97927">
        <ele>118.25</ele>
        <time>2020-03-07T15:30:11Z</time>
      </trkpt>
      <trkpt lat="44.57383" lon="0.9792">
        <ele>118.23</ele>
        <time>2020-03-07T15:30:14Z</time>
      </trkpt>
      <trkpt lat="44.57383" lon="0.97916">
        <ele>118.23</ele>
        <time>2020-03-07T15:30:15Z</time>
      </trkpt>
      <trkpt lat="44.57384" lon="0.97912">
        <ele>118.22</ele>
        <time>2020-03-07T15:30:16Z</time>
      </trkpt>
      <trkpt lat="44.57386" lon="0.97889">
        <ele>118.19</ele>
        <time>2020-03-07T15:30:21Z</time>
      </trkpt>
      <trkpt lat="44.57385" lon="0.97886">
        <ele>118.18</ele>
        <time>2020-03-07T15:30:22Z</time>
      </trkpt>
      <trkpt lat="44.57384" lon="0.97885">
        <ele>118.19</ele>
        <time>2020-03-07T15:30:23Z</time>
      </trkpt>
      <trkpt lat="44.57382" lon="0.97884">
        <ele>118.19</ele>
        <time>2020-03-07T15:30:24Z</time>
      </trkpt>
      <trkpt lat="44.57381" lon="0.97885">
        <ele>118.18</ele>
        <time>2020-03-07T15:30:25Z</time>
      </trkpt>
      <trkpt lat="44.57362" lon="0.97893">
        <ele>119.07</ele>
        <time>2020-03-07T15:30:40Z</time>
      </trkpt>
      <trkpt lat="44.57353" lon="0.97927">
        <ele>121.64</ele>
        <time>2020-03-07T15:30:56Z</time>
      </trkpt>
      <trkpt lat="44.57348" lon="0.97953">
        <ele>123.35</ele>
        <time>2020-03-07T15:31:09Z</time>
      </trkpt>
      <trkpt lat="44.57347" lon="0.97959">
        <ele>124.32</ele>
        <time>2020-03-07T15:31:12Z</time>
      </trkpt>
      <trkpt lat="44.57347" lon="0.97961">
        <ele>124.32</ele>
        <time>2020-03-07T15:31:13Z</time>
      </trkpt>
      <trkpt lat="44.57342" lon="0.97979">
        <ele>126.97</ele>
        <time>2020-03-07T15:31:25Z</time>
      </trkpt>
      <trkpt lat="44.57341" lon="0.97991">
        <ele>127.76</ele>
        <time>2020-03-07T15:31:30Z</time>
      </trkpt>
      <trkpt lat="44.57338" lon="0.98008">
        <ele>129.29</ele>
        <time>2020-03-07T15:31:39Z</time>
      </trkpt>
      <trkpt lat="44.57338" lon="0.9801">
        <ele>129.3</ele>
        <time>2020-03-07T15:31:40Z</time>
      </trkpt>
      <trkpt lat="44.57333" lon="0.98031">
        <ele>132.84</ele>
        <time>2020-03-07T15:31:53Z</time>
      </trkpt>
      <trkpt lat="44.57333" lon="0.98034">
        <ele>132.83</ele>
        <time>2020-03-07T15:31:54Z</time>
      </trkpt>
      <trkpt lat="44.57332" lon="0.98035">
        <ele>132.78</ele>
        <time>2020-03-07T15:31:55Z</time>
      </trkpt>
      <trkpt lat="44.57328" lon="0.98058">
        <ele>135.11</ele>
        <time>2020-03-07T15:32:09Z</time>
      </trkpt>
      <trkpt lat="44.57324" lon="0.98081">
        <ele>136.73</ele>
        <time>2020-03-07T15:32:22Z</time>
      </trkpt>
      <trkpt lat="44.57322" lon="0.98111">
        <ele>138.65</ele>
        <time>2020-03-07T15:32:36Z</time>
      </trkpt>
      <trkpt lat="44.57317" lon="0.98148">
        <ele>140.03</ele>
        <time>2020-03-07T15:32:52Z</time>
      </trkpt>
      <trkpt lat="44.57312" lon="0.9818">
        <ele>141.84</ele>
        <time>2020-03-07T15:33:07Z</time>
      </trkpt>
      <trkpt lat="44.57298" lon="0.98219">
        <ele>143.48</ele>
        <time>2020-03-07T15:33:26Z</time>
      </trkpt>
      <trkpt lat="44.57297" lon="0.98223">
        <ele>143.46</ele>
        <time>2020-03-07T15:33:28Z</time>
      </trkpt>
      <trkpt lat="44.57296" lon="0.98225">
        <ele>144.35</ele>
        <time>2020-03-07T15:33:29Z</time>
      </trkpt>
      <trkpt lat="44.57295" lon="0.98226">
        <ele>144.36</ele>
        <time>2020-03-07T15:33:30Z</time>
      </trkpt>
      <trkpt lat="44.57293" lon="0.98228">
        <ele>144.38</ele>
        <time>2020-03-07T15:33:32Z</time>
      </trkpt>
      <trkpt lat="44.57288" lon="0.98231">
        <ele>145.26</ele>
        <time>2020-03-07T15:33:37Z</time>
      </trkpt>
      <trkpt lat="44.57287" lon="0.98231">
        <ele>145.26</ele>
        <time>2020-03-07T15:33:38Z</time>
      </trkpt>
      <trkpt lat="44.57269" lon="0.98234">
        <ele>148.02</ele>
        <time>2020-03-07T15:33:53Z</time>
      </trkpt>
      <trkpt lat="44.57266" lon="0.98234">
        <ele>149.05</ele>
        <time>2020-03-07T15:33:55Z</time>
      </trkpt>
      <trkpt lat="44.57265" lon="0.98234">
        <ele>149.06</ele>
        <time>2020-03-07T15:33:56Z</time>
      </trkpt>
      <trkpt lat="44.57264" lon="0.98233">
        <ele>149.07</ele>
        <time>2020-03-07T15:33:57Z</time>
      </trkpt>
      <trkpt lat="44.57263" lon="0.98233">
        <ele>149.95</ele>
        <time>2020-03-07T15:33:58Z</time>
      </trkpt>
      <trkpt lat="44.57261" lon="0.98232">
        <ele>149.94</ele>
        <time>2020-03-07T15:33:59Z</time>
      </trkpt>
      <trkpt lat="44.5726" lon="0.98232">
        <ele>149.95</ele>
        <time>2020-03-07T15:34:00Z</time>
      </trkpt>
      <trkpt lat="44.57234" lon="0.98225">
        <ele>152.56</ele>
        <time>2020-03-07T15:34:18Z</time>
      </trkpt>
      <trkpt lat="44.57209" lon="0.98221">
        <ele>156.03</ele>
        <time>2020-03-07T15:34:36Z</time>
      </trkpt>
      <trkpt lat="44.5719" lon="0.98217">
        <ele>158.12</ele>
        <time>2020-03-07T15:34:52Z</time>
      </trkpt>
      <trkpt lat="44.57166" lon="0.98213">
        <ele>161.39</ele>
        <time>2020-03-07T15:35:09Z</time>
      </trkpt>
      <trkpt lat="44.57139" lon="0.98212">
        <ele>163.91</ele>
        <time>2020-03-07T15:35:30Z</time>
      </trkpt>
      <trkpt lat="44.57117" lon="0.98212">
        <ele>167.47</ele>
        <time>2020-03-07T15:35:46Z</time>
      </trkpt>
      <trkpt lat="44.57085" lon="0.98209">
        <ele>170.83</ele>
        <time>2020-03-07T15:36:09Z</time>
      </trkpt>
      <trkpt lat="44.5706" lon="0.98205">
        <ele>173.32</ele>
        <time>2020-03-07T15:36:27Z</time>
      </trkpt>
      <trkpt lat="44.57052" lon="0.98205">
        <ele>174.91</ele>
        <time>2020-03-07T15:36:34Z</time>
      </trkpt>
      <trkpt lat="44.57047" lon="0.98215">
        <ele>174.93</ele>
        <time>2020-03-07T15:36:40Z</time>
      </trkpt>
      <trkpt lat="44.57045" lon="0.98214">
        <ele>175.79</ele>
        <time>2020-03-07T15:36:56Z</time>
      </trkpt>
      <trkpt lat="44.57046" lon="0.98213">
        <ele>175.95</ele>
        <time>2020-03-07T15:37:39Z</time>
      </trkpt>
      <trkpt lat="44.57045" lon="0.98212">
        <ele>173.68</ele>
        <time>2020-03-07T15:37:55Z</time>
      </trkpt>
      <trkpt lat="44.57045" lon="0.98212">
        <ele>176.44</ele>
        <time>2020-03-07T15:37:59Z</time>
      </trkpt>
      <trkpt lat="44.57044" lon="0.98213">
        <ele>176.57</ele>
        <time>2020-03-07T15:38:45Z</time>
      </trkpt>
      <trkpt lat="44.57045" lon="0.98213">
        <ele>176.68</ele>
        <time>2020-03-07T15:39:33Z</time>
      </trkpt>
      <trkpt lat="44.57045" lon="0.98213">
        <ele>174.34</ele>
        <time>2020-03-07T15:39:35Z</time>
      </trkpt>
      <trkpt lat="44.57045" lon="0.98213">
        <ele>176.86</ele>
        <time>2020-03-07T15:39:47Z</time>
      </trkpt>
      <trkpt lat="44.57031" lon="0.98203">
        <ele>176.92</ele>
        <time>2020-03-07T15:40:08Z</time>
      </trkpt>
      <trkpt lat="44.57007" lon="0.98161">
        <ele>174.39</ele>
        <time>2020-03-07T15:40:22Z</time>
      </trkpt>
      <trkpt lat="44.57005" lon="0.9815">
        <ele>173.11</ele>
        <time>2020-03-07T15:40:24Z</time>
      </trkpt>
      <trkpt lat="44.57005" lon="0.98139">
        <ele>171.82</ele>
        <time>2020-03-07T15:40:26Z</time>
      </trkpt>
      <trkpt lat="44.57003" lon="0.98098">
        <ele>167.96</ele>
        <time>2020-03-07T15:40:33Z</time>
      </trkpt>
      <trkpt lat="44.57002" lon="0.98079">
        <ele>167.17</ele>
        <time>2020-03-07T15:40:36Z</time>
      </trkpt>
      <trkpt lat="44.57001" lon="0.98073">
        <ele>167.17</ele>
        <time>2020-03-07T15:40:37Z</time>
      </trkpt>
      <trkpt lat="44.57" lon="0.9806">
        <ele>166.05</ele>
        <time>2020-03-07T15:40:39Z</time>
      </trkpt>
      <trkpt lat="44.56998" lon="0.98054">
        <ele>166.11</ele>
        <time>2020-03-07T15:40:40Z</time>
      </trkpt>
      <trkpt lat="44.56996" lon="0.98048">
        <ele>165.23</ele>
        <time>2020-03-07T15:40:41Z</time>
      </trkpt>
      <trkpt lat="44.56987" lon="0.98018">
        <ele>163.21</ele>
        <time>2020-03-07T15:40:46Z</time>
      </trkpt>
      <trkpt lat="44.56984" lon="0.98012">
        <ele>161.99</ele>
        <time>2020-03-07T15:40:47Z</time>
      </trkpt>
      <trkpt lat="44.56981" lon="0.98007">
        <ele>161.91</ele>
        <time>2020-03-07T15:40:48Z</time>
      </trkpt>
      <trkpt lat="44.56974" lon="0.97997">
        <ele>160.47</ele>
        <time>2020-03-07T15:40:50Z</time>
      </trkpt>
      <trkpt lat="44.56955" lon="0.97976">
        <ele>159.8</ele>
        <time>2020-03-07T15:41:00Z</time>
      </trkpt>
      <trkpt lat="44.56931" lon="0.97948">
        <ele>158.16</ele>
        <time>2020-03-07T15:41:10Z</time>
      </trkpt>
      <trkpt lat="44.56912" lon="0.97911">
        <ele>154.26</ele>
        <time>2020-03-07T15:41:19Z</time>
      </trkpt>
      <trkpt lat="44.56889" lon="0.9791">
        <ele>151.54</ele>
        <time>2020-03-07T15:41:29Z</time>
      </trkpt>
      <trkpt lat="44.56886" lon="0.97907">
        <ele>150.66</ele>
        <time>2020-03-07T15:41:31Z</time>
      </trkpt>
      <trkpt lat="44.56885" lon="0.97906">
        <ele>150.68</ele>
        <time>2020-03-07T15:41:32Z</time>
      </trkpt>
      <trkpt lat="44.56882" lon="0.97901">
        <ele>150.08</ele>
        <time>2020-03-07T15:41:51Z</time>
      </trkpt>
      <trkpt lat="44.56881" lon="0.97902">
        <ele>150.09</ele>
        <time>2020-03-07T15:42:03Z</time>
      </trkpt>
      <trkpt lat="44.56882" lon="0.97904">
        <ele>150.09</ele>
        <time>2020-03-07T15:42:04Z</time>
      </trkpt>
      <trkpt lat="44.56883" lon="0.97905">
        <ele>150.1</ele>
        <time>2020-03-07T15:42:05Z</time>
      </trkpt>
      <trkpt lat="44.56884" lon="0.97907">
        <ele>150.1</ele>
        <time>2020-03-07T15:42:06Z</time>
      </trkpt>
      <trkpt lat="44.56886" lon="0.97908">
        <ele>150.1</ele>
        <time>2020-03-07T15:42:07Z</time>
      </trkpt>
      <trkpt lat="44.56887" lon="0.9791">
        <ele>150.1</ele>
        <time>2020-03-07T15:42:08Z</time>
      </trkpt>
      <trkpt lat="44.56889" lon="0.97912">
        <ele>150.1</ele>
        <time>2020-03-07T15:42:09Z</time>
      </trkpt>
      <trkpt lat="44.5689" lon="0.97912">
        <ele>150.1</ele>
        <time>2020-03-07T15:42:10Z</time>
      </trkpt>
      <trkpt lat="44.56891" lon="0.97913">
        <ele>150.09</ele>
        <time>2020-03-07T15:42:11Z</time>
      </trkpt>
      <trkpt lat="44.56893" lon="0.97912">
        <ele>150.09</ele>
        <time>2020-03-07T15:42:12Z</time>
      </trkpt>
      <trkpt lat="44.56909" lon="0.97901">
        <ele>150.12</ele>
        <time>2020-03-07T15:42:22Z</time>
      </trkpt>
      <trkpt lat="44.56899" lon="0.97858">
        <ele>150.13</ele>
        <time>2020-03-07T15:42:37Z</time>
      </trkpt>
      <trkpt lat="44.56889" lon="0.97807">
        <ele>149.1</ele>
        <time>2020-03-07T15:42:49Z</time>
      </trkpt>
      <trkpt lat="44.56886" lon="0.97789">
        <ele>149.09</ele>
        <time>2020-03-07T15:42:52Z</time>
      </trkpt>
      <trkpt lat="44.56882" lon="0.97766">
        <ele>148.28</ele>
        <time>2020-03-07T15:42:56Z</time>
      </trkpt>
      <trkpt lat="44.56878" lon="0.97742">
        <ele>146.53</ele>
        <time>2020-03-07T15:43:00Z</time>
      </trkpt>
      <trkpt lat="44.56875" lon="0.97722">
        <ele>145.62</ele>
        <time>2020-03-07T15:43:03Z</time>
      </trkpt>
      <trkpt lat="44.56875" lon="0.97678">
        <ele>144.85</ele>
        <time>2020-03-07T15:43:12Z</time>
      </trkpt>
      <trkpt lat="44.56873" lon="0.97653">
        <ele>144.93</ele>
        <time>2020-03-07T15:43:18Z</time>
      </trkpt>
      <trkpt lat="44.56859" lon="0.97608">
        <ele>143.37</ele>
        <time>2020-03-07T15:43:28Z</time>
      </trkpt>
      <trkpt lat="44.56851" lon="0.97574">
        <ele>142.58</ele>
        <time>2020-03-07T15:43:35Z</time>
      </trkpt>
      <trkpt lat="44.56849" lon="0.97563">
        <ele>142.57</ele>
        <time>2020-03-07T15:43:38Z</time>
      </trkpt>
      <trkpt lat="44.56829" lon="0.97513">
        <ele>141.6</ele>
        <time>2020-03-07T15:43:50Z</time>
      </trkpt>
      <trkpt lat="44.56828" lon="0.97496">
        <ele>141.6</ele>
        <time>2020-03-07T15:43:54Z</time>
      </trkpt>
      <trkpt lat="44.56823" lon="0.97482">
        <ele>141.57</ele>
        <time>2020-03-07T15:43:58Z</time>
      </trkpt>
      <trkpt lat="44.56804" lon="0.97462">
        <ele>140.71</ele>
        <time>2020-03-07T15:44:05Z</time>
      </trkpt>
      <trkpt lat="44.56787" lon="0.97413">
        <ele>137.67</ele>
        <time>2020-03-07T15:44:15Z</time>
      </trkpt>
      <trkpt lat="44.5678" lon="0.97387">
        <ele>135.86</ele>
        <time>2020-03-07T15:44:19Z</time>
      </trkpt>
      <trkpt lat="44.56778" lon="0.97374">
        <ele>134.81</ele>
        <time>2020-03-07T15:44:21Z</time>
      </trkpt>
      <trkpt lat="44.56775" lon="0.97359">
        <ele>134.02</ele>
        <time>2020-03-07T15:44:23Z</time>
      </trkpt>
      <trkpt lat="44.56773" lon="0.97346">
        <ele>134.02</ele>
        <time>2020-03-07T15:44:25Z</time>
      </trkpt>
      <trkpt lat="44.56762" lon="0.97295">
        <ele>132.98</ele>
        <time>2020-03-07T15:44:37Z</time>
      </trkpt>
      <trkpt lat="44.56757" lon="0.97284">
        <ele>132.97</ele>
        <time>2020-03-07T15:44:41Z</time>
      </trkpt>
      <trkpt lat="44.56727" lon="0.97256">
        <ele>130.34</ele>
        <time>2020-03-07T15:44:52Z</time>
      </trkpt>
      <trkpt lat="44.56717" lon="0.97246">
        <ele>129.07</ele>
        <time>2020-03-07T15:44:56Z</time>
      </trkpt>
      <trkpt lat="44.56711" lon="0.97243">
        <ele>128.25</ele>
        <time>2020-03-07T15:44:58Z</time>
      </trkpt>
      <trkpt lat="44.56707" lon="0.97245">
        <ele>126.53</ele>
        <time>2020-03-07T15:45:00Z</time>
      </trkpt>
      <trkpt lat="44.56697" lon="0.97238">
        <ele>125.47</ele>
        <time>2020-03-07T15:45:05Z</time>
      </trkpt>
      <trkpt lat="44.5667" lon="0.97204">
        <ele>123.67</ele>
        <time>2020-03-07T15:45:18Z</time>
      </trkpt>
      <trkpt lat="44.56639" lon="0.97165">
        <ele>121.91</ele>
        <time>2020-03-07T15:45:29Z</time>
      </trkpt>
      <trkpt lat="44.56622" lon="0.97147">
        <ele>120.94</ele>
        <time>2020-03-07T15:45:35Z</time>
      </trkpt>
      <trkpt lat="44.56611" lon="0.97121">
        <ele>120.06</ele>
        <time>2020-03-07T15:45:46Z</time>
      </trkpt>
      <trkpt lat="44.56596" lon="0.97085">
        <ele>118.03</ele>
        <time>2020-03-07T15:45:53Z</time>
      </trkpt>
      <trkpt lat="44.56578" lon="0.97023">
        <ele>116.15</ele>
        <time>2020-03-07T15:46:05Z</time>
      </trkpt>
      <trkpt lat="44.56579" lon="0.97007">
        <ele>116.11</ele>
        <time>2020-03-07T15:46:08Z</time>
      </trkpt>
      <trkpt lat="44.56584" lon="0.96969">
        <ele>115.26</ele>
        <time>2020-03-07T15:46:15Z</time>
      </trkpt>
      <trkpt lat="44.56589" lon="0.9691">
        <ele>114.36</ele>
        <time>2020-03-07T15:46:26Z</time>
      </trkpt>
      <trkpt lat="44.56595" lon="0.9686">
        <ele>112.38</ele>
        <time>2020-03-07T15:46:35Z</time>
      </trkpt>
      <trkpt lat="44.56611" lon="0.96802">
        <ele>110.32</ele>
        <time>2020-03-07T15:46:46Z</time>
      </trkpt>
      <trkpt lat="44.5662" lon="0.96775">
        <ele>110.27</ele>
        <time>2020-03-07T15:46:51Z</time>
      </trkpt>
      <trkpt lat="44.5663" lon="0.96752">
        <ele>109.22</ele>
        <time>2020-03-07T15:46:55Z</time>
      </trkpt>
      <trkpt lat="44.56638" lon="0.96734">
        <ele>109.2</ele>
        <time>2020-03-07T15:46:58Z</time>
      </trkpt>
      <trkpt lat="44.56667" lon="0.96679">
        <ele>107.44</ele>
        <time>2020-03-07T15:47:09Z</time>
      </trkpt>
      <trkpt lat="44.56692" lon="0.96625">
        <ele>106.64</ele>
        <time>2020-03-07T15:47:19Z</time>
      </trkpt>
      <trkpt lat="44.56713" lon="0.96601">
        <ele>105.76</ele>
        <time>2020-03-07T15:47:28Z</time>
      </trkpt>
      <trkpt lat="44.56731" lon="0.96561">
        <ele>104.96</ele>
        <time>2020-03-07T15:47:38Z</time>
      </trkpt>
      <trkpt lat="44.56733" lon="0.96546">
        <ele>104.96</ele>
        <time>2020-03-07T15:47:41Z</time>
      </trkpt>
      <trkpt lat="44.56731" lon="0.96534">
        <ele>104.18</ele>
        <time>2020-03-07T15:47:43Z</time>
      </trkpt>
      <trkpt lat="44.56726" lon="0.96462">
        <ele>103.19</ele>
        <time>2020-03-07T15:47:56Z</time>
      </trkpt>
      <trkpt lat="44.56722" lon="0.96445">
        <ele>102.35</ele>
        <time>2020-03-07T15:47:59Z</time>
      </trkpt>
      <trkpt lat="44.56719" lon="0.96363">
        <ele>100.8</ele>
        <time>2020-03-07T15:48:14Z</time>
      </trkpt>
      <trkpt lat="44.56714" lon="0.96309">
        <ele>99.94</ele>
        <time>2020-03-07T15:48:24Z</time>
      </trkpt>
      <trkpt lat="44.5672" lon="0.96208">
        <ele>96.6</ele>
        <time>2020-03-07T15:48:41Z</time>
      </trkpt>
      <trkpt lat="44.56738" lon="0.96149">
        <ele>95.02</ele>
        <time>2020-03-07T15:48:52Z</time>
      </trkpt>
      <trkpt lat="44.56779" lon="0.96092">
        <ele>93.41</ele>
        <time>2020-03-07T15:49:06Z</time>
      </trkpt>
      <trkpt lat="44.56829" lon="0.96049">
        <ele>91.81</ele>
        <time>2020-03-07T15:49:21Z</time>
      </trkpt>
      <trkpt lat="44.56869" lon="0.96018">
        <ele>91.19</ele>
        <time>2020-03-07T15:49:35Z</time>
      </trkpt>
      <trkpt lat="44.569" lon="0.9596">
        <ele>91.27</ele>
        <time>2020-03-07T15:49:49Z</time>
      </trkpt>
      <trkpt lat="44.56916" lon="0.95929">
        <ele>90.27</ele>
        <time>2020-03-07T15:49:57Z</time>
      </trkpt>
      <trkpt lat="44.56915" lon="0.95914">
        <ele>90.35</ele>
        <time>2020-03-07T15:50:03Z</time>
      </trkpt>
      <trkpt lat="44.56913" lon="0.9591">
        <ele>90.36</ele>
        <time>2020-03-07T15:50:04Z</time>
      </trkpt>
      <trkpt lat="44.56912" lon="0.95905">
        <ele>90.37</ele>
        <time>2020-03-07T15:50:05Z</time>
      </trkpt>
      <trkpt lat="44.56912" lon="0.959">
        <ele>90.38</ele>
        <time>2020-03-07T15:50:06Z</time>
      </trkpt>
      <trkpt lat="44.56913" lon="0.95894">
        <ele>90.38</ele>
        <time>2020-03-07T15:50:07Z</time>
      </trkpt>
      <trkpt lat="44.56916" lon="0.95888">
        <ele>90.39</ele>
        <time>2020-03-07T15:50:08Z</time>
      </trkpt>
      <trkpt lat="44.56918" lon="0.95881">
        <ele>90.39</ele>
        <time>2020-03-07T15:50:09Z</time>
      </trkpt>
      <trkpt lat="44.56958" lon="0.95793">
        <ele>89.38</ele>
        <time>2020-03-07T15:50:25Z</time>
      </trkpt>
      <trkpt lat="44.56958" lon="0.95789">
        <ele>89.38</ele>
        <time>2020-03-07T15:50:26Z</time>
      </trkpt>
      <trkpt lat="44.56955" lon="0.95786">
        <ele>89.38</ele>
        <time>2020-03-07T15:50:27Z</time>
      </trkpt>
      <trkpt lat="44.56953" lon="0.95784">
        <ele>89.41</ele>
        <time>2020-03-07T15:50:28Z</time>
      </trkpt>
      <trkpt lat="44.56949" lon="0.95782">
        <ele>89.42</ele>
        <time>2020-03-07T15:50:29Z</time>
      </trkpt>
      <trkpt lat="44.56895" lon="0.95748">
        <ele>88.66</ele>
        <time>2020-03-07T15:50:44Z</time>
      </trkpt>
      <trkpt lat="44.5688" lon="0.95732">
        <ele>88.68</ele>
        <time>2020-03-07T15:50:49Z</time>
      </trkpt>
      <trkpt lat="44.56877" lon="0.95729">
        <ele>88.68</ele>
        <time>2020-03-07T15:50:50Z</time>
      </trkpt>
      <trkpt lat="44.56802" lon="0.95685">
        <ele>86.98</ele>
        <time>2020-03-07T15:51:07Z</time>
      </trkpt>
      <trkpt lat="44.56733" lon="0.95651">
        <ele>87.06</ele>
        <time>2020-03-07T15:51:23Z</time>
      </trkpt>
      <trkpt lat="44.56729" lon="0.9565">
        <ele>87.07</ele>
        <time>2020-03-07T15:51:24Z</time>
      </trkpt>
      <trkpt lat="44.5668" lon="0.9563">
        <ele>86.32</ele>
        <time>2020-03-07T15:51:36Z</time>
      </trkpt>
      <trkpt lat="44.56676" lon="0.9563">
        <ele>85.54</ele>
        <time>2020-03-07T15:51:37Z</time>
      </trkpt>
      <trkpt lat="44.56598" lon="0.95624">
        <ele>84.68</ele>
        <time>2020-03-07T15:51:55Z</time>
      </trkpt>
      <trkpt lat="44.56524" lon="0.95648">
        <ele>83.87</ele>
        <time>2020-03-07T15:52:13Z</time>
      </trkpt>
      <trkpt lat="44.5646" lon="0.95654">
        <ele>86.33</ele>
        <time>2020-03-07T15:52:30Z</time>
      </trkpt>
      <trkpt lat="44.56402" lon="0.95646">
        <ele>89.1</ele>
        <time>2020-03-07T15:52:47Z</time>
      </trkpt>
      <trkpt lat="44.56333" lon="0.95647">
        <ele>91.86</ele>
        <time>2020-03-07T15:53:09Z</time>
      </trkpt>
      <trkpt lat="44.56273" lon="0.95629">
        <ele>94.55</ele>
        <time>2020-03-07T15:53:29Z</time>
      </trkpt>
      <trkpt lat="44.56228" lon="0.95593">
        <ele>96.97</ele>
        <time>2020-03-07T15:53:47Z</time>
      </trkpt>
      <trkpt lat="44.56184" lon="0.95555">
        <ele>97.87</ele>
        <time>2020-03-07T15:54:04Z</time>
      </trkpt>
      <trkpt lat="44.56153" lon="0.95541">
        <ele>99.86</ele>
        <time>2020-03-07T15:54:16Z</time>
      </trkpt>
      <trkpt lat="44.56133" lon="0.95534">
        <ele>99.86</ele>
        <time>2020-03-07T15:54:22Z</time>
      </trkpt>
      <trkpt lat="44.56073" lon="0.95503">
        <ele>97.31</ele>
        <time>2020-03-07T15:54:34Z</time>
      </trkpt>
      <trkpt lat="44.56023" lon="0.95491">
        <ele>97.39</ele>
        <time>2020-03-07T15:54:49Z</time>
      </trkpt>
      <trkpt lat="44.55995" lon="0.95498">
        <ele>99.7</ele>
        <time>2020-03-07T15:54:59Z</time>
      </trkpt>
      <trkpt lat="44.55958" lon="0.95482">
        <ele>99.74</ele>
        <time>2020-03-07T15:55:12Z</time>
      </trkpt>
      <trkpt lat="44.5592" lon="0.95439">
        <ele>103.43</ele>
        <time>2020-03-07T15:55:29Z</time>
      </trkpt>
      <trkpt lat="44.55875" lon="0.95382">
        <ele>104.31</ele>
        <time>2020-03-07T15:55:50Z</time>
      </trkpt>
      <trkpt lat="44.55836" lon="0.95326">
        <ele>105.15</ele>
        <time>2020-03-07T15:56:08Z</time>
      </trkpt>
      <trkpt lat="44.55795" lon="0.95273">
        <ele>102.67</ele>
        <time>2020-03-07T15:56:20Z</time>
      </trkpt>
      <trkpt lat="44.55734" lon="0.95217">
        <ele>98.95</ele>
        <time>2020-03-07T15:56:33Z</time>
      </trkpt>
      <trkpt lat="44.55677" lon="0.95167">
        <ele>94.99</ele>
        <time>2020-03-07T15:56:43Z</time>
      </trkpt>
      <trkpt lat="44.55593" lon="0.95071">
        <ele>92.16</ele>
        <time>2020-03-07T15:57:00Z</time>
      </trkpt>
      <trkpt lat="44.55568" lon="0.95031">
        <ele>91.37</ele>
        <time>2020-03-07T15:57:08Z</time>
      </trkpt>
      <trkpt lat="44.55562" lon="0.95022">
        <ele>91.39</ele>
        <time>2020-03-07T15:57:10Z</time>
      </trkpt>
      <trkpt lat="44.55559" lon="0.95018">
        <ele>91.39</ele>
        <time>2020-03-07T15:57:11Z</time>
      </trkpt>
      <trkpt lat="44.55553" lon="0.9501">
        <ele>91.4</ele>
        <time>2020-03-07T15:57:13Z</time>
      </trkpt>
      <trkpt lat="44.5555" lon="0.95006">
        <ele>91.41</ele>
        <time>2020-03-07T15:57:14Z</time>
      </trkpt>
      <trkpt lat="44.55547" lon="0.95003">
        <ele>91.42</ele>
        <time>2020-03-07T15:57:15Z</time>
      </trkpt>
      <trkpt lat="44.55543" lon="0.95">
        <ele>91.39</ele>
        <time>2020-03-07T15:57:16Z</time>
      </trkpt>
      <trkpt lat="44.5554" lon="0.94998">
        <ele>91.43</ele>
        <time>2020-03-07T15:57:17Z</time>
      </trkpt>
      <trkpt lat="44.55491" lon="0.9498">
        <ele>90.69</ele>
        <time>2020-03-07T15:57:30Z</time>
      </trkpt>
      <trkpt lat="44.55406" lon="0.94955">
        <ele>89.03</ele>
        <time>2020-03-07T15:57:46Z</time>
      </trkpt>
      <trkpt lat="44.554" lon="0.94956">
        <ele>88.2</ele>
        <time>2020-03-07T15:57:47Z</time>
      </trkpt>
      <trkpt lat="44.55393" lon="0.94957">
        <ele>88.2</ele>
        <time>2020-03-07T15:57:48Z</time>
      </trkpt>
      <trkpt lat="44.55387" lon="0.94959">
        <ele>88.21</ele>
        <time>2020-03-07T15:57:49Z</time>
      </trkpt>
      <trkpt lat="44.55361" lon="0.9497">
        <ele>87.18</ele>
        <time>2020-03-07T15:57:54Z</time>
      </trkpt>
      <trkpt lat="44.55356" lon="0.94973">
        <ele>87.19</ele>
        <time>2020-03-07T15:57:55Z</time>
      </trkpt>
      <trkpt lat="44.55352" lon="0.94977">
        <ele>87.18</ele>
        <time>2020-03-07T15:57:56Z</time>
      </trkpt>
      <trkpt lat="44.55348" lon="0.94982">
        <ele>87.19</ele>
        <time>2020-03-07T15:57:57Z</time>
      </trkpt>
      <trkpt lat="44.55344" lon="0.94987">
        <ele>87.19</ele>
        <time>2020-03-07T15:57:58Z</time>
      </trkpt>
      <trkpt lat="44.55341" lon="0.94993">
        <ele>87.2</ele>
        <time>2020-03-07T15:57:59Z</time>
      </trkpt>
      <trkpt lat="44.55337" lon="0.94999">
        <ele>87.2</ele>
        <time>2020-03-07T15:58:00Z</time>
      </trkpt>
      <trkpt lat="44.55332" lon="0.95003">
        <ele>87.2</ele>
        <time>2020-03-07T15:58:01Z</time>
      </trkpt>
      <trkpt lat="44.55326" lon="0.95006">
        <ele>85.99</ele>
        <time>2020-03-07T15:58:02Z</time>
      </trkpt>
      <trkpt lat="44.55272" lon="0.95032">
        <ele>83.73</ele>
        <time>2020-03-07T15:58:14Z</time>
      </trkpt>
      <trkpt lat="44.55265" lon="0.95038">
        <ele>83.75</ele>
        <time>2020-03-07T15:58:18Z</time>
      </trkpt>
      <trkpt lat="44.55265" lon="0.9504">
        <ele>86.11</ele>
        <time>2020-03-07T15:58:19Z</time>
      </trkpt>
      <trkpt lat="44.55265" lon="0.95042">
        <ele>86.12</ele>
        <time>2020-03-07T15:58:20Z</time>
      </trkpt>
      <trkpt lat="44.55264" lon="0.95044">
        <ele>87.96</ele>
        <time>2020-03-07T15:58:35Z</time>
      </trkpt>
      <trkpt lat="44.55261" lon="0.95043">
        <ele>88.01</ele>
        <time>2020-03-07T15:58:56Z</time>
      </trkpt>
      <trkpt lat="44.55242" lon="0.95043">
        <ele>88.89</ele>
        <time>2020-03-07T15:59:07Z</time>
      </trkpt>
      <trkpt lat="44.55209" lon="0.95039">
        <ele>92.05</ele>
        <time>2020-03-07T15:59:25Z</time>
      </trkpt>
      <trkpt lat="44.55183" lon="0.95037">
        <ele>94.03</ele>
        <time>2020-03-07T15:59:39Z</time>
      </trkpt>
      <trkpt lat="44.55168" lon="0.95034">
        <ele>95.68</ele>
        <time>2020-03-07T15:59:48Z</time>
      </trkpt>
      <trkpt lat="44.55166" lon="0.95034">
        <ele>95.85</ele>
        <time>2020-03-07T15:59:49Z</time>
      </trkpt>
      <trkpt lat="44.55164" lon="0.95034">
        <ele>96.77</ele>
        <time>2020-03-07T15:59:50Z</time>
      </trkpt>
      <trkpt lat="44.55161" lon="0.95034">
        <ele>96.75</ele>
        <time>2020-03-07T15:59:51Z</time>
      </trkpt>
      <trkpt lat="44.55159" lon="0.95033">
        <ele>96.77</ele>
        <time>2020-03-07T15:59:52Z</time>
      </trkpt>
      <trkpt lat="44.55157" lon="0.95033">
        <ele>96.6</ele>
        <time>2020-03-07T15:59:53Z</time>
      </trkpt>
      <trkpt lat="44.55126" lon="0.95025">
        <ele>99.58</ele>
        <time>2020-03-07T16:00:08Z</time>
      </trkpt>
      <trkpt lat="44.55094" lon="0.95032">
        <ele>102.23</ele>
        <time>2020-03-07T16:00:23Z</time>
      </trkpt>
      <trkpt lat="44.55056" lon="0.95039">
        <ele>104.91</ele>
        <time>2020-03-07T16:00:40Z</time>
      </trkpt>
      <trkpt lat="44.55013" lon="0.95043">
        <ele>106.66</ele>
        <time>2020-03-07T16:00:59Z</time>
      </trkpt>
      <trkpt lat="44.54968" lon="0.95037">
        <ele>109.12</ele>
        <time>2020-03-07T16:01:18Z</time>
      </trkpt>
      <trkpt lat="44.54946" lon="0.95029">
        <ele>109.16</ele>
        <time>2020-03-07T16:01:29Z</time>
      </trkpt>
      <trkpt lat="44.54933" lon="0.95026">
        <ele>109.98</ele>
        <time>2020-03-07T16:01:36Z</time>
      </trkpt>
      <trkpt lat="44.54931" lon="0.95025">
        <ele>109.98</ele>
        <time>2020-03-07T16:01:37Z</time>
      </trkpt>
      <trkpt lat="44.54908" lon="0.95018">
        <ele>106.71</ele>
        <time>2020-03-07T16:01:44Z</time>
      </trkpt>
      <trkpt lat="44.54904" lon="0.95016">
        <ele>106.71</ele>
        <time>2020-03-07T16:01:45Z</time>
      </trkpt>
      <trkpt lat="44.54895" lon="0.95011">
        <ele>105.45</ele>
        <time>2020-03-07T16:01:47Z</time>
      </trkpt>
      <trkpt lat="44.54867" lon="0.94996">
        <ele>102.43</ele>
        <time>2020-03-07T16:01:55Z</time>
      </trkpt>
      <trkpt lat="44.54844" lon="0.94989">
        <ele>100.38</ele>
        <time>2020-03-07T16:02:00Z</time>
      </trkpt>
      <trkpt lat="44.54815" lon="0.94982">
        <ele>97.76</ele>
        <time>2020-03-07T16:02:06Z</time>
      </trkpt>
      <trkpt lat="44.54802" lon="0.9498">
        <ele>94.05</ele>
        <time>2020-03-07T16:02:10Z</time>
      </trkpt>
      <trkpt lat="44.54799" lon="0.9498">
        <ele>94.05</ele>
        <time>2020-03-07T16:02:11Z</time>
      </trkpt>
      <trkpt lat="44.54784" lon="0.94979">
        <ele>92.09</ele>
        <time>2020-03-07T16:02:15Z</time>
      </trkpt>
      <trkpt lat="44.54779" lon="0.9498">
        <ele>90.51</ele>
        <time>2020-03-07T16:02:16Z</time>
      </trkpt>
      <trkpt lat="44.54774" lon="0.94981">
        <ele>89.64</ele>
        <time>2020-03-07T16:02:17Z</time>
      </trkpt>
      <trkpt lat="44.54769" lon="0.94981">
        <ele>89.63</ele>
        <time>2020-03-07T16:02:18Z</time>
      </trkpt>
      <trkpt lat="44.54764" lon="0.94983">
        <ele>88.47</ele>
        <time>2020-03-07T16:02:19Z</time>
      </trkpt>
      <trkpt lat="44.5475" lon="0.94988">
        <ele>87.08</ele>
        <time>2020-03-07T16:02:22Z</time>
      </trkpt>
      <trkpt lat="44.5473" lon="0.94997">
        <ele>84.29</ele>
        <time>2020-03-07T16:02:27Z</time>
      </trkpt>
      <trkpt lat="44.54725" lon="0.94998">
        <ele>84.28</ele>
        <time>2020-03-07T16:02:28Z</time>
      </trkpt>
      <trkpt lat="44.54719" lon="0.94999">
        <ele>83.48</ele>
        <time>2020-03-07T16:02:29Z</time>
      </trkpt>
      <trkpt lat="44.54708" lon="0.94998">
        <ele>83.41</ele>
        <time>2020-03-07T16:02:31Z</time>
      </trkpt>
      <trkpt lat="44.54702" lon="0.94999">
        <ele>82.92</ele>
        <time>2020-03-07T16:02:32Z</time>
      </trkpt>
      <trkpt lat="44.54683" lon="0.95001">
        <ele>81.14</ele>
        <time>2020-03-07T16:02:36Z</time>
      </trkpt>
      <trkpt lat="44.54663" lon="0.94995">
        <ele>80.26</ele>
        <time>2020-03-07T16:02:40Z</time>
      </trkpt>
      <trkpt lat="44.54658" lon="0.94995">
        <ele>80.28</ele>
        <time>2020-03-07T16:02:41Z</time>
      </trkpt>
      <trkpt lat="44.54653" lon="0.94996">
        <ele>80.29</ele>
        <time>2020-03-07T16:02:42Z</time>
      </trkpt>
      <trkpt lat="44.54617" lon="0.95004">
        <ele>80.19</ele>
        <time>2020-03-07T16:02:54Z</time>
      </trkpt>
      <trkpt lat="44.54607" lon="0.95002">
        <ele>80.22</ele>
        <time>2020-03-07T16:02:58Z</time>
      </trkpt>
      <trkpt lat="44.54606" lon="0.94978">
        <ele>80.24</ele>
        <time>2020-03-07T16:03:02Z</time>
      </trkpt>
      <trkpt lat="44.54604" lon="0.94971">
        <ele>80.28</ele>
        <time>2020-03-07T16:03:03Z</time>
      </trkpt>
      <trkpt lat="44.54602" lon="0.94965">
        <ele>80.29</ele>
        <time>2020-03-07T16:03:04Z</time>
      </trkpt>
      <trkpt lat="44.546" lon="0.94961">
        <ele>80.28</ele>
        <time>2020-03-07T16:03:05Z</time>
      </trkpt>
      <trkpt lat="44.54597" lon="0.94958">
        <ele>80.29</ele>
        <time>2020-03-07T16:03:06Z</time>
      </trkpt>
      <trkpt lat="44.54594" lon="0.94956">
        <ele>80.29</ele>
        <time>2020-03-07T16:03:07Z</time>
      </trkpt>
      <trkpt lat="44.54592" lon="0.94953">
        <ele>80.3</ele>
        <time>2020-03-07T16:03:08Z</time>
      </trkpt>
      <trkpt lat="44.54577" lon="0.94942">
        <ele>77.91</ele>
        <time>2020-03-07T16:03:14Z</time>
      </trkpt>
      <trkpt lat="44.54531" lon="0.94927">
        <ele>78.1</ele>
        <time>2020-03-07T16:03:33Z</time>
      </trkpt>
      <trkpt lat="44.54529" lon="0.94926">
        <ele>80.46</ele>
        <time>2020-03-07T16:03:37Z</time>
      </trkpt>
      <trkpt lat="44.54528" lon="0.94928">
        <ele>81.39</ele>
        <time>2020-03-07T16:04:07Z</time>
      </trkpt>
      <trkpt lat="44.54528" lon="0.94927">
        <ele>78.78</ele>
        <time>2020-03-07T16:04:10Z</time>
      </trkpt>
      <trkpt lat="44.54527" lon="0.94927">
        <ele>81.41</ele>
        <time>2020-03-07T16:04:12Z</time>
      </trkpt>
      <trkpt lat="44.54529" lon="0.94923">
        <ele>81.71</ele>
        <time>2020-03-07T16:05:11Z</time>
      </trkpt>
      <trkpt lat="44.54528" lon="0.94921">
        <ele>81.8</ele>
        <time>2020-03-07T16:05:32Z</time>
      </trkpt>
      <trkpt lat="44.54548" lon="0.94875">
        <ele>81.87</ele>
        <time>2020-03-07T16:05:49Z</time>
      </trkpt>
      <trkpt lat="44.54547" lon="0.94871">
        <ele>81.82</ele>
        <time>2020-03-07T16:05:50Z</time>
      </trkpt>
      <trkpt lat="44.54544" lon="0.94868">
        <ele>81.84</ele>
        <time>2020-03-07T16:05:51Z</time>
      </trkpt>
      <trkpt lat="44.54505" lon="0.94858">
        <ele>81.85</ele>
        <time>2020-03-07T16:06:03Z</time>
      </trkpt>
      <trkpt lat="44.54501" lon="0.94856">
        <ele>79.59</ele>
        <time>2020-03-07T16:06:04Z</time>
      </trkpt>
      <trkpt lat="44.54497" lon="0.94854">
        <ele>79.58</ele>
        <time>2020-03-07T16:06:05Z</time>
      </trkpt>
      <trkpt lat="44.54494" lon="0.94851">
        <ele>79.58</ele>
        <time>2020-03-07T16:06:06Z</time>
      </trkpt>
      <trkpt lat="44.54491" lon="0.94848">
        <ele>79.55</ele>
        <time>2020-03-07T16:06:07Z</time>
      </trkpt>
      <trkpt lat="44.54481" lon="0.94818">
        <ele>78.74</ele>
        <time>2020-03-07T16:06:18Z</time>
      </trkpt>
      <trkpt lat="44.54498" lon="0.94782">
        <ele>78.99</ele>
        <time>2020-03-07T16:06:30Z</time>
      </trkpt>
      <trkpt lat="44.54513" lon="0.94742">
        <ele>81.3</ele>
        <time>2020-03-07T16:06:41Z</time>
      </trkpt>
      <trkpt lat="44.54527" lon="0.94675">
        <ele>82.36</ele>
        <time>2020-03-07T16:06:58Z</time>
      </trkpt>
      <trkpt lat="44.54539" lon="0.94607">
        <ele>85.83</ele>
        <time>2020-03-07T16:07:17Z</time>
      </trkpt>
      <trkpt lat="44.54569" lon="0.94585">
        <ele>89.16</ele>
        <time>2020-03-07T16:07:33Z</time>
      </trkpt>
      <trkpt lat="44.5459" lon="0.9456">
        <ele>90.79</ele>
        <time>2020-03-07T16:07:46Z</time>
      </trkpt>
      <trkpt lat="44.54596" lon="0.94539">
        <ele>91.57</ele>
        <time>2020-03-07T16:07:53Z</time>
      </trkpt>
      <trkpt lat="44.54595" lon="0.94537">
        <ele>91.57</ele>
        <time>2020-03-07T16:07:54Z</time>
      </trkpt>
      <trkpt lat="44.54593" lon="0.94534">
        <ele>91.57</ele>
        <time>2020-03-07T16:07:55Z</time>
      </trkpt>
      <trkpt lat="44.54589" lon="0.94532">
        <ele>91.53</ele>
        <time>2020-03-07T16:07:56Z</time>
      </trkpt>
      <trkpt lat="44.54586" lon="0.9453">
        <ele>91.57</ele>
        <time>2020-03-07T16:07:57Z</time>
      </trkpt>
      <trkpt lat="44.54582" lon="0.94528">
        <ele>91.55</ele>
        <time>2020-03-07T16:07:58Z</time>
      </trkpt>
      <trkpt lat="44.54578" lon="0.94525">
        <ele>91.53</ele>
        <time>2020-03-07T16:07:59Z</time>
      </trkpt>
      <trkpt lat="44.54574" lon="0.94522">
        <ele>91.52</ele>
        <time>2020-03-07T16:08:00Z</time>
      </trkpt>
      <trkpt lat="44.54557" lon="0.94505">
        <ele>91.43</ele>
        <time>2020-03-07T16:08:04Z</time>
      </trkpt>
      <trkpt lat="44.54553" lon="0.945">
        <ele>91.4</ele>
        <time>2020-03-07T16:08:05Z</time>
      </trkpt>
      <trkpt lat="44.5455" lon="0.94492">
        <ele>88.94</ele>
        <time>2020-03-07T16:08:06Z</time>
      </trkpt>
      <trkpt lat="44.54548" lon="0.94485">
        <ele>88.88</ele>
        <time>2020-03-07T16:08:07Z</time>
      </trkpt>
      <trkpt lat="44.54547" lon="0.94477">
        <ele>87.95</ele>
        <time>2020-03-07T16:08:08Z</time>
      </trkpt>
      <trkpt lat="44.54546" lon="0.9447">
        <ele>87.93</ele>
        <time>2020-03-07T16:08:09Z</time>
      </trkpt>
      <trkpt lat="44.54545" lon="0.94463">
        <ele>87.94</ele>
        <time>2020-03-07T16:08:10Z</time>
      </trkpt>
      <trkpt lat="44.54543" lon="0.94457">
        <ele>87.93</ele>
        <time>2020-03-07T16:08:11Z</time>
      </trkpt>
      <trkpt lat="44.5454" lon="0.94451">
        <ele>87.93</ele>
        <time>2020-03-07T16:08:12Z</time>
      </trkpt>
      <trkpt lat="44.54538" lon="0.94444">
        <ele>87.91</ele>
        <time>2020-03-07T16:08:13Z</time>
      </trkpt>
      <trkpt lat="44.54528" lon="0.94405">
        <ele>86.14</ele>
        <time>2020-03-07T16:08:18Z</time>
      </trkpt>
      <trkpt lat="44.54525" lon="0.94398">
        <ele>86.14</ele>
        <time>2020-03-07T16:08:19Z</time>
      </trkpt>
      <trkpt lat="44.54522" lon="0.94391">
        <ele>86.15</ele>
        <time>2020-03-07T16:08:20Z</time>
      </trkpt>
      <trkpt lat="44.54519" lon="0.94384">
        <ele>85.2</ele>
        <time>2020-03-07T16:08:21Z</time>
      </trkpt>
      <trkpt lat="44.54515" lon="0.94378">
        <ele>85.19</ele>
        <time>2020-03-07T16:08:22Z</time>
      </trkpt>
      <trkpt lat="44.54487" lon="0.94336">
        <ele>84.22</ele>
        <time>2020-03-07T16:08:32Z</time>
      </trkpt>
      <trkpt lat="44.54462" lon="0.94312">
        <ele>83.53</ele>
        <time>2020-03-07T16:08:41Z</time>
      </trkpt>
      <trkpt lat="44.54457" lon="0.94308">
        <ele>82.66</ele>
        <time>2020-03-07T16:08:42Z</time>
      </trkpt>
      <trkpt lat="44.54454" lon="0.94304">
        <ele>82.66</ele>
        <time>2020-03-07T16:08:43Z</time>
      </trkpt>
      <trkpt lat="44.5445" lon="0.94301">
        <ele>82.68</ele>
        <time>2020-03-07T16:08:44Z</time>
      </trkpt>
      <trkpt lat="44.54445" lon="0.94297">
        <ele>82.68</ele>
        <time>2020-03-07T16:08:45Z</time>
      </trkpt>
      <trkpt lat="44.54441" lon="0.94293">
        <ele>81.6</ele>
        <time>2020-03-07T16:08:46Z</time>
      </trkpt>
      <trkpt lat="44.54438" lon="0.94291">
        <ele>81.6</ele>
        <time>2020-03-07T16:08:47Z</time>
      </trkpt>
      <trkpt lat="44.54434" lon="0.94287">
        <ele>81.57</ele>
        <time>2020-03-07T16:08:48Z</time>
      </trkpt>
      <trkpt lat="44.54431" lon="0.94283">
        <ele>80.69</ele>
        <time>2020-03-07T16:08:49Z</time>
      </trkpt>
      <trkpt lat="44.54427" lon="0.94279">
        <ele>80.71</ele>
        <time>2020-03-07T16:08:50Z</time>
      </trkpt>
      <trkpt lat="44.54424" lon="0.94275">
        <ele>80.69</ele>
        <time>2020-03-07T16:08:51Z</time>
      </trkpt>
      <trkpt lat="44.54399" lon="0.94245">
        <ele>80.74</ele>
        <time>2020-03-07T16:09:01Z</time>
      </trkpt>
      <trkpt lat="44.54378" lon="0.94212">
        <ele>80.87</ele>
        <time>2020-03-07T16:09:11Z</time>
      </trkpt>
      <trkpt lat="44.5436" lon="0.94169">
        <ele>83.12</ele>
        <time>2020-03-07T16:09:22Z</time>
      </trkpt>
      <trkpt lat="44.54336" lon="0.94137">
        <ele>83.73</ele>
        <time>2020-03-07T16:09:33Z</time>
      </trkpt>
      <trkpt lat="44.543" lon="0.94129">
        <ele>83.54</ele>
        <time>2020-03-07T16:09:44Z</time>
      </trkpt>
      <trkpt lat="44.54271" lon="0.94128">
        <ele>83.39</ele>
        <time>2020-03-07T16:09:56Z</time>
      </trkpt>
      <trkpt lat="44.54243" lon="0.94135">
        <ele>83.4</ele>
        <time>2020-03-07T16:10:07Z</time>
      </trkpt>
      <trkpt lat="44.54233" lon="0.94142">
        <ele>83.39</ele>
        <time>2020-03-07T16:10:11Z</time>
      </trkpt>
      <trkpt lat="44.54225" lon="0.9416">
        <ele>83.36</ele>
        <time>2020-03-07T16:10:15Z</time>
      </trkpt>
      <trkpt lat="44.54224" lon="0.94166">
        <ele>83.36</ele>
        <time>2020-03-07T16:10:16Z</time>
      </trkpt>
      <trkpt lat="44.54223" lon="0.94172">
        <ele>83.35</ele>
        <time>2020-03-07T16:10:17Z</time>
      </trkpt>
      <trkpt lat="44.54223" lon="0.94179">
        <ele>83.33</ele>
        <time>2020-03-07T16:10:18Z</time>
      </trkpt>
      <trkpt lat="44.54224" lon="0.94185">
        <ele>83.31</ele>
        <time>2020-03-07T16:10:19Z</time>
      </trkpt>
      <trkpt lat="44.54224" lon="0.94193">
        <ele>83.28</ele>
        <time>2020-03-07T16:10:20Z</time>
      </trkpt>
      <trkpt lat="44.54223" lon="0.94199">
        <ele>83.26</ele>
        <time>2020-03-07T16:10:21Z</time>
      </trkpt>
      <trkpt lat="44.54223" lon="0.94205">
        <ele>83.25</ele>
        <time>2020-03-07T16:10:22Z</time>
      </trkpt>
      <trkpt lat="44.54222" lon="0.94216">
        <ele>80.97</ele>
        <time>2020-03-07T16:10:24Z</time>
      </trkpt>
      <trkpt lat="44.54221" lon="0.9427">
        <ele>80.08</ele>
        <time>2020-03-07T16:10:35Z</time>
      </trkpt>
      <trkpt lat="44.542" lon="0.94319">
        <ele>80.2</ele>
        <time>2020-03-07T16:10:46Z</time>
      </trkpt>
      <trkpt lat="44.54183" lon="0.94355">
        <ele>80.25</ele>
        <time>2020-03-07T16:10:58Z</time>
      </trkpt>
      <trkpt lat="44.54141" lon="0.94393">
        <ele>80.37</ele>
        <time>2020-03-07T16:11:12Z</time>
      </trkpt>
      <trkpt lat="44.54099" lon="0.94421">
        <ele>82.76</ele>
        <time>2020-03-07T16:11:26Z</time>
      </trkpt>
      <trkpt lat="44.54046" lon="0.94457">
        <ele>82.75</ele>
        <time>2020-03-07T16:11:43Z</time>
      </trkpt>
      <trkpt lat="44.54043" lon="0.94456">
        <ele>82.74</ele>
        <time>2020-03-07T16:11:44Z</time>
      </trkpt>
      <trkpt lat="44.5404" lon="0.94454">
        <ele>82.74</ele>
        <time>2020-03-07T16:11:45Z</time>
      </trkpt>
      <trkpt lat="44.54038" lon="0.94451">
        <ele>82.74</ele>
        <time>2020-03-07T16:11:46Z</time>
      </trkpt>
      <trkpt lat="44.54037" lon="0.94448">
        <ele>82.75</ele>
        <time>2020-03-07T16:11:47Z</time>
      </trkpt>
      <trkpt lat="44.54036" lon="0.94447">
        <ele>82.75</ele>
        <time>2020-03-07T16:11:48Z</time>
      </trkpt>
      <trkpt lat="44.54036" lon="0.94448">
        <ele>82.75</ele>
        <time>2020-03-07T16:11:49Z</time>
      </trkpt>
      <trkpt lat="44.54036" lon="0.9445">
        <ele>82.76</ele>
        <time>2020-03-07T16:11:50Z</time>
      </trkpt>
      <trkpt lat="44.54036" lon="0.94452">
        <ele>82.76</ele>
        <time>2020-03-07T16:11:51Z</time>
      </trkpt>
      <trkpt lat="44.54037" lon="0.94454">
        <ele>82.76</ele>
        <time>2020-03-07T16:11:52Z</time>
      </trkpt>
      <trkpt lat="44.54037" lon="0.94456">
        <ele>83.54</ele>
        <time>2020-03-07T16:11:53Z</time>
      </trkpt>
      <trkpt lat="44.54035" lon="0.94458">
        <ele>83.55</ele>
        <time>2020-03-07T16:11:54Z</time>
      </trkpt>
      <trkpt lat="44.54033" lon="0.9446">
        <ele>83.54</ele>
        <time>2020-03-07T16:11:55Z</time>
      </trkpt>
      <trkpt lat="44.5403" lon="0.94461">
        <ele>83.55</ele>
        <time>2020-03-07T16:11:56Z</time>
      </trkpt>
      <trkpt lat="44.54027" lon="0.94462">
        <ele>83.55</ele>
        <time>2020-03-07T16:11:57Z</time>
      </trkpt>
      <trkpt lat="44.54023" lon="0.94462">
        <ele>83.55</ele>
        <time>2020-03-07T16:11:58Z</time>
      </trkpt>
      <trkpt lat="44.53959" lon="0.94475">
        <ele>83.54</ele>
        <time>2020-03-07T16:12:16Z</time>
      </trkpt>
      <trkpt lat="44.53936" lon="0.94471">
        <ele>81.12</ele>
        <time>2020-03-07T16:12:22Z</time>
      </trkpt>
      <trkpt lat="44.53907" lon="0.94459">
        <ele>80.32</ele>
        <time>2020-03-07T16:12:28Z</time>
      </trkpt>
      <trkpt lat="44.53903" lon="0.94456">
        <ele>80.32</ele>
        <time>2020-03-07T16:12:29Z</time>
      </trkpt>
      <trkpt lat="44.53899" lon="0.94453">
        <ele>80.32</ele>
        <time>2020-03-07T16:12:30Z</time>
      </trkpt>
      <trkpt lat="44.53841" lon="0.94408">
        <ele>78.77</ele>
        <time>2020-03-07T16:12:46Z</time>
      </trkpt>
      <trkpt lat="44.53785" lon="0.94374">
        <ele>78.09</ele>
        <time>2020-03-07T16:13:01Z</time>
      </trkpt>
      <trkpt lat="44.53726" lon="0.94342">
        <ele>77.26</ele>
        <time>2020-03-07T16:13:17Z</time>
      </trkpt>
      <trkpt lat="44.53693" lon="0.94338">
        <ele>77.27</ele>
        <time>2020-03-07T16:13:28Z</time>
      </trkpt>
      <trkpt lat="44.53665" lon="0.94322">
        <ele>77.34</ele>
        <time>2020-03-07T16:13:40Z</time>
      </trkpt>
      <trkpt lat="44.5363" lon="0.94301">
        <ele>77.38</ele>
        <time>2020-03-07T16:13:52Z</time>
      </trkpt>
      <trkpt lat="44.53584" lon="0.94278">
        <ele>77.34</ele>
        <time>2020-03-07T16:14:07Z</time>
      </trkpt>
      <trkpt lat="44.53536" lon="0.94258">
        <ele>77.35</ele>
        <time>2020-03-07T16:14:21Z</time>
      </trkpt>
      <trkpt lat="44.53492" lon="0.94257">
        <ele>77.35</ele>
        <time>2020-03-07T16:14:34Z</time>
      </trkpt>
      <trkpt lat="44.5349" lon="0.9426">
        <ele>77.35</ele>
        <time>2020-03-07T16:14:35Z</time>
      </trkpt>
      <trkpt lat="44.53491" lon="0.94265">
        <ele>77.35</ele>
        <time>2020-03-07T16:14:36Z</time>
      </trkpt>
      <trkpt lat="44.53491" lon="0.9427">
        <ele>77.37</ele>
        <time>2020-03-07T16:14:37Z</time>
      </trkpt>
      <trkpt lat="44.53492" lon="0.94275">
        <ele>77.36</ele>
        <time>2020-03-07T16:14:38Z</time>
      </trkpt>
      <trkpt lat="44.53492" lon="0.9428">
        <ele>77.35</ele>
        <time>2020-03-07T16:14:39Z</time>
      </trkpt>
      <trkpt lat="44.53513" lon="0.94312">
        <ele>77.35</ele>
        <time>2020-03-07T16:14:49Z</time>
      </trkpt>
      <trkpt lat="44.53578" lon="0.94351">
        <ele>77.38</ele>
        <time>2020-03-07T16:15:07Z</time>
      </trkpt>
      <trkpt lat="44.53621" lon="0.94398">
        <ele>77.47</ele>
        <time>2020-03-07T16:15:21Z</time>
      </trkpt>
      <trkpt lat="44.53671" lon="0.94438">
        <ele>77.49</ele>
        <time>2020-03-07T16:15:35Z</time>
      </trkpt>
      <trkpt lat="44.53699" lon="0.94448">
        <ele>77.51</ele>
        <time>2020-03-07T16:15:42Z</time>
      </trkpt>
      <trkpt lat="44.53704" lon="0.94451">
        <ele>77.51</ele>
        <time>2020-03-07T16:15:43Z</time>
      </trkpt>
      <trkpt lat="44.53707" lon="0.94455">
        <ele>77.51</ele>
        <time>2020-03-07T16:15:44Z</time>
      </trkpt>
      <trkpt lat="44.5371" lon="0.94459">
        <ele>77.51</ele>
        <time>2020-03-07T16:15:45Z</time>
      </trkpt>
      <trkpt lat="44.53713" lon="0.94464">
        <ele>77.52</ele>
        <time>2020-03-07T16:15:46Z</time>
      </trkpt>
      <trkpt lat="44.53715" lon="0.9447">
        <ele>77.53</ele>
        <time>2020-03-07T16:15:47Z</time>
      </trkpt>
      <trkpt lat="44.53717" lon="0.94476">
        <ele>77.52</ele>
        <time>2020-03-07T16:15:48Z</time>
      </trkpt>
      <trkpt lat="44.53718" lon="0.94482">
        <ele>77.52</ele>
        <time>2020-03-07T16:15:49Z</time>
      </trkpt>
      <trkpt lat="44.53735" lon="0.94588">
        <ele>77.56</ele>
        <time>2020-03-07T16:16:07Z</time>
      </trkpt>
      <trkpt lat="44.53736" lon="0.94631">
        <ele>77.68</ele>
        <time>2020-03-07T16:16:18Z</time>
      </trkpt>
      <trkpt lat="44.53733" lon="0.94635">
        <ele>80.03</ele>
        <time>2020-03-07T16:16:22Z</time>
      </trkpt>
      <trkpt lat="44.53733" lon="0.94635">
        <ele>80.84</ele>
        <time>2020-03-07T16:17:11Z</time>
      </trkpt>
      <trkpt lat="44.53711" lon="0.94653">
        <ele>80.88</ele>
        <time>2020-03-07T16:17:28Z</time>
      </trkpt>
      <trkpt lat="44.53649" lon="0.94714">
        <ele>80.9</ele>
        <time>2020-03-07T16:17:45Z</time>
      </trkpt>
      <trkpt lat="44.53549" lon="0.94803">
        <ele>81.04</ele>
        <time>2020-03-07T16:18:09Z</time>
      </trkpt>
      <trkpt lat="44.53503" lon="0.94832">
        <ele>78.72</ele>
        <time>2020-03-07T16:18:18Z</time>
      </trkpt>
      <trkpt lat="44.53369" lon="0.9488">
        <ele>77.07</ele>
        <time>2020-03-07T16:18:42Z</time>
      </trkpt>
      <trkpt lat="44.53243" lon="0.94877">
        <ele>75.66</ele>
        <time>2020-03-07T16:19:04Z</time>
      </trkpt>
      <trkpt lat="44.53135" lon="0.94849">
        <ele>74.94</ele>
        <time>2020-03-07T16:19:23Z</time>
      </trkpt>
      <trkpt lat="44.53107" lon="0.94841">
        <ele>74.17</ele>
        <time>2020-03-07T16:19:28Z</time>
      </trkpt>
      <trkpt lat="44.53102" lon="0.94841">
        <ele>74.18</ele>
        <time>2020-03-07T16:19:29Z</time>
      </trkpt>
      <trkpt lat="44.53096" lon="0.94843">
        <ele>74.2</ele>
        <time>2020-03-07T16:19:30Z</time>
      </trkpt>
      <trkpt lat="44.53091" lon="0.94846">
        <ele>74.2</ele>
        <time>2020-03-07T16:19:31Z</time>
      </trkpt>
      <trkpt lat="44.53087" lon="0.94848">
        <ele>74.22</ele>
        <time>2020-03-07T16:19:32Z</time>
      </trkpt>
      <trkpt lat="44.53083" lon="0.94848">
        <ele>74.22</ele>
        <time>2020-03-07T16:19:33Z</time>
      </trkpt>
      <trkpt lat="44.53079" lon="0.94847">
        <ele>74.23</ele>
        <time>2020-03-07T16:19:34Z</time>
      </trkpt>
      <trkpt lat="44.53075" lon="0.94846">
        <ele>74.24</ele>
        <time>2020-03-07T16:19:35Z</time>
      </trkpt>
      <trkpt lat="44.5305" lon="0.9484">
        <ele>76.68</ele>
        <time>2020-03-07T16:19:43Z</time>
      </trkpt>
      <trkpt lat="44.52982" lon="0.94828">
        <ele>77.52</ele>
        <time>2020-03-07T16:20:04Z</time>
      </trkpt>
      <trkpt lat="44.52913" lon="0.94829">
        <ele>80.08</ele>
        <time>2020-03-07T16:20:26Z</time>
      </trkpt>
      <trkpt lat="44.52894" lon="0.94862">
        <ele>82.54</ele>
        <time>2020-03-07T16:20:41Z</time>
      </trkpt>
      <trkpt lat="44.52876" lon="0.94895">
        <ele>85.21</ele>
        <time>2020-03-07T16:20:56Z</time>
      </trkpt>
      <trkpt lat="44.52864" lon="0.94922">
        <ele>87.91</ele>
        <time>2020-03-07T16:21:09Z</time>
      </trkpt>
      <trkpt lat="44.52854" lon="0.94937">
        <ele>89.52</ele>
        <time>2020-03-07T16:21:17Z</time>
      </trkpt>
      <trkpt lat="44.52851" lon="0.94938">
        <ele>89.52</ele>
        <time>2020-03-07T16:21:19Z</time>
      </trkpt>
      <trkpt lat="44.52841" lon="0.94933">
        <ele>90.51</ele>
        <time>2020-03-07T16:21:27Z</time>
      </trkpt>
      <trkpt lat="44.52818" lon="0.94926">
        <ele>92.1</ele>
        <time>2020-03-07T16:21:40Z</time>
      </trkpt>
      <trkpt lat="44.52802" lon="0.94918">
        <ele>92.96</ele>
        <time>2020-03-07T16:21:50Z</time>
      </trkpt>
      <trkpt lat="44.52798" lon="0.94913">
        <ele>93.81</ele>
        <time>2020-03-07T16:21:54Z</time>
      </trkpt>
      <trkpt lat="44.52771" lon="0.94892">
        <ele>95.55</ele>
        <time>2020-03-07T16:22:09Z</time>
      </trkpt>
      <trkpt lat="44.52765" lon="0.94888">
        <ele>96.3</ele>
        <time>2020-03-07T16:22:13Z</time>
      </trkpt>
      <trkpt lat="44.52747" lon="0.94873">
        <ele>97.92</ele>
        <time>2020-03-07T16:22:23Z</time>
      </trkpt>
      <trkpt lat="44.52721" lon="0.94856">
        <ele>97.76</ele>
        <time>2020-03-07T16:22:37Z</time>
      </trkpt>
      <trkpt lat="44.52694" lon="0.94857">
        <ele>99.52</ele>
        <time>2020-03-07T16:22:50Z</time>
      </trkpt>
      <trkpt lat="44.52669" lon="0.94865">
        <ele>103.26</ele>
        <time>2020-03-07T16:23:03Z</time>
      </trkpt>
      <trkpt lat="44.52637" lon="0.94865">
        <ele>104.73</ele>
        <time>2020-03-07T16:23:18Z</time>
      </trkpt>
      <trkpt lat="44.52589" lon="0.94864">
        <ele>102.28</ele>
        <time>2020-03-07T16:23:30Z</time>
      </trkpt>
      <trkpt lat="44.52545" lon="0.94863">
        <ele>99.36</ele>
        <time>2020-03-07T16:23:39Z</time>
      </trkpt>
      <trkpt lat="44.52527" lon="0.94884">
        <ele>98.44</ele>
        <time>2020-03-07T16:23:48Z</time>
      </trkpt>
      <trkpt lat="44.52517" lon="0.94924">
        <ele>98.58</ele>
        <time>2020-03-07T16:24:02Z</time>
      </trkpt>
      <trkpt lat="44.52489" lon="0.94973">
        <ele>96.5</ele>
        <time>2020-03-07T16:24:12Z</time>
      </trkpt>
      <trkpt lat="44.52482" lon="0.94986">
        <ele>95.63</ele>
        <time>2020-03-07T16:24:14Z</time>
      </trkpt>
      <trkpt lat="44.5247" lon="0.95011">
        <ele>94.49</ele>
        <time>2020-03-07T16:24:17Z</time>
      </trkpt>
      <trkpt lat="44.52451" lon="0.95056">
        <ele>91.34</ele>
        <time>2020-03-07T16:24:22Z</time>
      </trkpt>
      <trkpt lat="44.52448" lon="0.95065">
        <ele>90.37</ele>
        <time>2020-03-07T16:24:23Z</time>
      </trkpt>
      <trkpt lat="44.52421" lon="0.95119">
        <ele>88.61</ele>
        <time>2020-03-07T16:24:30Z</time>
      </trkpt>
      <trkpt lat="44.52407" lon="0.95143">
        <ele>87.9</ele>
        <time>2020-03-07T16:24:35Z</time>
      </trkpt>
      <trkpt lat="44.52391" lon="0.95147">
        <ele>88.07</ele>
        <time>2020-03-07T16:24:43Z</time>
      </trkpt>
      <trkpt lat="44.52389" lon="0.95147">
        <ele>88.08</ele>
        <time>2020-03-07T16:24:44Z</time>
      </trkpt>
      <trkpt lat="44.52386" lon="0.95148">
        <ele>88.09</ele>
        <time>2020-03-07T16:24:45Z</time>
      </trkpt>
      <trkpt lat="44.52358" lon="0.95147">
        <ele>88.11</ele>
        <time>2020-03-07T16:24:55Z</time>
      </trkpt>
      <trkpt lat="44.52349" lon="0.95144">
        <ele>88.09</ele>
        <time>2020-03-07T16:24:57Z</time>
      </trkpt>
      <trkpt lat="44.52345" lon="0.95142">
        <ele>88.09</ele>
        <time>2020-03-07T16:24:58Z</time>
      </trkpt>
      <trkpt lat="44.52339" lon="0.9514">
        <ele>88.08</ele>
        <time>2020-03-07T16:24:59Z</time>
      </trkpt>
      <trkpt lat="44.52316" lon="0.95132">
        <ele>88.06</ele>
        <time>2020-03-07T16:25:04Z</time>
      </trkpt>
      <trkpt lat="44.52311" lon="0.95129">
        <ele>87.31</ele>
        <time>2020-03-07T16:25:05Z</time>
      </trkpt>
      <trkpt lat="44.52305" lon="0.95124">
        <ele>87.28</ele>
        <time>2020-03-07T16:25:06Z</time>
      </trkpt>
      <trkpt lat="44.52301" lon="0.95117">
        <ele>86.04</ele>
        <time>2020-03-07T16:25:07Z</time>
      </trkpt>
      <trkpt lat="44.52298" lon="0.95108">
        <ele>86.01</ele>
        <time>2020-03-07T16:25:08Z</time>
      </trkpt>
      <trkpt lat="44.52296" lon="0.95098">
        <ele>84.49</ele>
        <time>2020-03-07T16:25:09Z</time>
      </trkpt>
      <trkpt lat="44.52289" lon="0.95068">
        <ele>82.42</ele>
        <time>2020-03-07T16:25:12Z</time>
      </trkpt>
      <trkpt lat="44.52285" lon="0.95047">
        <ele>80.79</ele>
        <time>2020-03-07T16:25:14Z</time>
      </trkpt>
      <trkpt lat="44.52279" lon="0.95019">
        <ele>79.55</ele>
        <time>2020-03-07T16:25:17Z</time>
      </trkpt>
      <trkpt lat="44.52258" lon="0.94919">
        <ele>75.99</ele>
        <time>2020-03-07T16:25:29Z</time>
      </trkpt>
      <trkpt lat="44.52256" lon="0.94914">
        <ele>75.97</ele>
        <time>2020-03-07T16:25:30Z</time>
      </trkpt>
      <trkpt lat="44.52253" lon="0.94911">
        <ele>76</ele>
        <time>2020-03-07T16:25:31Z</time>
      </trkpt>
      <trkpt lat="44.52249" lon="0.9491">
        <ele>76.02</ele>
        <time>2020-03-07T16:25:32Z</time>
      </trkpt>
      <trkpt lat="44.52245" lon="0.94911">
        <ele>76.05</ele>
        <time>2020-03-07T16:25:33Z</time>
      </trkpt>
      <trkpt lat="44.52242" lon="0.94913">
        <ele>76.08</ele>
        <time>2020-03-07T16:25:34Z</time>
      </trkpt>
      <trkpt lat="44.52239" lon="0.94915">
        <ele>76.12</ele>
        <time>2020-03-07T16:25:35Z</time>
      </trkpt>
      <trkpt lat="44.52236" lon="0.94917">
        <ele>76.14</ele>
        <time>2020-03-07T16:25:36Z</time>
      </trkpt>
      <trkpt lat="44.52233" lon="0.94918">
        <ele>76.14</ele>
        <time>2020-03-07T16:25:37Z</time>
      </trkpt>
      <trkpt lat="44.5223" lon="0.94918">
        <ele>76.15</ele>
        <time>2020-03-07T16:25:38Z</time>
      </trkpt>
      <trkpt lat="44.52228" lon="0.94919">
        <ele>76.17</ele>
        <time>2020-03-07T16:25:39Z</time>
      </trkpt>
      <trkpt lat="44.52178" lon="0.94951">
        <ele>76.34</ele>
        <time>2020-03-07T16:25:58Z</time>
      </trkpt>
      <trkpt lat="44.52162" lon="0.94972">
        <ele>78.61</ele>
        <time>2020-03-07T16:26:05Z</time>
      </trkpt>
      <trkpt lat="44.52123" lon="0.95015">
        <ele>78.65</ele>
        <time>2020-03-07T16:26:20Z</time>
      </trkpt>
      <trkpt lat="44.52072" lon="0.95075">
        <ele>79.51</ele>
        <time>2020-03-07T16:26:39Z</time>
      </trkpt>
      <trkpt lat="44.52022" lon="0.95153">
        <ele>81.43</ele>
        <time>2020-03-07T16:27:01Z</time>
      </trkpt>
      <trkpt lat="44.5202" lon="0.95179">
        <ele>81.42</ele>
        <time>2020-03-07T16:27:06Z</time>
      </trkpt>
      <trkpt lat="44.52023" lon="0.95273">
        <ele>81.43</ele>
        <time>2020-03-07T16:27:23Z</time>
      </trkpt>
      <trkpt lat="44.52019" lon="0.95348">
        <ele>81.5</ele>
        <time>2020-03-07T16:27:38Z</time>
      </trkpt>
      <trkpt lat="44.52015" lon="0.95424">
        <ele>81.51</ele>
        <time>2020-03-07T16:27:52Z</time>
      </trkpt>
      <trkpt lat="44.52007" lon="0.9552">
        <ele>81.5</ele>
        <time>2020-03-07T16:28:08Z</time>
      </trkpt>
      <trkpt lat="44.52004" lon="0.956">
        <ele>81.48</ele>
        <time>2020-03-07T16:28:22Z</time>
      </trkpt>
      <trkpt lat="44.52008" lon="0.95664">
        <ele>81.44</ele>
        <time>2020-03-07T16:28:35Z</time>
      </trkpt>
      <trkpt lat="44.52019" lon="0.95725">
        <ele>82.32</ele>
        <time>2020-03-07T16:28:48Z</time>
      </trkpt>
      <trkpt lat="44.52026" lon="0.95772">
        <ele>82.31</ele>
        <time>2020-03-07T16:28:58Z</time>
      </trkpt>
      <trkpt lat="44.52028" lon="0.95776">
        <ele>82.3</ele>
        <time>2020-03-07T16:28:59Z</time>
      </trkpt>
      <trkpt lat="44.52029" lon="0.9578">
        <ele>82.3</ele>
        <time>2020-03-07T16:29:00Z</time>
      </trkpt>
      <trkpt lat="44.5203" lon="0.95783">
        <ele>82.31</ele>
        <time>2020-03-07T16:29:01Z</time>
      </trkpt>
      <trkpt lat="44.5203" lon="0.95786">
        <ele>82.3</ele>
        <time>2020-03-07T16:29:02Z</time>
      </trkpt>
      <trkpt lat="44.52031" lon="0.95789">
        <ele>82.29</ele>
        <time>2020-03-07T16:29:03Z</time>
      </trkpt>
      <trkpt lat="44.52049" lon="0.95831">
        <ele>83.96</ele>
        <time>2020-03-07T16:29:14Z</time>
      </trkpt>
      <trkpt lat="44.52069" lon="0.95868">
        <ele>84.74</ele>
        <time>2020-03-07T16:29:25Z</time>
      </trkpt>
      <trkpt lat="44.5209" lon="0.95909">
        <ele>87.33</ele>
        <time>2020-03-07T16:29:39Z</time>
      </trkpt>
      <trkpt lat="44.52113" lon="0.95933">
        <ele>90.05</ele>
        <time>2020-03-07T16:29:52Z</time>
      </trkpt>
      <trkpt lat="44.52133" lon="0.95957">
        <ele>90.83</ele>
        <time>2020-03-07T16:30:03Z</time>
      </trkpt>
      <trkpt lat="44.52154" lon="0.95981">
        <ele>90.86</ele>
        <time>2020-03-07T16:30:15Z</time>
      </trkpt>
      <trkpt lat="44.52174" lon="0.95997">
        <ele>90.93</ele>
        <time>2020-03-07T16:30:24Z</time>
      </trkpt>
      <trkpt lat="44.52177" lon="0.95998">
        <ele>90.94</ele>
        <time>2020-03-07T16:30:25Z</time>
      </trkpt>
      <trkpt lat="44.52184" lon="0.96004">
        <ele>91.92</ele>
        <time>2020-03-07T16:30:28Z</time>
      </trkpt>
      <trkpt lat="44.52186" lon="0.96005">
        <ele>91.93</ele>
        <time>2020-03-07T16:30:29Z</time>
      </trkpt>
      <trkpt lat="44.52188" lon="0.96008">
        <ele>91.93</ele>
        <time>2020-03-07T16:30:30Z</time>
      </trkpt>
      <trkpt lat="44.52191" lon="0.9601">
        <ele>91.95</ele>
        <time>2020-03-07T16:30:31Z</time>
      </trkpt>
      <trkpt lat="44.52194" lon="0.96012">
        <ele>91.95</ele>
        <time>2020-03-07T16:30:32Z</time>
      </trkpt>
      <trkpt lat="44.52196" lon="0.96013">
        <ele>91.96</ele>
        <time>2020-03-07T16:30:33Z</time>
      </trkpt>
      <trkpt lat="44.52217" lon="0.96028">
        <ele>92.92</ele>
        <time>2020-03-07T16:30:42Z</time>
      </trkpt>
      <trkpt lat="44.52218" lon="0.9603">
        <ele>93.76</ele>
        <time>2020-03-07T16:30:43Z</time>
      </trkpt>
      <trkpt lat="44.5222" lon="0.96031">
        <ele>93.76</ele>
        <time>2020-03-07T16:30:44Z</time>
      </trkpt>
      <trkpt lat="44.52242" lon="0.96038">
        <ele>95.74</ele>
        <time>2020-03-07T16:30:55Z</time>
      </trkpt>
      <trkpt lat="44.52263" lon="0.96044">
        <ele>96.71</ele>
        <time>2020-03-07T16:31:06Z</time>
      </trkpt>
      <trkpt lat="44.52289" lon="0.96051">
        <ele>97.66</ele>
        <time>2020-03-07T16:31:17Z</time>
      </trkpt>
      <trkpt lat="44.52312" lon="0.96071">
        <ele>98.56</ele>
        <time>2020-03-07T16:31:29Z</time>
      </trkpt>
      <trkpt lat="44.52326" lon="0.96085">
        <ele>99.42</ele>
        <time>2020-03-07T16:31:37Z</time>
      </trkpt>
      <trkpt lat="44.52333" lon="0.96094">
        <ele>99.46</ele>
        <time>2020-03-07T16:31:41Z</time>
      </trkpt>
      <trkpt lat="44.52334" lon="0.96095">
        <ele>99.48</ele>
        <time>2020-03-07T16:31:42Z</time>
      </trkpt>
      <trkpt lat="44.52336" lon="0.96096">
        <ele>99.49</ele>
        <time>2020-03-07T16:31:43Z</time>
      </trkpt>
      <trkpt lat="44.52337" lon="0.96098">
        <ele>99.5</ele>
        <time>2020-03-07T16:31:44Z</time>
      </trkpt>
      <trkpt lat="44.52339" lon="0.961">
        <ele>99.51</ele>
        <time>2020-03-07T16:31:45Z</time>
      </trkpt>
      <trkpt lat="44.52341" lon="0.96103">
        <ele>100.32</ele>
        <time>2020-03-07T16:31:46Z</time>
      </trkpt>
      <trkpt lat="44.52342" lon="0.96106">
        <ele>100.32</ele>
        <time>2020-03-07T16:31:47Z</time>
      </trkpt>
      <trkpt lat="44.52344" lon="0.96109">
        <ele>100.34</ele>
        <time>2020-03-07T16:31:48Z</time>
      </trkpt>
      <trkpt lat="44.52346" lon="0.96112">
        <ele>100.36</ele>
        <time>2020-03-07T16:31:49Z</time>
      </trkpt>
      <trkpt lat="44.52347" lon="0.96115">
        <ele>100.37</ele>
        <time>2020-03-07T16:31:50Z</time>
      </trkpt>
      <trkpt lat="44.52348" lon="0.96118">
        <ele>100.37</ele>
        <time>2020-03-07T16:31:51Z</time>
      </trkpt>
      <trkpt lat="44.52354" lon="0.96159">
        <ele>100.5</ele>
        <time>2020-03-07T16:32:03Z</time>
      </trkpt>
      <trkpt lat="44.52348" lon="0.96204">
        <ele>101.35</ele>
        <time>2020-03-07T16:32:15Z</time>
      </trkpt>
      <trkpt lat="44.52359" lon="0.96238">
        <ele>103.32</ele>
        <time>2020-03-07T16:32:27Z</time>
      </trkpt>
      <trkpt lat="44.5238" lon="0.96266">
        <ele>105.84</ele>
        <time>2020-03-07T16:32:40Z</time>
      </trkpt>
      <trkpt lat="44.5238" lon="0.96268">
        <ele>106.77</ele>
        <time>2020-03-07T16:32:41Z</time>
      </trkpt>
      <trkpt lat="44.52381" lon="0.96271">
        <ele>106.78</ele>
        <time>2020-03-07T16:32:42Z</time>
      </trkpt>
      <trkpt lat="44.52382" lon="0.96273">
        <ele>106.82</ele>
        <time>2020-03-07T16:32:43Z</time>
      </trkpt>
      <trkpt lat="44.52383" lon="0.96276">
        <ele>106.78</ele>
        <time>2020-03-07T16:32:44Z</time>
      </trkpt>
      <trkpt lat="44.52384" lon="0.96279">
        <ele>106.78</ele>
        <time>2020-03-07T16:32:45Z</time>
      </trkpt>
      <trkpt lat="44.52385" lon="0.96282">
        <ele>107.77</ele>
        <time>2020-03-07T16:32:46Z</time>
      </trkpt>
      <trkpt lat="44.52385" lon="0.96285">
        <ele>107.77</ele>
        <time>2020-03-07T16:32:47Z</time>
      </trkpt>
      <trkpt lat="44.52386" lon="0.96287">
        <ele>107.77</ele>
        <time>2020-03-07T16:32:48Z</time>
      </trkpt>
      <trkpt lat="44.52389" lon="0.96295">
        <ele>108.55</ele>
        <time>2020-03-07T16:32:51Z</time>
      </trkpt>
      <trkpt lat="44.5239" lon="0.96297">
        <ele>108.55</ele>
        <time>2020-03-07T16:32:52Z</time>
      </trkpt>
      <trkpt lat="44.52391" lon="0.963">
        <ele>108.53</ele>
        <time>2020-03-07T16:32:53Z</time>
      </trkpt>
      <trkpt lat="44.52392" lon="0.96303">
        <ele>108.53</ele>
        <time>2020-03-07T16:32:54Z</time>
      </trkpt>
      <trkpt lat="44.52393" lon="0.96306">
        <ele>108.53</ele>
        <time>2020-03-07T16:32:55Z</time>
      </trkpt>
      <trkpt lat="44.52394" lon="0.9631">
        <ele>109.33</ele>
        <time>2020-03-07T16:32:56Z</time>
      </trkpt>
      <trkpt lat="44.52394" lon="0.96314">
        <ele>109.33</ele>
        <time>2020-03-07T16:32:57Z</time>
      </trkpt>
      <trkpt lat="44.52395" lon="0.96317">
        <ele>109.33</ele>
        <time>2020-03-07T16:32:58Z</time>
      </trkpt>
      <trkpt lat="44.52411" lon="0.96365">
        <ele>110.09</ele>
        <time>2020-03-07T16:33:13Z</time>
      </trkpt>
      <trkpt lat="44.52424" lon="0.96425">
        <ele>111.61</ele>
        <time>2020-03-07T16:33:32Z</time>
      </trkpt>
      <trkpt lat="44.5243" lon="0.9648">
        <ele>111.61</ele>
        <time>2020-03-07T16:33:47Z</time>
      </trkpt>
      <trkpt lat="44.52441" lon="0.9653">
        <ele>112.48</ele>
        <time>2020-03-07T16:34:01Z</time>
      </trkpt>
      <trkpt lat="44.52454" lon="0.96579">
        <ele>114.21</ele>
        <time>2020-03-07T16:34:16Z</time>
      </trkpt>
      <trkpt lat="44.52469" lon="0.96613">
        <ele>116.13</ele>
        <time>2020-03-07T16:34:29Z</time>
      </trkpt>
      <trkpt lat="44.52481" lon="0.96643">
        <ele>117.92</ele>
        <time>2020-03-07T16:34:39Z</time>
      </trkpt>
      <trkpt lat="44.52492" lon="0.96668">
        <ele>118.7</ele>
        <time>2020-03-07T16:34:48Z</time>
      </trkpt>
      <trkpt lat="44.52493" lon="0.96672">
        <ele>118.7</ele>
        <time>2020-03-07T16:34:49Z</time>
      </trkpt>
      <trkpt lat="44.52494" lon="0.96674">
        <ele>118.71</ele>
        <time>2020-03-07T16:34:50Z</time>
      </trkpt>
      <trkpt lat="44.52502" lon="0.96688">
        <ele>118.7</ele>
        <time>2020-03-07T16:34:55Z</time>
      </trkpt>
      <trkpt lat="44.52502" lon="0.96691">
        <ele>119.47</ele>
        <time>2020-03-07T16:34:56Z</time>
      </trkpt>
      <trkpt lat="44.52503" lon="0.96695">
        <ele>119.47</ele>
        <time>2020-03-07T16:34:57Z</time>
      </trkpt>
      <trkpt lat="44.52505" lon="0.96698">
        <ele>119.46</ele>
        <time>2020-03-07T16:34:58Z</time>
      </trkpt>
      <trkpt lat="44.52506" lon="0.96701">
        <ele>119.46</ele>
        <time>2020-03-07T16:34:59Z</time>
      </trkpt>
      <trkpt lat="44.52507" lon="0.96703">
        <ele>119.45</ele>
        <time>2020-03-07T16:35:00Z</time>
      </trkpt>
      <trkpt lat="44.5251" lon="0.96717">
        <ele>119.44</ele>
        <time>2020-03-07T16:35:04Z</time>
      </trkpt>
      <trkpt lat="44.5251" lon="0.9672">
        <ele>120.22</ele>
        <time>2020-03-07T16:35:05Z</time>
      </trkpt>
      <trkpt lat="44.52511" lon="0.96723">
        <ele>120.21</ele>
        <time>2020-03-07T16:35:06Z</time>
      </trkpt>
      <trkpt lat="44.52512" lon="0.96726">
        <ele>120.22</ele>
        <time>2020-03-07T16:35:07Z</time>
      </trkpt>
      <trkpt lat="44.52513" lon="0.96729">
        <ele>120.21</ele>
        <time>2020-03-07T16:35:08Z</time>
      </trkpt>
      <trkpt lat="44.52522" lon="0.96772">
        <ele>121.02</ele>
        <time>2020-03-07T16:35:19Z</time>
      </trkpt>
      <trkpt lat="44.52537" lon="0.96805">
        <ele>122.72</ele>
        <time>2020-03-07T16:35:30Z</time>
      </trkpt>
      <trkpt lat="44.52546" lon="0.96821">
        <ele>123.56</ele>
        <time>2020-03-07T16:35:37Z</time>
      </trkpt>
      <trkpt lat="44.52547" lon="0.96824">
        <ele>123.57</ele>
        <time>2020-03-07T16:35:38Z</time>
      </trkpt>
      <trkpt lat="44.52565" lon="0.96851">
        <ele>126.02</ele>
        <time>2020-03-07T16:35:52Z</time>
      </trkpt>
      <trkpt lat="44.52579" lon="0.96879">
        <ele>127.73</ele>
        <time>2020-03-07T16:36:04Z</time>
      </trkpt>
      <trkpt lat="44.52591" lon="0.96906">
        <ele>129.42</ele>
        <time>2020-03-07T16:36:17Z</time>
      </trkpt>
      <trkpt lat="44.52598" lon="0.9693">
        <ele>132.01</ele>
        <time>2020-03-07T16:36:26Z</time>
      </trkpt>
      <trkpt lat="44.52598" lon="0.96932">
        <ele>132.01</ele>
        <time>2020-03-07T16:36:27Z</time>
      </trkpt>
      <trkpt lat="44.52599" lon="0.96935">
        <ele>132</ele>
        <time>2020-03-07T16:36:28Z</time>
      </trkpt>
      <trkpt lat="44.52599" lon="0.96937">
        <ele>132</ele>
        <time>2020-03-07T16:36:29Z</time>
      </trkpt>
      <trkpt lat="44.526" lon="0.9694">
        <ele>132.77</ele>
        <time>2020-03-07T16:36:30Z</time>
      </trkpt>
      <trkpt lat="44.52601" lon="0.96943">
        <ele>132.78</ele>
        <time>2020-03-07T16:36:31Z</time>
      </trkpt>
      <trkpt lat="44.52608" lon="0.96964">
        <ele>133.68</ele>
        <time>2020-03-07T16:36:39Z</time>
      </trkpt>
      <trkpt lat="44.52608" lon="0.96967">
        <ele>133.67</ele>
        <time>2020-03-07T16:36:40Z</time>
      </trkpt>
      <trkpt lat="44.52609" lon="0.9697">
        <ele>133.67</ele>
        <time>2020-03-07T16:36:41Z</time>
      </trkpt>
      <trkpt lat="44.5261" lon="0.96973">
        <ele>133.66</ele>
        <time>2020-03-07T16:36:42Z</time>
      </trkpt>
      <trkpt lat="44.52611" lon="0.96975">
        <ele>133.65</ele>
        <time>2020-03-07T16:36:43Z</time>
      </trkpt>
      <trkpt lat="44.52612" lon="0.96978">
        <ele>133.65</ele>
        <time>2020-03-07T16:36:44Z</time>
      </trkpt>
      <trkpt lat="44.52613" lon="0.96981">
        <ele>134.47</ele>
        <time>2020-03-07T16:36:45Z</time>
      </trkpt>
      <trkpt lat="44.52615" lon="0.96984">
        <ele>134.46</ele>
        <time>2020-03-07T16:36:46Z</time>
      </trkpt>
      <trkpt lat="44.52616" lon="0.96989">
        <ele>134.46</ele>
        <time>2020-03-07T16:36:48Z</time>
      </trkpt>
      <trkpt lat="44.52617" lon="0.96992">
        <ele>134.45</ele>
        <time>2020-03-07T16:36:49Z</time>
      </trkpt>
      <trkpt lat="44.52618" lon="0.96995">
        <ele>134.44</ele>
        <time>2020-03-07T16:36:50Z</time>
      </trkpt>
      <trkpt lat="44.52624" lon="0.97029">
        <ele>135.2</ele>
        <time>2020-03-07T16:37:01Z</time>
      </trkpt>
      <trkpt lat="44.52625" lon="0.97032">
        <ele>135.19</ele>
        <time>2020-03-07T16:37:02Z</time>
      </trkpt>
      <trkpt lat="44.52635" lon="0.97068">
        <ele>136.04</ele>
        <time>2020-03-07T16:37:13Z</time>
      </trkpt>
      <trkpt lat="44.52659" lon="0.97109">
        <ele>136.83</ele>
        <time>2020-03-07T16:37:29Z</time>
      </trkpt>
      <trkpt lat="44.52679" lon="0.97151">
        <ele>140.17</ele>
        <time>2020-03-07T16:37:46Z</time>
      </trkpt>
      <trkpt lat="44.52697" lon="0.97198">
        <ele>142.85</ele>
        <time>2020-03-07T16:38:04Z</time>
      </trkpt>
      <trkpt lat="44.52715" lon="0.97246">
        <ele>146.22</ele>
        <time>2020-03-07T16:38:23Z</time>
      </trkpt>
      <trkpt lat="44.52733" lon="0.97294">
        <ele>148.06</ele>
        <time>2020-03-07T16:38:41Z</time>
      </trkpt>
      <trkpt lat="44.52746" lon="0.97336">
        <ele>150.8</ele>
        <time>2020-03-07T16:38:57Z</time>
      </trkpt>
      <trkpt lat="44.52752" lon="0.97356">
        <ele>151.7</ele>
        <time>2020-03-07T16:39:06Z</time>
      </trkpt>
      <trkpt lat="44.52753" lon="0.97357">
        <ele>151.72</ele>
        <time>2020-03-07T16:39:07Z</time>
      </trkpt>
      <trkpt lat="44.52754" lon="0.97358">
        <ele>151.7</ele>
        <time>2020-03-07T16:39:08Z</time>
      </trkpt>
      <trkpt lat="44.52756" lon="0.97359">
        <ele>151.71</ele>
        <time>2020-03-07T16:39:09Z</time>
      </trkpt>
      <trkpt lat="44.52757" lon="0.97361">
        <ele>151.72</ele>
        <time>2020-03-07T16:39:10Z</time>
      </trkpt>
      <trkpt lat="44.52759" lon="0.97362">
        <ele>152.56</ele>
        <time>2020-03-07T16:39:11Z</time>
      </trkpt>
      <trkpt lat="44.52764" lon="0.97369">
        <ele>152.57</ele>
        <time>2020-03-07T16:39:15Z</time>
      </trkpt>
      <trkpt lat="44.52765" lon="0.9737">
        <ele>153.36</ele>
        <time>2020-03-07T16:39:16Z</time>
      </trkpt>
      <trkpt lat="44.52766" lon="0.97372">
        <ele>153.36</ele>
        <time>2020-03-07T16:39:17Z</time>
      </trkpt>
      <trkpt lat="44.52767" lon="0.97374">
        <ele>153.36</ele>
        <time>2020-03-07T16:39:18Z</time>
      </trkpt>
      <trkpt lat="44.52765" lon="0.97379">
        <ele>154.33</ele>
        <time>2020-03-07T16:39:33Z</time>
      </trkpt>
      <trkpt lat="44.52765" lon="0.97384">
        <ele>155.12</ele>
        <time>2020-03-07T16:40:09Z</time>
      </trkpt>
      <trkpt lat="44.52763" lon="0.97381">
        <ele>155.2</ele>
        <time>2020-03-07T16:40:45Z</time>
      </trkpt>
      <trkpt lat="44.52763" lon="0.97384">
        <ele>155.31</ele>
        <time>2020-03-07T16:41:26Z</time>
      </trkpt>
      <trkpt lat="44.52765" lon="0.9738">
        <ele>155.42</ele>
        <time>2020-03-07T16:42:06Z</time>
      </trkpt>
      <trkpt lat="44.52764" lon="0.97381">
        <ele>155.73</ele>
        <time>2020-03-07T16:43:00Z</time>
      </trkpt>
      <trkpt lat="44.52769" lon="0.97389">
        <ele>155.93</ele>
        <time>2020-03-07T16:43:29Z</time>
      </trkpt>
      <trkpt lat="44.52773" lon="0.97396">
        <ele>156.73</ele>
        <time>2020-03-07T16:43:34Z</time>
      </trkpt>
      <trkpt lat="44.52774" lon="0.97398">
        <ele>156.74</ele>
        <time>2020-03-07T16:43:35Z</time>
      </trkpt>
      <trkpt lat="44.52778" lon="0.9741">
        <ele>157.72</ele>
        <time>2020-03-07T16:43:44Z</time>
      </trkpt>
      <trkpt lat="44.52785" lon="0.97433">
        <ele>159.48</ele>
        <time>2020-03-07T16:43:55Z</time>
      </trkpt>
      <trkpt lat="44.52787" lon="0.97438">
        <ele>160.26</ele>
        <time>2020-03-07T16:43:57Z</time>
      </trkpt>
      <trkpt lat="44.52788" lon="0.97441">
        <ele>160.25</ele>
        <time>2020-03-07T16:43:58Z</time>
      </trkpt>
      <trkpt lat="44.52789" lon="0.97443">
        <ele>160.26</ele>
        <time>2020-03-07T16:43:59Z</time>
      </trkpt>
      <trkpt lat="44.52793" lon="0.97453">
        <ele>161.12</ele>
        <time>2020-03-07T16:44:03Z</time>
      </trkpt>
      <trkpt lat="44.52794" lon="0.97455">
        <ele>161.11</ele>
        <time>2020-03-07T16:44:04Z</time>
      </trkpt>
      <trkpt lat="44.52802" lon="0.97478">
        <ele>163.4</ele>
        <time>2020-03-07T16:44:17Z</time>
      </trkpt>
      <trkpt lat="44.52803" lon="0.9748">
        <ele>163.41</ele>
        <time>2020-03-07T16:44:18Z</time>
      </trkpt>
      <trkpt lat="44.52803" lon="0.97482">
        <ele>163.39</ele>
        <time>2020-03-07T16:44:19Z</time>
      </trkpt>
      <trkpt lat="44.52804" lon="0.97483">
        <ele>164.24</ele>
        <time>2020-03-07T16:44:20Z</time>
      </trkpt>
      <trkpt lat="44.52822" lon="0.97509">
        <ele>167.44</ele>
        <time>2020-03-07T16:44:35Z</time>
      </trkpt>
      <trkpt lat="44.52823" lon="0.97511">
        <ele>167.43</ele>
        <time>2020-03-07T16:44:36Z</time>
      </trkpt>
      <trkpt lat="44.52824" lon="0.97513">
        <ele>167.22</ele>
        <time>2020-03-07T16:44:37Z</time>
      </trkpt>
      <trkpt lat="44.5284" lon="0.97549">
        <ele>168.11</ele>
        <time>2020-03-07T16:44:49Z</time>
      </trkpt>
      <trkpt lat="44.52847" lon="0.97561">
        <ele>167.97</ele>
        <time>2020-03-07T16:44:52Z</time>
      </trkpt>
      <trkpt lat="44.52848" lon="0.97565">
        <ele>167.95</ele>
        <time>2020-03-07T16:44:53Z</time>
      </trkpt>
      <trkpt lat="44.52852" lon="0.97582">
        <ele>165.18</ele>
        <time>2020-03-07T16:44:57Z</time>
      </trkpt>
      <trkpt lat="44.52855" lon="0.97595">
        <ele>164.27</ele>
        <time>2020-03-07T16:45:02Z</time>
      </trkpt>
      <trkpt lat="44.52857" lon="0.97597">
        <ele>164.24</ele>
        <time>2020-03-07T16:45:03Z</time>
      </trkpt>
      <trkpt lat="44.52869" lon="0.97616">
        <ele>163.38</ele>
        <time>2020-03-07T16:45:10Z</time>
      </trkpt>
      <trkpt lat="44.52869" lon="0.97623">
        <ele>163.36</ele>
        <time>2020-03-07T16:45:12Z</time>
      </trkpt>
      <trkpt lat="44.52868" lon="0.97626">
        <ele>163.38</ele>
        <time>2020-03-07T16:45:13Z</time>
      </trkpt>
      <trkpt lat="44.52855" lon="0.97663">
        <ele>161.62</ele>
        <time>2020-03-07T16:45:21Z</time>
      </trkpt>
      <trkpt lat="44.52852" lon="0.9767">
        <ele>161.59</ele>
        <time>2020-03-07T16:45:22Z</time>
      </trkpt>
      <trkpt lat="44.5285" lon="0.97677">
        <ele>161.59</ele>
        <time>2020-03-07T16:45:23Z</time>
      </trkpt>
      <trkpt lat="44.52848" lon="0.97683">
        <ele>160.63</ele>
        <time>2020-03-07T16:45:24Z</time>
      </trkpt>
      <trkpt lat="44.52846" lon="0.9769">
        <ele>160.59</ele>
        <time>2020-03-07T16:45:25Z</time>
      </trkpt>
      <trkpt lat="44.52842" lon="0.97702">
        <ele>160.54</ele>
        <time>2020-03-07T16:45:27Z</time>
      </trkpt>
      <trkpt lat="44.52839" lon="0.97715">
        <ele>159.71</ele>
        <time>2020-03-07T16:45:29Z</time>
      </trkpt>
      <trkpt lat="44.52837" lon="0.9772">
        <ele>159.7</ele>
        <time>2020-03-07T16:45:30Z</time>
      </trkpt>
      <trkpt lat="44.52825" lon="0.97742">
        <ele>158.88</ele>
        <time>2020-03-07T16:45:37Z</time>
      </trkpt>
      <trkpt lat="44.52814" lon="0.97767">
        <ele>157.28</ele>
        <time>2020-03-07T16:45:47Z</time>
      </trkpt>
      <trkpt lat="44.52809" lon="0.97778">
        <ele>157.26</ele>
        <time>2020-03-07T16:45:49Z</time>
      </trkpt>
      <trkpt lat="44.52801" lon="0.97796">
        <ele>155.53</ele>
        <time>2020-03-07T16:45:53Z</time>
      </trkpt>
      <trkpt lat="44.52794" lon="0.97806">
        <ele>154.57</ele>
        <time>2020-03-07T16:45:55Z</time>
      </trkpt>
      <trkpt lat="44.52792" lon="0.97812">
        <ele>154.54</ele>
        <time>2020-03-07T16:45:56Z</time>
      </trkpt>
      <trkpt lat="44.52791" lon="0.97819">
        <ele>153.59</ele>
        <time>2020-03-07T16:45:57Z</time>
      </trkpt>
      <trkpt lat="44.52789" lon="0.97825">
        <ele>153.55</ele>
        <time>2020-03-07T16:45:58Z</time>
      </trkpt>
      <trkpt lat="44.52788" lon="0.97831">
        <ele>152.79</ele>
        <time>2020-03-07T16:45:59Z</time>
      </trkpt>
      <trkpt lat="44.52787" lon="0.97837">
        <ele>152.8</ele>
        <time>2020-03-07T16:46:00Z</time>
      </trkpt>
      <trkpt lat="44.52775" lon="0.97875">
        <ele>151.13</ele>
        <time>2020-03-07T16:46:08Z</time>
      </trkpt>
      <trkpt lat="44.52764" lon="0.97927">
        <ele>150.46</ele>
        <time>2020-03-07T16:46:19Z</time>
      </trkpt>
      <trkpt lat="44.52751" lon="0.97969">
        <ele>148.87</ele>
        <time>2020-03-07T16:46:27Z</time>
      </trkpt>
      <trkpt lat="44.52734" lon="0.9803">
        <ele>146.72</ele>
        <time>2020-03-07T16:46:38Z</time>
      </trkpt>
      <trkpt lat="44.52731" lon="0.9804">
        <ele>145.94</ele>
        <time>2020-03-07T16:46:40Z</time>
      </trkpt>
      <trkpt lat="44.5273" lon="0.98046">
        <ele>145.92</ele>
        <time>2020-03-07T16:46:41Z</time>
      </trkpt>
      <trkpt lat="44.52729" lon="0.98051">
        <ele>145.11</ele>
        <time>2020-03-07T16:46:42Z</time>
      </trkpt>
      <trkpt lat="44.52727" lon="0.98056">
        <ele>145.11</ele>
        <time>2020-03-07T16:46:43Z</time>
      </trkpt>
      <trkpt lat="44.52726" lon="0.9806">
        <ele>145.08</ele>
        <time>2020-03-07T16:46:44Z</time>
      </trkpt>
      <trkpt lat="44.52724" lon="0.98065">
        <ele>143.95</ele>
        <time>2020-03-07T16:46:45Z</time>
      </trkpt>
      <trkpt lat="44.52723" lon="0.98069">
        <ele>143.98</ele>
        <time>2020-03-07T16:46:46Z</time>
      </trkpt>
      <trkpt lat="44.52722" lon="0.98073">
        <ele>143.13</ele>
        <time>2020-03-07T16:46:47Z</time>
      </trkpt>
      <trkpt lat="44.5272" lon="0.98077">
        <ele>143.13</ele>
        <time>2020-03-07T16:46:48Z</time>
      </trkpt>
      <trkpt lat="44.52719" lon="0.9808">
        <ele>143.12</ele>
        <time>2020-03-07T16:46:49Z</time>
      </trkpt>
      <trkpt lat="44.52711" lon="0.9811">
        <ele>139.96</ele>
        <time>2020-03-07T16:46:55Z</time>
      </trkpt>
      <trkpt lat="44.52703" lon="0.98136">
        <ele>138.21</ele>
        <time>2020-03-07T16:47:01Z</time>
      </trkpt>
      <trkpt lat="44.52701" lon="0.9814">
        <ele>137.15</ele>
        <time>2020-03-07T16:47:02Z</time>
      </trkpt>
      <trkpt lat="44.52683" lon="0.98179">
        <ele>135.72</ele>
        <time>2020-03-07T16:47:11Z</time>
      </trkpt>
      <trkpt lat="44.52665" lon="0.98226">
        <ele>135.03</ele>
        <time>2020-03-07T16:47:22Z</time>
      </trkpt>
      <trkpt lat="44.52643" lon="0.98288">
        <ele>133.35</ele>
        <time>2020-03-07T16:47:34Z</time>
      </trkpt>
      <trkpt lat="44.52633" lon="0.98319">
        <ele>132.34</ele>
        <time>2020-03-07T16:47:39Z</time>
      </trkpt>
      <trkpt lat="44.52629" lon="0.98324">
        <ele>132.34</ele>
        <time>2020-03-07T16:47:40Z</time>
      </trkpt>
      <trkpt lat="44.52613" lon="0.98339">
        <ele>127.89</ele>
        <time>2020-03-07T16:47:44Z</time>
      </trkpt>
      <trkpt lat="44.5261" lon="0.98341">
        <ele>130.56</ele>
        <time>2020-03-07T16:47:45Z</time>
      </trkpt>
      <trkpt lat="44.52557" lon="0.98371">
        <ele>130.58</ele>
        <time>2020-03-07T16:48:01Z</time>
      </trkpt>
      <trkpt lat="44.52521" lon="0.98408">
        <ele>128.18</ele>
        <time>2020-03-07T16:48:13Z</time>
      </trkpt>
      <trkpt lat="44.52518" lon="0.98412">
        <ele>128.19</ele>
        <time>2020-03-07T16:48:14Z</time>
      </trkpt>
      <trkpt lat="44.52514" lon="0.98421">
        <ele>128.2</ele>
        <time>2020-03-07T16:48:16Z</time>
      </trkpt>
      <trkpt lat="44.52514" lon="0.98427">
        <ele>128.2</ele>
        <time>2020-03-07T16:48:17Z</time>
      </trkpt>
      <trkpt lat="44.52514" lon="0.98433">
        <ele>128.2</ele>
        <time>2020-03-07T16:48:18Z</time>
      </trkpt>
      <trkpt lat="44.52515" lon="0.98444">
        <ele>128.21</ele>
        <time>2020-03-07T16:48:20Z</time>
      </trkpt>
      <trkpt lat="44.52514" lon="0.98451">
        <ele>127.21</ele>
        <time>2020-03-07T16:48:21Z</time>
      </trkpt>
      <trkpt lat="44.52512" lon="0.98457">
        <ele>127.21</ele>
        <time>2020-03-07T16:48:22Z</time>
      </trkpt>
      <trkpt lat="44.52509" lon="0.98464">
        <ele>127.2</ele>
        <time>2020-03-07T16:48:23Z</time>
      </trkpt>
      <trkpt lat="44.52505" lon="0.98469">
        <ele>125.74</ele>
        <time>2020-03-07T16:48:24Z</time>
      </trkpt>
      <trkpt lat="44.525" lon="0.98474">
        <ele>125.76</ele>
        <time>2020-03-07T16:48:25Z</time>
      </trkpt>
      <trkpt lat="44.52495" lon="0.98478">
        <ele>124.63</ele>
        <time>2020-03-07T16:48:26Z</time>
      </trkpt>
      <trkpt lat="44.52466" lon="0.98513">
        <ele>121.58</ele>
        <time>2020-03-07T16:48:31Z</time>
      </trkpt>
      <trkpt lat="44.52453" lon="0.98532">
        <ele>118.99</ele>
        <time>2020-03-07T16:48:33Z</time>
      </trkpt>
      <trkpt lat="44.52448" lon="0.98544">
        <ele>118.1</ele>
        <time>2020-03-07T16:48:34Z</time>
      </trkpt>
      <trkpt lat="44.52443" lon="0.98556">
        <ele>116.95</ele>
        <time>2020-03-07T16:48:35Z</time>
      </trkpt>
      <trkpt lat="44.52439" lon="0.98569">
        <ele>116.04</ele>
        <time>2020-03-07T16:48:36Z</time>
      </trkpt>
      <trkpt lat="44.52435" lon="0.98581">
        <ele>115.04</ele>
        <time>2020-03-07T16:48:37Z</time>
      </trkpt>
      <trkpt lat="44.52429" lon="0.98605">
        <ele>114.18</ele>
        <time>2020-03-07T16:48:39Z</time>
      </trkpt>
      <trkpt lat="44.52412" lon="0.98663">
        <ele>112.99</ele>
        <time>2020-03-07T16:48:47Z</time>
      </trkpt>
      <trkpt lat="44.52409" lon="0.98664">
        <ele>113.03</ele>
        <time>2020-03-07T16:48:48Z</time>
      </trkpt>
      <trkpt lat="44.52406" lon="0.98665">
        <ele>113.1</ele>
        <time>2020-03-07T16:48:49Z</time>
      </trkpt>
      <trkpt lat="44.52402" lon="0.98664">
        <ele>113.24</ele>
        <time>2020-03-07T16:48:50Z</time>
      </trkpt>
      <trkpt lat="44.52398" lon="0.98663">
        <ele>113.38</ele>
        <time>2020-03-07T16:48:51Z</time>
      </trkpt>
      <trkpt lat="44.52354" lon="0.98648">
        <ele>113.56</ele>
        <time>2020-03-07T16:48:59Z</time>
      </trkpt>
      <trkpt lat="44.52342" lon="0.98638">
        <ele>112.37</ele>
        <time>2020-03-07T16:49:01Z</time>
      </trkpt>
      <trkpt lat="44.52337" lon="0.98632">
        <ele>112.31</ele>
        <time>2020-03-07T16:49:02Z</time>
      </trkpt>
      <trkpt lat="44.52332" lon="0.98625">
        <ele>111.19</ele>
        <time>2020-03-07T16:49:03Z</time>
      </trkpt>
      <trkpt lat="44.52317" lon="0.986">
        <ele>109.9</ele>
        <time>2020-03-07T16:49:06Z</time>
      </trkpt>
      <trkpt lat="44.52302" lon="0.98575">
        <ele>107.82</ele>
        <time>2020-03-07T16:49:09Z</time>
      </trkpt>
      <trkpt lat="44.52292" lon="0.98563">
        <ele>106.5</ele>
        <time>2020-03-07T16:49:11Z</time>
      </trkpt>
      <trkpt lat="44.52287" lon="0.98562">
        <ele>106.52</ele>
        <time>2020-03-07T16:49:12Z</time>
      </trkpt>
      <trkpt lat="44.52282" lon="0.98563">
        <ele>106.52</ele>
        <time>2020-03-07T16:49:13Z</time>
      </trkpt>
      <trkpt lat="44.52278" lon="0.98569">
        <ele>106.52</ele>
        <time>2020-03-07T16:49:14Z</time>
      </trkpt>
      <trkpt lat="44.52276" lon="0.98575">
        <ele>106.49</ele>
        <time>2020-03-07T16:49:15Z</time>
      </trkpt>
      <trkpt lat="44.52274" lon="0.98582">
        <ele>106.53</ele>
        <time>2020-03-07T16:49:16Z</time>
      </trkpt>
      <trkpt lat="44.5226" lon="0.98635">
        <ele>106.09</ele>
        <time>2020-03-07T16:49:24Z</time>
      </trkpt>
      <trkpt lat="44.52211" lon="0.98713">
        <ele>105.42</ele>
        <time>2020-03-07T16:49:38Z</time>
      </trkpt>
      <trkpt lat="44.52127" lon="0.98836">
        <ele>103.49</ele>
        <time>2020-03-07T16:49:58Z</time>
      </trkpt>
      <trkpt lat="44.52075" lon="0.9898">
        <ele>100.81</ele>
        <time>2020-03-07T16:50:17Z</time>
      </trkpt>
      <trkpt lat="44.5201" lon="0.9911">
        <ele>97.48</ele>
        <time>2020-03-07T16:50:35Z</time>
      </trkpt>
      <trkpt lat="44.51918" lon="0.99207">
        <ele>95.68</ele>
        <time>2020-03-07T16:50:53Z</time>
      </trkpt>
      <trkpt lat="44.51818" lon="0.9931">
        <ele>94.12</ele>
        <time>2020-03-07T16:51:15Z</time>
      </trkpt>
      <trkpt lat="44.51723" lon="0.99386">
        <ele>93.46</ele>
        <time>2020-03-07T16:51:34Z</time>
      </trkpt>
      <trkpt lat="44.51676" lon="0.99422">
        <ele>91.85</ele>
        <time>2020-03-07T16:51:43Z</time>
      </trkpt>
      <trkpt lat="44.51672" lon="0.99426">
        <ele>91.84</ele>
        <time>2020-03-07T16:51:44Z</time>
      </trkpt>
      <trkpt lat="44.5163" lon="0.99463">
        <ele>90.11</ele>
        <time>2020-03-07T16:51:52Z</time>
      </trkpt>
      <trkpt lat="44.51625" lon="0.99467">
        <ele>89.33</ele>
        <time>2020-03-07T16:51:53Z</time>
      </trkpt>
      <trkpt lat="44.51619" lon="0.99471">
        <ele>89.34</ele>
        <time>2020-03-07T16:51:54Z</time>
      </trkpt>
      <trkpt lat="44.51585" lon="0.99489">
        <ele>88.51</ele>
        <time>2020-03-07T16:52:01Z</time>
      </trkpt>
      <trkpt lat="44.51581" lon="0.99493">
        <ele>88.51</ele>
        <time>2020-03-07T16:52:02Z</time>
      </trkpt>
      <trkpt lat="44.51577" lon="0.99497">
        <ele>88.5</ele>
        <time>2020-03-07T16:52:03Z</time>
      </trkpt>
      <trkpt lat="44.51574" lon="0.99502">
        <ele>88.52</ele>
        <time>2020-03-07T16:52:04Z</time>
      </trkpt>
      <trkpt lat="44.5157" lon="0.99508">
        <ele>88.54</ele>
        <time>2020-03-07T16:52:05Z</time>
      </trkpt>
      <trkpt lat="44.51567" lon="0.99514">
        <ele>88.55</ele>
        <time>2020-03-07T16:52:06Z</time>
      </trkpt>
      <trkpt lat="44.51564" lon="0.9952">
        <ele>88.56</ele>
        <time>2020-03-07T16:52:07Z</time>
      </trkpt>
      <trkpt lat="44.51561" lon="0.99526">
        <ele>88.57</ele>
        <time>2020-03-07T16:52:08Z</time>
      </trkpt>
      <trkpt lat="44.51559" lon="0.99533">
        <ele>88.57</ele>
        <time>2020-03-07T16:52:09Z</time>
      </trkpt>
      <trkpt lat="44.51557" lon="0.9954">
        <ele>88.6</ele>
        <time>2020-03-07T16:52:10Z</time>
      </trkpt>
      <trkpt lat="44.51525" lon="0.99632">
        <ele>86.96</ele>
        <time>2020-03-07T16:52:23Z</time>
      </trkpt>
      <trkpt lat="44.51515" lon="0.99651">
        <ele>86.06</ele>
        <time>2020-03-07T16:52:26Z</time>
      </trkpt>
      <trkpt lat="44.5151" lon="0.99656">
        <ele>86.06</ele>
        <time>2020-03-07T16:52:27Z</time>
      </trkpt>
      <trkpt lat="44.51505" lon="0.99661">
        <ele>86.07</ele>
        <time>2020-03-07T16:52:28Z</time>
      </trkpt>
      <trkpt lat="44.515" lon="0.99666">
        <ele>86.07</ele>
        <time>2020-03-07T16:52:29Z</time>
      </trkpt>
      <trkpt lat="44.51495" lon="0.9967">
        <ele>86.08</ele>
        <time>2020-03-07T16:52:30Z</time>
      </trkpt>
      <trkpt lat="44.51489" lon="0.99673">
        <ele>85.25</ele>
        <time>2020-03-07T16:52:31Z</time>
      </trkpt>
      <trkpt lat="44.51483" lon="0.99676">
        <ele>85.25</ele>
        <time>2020-03-07T16:52:32Z</time>
      </trkpt>
      <trkpt lat="44.51477" lon="0.99678">
        <ele>85.23</ele>
        <time>2020-03-07T16:52:33Z</time>
      </trkpt>
      <trkpt lat="44.5147" lon="0.9968">
        <ele>85.24</ele>
        <time>2020-03-07T16:52:34Z</time>
      </trkpt>
      <trkpt lat="44.51464" lon="0.99681">
        <ele>84.31</ele>
        <time>2020-03-07T16:52:35Z</time>
      </trkpt>
      <trkpt lat="44.51377" lon="0.99681">
        <ele>82.64</ele>
        <time>2020-03-07T16:52:49Z</time>
      </trkpt>
      <trkpt lat="44.51298" lon="0.99733">
        <ele>80.41</ele>
        <time>2020-03-07T16:53:03Z</time>
      </trkpt>
      <trkpt lat="44.51226" lon="0.9983">
        <ele>79.74</ele>
        <time>2020-03-07T16:53:20Z</time>
      </trkpt>
      <trkpt lat="44.51137" lon="0.99959">
        <ele>78.14</ele>
        <time>2020-03-07T16:53:43Z</time>
      </trkpt>
      <trkpt lat="44.51103" lon="1.00017">
        <ele>78.22</ele>
        <time>2020-03-07T16:53:54Z</time>
      </trkpt>
      <trkpt lat="44.51099" lon="1.00022">
        <ele>77.35</ele>
        <time>2020-03-07T16:53:55Z</time>
      </trkpt>
      <trkpt lat="44.51093" lon="1.00026">
        <ele>77.34</ele>
        <time>2020-03-07T16:53:56Z</time>
      </trkpt>
      <trkpt lat="44.51088" lon="1.00029">
        <ele>77.34</ele>
        <time>2020-03-07T16:53:57Z</time>
      </trkpt>
      <trkpt lat="44.51083" lon="1.00031">
        <ele>76.45</ele>
        <time>2020-03-07T16:53:58Z</time>
      </trkpt>
      <trkpt lat="44.51077" lon="1.00033">
        <ele>76.45</ele>
        <time>2020-03-07T16:53:59Z</time>
      </trkpt>
      <trkpt lat="44.51072" lon="1.00035">
        <ele>76.45</ele>
        <time>2020-03-07T16:54:00Z</time>
      </trkpt>
      <trkpt lat="44.5103" lon="1.00048">
        <ele>74.62</ele>
        <time>2020-03-07T16:54:11Z</time>
      </trkpt>
      <trkpt lat="44.51029" lon="1.00067">
        <ele>73.9</ele>
        <time>2020-03-07T16:54:16Z</time>
      </trkpt>
      <trkpt lat="44.51031" lon="1.00072">
        <ele>73.91</ele>
        <time>2020-03-07T16:54:17Z</time>
      </trkpt>
      <trkpt lat="44.51063" lon="1.0016">
        <ele>74.06</ele>
        <time>2020-03-07T16:54:31Z</time>
      </trkpt>
      <trkpt lat="44.51067" lon="1.0017">
        <ele>74.07</ele>
        <time>2020-03-07T16:54:33Z</time>
      </trkpt>
      <trkpt lat="44.51066" lon="1.00174">
        <ele>74.07</ele>
        <time>2020-03-07T16:54:34Z</time>
      </trkpt>
      <trkpt lat="44.51064" lon="1.00178">
        <ele>74.09</ele>
        <time>2020-03-07T16:54:35Z</time>
      </trkpt>
      <trkpt lat="44.51062" lon="1.0018">
        <ele>74.09</ele>
        <time>2020-03-07T16:54:36Z</time>
      </trkpt>
      <trkpt lat="44.51058" lon="1.0018">
        <ele>74.1</ele>
        <time>2020-03-07T16:54:37Z</time>
      </trkpt>
      <trkpt lat="44.51055" lon="1.00181">
        <ele>74.11</ele>
        <time>2020-03-07T16:54:38Z</time>
      </trkpt>
      <trkpt lat="44.51051" lon="1.00181">
        <ele>74.11</ele>
        <time>2020-03-07T16:54:39Z</time>
      </trkpt>
      <trkpt lat="44.51043" lon="1.00182">
        <ele>71.04</ele>
        <time>2020-03-07T16:54:41Z</time>
      </trkpt>
      <trkpt lat="44.51026" lon="1.00184">
        <ele>74.07</ele>
        <time>2020-03-07T16:54:45Z</time>
      </trkpt>
      <trkpt lat="44.51021" lon="1.00185">
        <ele>74.07</ele>
        <time>2020-03-07T16:54:46Z</time>
      </trkpt>
      <trkpt lat="44.50986" lon="1.002">
        <ele>74.01</ele>
        <time>2020-03-07T16:54:57Z</time>
      </trkpt>
      <trkpt lat="44.50983" lon="1.00206">
        <ele>71.05</ele>
        <time>2020-03-07T16:55:06Z</time>
      </trkpt>
      <trkpt lat="44.50982" lon="1.00209">
        <ele>71.09</ele>
        <time>2020-03-07T16:55:19Z</time>
      </trkpt>
      <trkpt lat="44.50972" lon="1.00258">
        <ele>71.1</ele>
        <time>2020-03-07T16:55:31Z</time>
      </trkpt>
      <trkpt lat="44.50966" lon="1.00285">
        <ele>71.14</ele>
        <time>2020-03-07T16:55:36Z</time>
      </trkpt>
      <trkpt lat="44.50952" lon="1.00371">
        <ele>70.26</ele>
        <time>2020-03-07T16:55:50Z</time>
      </trkpt>
      <trkpt lat="44.50948" lon="1.00389">
        <ele>69.52</ele>
        <time>2020-03-07T16:55:53Z</time>
      </trkpt>
      <trkpt lat="44.50947" lon="1.00395">
        <ele>69.54</ele>
        <time>2020-03-07T16:55:54Z</time>
      </trkpt>
      <trkpt lat="44.50945" lon="1.004">
        <ele>69.54</ele>
        <time>2020-03-07T16:55:55Z</time>
      </trkpt>
      <trkpt lat="44.50931" lon="1.00419">
        <ele>69.6</ele>
        <time>2020-03-07T16:56:04Z</time>
      </trkpt>
      <trkpt lat="44.50902" lon="1.00446">
        <ele>72.13</ele>
        <time>2020-03-07T16:56:16Z</time>
      </trkpt>
      <trkpt lat="44.50878" lon="1.00469">
        <ele>74.69</ele>
        <time>2020-03-07T16:56:27Z</time>
      </trkpt>
      <trkpt lat="44.50876" lon="1.00468">
        <ele>74.71</ele>
        <time>2020-03-07T16:56:28Z</time>
      </trkpt>
      <trkpt lat="44.50875" lon="1.00467">
        <ele>74.72</ele>
        <time>2020-03-07T16:56:29Z</time>
      </trkpt>
      <trkpt lat="44.50853" lon="1.0043">
        <ele>76.33</ele>
        <time>2020-03-07T16:56:41Z</time>
      </trkpt>
      <trkpt lat="44.50821" lon="1.00385">
        <ele>73.81</ele>
        <time>2020-03-07T16:56:51Z</time>
      </trkpt>
      <trkpt lat="44.50785" lon="1.00341">
        <ele>72.22</ele>
        <time>2020-03-07T16:57:02Z</time>
      </trkpt>
      <trkpt lat="44.50752" lon="1.00297">
        <ele>72.39</ele>
        <time>2020-03-07T16:57:15Z</time>
      </trkpt>
      <trkpt lat="44.5073" lon="1.00258">
        <ele>72.46</ele>
        <time>2020-03-07T16:57:25Z</time>
      </trkpt>
      <trkpt lat="44.50725" lon="1.00245">
        <ele>74.91</ele>
        <time>2020-03-07T16:57:29Z</time>
      </trkpt>
      <trkpt lat="44.50711" lon="1.00208">
        <ele>74.95</ele>
        <time>2020-03-07T16:57:39Z</time>
      </trkpt>
      <trkpt lat="44.50698" lon="1.00162">
        <ele>74.92</ele>
        <time>2020-03-07T16:57:48Z</time>
      </trkpt>
      <trkpt lat="44.50688" lon="1.00115">
        <ele>75.87</ele>
        <time>2020-03-07T16:57:59Z</time>
      </trkpt>
      <trkpt lat="44.50677" lon="1.00073">
        <ele>78.5</ele>
        <time>2020-03-07T16:58:13Z</time>
      </trkpt>
      <trkpt lat="44.50676" lon="1.00065">
        <ele>79.28</ele>
        <time>2020-03-07T16:58:16Z</time>
      </trkpt>
      <trkpt lat="44.50676" lon="1.00063">
        <ele>79.3</ele>
        <time>2020-03-07T16:58:17Z</time>
      </trkpt>
      <trkpt lat="44.50675" lon="1.0006">
        <ele>79.32</ele>
        <time>2020-03-07T16:58:18Z</time>
      </trkpt>
      <trkpt lat="44.5065" lon="1.00023">
        <ele>82.06</ele>
        <time>2020-03-07T16:58:32Z</time>
      </trkpt>
      <trkpt lat="44.50615" lon="1.00001">
        <ele>84.1</ele>
        <time>2020-03-07T16:58:47Z</time>
      </trkpt>
      <trkpt lat="44.50579" lon="0.99981">
        <ele>84.9</ele>
        <time>2020-03-07T16:59:01Z</time>
      </trkpt>
      <trkpt lat="44.50539" lon="0.99944">
        <ele>84.91</ele>
        <time>2020-03-07T16:59:15Z</time>
      </trkpt>
      <trkpt lat="44.50525" lon="0.99922">
        <ele>82.4</ele>
        <time>2020-03-07T16:59:19Z</time>
      </trkpt>
      <trkpt lat="44.50522" lon="0.99916">
        <ele>81.53</ele>
        <time>2020-03-07T16:59:20Z</time>
      </trkpt>
      <trkpt lat="44.5052" lon="0.99909">
        <ele>81.52</ele>
        <time>2020-03-07T16:59:21Z</time>
      </trkpt>
      <trkpt lat="44.50517" lon="0.99903">
        <ele>81.53</ele>
        <time>2020-03-07T16:59:22Z</time>
      </trkpt>
      <trkpt lat="44.5051" lon="0.99891">
        <ele>80.18</ele>
        <time>2020-03-07T16:59:24Z</time>
      </trkpt>
      <trkpt lat="44.50493" lon="0.99865">
        <ele>77.89</ele>
        <time>2020-03-07T16:59:28Z</time>
      </trkpt>
      <trkpt lat="44.50488" lon="0.9986">
        <ele>76.48</ele>
        <time>2020-03-07T16:59:29Z</time>
      </trkpt>
      <trkpt lat="44.50482" lon="0.99857">
        <ele>76.49</ele>
        <time>2020-03-07T16:59:30Z</time>
      </trkpt>
      <trkpt lat="44.50475" lon="0.99854">
        <ele>75.29</ele>
        <time>2020-03-07T16:59:31Z</time>
      </trkpt>
      <trkpt lat="44.50467" lon="0.99851">
        <ele>74.31</ele>
        <time>2020-03-07T16:59:32Z</time>
      </trkpt>
      <trkpt lat="44.5046" lon="0.99848">
        <ele>73.5</ele>
        <time>2020-03-07T16:59:33Z</time>
      </trkpt>
      <trkpt lat="44.50453" lon="0.99845">
        <ele>73.45</ele>
        <time>2020-03-07T16:59:34Z</time>
      </trkpt>
      <trkpt lat="44.50445" lon="0.99843">
        <ele>72.26</ele>
        <time>2020-03-07T16:59:35Z</time>
      </trkpt>
      <trkpt lat="44.50437" lon="0.99843">
        <ele>72.27</ele>
        <time>2020-03-07T16:59:36Z</time>
      </trkpt>
      <trkpt lat="44.50429" lon="0.99843">
        <ele>71.22</ele>
        <time>2020-03-07T16:59:37Z</time>
      </trkpt>
      <trkpt lat="44.50358" lon="0.99851">
        <ele>68.47</ele>
        <time>2020-03-07T16:59:48Z</time>
      </trkpt>
      <trkpt lat="44.50318" lon="0.99838">
        <ele>68.79</ele>
        <time>2020-03-07T16:59:59Z</time>
      </trkpt>
      <trkpt lat="44.50294" lon="0.99823">
        <ele>68.89</ele>
        <time>2020-03-07T17:00:07Z</time>
      </trkpt>
      <trkpt lat="44.5029" lon="0.9982">
        <ele>68.88</ele>
        <time>2020-03-07T17:00:08Z</time>
      </trkpt>
      <trkpt lat="44.50286" lon="0.99818">
        <ele>68.89</ele>
        <time>2020-03-07T17:00:09Z</time>
      </trkpt>
      <trkpt lat="44.50283" lon="0.99816">
        <ele>68.9</ele>
        <time>2020-03-07T17:00:10Z</time>
      </trkpt>
      <trkpt lat="44.50279" lon="0.99813">
        <ele>68.9</ele>
        <time>2020-03-07T17:00:11Z</time>
      </trkpt>
      <trkpt lat="44.50276" lon="0.99811">
        <ele>68.9</ele>
        <time>2020-03-07T17:00:12Z</time>
      </trkpt>
      <trkpt lat="44.50272" lon="0.99809">
        <ele>68.91</ele>
        <time>2020-03-07T17:00:13Z</time>
      </trkpt>
      <trkpt lat="44.50242" lon="0.99791">
        <ele>68.87</ele>
        <time>2020-03-07T17:00:19Z</time>
      </trkpt>
      <trkpt lat="44.50212" lon="0.99762">
        <ele>68.93</ele>
        <time>2020-03-07T17:00:29Z</time>
      </trkpt>
      <trkpt lat="44.50188" lon="0.99735">
        <ele>71.44</ele>
        <time>2020-03-07T17:00:40Z</time>
      </trkpt>
      <trkpt lat="44.50182" lon="0.99728">
        <ele>71.45</ele>
        <time>2020-03-07T17:00:42Z</time>
      </trkpt>
      <trkpt lat="44.50179" lon="0.99724">
        <ele>71.47</ele>
        <time>2020-03-07T17:00:43Z</time>
      </trkpt>
      <trkpt lat="44.50152" lon="0.99687">
        <ele>71.42</ele>
        <time>2020-03-07T17:00:50Z</time>
      </trkpt>
      <trkpt lat="44.50145" lon="0.99673">
        <ele>68.68</ele>
        <time>2020-03-07T17:00:52Z</time>
      </trkpt>
      <trkpt lat="44.50121" lon="0.99611">
        <ele>65.93</ele>
        <time>2020-03-07T17:01:01Z</time>
      </trkpt>
      <trkpt lat="44.50113" lon="0.99595">
        <ele>65.1</ele>
        <time>2020-03-07T17:01:04Z</time>
      </trkpt>
      <trkpt lat="44.5011" lon="0.99591">
        <ele>65.11</ele>
        <time>2020-03-07T17:01:05Z</time>
      </trkpt>
      <trkpt lat="44.50108" lon="0.99587">
        <ele>65.11</ele>
        <time>2020-03-07T17:01:06Z</time>
      </trkpt>
      <trkpt lat="44.50106" lon="0.99584">
        <ele>65.16</ele>
        <time>2020-03-07T17:01:07Z</time>
      </trkpt>
      <trkpt lat="44.50105" lon="0.99582">
        <ele>65.15</ele>
        <time>2020-03-07T17:01:08Z</time>
      </trkpt>
      <trkpt lat="44.50103" lon="0.99579">
        <ele>65.17</ele>
        <time>2020-03-07T17:01:09Z</time>
      </trkpt>
      <trkpt lat="44.50101" lon="0.99575">
        <ele>65.19</ele>
        <time>2020-03-07T17:01:10Z</time>
      </trkpt>
      <trkpt lat="44.50093" lon="0.99558">
        <ele>65.26</ele>
        <time>2020-03-07T17:01:15Z</time>
      </trkpt>
      <trkpt lat="44.50091" lon="0.99555">
        <ele>65.28</ele>
        <time>2020-03-07T17:01:16Z</time>
      </trkpt>
      <trkpt lat="44.50074" lon="0.99506">
        <ele>65.44</ele>
        <time>2020-03-07T17:01:28Z</time>
      </trkpt>
      <trkpt lat="44.50065" lon="0.99452">
        <ele>65.47</ele>
        <time>2020-03-07T17:01:40Z</time>
      </trkpt>
      <trkpt lat="44.50051" lon="0.99399">
        <ele>67.92</ele>
        <time>2020-03-07T17:01:52Z</time>
      </trkpt>
      <trkpt lat="44.50032" lon="0.99362">
        <ele>69.83</ele>
        <time>2020-03-07T17:02:05Z</time>
      </trkpt>
      <trkpt lat="44.50004" lon="0.99328">
        <ele>72.4</ele>
        <time>2020-03-07T17:02:19Z</time>
      </trkpt>
      <trkpt lat="44.49958" lon="0.99301">
        <ele>72.36</ele>
        <time>2020-03-07T17:02:34Z</time>
      </trkpt>
      <trkpt lat="44.49951" lon="0.9929">
        <ele>72.36</ele>
        <time>2020-03-07T17:02:37Z</time>
      </trkpt>
      <trkpt lat="44.4995" lon="0.99284">
        <ele>72.36</ele>
        <time>2020-03-07T17:02:38Z</time>
      </trkpt>
      <trkpt lat="44.49949" lon="0.99272">
        <ele>70.02</ele>
        <time>2020-03-07T17:02:40Z</time>
      </trkpt>
      <trkpt lat="44.49938" lon="0.99179">
        <ele>66.4</ele>
        <time>2020-03-07T17:02:53Z</time>
      </trkpt>
      <trkpt lat="44.49929" lon="0.99056">
        <ele>64.05</ele>
        <time>2020-03-07T17:03:09Z</time>
      </trkpt>
      <trkpt lat="44.49925" lon="0.98951">
        <ele>62.51</ele>
        <time>2020-03-07T17:03:25Z</time>
      </trkpt>
      <trkpt lat="44.49903" lon="0.98929">
        <ele>62.63</ele>
        <time>2020-03-07T17:03:35Z</time>
      </trkpt>
      <trkpt lat="44.49855" lon="0.98902">
        <ele>62.67</ele>
        <time>2020-03-07T17:03:47Z</time>
      </trkpt>
      <trkpt lat="44.49851" lon="0.989">
        <ele>62.67</ele>
        <time>2020-03-07T17:03:48Z</time>
      </trkpt>
      <trkpt lat="44.49816" lon="0.98879">
        <ele>62.72</ele>
        <time>2020-03-07T17:03:59Z</time>
      </trkpt>
      <trkpt lat="44.49788" lon="0.98865">
        <ele>62.77</ele>
        <time>2020-03-07T17:04:06Z</time>
      </trkpt>
      <trkpt lat="44.49785" lon="0.98862">
        <ele>62.77</ele>
        <time>2020-03-07T17:04:07Z</time>
      </trkpt>
      <trkpt lat="44.49782" lon="0.98858">
        <ele>59.44</ele>
        <time>2020-03-07T17:04:08Z</time>
      </trkpt>
      <trkpt lat="44.49779" lon="0.98853">
        <ele>59.44</ele>
        <time>2020-03-07T17:04:09Z</time>
      </trkpt>
      <trkpt lat="44.49773" lon="0.9884">
        <ele>62.31</ele>
        <time>2020-03-07T17:04:12Z</time>
      </trkpt>
      <trkpt lat="44.49765" lon="0.98833">
        <ele>62.33</ele>
        <time>2020-03-07T17:04:15Z</time>
      </trkpt>
      <trkpt lat="44.49762" lon="0.98834">
        <ele>62.33</ele>
        <time>2020-03-07T17:04:16Z</time>
      </trkpt>
      <trkpt lat="44.49758" lon="0.98838">
        <ele>62.33</ele>
        <time>2020-03-07T17:04:17Z</time>
      </trkpt>
      <trkpt lat="44.49755" lon="0.98843">
        <ele>62.34</ele>
        <time>2020-03-07T17:04:18Z</time>
      </trkpt>
      <trkpt lat="44.49752" lon="0.98848">
        <ele>62.34</ele>
        <time>2020-03-07T17:04:19Z</time>
      </trkpt>
      <trkpt lat="44.4975" lon="0.98853">
        <ele>62.35</ele>
        <time>2020-03-07T17:04:20Z</time>
      </trkpt>
      <trkpt lat="44.4974" lon="0.98872">
        <ele>62.39</ele>
        <time>2020-03-07T17:04:26Z</time>
      </trkpt>
      <trkpt lat="44.49738" lon="0.98873">
        <ele>62.39</ele>
        <time>2020-03-07T17:04:27Z</time>
      </trkpt>
      <trkpt lat="44.49736" lon="0.98873">
        <ele>62.4</ele>
        <time>2020-03-07T17:04:28Z</time>
      </trkpt>
      <trkpt lat="44.49733" lon="0.98873">
        <ele>62.41</ele>
        <time>2020-03-07T17:04:29Z</time>
      </trkpt>
      <trkpt lat="44.4973" lon="0.98873">
        <ele>62.41</ele>
        <time>2020-03-07T17:04:30Z</time>
      </trkpt>
      <trkpt lat="44.49703" lon="0.98867">
        <ele>60.03</ele>
        <time>2020-03-07T17:04:37Z</time>
      </trkpt>
      <trkpt lat="44.49689" lon="0.98869">
        <ele>60.05</ele>
        <time>2020-03-07T17:04:41Z</time>
      </trkpt>
      <trkpt lat="44.49671" lon="0.9886">
        <ele>59.3</ele>
        <time>2020-03-07T17:04:47Z</time>
      </trkpt>
      <trkpt lat="44.49668" lon="0.98847">
        <ele>59.32</ele>
        <time>2020-03-07T17:04:51Z</time>
      </trkpt>
      <trkpt lat="44.49644" lon="0.98826">
        <ele>59.39</ele>
        <time>2020-03-07T17:05:01Z</time>
      </trkpt>
      <trkpt lat="44.49648" lon="0.98788">
        <ele>58.6</ele>
        <time>2020-03-07T17:05:10Z</time>
      </trkpt>
      <trkpt lat="44.49648" lon="0.98775">
        <ele>58.62</ele>
        <time>2020-03-07T17:05:13Z</time>
      </trkpt>
      <trkpt lat="44.49648" lon="0.98771">
        <ele>58.63</ele>
        <time>2020-03-07T17:05:14Z</time>
      </trkpt>
      <trkpt lat="44.49646" lon="0.98767">
        <ele>58.62</ele>
        <time>2020-03-07T17:05:15Z</time>
      </trkpt>
      <trkpt lat="44.49644" lon="0.98763">
        <ele>58.61</ele>
        <time>2020-03-07T17:05:16Z</time>
      </trkpt>
      <trkpt lat="44.49642" lon="0.98758">
        <ele>58.61</ele>
        <time>2020-03-07T17:05:17Z</time>
      </trkpt>
      <trkpt lat="44.49629" lon="0.98729">
        <ele>57.8</ele>
        <time>2020-03-07T17:05:23Z</time>
      </trkpt>
      <trkpt lat="44.49626" lon="0.98724">
        <ele>57.82</ele>
        <time>2020-03-07T17:05:24Z</time>
      </trkpt>
      <trkpt lat="44.49615" lon="0.98679">
        <ele>55.39</ele>
        <time>2020-03-07T17:05:35Z</time>
      </trkpt>
      <trkpt lat="44.49636" lon="0.98639">
        <ele>55.47</ele>
        <time>2020-03-07T17:05:47Z</time>
      </trkpt>
      <trkpt lat="44.49638" lon="0.98634">
        <ele>55.49</ele>
        <time>2020-03-07T17:05:50Z</time>
      </trkpt>
      <trkpt lat="44.49639" lon="0.98631">
        <ele>55.49</ele>
        <time>2020-03-07T17:05:51Z</time>
      </trkpt>
      <trkpt lat="44.4964" lon="0.98629">
        <ele>55.5</ele>
        <time>2020-03-07T17:05:52Z</time>
      </trkpt>
      <trkpt lat="44.49642" lon="0.98626">
        <ele>55.5</ele>
        <time>2020-03-07T17:05:53Z</time>
      </trkpt>
      <trkpt lat="44.49643" lon="0.98623">
        <ele>55.5</ele>
        <time>2020-03-07T17:05:54Z</time>
      </trkpt>
      <trkpt lat="44.49645" lon="0.9862">
        <ele>55.5</ele>
        <time>2020-03-07T17:05:55Z</time>
      </trkpt>
      <trkpt lat="44.49664" lon="0.98587">
        <ele>55.51</ele>
        <time>2020-03-07T17:06:06Z</time>
      </trkpt>
      <trkpt lat="44.49677" lon="0.98559">
        <ele>55.5</ele>
        <time>2020-03-07T17:06:14Z</time>
      </trkpt>
      <trkpt lat="44.49678" lon="0.98556">
        <ele>55.5</ele>
        <time>2020-03-07T17:06:15Z</time>
      </trkpt>
      <trkpt lat="44.4968" lon="0.98553">
        <ele>55.5</ele>
        <time>2020-03-07T17:06:16Z</time>
      </trkpt>
      <trkpt lat="44.49682" lon="0.9855">
        <ele>55.5</ele>
        <time>2020-03-07T17:06:17Z</time>
      </trkpt>
      <trkpt lat="44.49683" lon="0.98548">
        <ele>55.5</ele>
        <time>2020-03-07T17:06:18Z</time>
      </trkpt>
      <trkpt lat="44.49703" lon="0.9851">
        <ele>55.49</ele>
        <time>2020-03-07T17:06:30Z</time>
      </trkpt>
      <trkpt lat="44.49727" lon="0.98467">
        <ele>55.47</ele>
        <time>2020-03-07T17:06:43Z</time>
      </trkpt>
      <trkpt lat="44.49734" lon="0.98455">
        <ele>57.72</ele>
        <time>2020-03-07T17:06:47Z</time>
      </trkpt>
      <trkpt lat="44.49754" lon="0.98404">
        <ele>57.69</ele>
        <time>2020-03-07T17:07:00Z</time>
      </trkpt>
      <trkpt lat="44.4977" lon="0.98354">
        <ele>57.67</ele>
        <time>2020-03-07T17:07:13Z</time>
      </trkpt>
      <trkpt lat="44.49784" lon="0.98308">
        <ele>57.67</ele>
        <time>2020-03-07T17:07:24Z</time>
      </trkpt>
      <trkpt lat="44.49792" lon="0.98272">
        <ele>57.61</ele>
        <time>2020-03-07T17:07:34Z</time>
      </trkpt>
      <trkpt lat="44.49794" lon="0.98259">
        <ele>55.39</ele>
        <time>2020-03-07T17:07:46Z</time>
      </trkpt>
      <trkpt lat="44.49793" lon="0.98269">
        <ele>55.41</ele>
        <time>2020-03-07T17:08:00Z</time>
      </trkpt>
      <trkpt lat="44.49791" lon="0.98279">
        <ele>55.42</ele>
        <time>2020-03-07T17:08:09Z</time>
      </trkpt>
      <trkpt lat="44.49788" lon="0.9829">
        <ele>55.44</ele>
        <time>2020-03-07T17:08:14Z</time>
      </trkpt>
      <trkpt lat="44.49778" lon="0.98325">
        <ele>55.45</ele>
        <time>2020-03-07T17:08:29Z</time>
      </trkpt>
      <trkpt lat="44.49773" lon="0.98338">
        <ele>57.77</ele>
        <time>2020-03-07T17:08:34Z</time>
      </trkpt>
      <trkpt lat="44.49772" lon="0.9834">
        <ele>57.76</ele>
        <time>2020-03-07T17:08:35Z</time>
      </trkpt>
      <trkpt lat="44.49771" lon="0.98344">
        <ele>57.77</ele>
        <time>2020-03-07T17:08:37Z</time>
      </trkpt>
      <trkpt lat="44.49777" lon="0.98353">
        <ele>58.62</ele>
        <time>2020-03-07T17:08:43Z</time>
      </trkpt>
      <trkpt lat="44.49786" lon="0.98374">
        <ele>61.14</ele>
        <time>2020-03-07T17:08:54Z</time>
      </trkpt>
      <trkpt lat="44.49795" lon="0.98379">
        <ele>62.17</ele>
        <time>2020-03-07T17:09:03Z</time>
      </trkpt>
      <trkpt lat="44.49806" lon="0.98335">
        <ele>62.04</ele>
        <time>2020-03-07T17:09:17Z</time>
      </trkpt>
      <trkpt lat="44.49819" lon="0.98272">
        <ele>63.63</ele>
        <time>2020-03-07T17:09:35Z</time>
      </trkpt>
      <trkpt lat="44.49838" lon="0.98206">
        <ele>67.13</ele>
        <time>2020-03-07T17:09:56Z</time>
      </trkpt>
      <trkpt lat="44.49852" lon="0.9816">
        <ele>69.62</ele>
        <time>2020-03-07T17:10:12Z</time>
      </trkpt>
      <trkpt lat="44.49861" lon="0.98115">
        <ele>72.38</ele>
        <time>2020-03-07T17:10:28Z</time>
      </trkpt>
      <trkpt lat="44.49864" lon="0.98069">
        <ele>74.97</ele>
        <time>2020-03-07T17:10:44Z</time>
      </trkpt>
      <trkpt lat="44.49865" lon="0.98025">
        <ele>77.56</ele>
        <time>2020-03-07T17:10:59Z</time>
      </trkpt>
      <trkpt lat="44.49869" lon="0.9798">
        <ele>80.02</ele>
        <time>2020-03-07T17:11:15Z</time>
      </trkpt>
      <trkpt lat="44.49872" lon="0.97939">
        <ele>82.77</ele>
        <time>2020-03-07T17:11:29Z</time>
      </trkpt>
      <trkpt lat="44.49871" lon="0.97886">
        <ele>85.4</ele>
        <time>2020-03-07T17:11:47Z</time>
      </trkpt>
      <trkpt lat="44.49865" lon="0.97842">
        <ele>87.85</ele>
        <time>2020-03-07T17:12:03Z</time>
      </trkpt>
      <trkpt lat="44.49862" lon="0.97796">
        <ele>89.81</ele>
        <time>2020-03-07T17:12:19Z</time>
      </trkpt>
      <trkpt lat="44.49858" lon="0.97753">
        <ele>92.5</ele>
        <time>2020-03-07T17:12:34Z</time>
      </trkpt>
      <trkpt lat="44.49852" lon="0.97697">
        <ele>95.98</ele>
        <time>2020-03-07T17:12:53Z</time>
      </trkpt>
      <trkpt lat="44.49841" lon="0.97642">
        <ele>98.51</ele>
        <time>2020-03-07T17:13:12Z</time>
      </trkpt>
      <trkpt lat="44.49834" lon="0.97616">
        <ele>99.35</ele>
        <time>2020-03-07T17:13:21Z</time>
      </trkpt>
      <trkpt lat="44.49834" lon="0.97613">
        <ele>99.34</ele>
        <time>2020-03-07T17:13:22Z</time>
      </trkpt>
      <trkpt lat="44.49825" lon="0.97579">
        <ele>100.16</ele>
        <time>2020-03-07T17:13:34Z</time>
      </trkpt>
      <trkpt lat="44.49813" lon="0.97522">
        <ele>101.1</ele>
        <time>2020-03-07T17:13:48Z</time>
      </trkpt>
      <trkpt lat="44.4981" lon="0.97511">
        <ele>101.1</ele>
        <time>2020-03-07T17:13:50Z</time>
      </trkpt>
      <trkpt lat="44.49806" lon="0.975">
        <ele>101.1</ele>
        <time>2020-03-07T17:13:52Z</time>
      </trkpt>
      <trkpt lat="44.49805" lon="0.97494">
        <ele>101.1</ele>
        <time>2020-03-07T17:13:53Z</time>
      </trkpt>
      <trkpt lat="44.49803" lon="0.97488">
        <ele>101.11</ele>
        <time>2020-03-07T17:13:54Z</time>
      </trkpt>
      <trkpt lat="44.4979" lon="0.97445">
        <ele>98.69</ele>
        <time>2020-03-07T17:14:01Z</time>
      </trkpt>
      <trkpt lat="44.49757" lon="0.97341">
        <ele>96.23</ele>
        <time>2020-03-07T17:14:18Z</time>
      </trkpt>
      <trkpt lat="44.49739" lon="0.97276">
        <ele>95.19</ele>
        <time>2020-03-07T17:14:33Z</time>
      </trkpt>
      <trkpt lat="44.49745" lon="0.97232">
        <ele>95.29</ele>
        <time>2020-03-07T17:14:45Z</time>
      </trkpt>
      <trkpt lat="44.49792" lon="0.97197">
        <ele>95.36</ele>
        <time>2020-03-07T17:15:00Z</time>
      </trkpt>
      <trkpt lat="44.49821" lon="0.97149">
        <ele>95.39</ele>
        <time>2020-03-07T17:15:13Z</time>
      </trkpt>
      <trkpt lat="44.49842" lon="0.97099">
        <ele>95.41</ele>
        <time>2020-03-07T17:15:26Z</time>
      </trkpt>
      <trkpt lat="44.4985" lon="0.97061">
        <ele>97.69</ele>
        <time>2020-03-07T17:15:37Z</time>
      </trkpt>
      <trkpt lat="44.49842" lon="0.97025">
        <ele>100.36</ele>
        <time>2020-03-07T17:15:50Z</time>
      </trkpt>
      <trkpt lat="44.4984" lon="0.96976">
        <ele>102.98</ele>
        <time>2020-03-07T17:16:05Z</time>
      </trkpt>
      <trkpt lat="44.49832" lon="0.96967">
        <ele>103.85</ele>
        <time>2020-03-07T17:16:09Z</time>
      </trkpt>
      <trkpt lat="44.49829" lon="0.96967">
        <ele>103.85</ele>
        <time>2020-03-07T17:16:10Z</time>
      </trkpt>
      <trkpt lat="44.49828" lon="0.96968">
        <ele>103.83</ele>
        <time>2020-03-07T17:16:11Z</time>
      </trkpt>
      <trkpt lat="44.49825" lon="0.96969">
        <ele>104.97</ele>
        <time>2020-03-07T17:16:12Z</time>
      </trkpt>
      <trkpt lat="44.49824" lon="0.96972">
        <ele>105</ele>
        <time>2020-03-07T17:16:13Z</time>
      </trkpt>
      <trkpt lat="44.49823" lon="0.96975">
        <ele>105.01</ele>
        <time>2020-03-07T17:16:14Z</time>
      </trkpt>
      <trkpt lat="44.49823" lon="0.96979">
        <ele>104.99</ele>
        <time>2020-03-07T17:16:15Z</time>
      </trkpt>
      <trkpt lat="44.49824" lon="0.96982">
        <ele>105.87</ele>
        <time>2020-03-07T17:16:16Z</time>
      </trkpt>
      <trkpt lat="44.49823" lon="0.97009">
        <ele>106.7</ele>
        <time>2020-03-07T17:16:24Z</time>
      </trkpt>
      <trkpt lat="44.49822" lon="0.97011">
        <ele>106.7</ele>
        <time>2020-03-07T17:16:25Z</time>
      </trkpt>
      <trkpt lat="44.49819" lon="0.97012">
        <ele>106.71</ele>
        <time>2020-03-07T17:16:26Z</time>
      </trkpt>
      <trkpt lat="44.49817" lon="0.97013">
        <ele>106.71</ele>
        <time>2020-03-07T17:16:27Z</time>
      </trkpt>
      <trkpt lat="44.49814" lon="0.97014">
        <ele>106.71</ele>
        <time>2020-03-07T17:16:28Z</time>
      </trkpt>
      <trkpt lat="44.49812" lon="0.97015">
        <ele>106.71</ele>
        <time>2020-03-07T17:16:29Z</time>
      </trkpt>
      <trkpt lat="44.49809" lon="0.97016">
        <ele>106.72</ele>
        <time>2020-03-07T17:16:30Z</time>
      </trkpt>
      <trkpt lat="44.4979" lon="0.97044">
        <ele>107.52</ele>
        <time>2020-03-07T17:16:42Z</time>
      </trkpt>
      <trkpt lat="44.4978" lon="0.97066">
        <ele>108.33</ele>
        <time>2020-03-07T17:16:55Z</time>
      </trkpt>
      <trkpt lat="44.49781" lon="0.97066">
        <ele>108.37</ele>
        <time>2020-03-07T17:17:17Z</time>
      </trkpt>
      <trkpt lat="44.4978" lon="0.97062">
        <ele>108.44</ele>
        <time>2020-03-07T17:18:22Z</time>
      </trkpt>
      <trkpt lat="44.4978" lon="0.97063">
        <ele>108.51</ele>
        <time>2020-03-07T17:19:25Z</time>
      </trkpt>
      <trkpt lat="44.49782" lon="0.97062">
        <ele>108.53</ele>
        <time>2020-03-07T17:20:28Z</time>
      </trkpt>
      <trkpt lat="44.49781" lon="0.97063">
        <ele>106.97</ele>
        <time>2020-03-07T17:21:36Z</time>
      </trkpt>
      <trkpt lat="44.49781" lon="0.97065">
        <ele>102.65</ele>
        <time>2020-03-07T17:22:02Z</time>
      </trkpt>
    </trkseg>
  </trk>
</gpx>